<?xml version="1.0" encoding="UTF-8" standalone="no" ?>
<gpx xmlns="http://www.topografix.com/GPX/1/1" xmlns:xsi="http://www.w3.org/2001/XMLSchema-instance" xsi:schemaLocation="http://www.topografix.com/GPX/1/1 http://www.topografix.com/GPX/1/1/gpx.xsd" version="1.1" creator="VisuGPX - https://www.visugpx.com">
  <metadata>
    <name>Pornichet 18/10/2020</name>
    <desc><![CDATA[Sortie VTT du dimanche 18 octobre 2020]]></desc>
  </metadata>
  <trk>
    <name><![CDATA[Pornichet Cyclisme]]></name>
    <trkseg>
      <trkpt lat="47.26404" lon="-2.31635">
        <ele>9.1</ele>
        <time>2020-10-18T06:57:19.000Z</time>
      </trkpt>
      <trkpt lat="47.26404" lon="-2.31656">
        <ele>0.60000002384186</ele>
        <time>2020-10-18T06:57:23.000Z</time>
      </trkpt>
      <trkpt lat="47.26404" lon="-2.31662">
        <ele>1.6000000238419</ele>
        <time>2020-10-18T06:57:24.000Z</time>
      </trkpt>
      <trkpt lat="47.26405" lon="-2.31667">
        <ele>1.6000000238419</ele>
        <time>2020-10-18T06:57:25.000Z</time>
      </trkpt>
      <trkpt lat="47.26404" lon="-2.31671">
        <ele>1.6000000238419</ele>
        <time>2020-10-18T06:57:26.000Z</time>
      </trkpt>
      <trkpt lat="47.26398" lon="-2.31676">
        <ele>1.6000000238419</ele>
        <time>2020-10-18T06:57:28.000Z</time>
      </trkpt>
      <trkpt lat="47.26377" lon="-2.31688">
        <ele>1.6000000238419</ele>
        <time>2020-10-18T06:57:33.000Z</time>
      </trkpt>
      <trkpt lat="47.26354" lon="-2.31701">
        <ele>1.6000000238419</ele>
        <time>2020-10-18T06:57:38.000Z</time>
      </trkpt>
      <trkpt lat="47.26349" lon="-2.31704">
        <ele>1.6000000238419</ele>
        <time>2020-10-18T06:57:39.000Z</time>
      </trkpt>
      <trkpt lat="47.26331" lon="-2.31714">
        <ele>0.80000001192093</ele>
        <time>2020-10-18T06:57:43.000Z</time>
      </trkpt>
      <trkpt lat="47.26327" lon="-2.31716">
        <ele>5.5</ele>
        <time>2020-10-18T06:57:44.000Z</time>
      </trkpt>
      <trkpt lat="47.26322" lon="-2.31718">
        <ele>-1</ele>
        <time>2020-10-18T06:57:45.000Z</time>
      </trkpt>
      <trkpt lat="47.26317" lon="-2.3172">
        <ele>-1.7999999523163</ele>
        <time>2020-10-18T06:57:46.000Z</time>
      </trkpt>
      <trkpt lat="47.26313" lon="-2.31723">
        <ele>-2.5999999046326</ele>
        <time>2020-10-18T06:57:47.000Z</time>
      </trkpt>
      <trkpt lat="47.26308" lon="-2.31725">
        <ele>-2.5999999046326</ele>
        <time>2020-10-18T06:57:48.000Z</time>
      </trkpt>
      <trkpt lat="47.26303" lon="-2.31733">
        <ele>-3</ele>
        <time>2020-10-18T06:57:50.000Z</time>
      </trkpt>
      <trkpt lat="47.26302" lon="-2.31738">
        <ele>-3.4000000953674</ele>
        <time>2020-10-18T06:57:51.000Z</time>
      </trkpt>
      <trkpt lat="47.26302" lon="-2.31744">
        <ele>-3.7999999523163</ele>
        <time>2020-10-18T06:57:52.000Z</time>
      </trkpt>
      <trkpt lat="47.26303" lon="-2.31749">
        <ele>-4.1999998092651</ele>
        <time>2020-10-18T06:57:53.000Z</time>
      </trkpt>
      <trkpt lat="47.26304" lon="-2.31754">
        <ele>-4.5999999046326</ele>
        <time>2020-10-18T06:57:54.000Z</time>
      </trkpt>
      <trkpt lat="47.26307" lon="-2.31787">
        <ele>-4.5999999046326</ele>
        <time>2020-10-18T06:58:00.000Z</time>
      </trkpt>
      <trkpt lat="47.26306" lon="-2.3182">
        <ele>-4.5999999046326</ele>
        <time>2020-10-18T06:58:06.000Z</time>
      </trkpt>
      <trkpt lat="47.26302" lon="-2.31858">
        <ele>-4.5999999046326</ele>
        <time>2020-10-18T06:58:12.000Z</time>
      </trkpt>
      <trkpt lat="47.26299" lon="-2.31887">
        <ele>-4.5999999046326</ele>
        <time>2020-10-18T06:58:17.000Z</time>
      </trkpt>
      <trkpt lat="47.26296" lon="-2.31891">
        <ele>-4.5999999046326</ele>
        <time>2020-10-18T06:58:18.000Z</time>
      </trkpt>
      <trkpt lat="47.26293" lon="-2.31894">
        <ele>-4.5999999046326</ele>
        <time>2020-10-18T06:58:19.000Z</time>
      </trkpt>
      <trkpt lat="47.26286" lon="-2.31899">
        <ele>-4.5999999046326</ele>
        <time>2020-10-18T06:58:21.000Z</time>
      </trkpt>
      <trkpt lat="47.26279" lon="-2.31906">
        <ele>-4.5999999046326</ele>
        <time>2020-10-18T06:58:23.000Z</time>
      </trkpt>
      <trkpt lat="47.26265" lon="-2.31929">
        <ele>-4.5999999046326</ele>
        <time>2020-10-18T06:58:28.000Z</time>
      </trkpt>
      <trkpt lat="47.26254" lon="-2.3195">
        <ele>-4.5999999046326</ele>
        <time>2020-10-18T06:58:32.000Z</time>
      </trkpt>
      <trkpt lat="47.26249" lon="-2.3196">
        <ele>-4.5999999046326</ele>
        <time>2020-10-18T06:58:34.000Z</time>
      </trkpt>
      <trkpt lat="47.26244" lon="-2.3197">
        <ele>-5.4000000953674</ele>
        <time>2020-10-18T06:58:37.000Z</time>
      </trkpt>
      <trkpt lat="47.26243" lon="-2.31971">
        <ele>-5.8000001907349</ele>
        <time>2020-10-18T06:58:38.000Z</time>
      </trkpt>
      <trkpt lat="47.26242" lon="-2.31972">
        <ele>-6.1999998092651</ele>
        <time>2020-10-18T06:58:39.000Z</time>
      </trkpt>
      <trkpt lat="47.26241" lon="-2.31973">
        <ele>-6.5999999046326</ele>
        <time>2020-10-18T06:58:40.000Z</time>
      </trkpt>
      <trkpt lat="47.26241" lon="-2.31973">
        <ele>-6.5999999046326</ele>
        <time>2020-10-18T06:58:42.000Z</time>
      </trkpt>
      <trkpt lat="47.26241" lon="-2.31975">
        <ele>-6.5999999046326</ele>
        <time>2020-10-18T06:59:04.000Z</time>
      </trkpt>
      <trkpt lat="47.26239" lon="-2.3198">
        <ele>-6.5999999046326</ele>
        <time>2020-10-18T06:59:06.000Z</time>
      </trkpt>
      <trkpt lat="47.26227" lon="-2.31986">
        <ele>-6.5999999046326</ele>
        <time>2020-10-18T06:59:10.000Z</time>
      </trkpt>
      <trkpt lat="47.26218" lon="-2.31997">
        <ele>-6.5999999046326</ele>
        <time>2020-10-18T06:59:14.000Z</time>
      </trkpt>
      <trkpt lat="47.26204" lon="-2.32012">
        <ele>-6.5999999046326</ele>
        <time>2020-10-18T06:59:19.000Z</time>
      </trkpt>
      <trkpt lat="47.26201" lon="-2.32014">
        <ele>-6.5999999046326</ele>
        <time>2020-10-18T06:59:20.000Z</time>
      </trkpt>
      <trkpt lat="47.262" lon="-2.32017">
        <ele>-6.5999999046326</ele>
        <time>2020-10-18T06:59:21.000Z</time>
      </trkpt>
      <trkpt lat="47.26196" lon="-2.32029">
        <ele>-6.5999999046326</ele>
        <time>2020-10-18T06:59:24.000Z</time>
      </trkpt>
      <trkpt lat="47.26194" lon="-2.32031">
        <ele>-6.5999999046326</ele>
        <time>2020-10-18T06:59:25.000Z</time>
      </trkpt>
      <trkpt lat="47.26187" lon="-2.32032">
        <ele>-6.5999999046326</ele>
        <time>2020-10-18T06:59:28.000Z</time>
      </trkpt>
      <trkpt lat="47.26176" lon="-2.32036">
        <ele>-6.5999999046326</ele>
        <time>2020-10-18T06:59:32.000Z</time>
      </trkpt>
      <trkpt lat="47.26164" lon="-2.32041">
        <ele>-6.5999999046326</ele>
        <time>2020-10-18T06:59:35.000Z</time>
      </trkpt>
      <trkpt lat="47.2616" lon="-2.32044">
        <ele>-6.5999999046326</ele>
        <time>2020-10-18T06:59:36.000Z</time>
      </trkpt>
      <trkpt lat="47.26151" lon="-2.32065">
        <ele>-6.5999999046326</ele>
        <time>2020-10-18T06:59:40.000Z</time>
      </trkpt>
      <trkpt lat="47.26141" lon="-2.32099">
        <ele>-6.5999999046326</ele>
        <time>2020-10-18T06:59:45.000Z</time>
      </trkpt>
      <trkpt lat="47.26138" lon="-2.32112">
        <ele>-6.5999999046326</ele>
        <time>2020-10-18T06:59:47.000Z</time>
      </trkpt>
      <trkpt lat="47.26122" lon="-2.32169">
        <ele>-6.5999999046326</ele>
        <time>2020-10-18T06:59:56.000Z</time>
      </trkpt>
      <trkpt lat="47.26117" lon="-2.32181">
        <ele>-6.5999999046326</ele>
        <time>2020-10-18T06:59:58.000Z</time>
      </trkpt>
      <trkpt lat="47.26107" lon="-2.32204">
        <ele>-6.5999999046326</ele>
        <time>2020-10-18T07:00:02.000Z</time>
      </trkpt>
      <trkpt lat="47.2609" lon="-2.32234">
        <ele>-6.5999999046326</ele>
        <time>2020-10-18T07:00:07.000Z</time>
      </trkpt>
      <trkpt lat="47.26058" lon="-2.32271">
        <ele>-6.5999999046326</ele>
        <time>2020-10-18T07:00:15.000Z</time>
      </trkpt>
      <trkpt lat="47.26033" lon="-2.32299">
        <ele>-6.5999999046326</ele>
        <time>2020-10-18T07:00:21.000Z</time>
      </trkpt>
      <trkpt lat="47.26016" lon="-2.32319">
        <ele>-6.5999999046326</ele>
        <time>2020-10-18T07:00:25.000Z</time>
      </trkpt>
      <trkpt lat="47.25983" lon="-2.3236">
        <ele>-6.5999999046326</ele>
        <time>2020-10-18T07:00:33.000Z</time>
      </trkpt>
      <trkpt lat="47.25949" lon="-2.32402">
        <ele>-6.5999999046326</ele>
        <time>2020-10-18T07:00:41.000Z</time>
      </trkpt>
      <trkpt lat="47.25945" lon="-2.32407">
        <ele>-6.5999999046326</ele>
        <time>2020-10-18T07:00:42.000Z</time>
      </trkpt>
      <trkpt lat="47.25916" lon="-2.32443">
        <ele>-6.5999999046326</ele>
        <time>2020-10-18T07:00:49.000Z</time>
      </trkpt>
      <trkpt lat="47.25895" lon="-2.3247">
        <ele>-6.5999999046326</ele>
        <time>2020-10-18T07:00:55.000Z</time>
      </trkpt>
      <trkpt lat="47.25872" lon="-2.3248">
        <ele>-6.5999999046326</ele>
        <time>2020-10-18T07:01:00.000Z</time>
      </trkpt>
      <trkpt lat="47.25866" lon="-2.3248">
        <ele>-6.5999999046326</ele>
        <time>2020-10-18T07:01:01.000Z</time>
      </trkpt>
      <trkpt lat="47.2585" lon="-2.3248">
        <ele>-6.1999998092651</ele>
        <time>2020-10-18T07:01:04.000Z</time>
      </trkpt>
      <trkpt lat="47.25845" lon="-2.32478">
        <ele>-5.8000001907349</ele>
        <time>2020-10-18T07:01:05.000Z</time>
      </trkpt>
      <trkpt lat="47.25839" lon="-2.32477">
        <ele>-5</ele>
        <time>2020-10-18T07:01:06.000Z</time>
      </trkpt>
      <trkpt lat="47.25834" lon="-2.32474">
        <ele>-4.5999999046326</ele>
        <time>2020-10-18T07:01:07.000Z</time>
      </trkpt>
      <trkpt lat="47.25828" lon="-2.32471">
        <ele>-4.5999999046326</ele>
        <time>2020-10-18T07:01:08.000Z</time>
      </trkpt>
      <trkpt lat="47.25805" lon="-2.32459">
        <ele>-4.5999999046326</ele>
        <time>2020-10-18T07:01:13.000Z</time>
      </trkpt>
      <trkpt lat="47.25798" lon="-2.3246">
        <ele>-4.5999999046326</ele>
        <time>2020-10-18T07:01:17.000Z</time>
      </trkpt>
      <trkpt lat="47.25789" lon="-2.32463">
        <ele>-4.5999999046326</ele>
        <time>2020-10-18T07:01:20.000Z</time>
      </trkpt>
      <trkpt lat="47.25785" lon="-2.32461">
        <ele>-4.5999999046326</ele>
        <time>2020-10-18T07:01:21.000Z</time>
      </trkpt>
      <trkpt lat="47.25777" lon="-2.32446">
        <ele>-4.5999999046326</ele>
        <time>2020-10-18T07:01:24.000Z</time>
      </trkpt>
      <trkpt lat="47.25771" lon="-2.32435">
        <ele>-4.5999999046326</ele>
        <time>2020-10-18T07:01:26.000Z</time>
      </trkpt>
      <trkpt lat="47.25762" lon="-2.32429">
        <ele>-4.5999999046326</ele>
        <time>2020-10-18T07:01:28.000Z</time>
      </trkpt>
      <trkpt lat="47.25751" lon="-2.32428">
        <ele>-4.5999999046326</ele>
        <time>2020-10-18T07:01:30.000Z</time>
      </trkpt>
      <trkpt lat="47.25733" lon="-2.32427">
        <ele>-4.5999999046326</ele>
        <time>2020-10-18T07:01:33.000Z</time>
      </trkpt>
      <trkpt lat="47.25697" lon="-2.32425">
        <ele>-4.5999999046326</ele>
        <time>2020-10-18T07:01:39.000Z</time>
      </trkpt>
      <trkpt lat="47.25671" lon="-2.32423">
        <ele>-4.5999999046326</ele>
        <time>2020-10-18T07:01:44.000Z</time>
      </trkpt>
      <trkpt lat="47.25666" lon="-2.32425">
        <ele>-4.5999999046326</ele>
        <time>2020-10-18T07:01:45.000Z</time>
      </trkpt>
      <trkpt lat="47.25661" lon="-2.32435">
        <ele>-4.5999999046326</ele>
        <time>2020-10-18T07:01:47.000Z</time>
      </trkpt>
      <trkpt lat="47.25665" lon="-2.32456">
        <ele>-4.5999999046326</ele>
        <time>2020-10-18T07:01:50.000Z</time>
      </trkpt>
      <trkpt lat="47.25669" lon="-2.32469">
        <ele>-4.5999999046326</ele>
        <time>2020-10-18T07:01:52.000Z</time>
      </trkpt>
      <trkpt lat="47.25671" lon="-2.32476">
        <ele>-4.1999998092651</ele>
        <time>2020-10-18T07:01:53.000Z</time>
      </trkpt>
      <trkpt lat="47.25673" lon="-2.32483">
        <ele>-3.7999999523163</ele>
        <time>2020-10-18T07:01:54.000Z</time>
      </trkpt>
      <trkpt lat="47.25676" lon="-2.32489">
        <ele>-3</ele>
        <time>2020-10-18T07:01:55.000Z</time>
      </trkpt>
      <trkpt lat="47.25678" lon="-2.32495">
        <ele>-2.4000000953674</ele>
        <time>2020-10-18T07:01:56.000Z</time>
      </trkpt>
      <trkpt lat="47.2568" lon="-2.32501">
        <ele>-2.4000000953674</ele>
        <time>2020-10-18T07:01:57.000Z</time>
      </trkpt>
      <trkpt lat="47.25696" lon="-2.32548">
        <ele>-2</ele>
        <time>2020-10-18T07:02:04.000Z</time>
      </trkpt>
      <trkpt lat="47.25699" lon="-2.32554">
        <ele>-1.6000000238419</ele>
        <time>2020-10-18T07:02:05.000Z</time>
      </trkpt>
      <trkpt lat="47.25701" lon="-2.32561">
        <ele>-1.2000000476837</ele>
        <time>2020-10-18T07:02:06.000Z</time>
      </trkpt>
      <trkpt lat="47.25703" lon="-2.32568">
        <ele>-0.60000002384186</ele>
        <time>2020-10-18T07:02:07.000Z</time>
      </trkpt>
      <trkpt lat="47.25705" lon="-2.32574">
        <ele>-0.20000000298023</ele>
        <time>2020-10-18T07:02:08.000Z</time>
      </trkpt>
      <trkpt lat="47.25714" lon="-2.32604">
        <ele>-0.20000000298023</ele>
        <time>2020-10-18T07:02:13.000Z</time>
      </trkpt>
      <trkpt lat="47.25716" lon="-2.32618">
        <ele>-0.20000000298023</ele>
        <time>2020-10-18T07:02:16.000Z</time>
      </trkpt>
      <trkpt lat="47.25713" lon="-2.32621">
        <ele>-0.20000000298023</ele>
        <time>2020-10-18T07:02:17.000Z</time>
      </trkpt>
      <trkpt lat="47.25692" lon="-2.32629">
        <ele>-0.20000000298023</ele>
        <time>2020-10-18T07:02:22.000Z</time>
      </trkpt>
      <trkpt lat="47.25683" lon="-2.32633">
        <ele>0.20000000298023</ele>
        <time>2020-10-18T07:02:24.000Z</time>
      </trkpt>
      <trkpt lat="47.25678" lon="-2.32635">
        <ele>0.60000002384186</ele>
        <time>2020-10-18T07:02:25.000Z</time>
      </trkpt>
      <trkpt lat="47.25673" lon="-2.32637">
        <ele>1</ele>
        <time>2020-10-18T07:02:26.000Z</time>
      </trkpt>
      <trkpt lat="47.25669" lon="-2.32639">
        <ele>1.3999999761581</ele>
        <time>2020-10-18T07:02:27.000Z</time>
      </trkpt>
      <trkpt lat="47.25664" lon="-2.32641">
        <ele>1.7999999523163</ele>
        <time>2020-10-18T07:02:28.000Z</time>
      </trkpt>
      <trkpt lat="47.25626" lon="-2.32657">
        <ele>1.7999999523163</ele>
        <time>2020-10-18T07:02:36.000Z</time>
      </trkpt>
      <trkpt lat="47.2562" lon="-2.32659">
        <ele>2.2000000476837</ele>
        <time>2020-10-18T07:02:37.000Z</time>
      </trkpt>
      <trkpt lat="47.25616" lon="-2.32661">
        <ele>2.5999999046326</ele>
        <time>2020-10-18T07:02:38.000Z</time>
      </trkpt>
      <trkpt lat="47.25611" lon="-2.32664">
        <ele>3</ele>
        <time>2020-10-18T07:02:39.000Z</time>
      </trkpt>
      <trkpt lat="47.25606" lon="-2.32666">
        <ele>3.4000000953674</ele>
        <time>2020-10-18T07:02:40.000Z</time>
      </trkpt>
      <trkpt lat="47.25601" lon="-2.32667">
        <ele>3.7999999523163</ele>
        <time>2020-10-18T07:02:41.000Z</time>
      </trkpt>
      <trkpt lat="47.25587" lon="-2.32673">
        <ele>3.7999999523163</ele>
        <time>2020-10-18T07:02:44.000Z</time>
      </trkpt>
      <trkpt lat="47.25557" lon="-2.32686">
        <ele>3.7999999523163</ele>
        <time>2020-10-18T07:02:50.000Z</time>
      </trkpt>
      <trkpt lat="47.25525" lon="-2.327">
        <ele>3.7999999523163</ele>
        <time>2020-10-18T07:02:56.000Z</time>
      </trkpt>
      <trkpt lat="47.25519" lon="-2.32701">
        <ele>3.7999999523163</ele>
        <time>2020-10-18T07:02:57.000Z</time>
      </trkpt>
      <trkpt lat="47.25496" lon="-2.32702">
        <ele>3.7999999523163</ele>
        <time>2020-10-18T07:03:01.000Z</time>
      </trkpt>
      <trkpt lat="47.25485" lon="-2.32706">
        <ele>3.7999999523163</ele>
        <time>2020-10-18T07:03:03.000Z</time>
      </trkpt>
      <trkpt lat="47.25465" lon="-2.32725">
        <ele>3.7999999523163</ele>
        <time>2020-10-18T07:03:07.000Z</time>
      </trkpt>
      <trkpt lat="47.25437" lon="-2.32769">
        <ele>3.7999999523163</ele>
        <time>2020-10-18T07:03:12.000Z</time>
      </trkpt>
      <trkpt lat="47.25429" lon="-2.32789">
        <ele>3.7999999523163</ele>
        <time>2020-10-18T07:03:14.000Z</time>
      </trkpt>
      <trkpt lat="47.25429" lon="-2.32789">
        <ele>3.7999999523163</ele>
        <time>2020-10-18T07:03:17.000Z</time>
      </trkpt>
      <trkpt lat="47.25421" lon="-2.32802">
        <ele>3.7999999523163</ele>
        <time>2020-10-18T07:03:19.000Z</time>
      </trkpt>
      <trkpt lat="47.25407" lon="-2.32821">
        <ele>3.7999999523163</ele>
        <time>2020-10-18T07:03:22.000Z</time>
      </trkpt>
      <trkpt lat="47.25367" lon="-2.32867">
        <ele>3.7999999523163</ele>
        <time>2020-10-18T07:03:30.000Z</time>
      </trkpt>
      <trkpt lat="47.25322" lon="-2.32913">
        <ele>3.7999999523163</ele>
        <time>2020-10-18T07:03:39.000Z</time>
      </trkpt>
      <trkpt lat="47.25317" lon="-2.32918">
        <ele>3.7999999523163</ele>
        <time>2020-10-18T07:03:40.000Z</time>
      </trkpt>
      <trkpt lat="47.25312" lon="-2.32923">
        <ele>3.7999999523163</ele>
        <time>2020-10-18T07:03:41.000Z</time>
      </trkpt>
      <trkpt lat="47.25309" lon="-2.32938">
        <ele>3.7999999523163</ele>
        <time>2020-10-18T07:03:43.000Z</time>
      </trkpt>
      <trkpt lat="47.25315" lon="-2.32961">
        <ele>3.7999999523163</ele>
        <time>2020-10-18T07:03:46.000Z</time>
      </trkpt>
      <trkpt lat="47.25318" lon="-2.32969">
        <ele>3.7999999523163</ele>
        <time>2020-10-18T07:03:47.000Z</time>
      </trkpt>
      <trkpt lat="47.25341" lon="-2.33028">
        <ele>3.7999999523163</ele>
        <time>2020-10-18T07:03:55.000Z</time>
      </trkpt>
      <trkpt lat="47.25351" lon="-2.33058">
        <ele>3.4000000953674</ele>
        <time>2020-10-18T07:03:59.000Z</time>
      </trkpt>
      <trkpt lat="47.25354" lon="-2.33065">
        <ele>3</ele>
        <time>2020-10-18T07:04:00.000Z</time>
      </trkpt>
      <trkpt lat="47.25356" lon="-2.33072">
        <ele>2.5999999046326</ele>
        <time>2020-10-18T07:04:01.000Z</time>
      </trkpt>
      <trkpt lat="47.25358" lon="-2.33077">
        <ele>2.2000000476837</ele>
        <time>2020-10-18T07:04:02.000Z</time>
      </trkpt>
      <trkpt lat="47.2536" lon="-2.33081">
        <ele>1.7999999523163</ele>
        <time>2020-10-18T07:04:03.000Z</time>
      </trkpt>
      <trkpt lat="47.25362" lon="-2.33087">
        <ele>1.7999999523163</ele>
        <time>2020-10-18T07:04:06.000Z</time>
      </trkpt>
      <trkpt lat="47.25362" lon="-2.33087">
        <ele>1.7999999523163</ele>
        <time>2020-10-18T07:04:07.000Z</time>
      </trkpt>
      <trkpt lat="47.25366" lon="-2.33092">
        <ele>1.7999999523163</ele>
        <time>2020-10-18T07:09:11.000Z</time>
      </trkpt>
      <trkpt lat="47.25369" lon="-2.33098">
        <ele>1.7999999523163</ele>
        <time>2020-10-18T07:09:14.000Z</time>
      </trkpt>
      <trkpt lat="47.25376" lon="-2.33117">
        <ele>1.7999999523163</ele>
        <time>2020-10-18T07:09:20.000Z</time>
      </trkpt>
      <trkpt lat="47.2539" lon="-2.33136">
        <ele>1.7999999523163</ele>
        <time>2020-10-18T07:09:26.000Z</time>
      </trkpt>
      <trkpt lat="47.25404" lon="-2.33128">
        <ele>1.7999999523163</ele>
        <time>2020-10-18T07:09:30.000Z</time>
      </trkpt>
      <trkpt lat="47.25433" lon="-2.33116">
        <ele>1.7999999523163</ele>
        <time>2020-10-18T07:09:37.000Z</time>
      </trkpt>
      <trkpt lat="47.25479" lon="-2.33096">
        <ele>1.7999999523163</ele>
        <time>2020-10-18T07:09:47.000Z</time>
      </trkpt>
      <trkpt lat="47.25489" lon="-2.33085">
        <ele>1.7999999523163</ele>
        <time>2020-10-18T07:09:50.000Z</time>
      </trkpt>
      <trkpt lat="47.25496" lon="-2.33078">
        <ele>1.7999999523163</ele>
        <time>2020-10-18T07:09:52.000Z</time>
      </trkpt>
      <trkpt lat="47.25503" lon="-2.33069">
        <ele>1.7999999523163</ele>
        <time>2020-10-18T07:09:54.000Z</time>
      </trkpt>
      <trkpt lat="47.25516" lon="-2.33054">
        <ele>1.7999999523163</ele>
        <time>2020-10-18T07:09:58.000Z</time>
      </trkpt>
      <trkpt lat="47.25533" lon="-2.33044">
        <ele>1.7999999523163</ele>
        <time>2020-10-18T07:10:03.000Z</time>
      </trkpt>
      <trkpt lat="47.25555" lon="-2.33039">
        <ele>1.7999999523163</ele>
        <time>2020-10-18T07:10:09.000Z</time>
      </trkpt>
      <trkpt lat="47.25566" lon="-2.33036">
        <ele>2.2000000476837</ele>
        <time>2020-10-18T07:10:12.000Z</time>
      </trkpt>
      <trkpt lat="47.2557" lon="-2.33035">
        <ele>2.7999999523163</ele>
        <time>2020-10-18T07:10:13.000Z</time>
      </trkpt>
      <trkpt lat="47.25574" lon="-2.33035">
        <ele>3.2000000476837</ele>
        <time>2020-10-18T07:10:14.000Z</time>
      </trkpt>
      <trkpt lat="47.25577" lon="-2.33034">
        <ele>3.5999999046326</ele>
        <time>2020-10-18T07:10:15.000Z</time>
      </trkpt>
      <trkpt lat="47.25581" lon="-2.33033">
        <ele>4</ele>
        <time>2020-10-18T07:10:16.000Z</time>
      </trkpt>
      <trkpt lat="47.25607" lon="-2.33029">
        <ele>4</ele>
        <time>2020-10-18T07:10:23.000Z</time>
      </trkpt>
      <trkpt lat="47.25618" lon="-2.33019">
        <ele>4</ele>
        <time>2020-10-18T07:10:27.000Z</time>
      </trkpt>
      <trkpt lat="47.25618" lon="-2.33013">
        <ele>4</ele>
        <time>2020-10-18T07:10:28.000Z</time>
      </trkpt>
      <trkpt lat="47.25616" lon="-2.33001">
        <ele>4</ele>
        <time>2020-10-18T07:10:30.000Z</time>
      </trkpt>
      <trkpt lat="47.25614" lon="-2.32989">
        <ele>4</ele>
        <time>2020-10-18T07:10:32.000Z</time>
      </trkpt>
      <trkpt lat="47.25612" lon="-2.32979">
        <ele>4.4000000953674</ele>
        <time>2020-10-18T07:10:34.000Z</time>
      </trkpt>
      <trkpt lat="47.25611" lon="-2.32973">
        <ele>5</ele>
        <time>2020-10-18T07:10:35.000Z</time>
      </trkpt>
      <trkpt lat="47.2561" lon="-2.32967">
        <ele>5.4000000953674</ele>
        <time>2020-10-18T07:10:36.000Z</time>
      </trkpt>
      <trkpt lat="47.25609" lon="-2.32962">
        <ele>5.8000001907349</ele>
        <time>2020-10-18T07:10:37.000Z</time>
      </trkpt>
      <trkpt lat="47.25608" lon="-2.32956">
        <ele>6.1999998092651</ele>
        <time>2020-10-18T07:10:38.000Z</time>
      </trkpt>
      <trkpt lat="47.25606" lon="-2.32939">
        <ele>6.1999998092651</ele>
        <time>2020-10-18T07:10:41.000Z</time>
      </trkpt>
      <trkpt lat="47.25603" lon="-2.32921">
        <ele>6.1999998092651</ele>
        <time>2020-10-18T07:10:44.000Z</time>
      </trkpt>
      <trkpt lat="47.25596" lon="-2.32873">
        <ele>6.1999998092651</ele>
        <time>2020-10-18T07:10:52.000Z</time>
      </trkpt>
      <trkpt lat="47.25592" lon="-2.32836">
        <ele>6.1999998092651</ele>
        <time>2020-10-18T07:10:58.000Z</time>
      </trkpt>
      <trkpt lat="47.25592" lon="-2.32823">
        <ele>6.1999998092651</ele>
        <time>2020-10-18T07:11:00.000Z</time>
      </trkpt>
      <trkpt lat="47.25596" lon="-2.32803">
        <ele>6.1999998092651</ele>
        <time>2020-10-18T07:11:03.000Z</time>
      </trkpt>
      <trkpt lat="47.25599" lon="-2.32783">
        <ele>6.1999998092651</ele>
        <time>2020-10-18T07:11:06.000Z</time>
      </trkpt>
      <trkpt lat="47.25601" lon="-2.32742">
        <ele>6.5999999046326</ele>
        <time>2020-10-18T07:11:12.000Z</time>
      </trkpt>
      <trkpt lat="47.25601" lon="-2.32735">
        <ele>7</ele>
        <time>2020-10-18T07:11:13.000Z</time>
      </trkpt>
      <trkpt lat="47.25602" lon="-2.32728">
        <ele>7.4000000953674</ele>
        <time>2020-10-18T07:11:14.000Z</time>
      </trkpt>
      <trkpt lat="47.25602" lon="-2.32722">
        <ele>7.8000001907349</ele>
        <time>2020-10-18T07:11:15.000Z</time>
      </trkpt>
      <trkpt lat="47.25602" lon="-2.32715">
        <ele>8.1999998092651</ele>
        <time>2020-10-18T07:11:16.000Z</time>
      </trkpt>
      <trkpt lat="47.25603" lon="-2.32688">
        <ele>8.1999998092651</ele>
        <time>2020-10-18T07:11:20.000Z</time>
      </trkpt>
      <trkpt lat="47.25608" lon="-2.3267">
        <ele>8.1999998092651</ele>
        <time>2020-10-18T07:11:24.000Z</time>
      </trkpt>
      <trkpt lat="47.25621" lon="-2.32658">
        <ele>8.1999998092651</ele>
        <time>2020-10-18T07:11:28.000Z</time>
      </trkpt>
      <trkpt lat="47.25625" lon="-2.32656">
        <ele>8.1999998092651</ele>
        <time>2020-10-18T07:11:29.000Z</time>
      </trkpt>
      <trkpt lat="47.25654" lon="-2.32644">
        <ele>8.1999998092651</ele>
        <time>2020-10-18T07:11:35.000Z</time>
      </trkpt>
      <trkpt lat="47.25693" lon="-2.32626">
        <ele>8.1999998092651</ele>
        <time>2020-10-18T07:11:42.000Z</time>
      </trkpt>
      <trkpt lat="47.25703" lon="-2.32623">
        <ele>7.8000001907349</ele>
        <time>2020-10-18T07:11:44.000Z</time>
      </trkpt>
      <trkpt lat="47.25707" lon="-2.32619">
        <ele>7.4000000953674</ele>
        <time>2020-10-18T07:11:45.000Z</time>
      </trkpt>
      <trkpt lat="47.25709" lon="-2.32614">
        <ele>7</ele>
        <time>2020-10-18T07:11:46.000Z</time>
      </trkpt>
      <trkpt lat="47.25711" lon="-2.32608">
        <ele>6</ele>
        <time>2020-10-18T07:11:47.000Z</time>
      </trkpt>
      <trkpt lat="47.25709" lon="-2.32594">
        <ele>6</ele>
        <time>2020-10-18T07:11:49.000Z</time>
      </trkpt>
      <trkpt lat="47.25707" lon="-2.32587">
        <ele>6</ele>
        <time>2020-10-18T07:11:50.000Z</time>
      </trkpt>
      <trkpt lat="47.25698" lon="-2.32559">
        <ele>5.5999999046326</ele>
        <time>2020-10-18T07:11:54.000Z</time>
      </trkpt>
      <trkpt lat="47.25696" lon="-2.32552">
        <ele>5.1999998092651</ele>
        <time>2020-10-18T07:11:55.000Z</time>
      </trkpt>
      <trkpt lat="47.25693" lon="-2.32544">
        <ele>4.8000001907349</ele>
        <time>2020-10-18T07:11:56.000Z</time>
      </trkpt>
      <trkpt lat="47.25691" lon="-2.32537">
        <ele>4.4000000953674</ele>
        <time>2020-10-18T07:11:57.000Z</time>
      </trkpt>
      <trkpt lat="47.25688" lon="-2.32528">
        <ele>4</ele>
        <time>2020-10-18T07:11:58.000Z</time>
      </trkpt>
      <trkpt lat="47.25678" lon="-2.32495">
        <ele>4</ele>
        <time>2020-10-18T07:12:02.000Z</time>
      </trkpt>
      <trkpt lat="47.25671" lon="-2.32471">
        <ele>3.5999999046326</ele>
        <time>2020-10-18T07:12:05.000Z</time>
      </trkpt>
      <trkpt lat="47.25668" lon="-2.32462">
        <ele>3.2000000476837</ele>
        <time>2020-10-18T07:12:06.000Z</time>
      </trkpt>
      <trkpt lat="47.25666" lon="-2.32454">
        <ele>2.7999999523163</ele>
        <time>2020-10-18T07:12:07.000Z</time>
      </trkpt>
      <trkpt lat="47.25664" lon="-2.32446">
        <ele>2.4000000953674</ele>
        <time>2020-10-18T07:12:08.000Z</time>
      </trkpt>
      <trkpt lat="47.25662" lon="-2.32437">
        <ele>2</ele>
        <time>2020-10-18T07:12:09.000Z</time>
      </trkpt>
      <trkpt lat="47.2566" lon="-2.32429">
        <ele>2</ele>
        <time>2020-10-18T07:12:10.000Z</time>
      </trkpt>
      <trkpt lat="47.25655" lon="-2.32409">
        <ele>2</ele>
        <time>2020-10-18T07:12:13.000Z</time>
      </trkpt>
      <trkpt lat="47.25657" lon="-2.32404">
        <ele>2</ele>
        <time>2020-10-18T07:12:14.000Z</time>
      </trkpt>
      <trkpt lat="47.25665" lon="-2.32404">
        <ele>2</ele>
        <time>2020-10-18T07:12:16.000Z</time>
      </trkpt>
      <trkpt lat="47.25677" lon="-2.32416">
        <ele>2</ele>
        <time>2020-10-18T07:12:19.000Z</time>
      </trkpt>
      <trkpt lat="47.25695" lon="-2.32421">
        <ele>2</ele>
        <time>2020-10-18T07:12:22.000Z</time>
      </trkpt>
      <trkpt lat="47.25732" lon="-2.32423">
        <ele>2</ele>
        <time>2020-10-18T07:12:28.000Z</time>
      </trkpt>
      <trkpt lat="47.25749" lon="-2.32423">
        <ele>1.6000000238419</ele>
        <time>2020-10-18T07:12:31.000Z</time>
      </trkpt>
      <trkpt lat="47.25754" lon="-2.32423">
        <ele>1.2000000476837</ele>
        <time>2020-10-18T07:12:32.000Z</time>
      </trkpt>
      <trkpt lat="47.25758" lon="-2.32422">
        <ele>0.80000001192093</ele>
        <time>2020-10-18T07:12:33.000Z</time>
      </trkpt>
      <trkpt lat="47.25762" lon="-2.3242">
        <ele>0.40000000596046</ele>
        <time>2020-10-18T07:12:34.000Z</time>
      </trkpt>
      <trkpt lat="47.25766" lon="-2.32417">
        <ele>4.6</ele>
        <time>2020-10-18T07:12:35.000Z</time>
      </trkpt>
      <trkpt lat="47.25778" lon="-2.32414">
        <ele>5.2</ele>
        <time>2020-10-18T07:12:38.000Z</time>
      </trkpt>
      <trkpt lat="47.25788" lon="-2.32427">
        <ele>5.3</ele>
        <time>2020-10-18T07:12:41.000Z</time>
      </trkpt>
      <trkpt lat="47.2579" lon="-2.32432">
        <ele>5.2</ele>
        <time>2020-10-18T07:12:42.000Z</time>
      </trkpt>
      <trkpt lat="47.25806" lon="-2.3246">
        <ele>4</ele>
        <time>2020-10-18T07:12:47.000Z</time>
      </trkpt>
      <trkpt lat="47.25809" lon="-2.32467">
        <ele>4</ele>
        <time>2020-10-18T07:12:48.000Z</time>
      </trkpt>
      <trkpt lat="47.25827" lon="-2.32495">
        <ele>4</ele>
        <time>2020-10-18T07:12:53.000Z</time>
      </trkpt>
      <trkpt lat="47.25831" lon="-2.32501">
        <ele>4</ele>
        <time>2020-10-18T07:12:54.000Z</time>
      </trkpt>
      <trkpt lat="47.25834" lon="-2.32506">
        <ele>4</ele>
        <time>2020-10-18T07:12:55.000Z</time>
      </trkpt>
      <trkpt lat="47.2585" lon="-2.32529">
        <ele>4</ele>
        <time>2020-10-18T07:12:59.000Z</time>
      </trkpt>
      <trkpt lat="47.25877" lon="-2.32569">
        <ele>4</ele>
        <time>2020-10-18T07:13:06.000Z</time>
      </trkpt>
      <trkpt lat="47.25888" lon="-2.32585">
        <ele>4</ele>
        <time>2020-10-18T07:13:09.000Z</time>
      </trkpt>
      <trkpt lat="47.25893" lon="-2.32589">
        <ele>4</ele>
        <time>2020-10-18T07:13:10.000Z</time>
      </trkpt>
      <trkpt lat="47.25903" lon="-2.32598">
        <ele>4</ele>
        <time>2020-10-18T07:13:12.000Z</time>
      </trkpt>
      <trkpt lat="47.25916" lon="-2.32615">
        <ele>4</ele>
        <time>2020-10-18T07:13:15.000Z</time>
      </trkpt>
      <trkpt lat="47.25947" lon="-2.32652">
        <ele>3.5</ele>
        <time>2020-10-18T07:13:22.000Z</time>
      </trkpt>
      <trkpt lat="47.2597" lon="-2.32658">
        <ele>3</ele>
        <time>2020-10-18T07:13:26.000Z</time>
      </trkpt>
      <trkpt lat="47.25987" lon="-2.32659">
        <ele>3.5</ele>
        <time>2020-10-18T07:13:29.000Z</time>
      </trkpt>
      <trkpt lat="47.25992" lon="-2.32658">
        <ele>3.7</ele>
        <time>2020-10-18T07:13:30.000Z</time>
      </trkpt>
      <trkpt lat="47.2601" lon="-2.32656">
        <ele>3.7</ele>
        <time>2020-10-18T07:13:33.000Z</time>
      </trkpt>
      <trkpt lat="47.26054" lon="-2.32648">
        <ele>4</ele>
        <time>2020-10-18T07:13:41.000Z</time>
      </trkpt>
      <trkpt lat="47.26102" lon="-2.3264">
        <ele>5.3</ele>
        <time>2020-10-18T07:13:50.000Z</time>
      </trkpt>
      <trkpt lat="47.26143" lon="-2.32644">
        <ele>0.40000000596046</ele>
        <time>2020-10-18T07:13:58.000Z</time>
      </trkpt>
      <trkpt lat="47.26149" lon="-2.32645">
        <ele>0.80000001192093</ele>
        <time>2020-10-18T07:13:59.000Z</time>
      </trkpt>
      <trkpt lat="47.26153" lon="-2.32647">
        <ele>1.2000000476837</ele>
        <time>2020-10-18T07:14:00.000Z</time>
      </trkpt>
      <trkpt lat="47.26158" lon="-2.32649">
        <ele>1.6000000238419</ele>
        <time>2020-10-18T07:14:01.000Z</time>
      </trkpt>
      <trkpt lat="47.26163" lon="-2.32652">
        <ele>2</ele>
        <time>2020-10-18T07:14:02.000Z</time>
      </trkpt>
      <trkpt lat="47.26183" lon="-2.32664">
        <ele>2</ele>
        <time>2020-10-18T07:14:06.000Z</time>
      </trkpt>
      <trkpt lat="47.2621" lon="-2.32692">
        <ele>2</ele>
        <time>2020-10-18T07:14:13.000Z</time>
      </trkpt>
      <trkpt lat="47.26231" lon="-2.32724">
        <ele>2</ele>
        <time>2020-10-18T07:14:20.000Z</time>
      </trkpt>
      <trkpt lat="47.26261" lon="-2.3277">
        <ele>2</ele>
        <time>2020-10-18T07:14:29.000Z</time>
      </trkpt>
      <trkpt lat="47.26269" lon="-2.32787">
        <ele>1.6000000238419</ele>
        <time>2020-10-18T07:14:32.000Z</time>
      </trkpt>
      <trkpt lat="47.26272" lon="-2.32794">
        <ele>1.2000000476837</ele>
        <time>2020-10-18T07:14:33.000Z</time>
      </trkpt>
      <trkpt lat="47.26275" lon="-2.32801">
        <ele>0.80000001192093</ele>
        <time>2020-10-18T07:14:34.000Z</time>
      </trkpt>
      <trkpt lat="47.26278" lon="-2.32809">
        <ele>0.40000000596046</ele>
        <time>2020-10-18T07:14:35.000Z</time>
      </trkpt>
      <trkpt lat="47.2628" lon="-2.32816">
        <ele>3.1</ele>
        <time>2020-10-18T07:14:36.000Z</time>
      </trkpt>
      <trkpt lat="47.26292" lon="-2.32854">
        <ele>2.8</ele>
        <time>2020-10-18T07:14:41.000Z</time>
      </trkpt>
      <trkpt lat="47.26296" lon="-2.32859">
        <ele>2.8</ele>
        <time>2020-10-18T07:14:42.000Z</time>
      </trkpt>
      <trkpt lat="47.26313" lon="-2.32866">
        <ele>2.6</ele>
        <time>2020-10-18T07:14:45.000Z</time>
      </trkpt>
      <trkpt lat="47.26323" lon="-2.32885">
        <ele>2.1</ele>
        <time>2020-10-18T07:14:48.000Z</time>
      </trkpt>
      <trkpt lat="47.26325" lon="-2.32892">
        <ele>2.1</ele>
        <time>2020-10-18T07:14:49.000Z</time>
      </trkpt>
      <trkpt lat="47.26345" lon="-2.32953">
        <ele>2.4</ele>
        <time>2020-10-18T07:14:57.000Z</time>
      </trkpt>
      <trkpt lat="47.26354" lon="-2.32975">
        <ele>2.8</ele>
        <time>2020-10-18T07:15:00.000Z</time>
      </trkpt>
      <trkpt lat="47.26363" lon="-2.32986">
        <ele>3</ele>
        <time>2020-10-18T07:15:02.000Z</time>
      </trkpt>
      <trkpt lat="47.26368" lon="-2.3301">
        <ele>2.7</ele>
        <time>2020-10-18T07:15:05.000Z</time>
      </trkpt>
      <trkpt lat="47.26368" lon="-2.33027">
        <ele>2.3</ele>
        <time>2020-10-18T07:15:07.000Z</time>
      </trkpt>
      <trkpt lat="47.2637" lon="-2.33078">
        <ele>2.3</ele>
        <time>2020-10-18T07:15:13.000Z</time>
      </trkpt>
      <trkpt lat="47.26375" lon="-2.33146">
        <ele>2</ele>
        <time>2020-10-18T07:15:21.000Z</time>
      </trkpt>
      <trkpt lat="47.26379" lon="-2.33224">
        <ele>2.6</ele>
        <time>2020-10-18T07:15:30.000Z</time>
      </trkpt>
      <trkpt lat="47.26382" lon="-2.33249">
        <ele>2.8</ele>
        <time>2020-10-18T07:15:33.000Z</time>
      </trkpt>
      <trkpt lat="47.26389" lon="-2.33261">
        <ele>2.6</ele>
        <time>2020-10-18T07:15:35.000Z</time>
      </trkpt>
      <trkpt lat="47.26407" lon="-2.33268">
        <ele>2.5</ele>
        <time>2020-10-18T07:15:38.000Z</time>
      </trkpt>
      <trkpt lat="47.26418" lon="-2.33269">
        <ele>2.7</ele>
        <time>2020-10-18T07:15:40.000Z</time>
      </trkpt>
      <trkpt lat="47.26458" lon="-2.33274">
        <ele>3</ele>
        <time>2020-10-18T07:15:47.000Z</time>
      </trkpt>
      <trkpt lat="47.2648" lon="-2.33279">
        <ele>3</ele>
        <time>2020-10-18T07:15:52.000Z</time>
      </trkpt>
      <trkpt lat="47.26492" lon="-2.33281">
        <ele>3.1</ele>
        <time>2020-10-18T07:15:55.000Z</time>
      </trkpt>
      <trkpt lat="47.26501" lon="-2.33281">
        <ele>3.1</ele>
        <time>2020-10-18T07:15:57.000Z</time>
      </trkpt>
      <trkpt lat="47.26519" lon="-2.33289">
        <ele>3.1</ele>
        <time>2020-10-18T07:16:01.000Z</time>
      </trkpt>
      <trkpt lat="47.26529" lon="-2.33289">
        <ele>3</ele>
        <time>2020-10-18T07:16:03.000Z</time>
      </trkpt>
      <trkpt lat="47.26532" lon="-2.33291">
        <ele>3.1</ele>
        <time>2020-10-18T07:16:04.000Z</time>
      </trkpt>
      <trkpt lat="47.26535" lon="-2.33296">
        <ele>3.1</ele>
        <time>2020-10-18T07:16:05.000Z</time>
      </trkpt>
      <trkpt lat="47.26545" lon="-2.33297">
        <ele>3.2</ele>
        <time>2020-10-18T07:16:08.000Z</time>
      </trkpt>
      <trkpt lat="47.26551" lon="-2.33289">
        <ele>3.5</ele>
        <time>2020-10-18T07:16:10.000Z</time>
      </trkpt>
      <trkpt lat="47.26557" lon="-2.33281">
        <ele>3.9</ele>
        <time>2020-10-18T07:16:12.000Z</time>
      </trkpt>
      <trkpt lat="47.26582" lon="-2.33255">
        <ele>4</ele>
        <time>2020-10-18T07:16:18.000Z</time>
      </trkpt>
      <trkpt lat="47.26622" lon="-2.33216">
        <ele>3.9</ele>
        <time>2020-10-18T07:16:27.000Z</time>
      </trkpt>
      <trkpt lat="47.26651" lon="-2.33185">
        <ele>3.5</ele>
        <time>2020-10-18T07:16:34.000Z</time>
      </trkpt>
      <trkpt lat="47.26681" lon="-2.33155">
        <ele>3.8</ele>
        <time>2020-10-18T07:16:41.000Z</time>
      </trkpt>
      <trkpt lat="47.2671" lon="-2.33124">
        <ele>3.8</ele>
        <time>2020-10-18T07:16:48.000Z</time>
      </trkpt>
      <trkpt lat="47.26734" lon="-2.331">
        <ele>3.8</ele>
        <time>2020-10-18T07:16:54.000Z</time>
      </trkpt>
      <trkpt lat="47.26738" lon="-2.33097">
        <ele>0.40000000596046</ele>
        <time>2020-10-18T07:16:55.000Z</time>
      </trkpt>
      <trkpt lat="47.26741" lon="-2.33093">
        <ele>0.80000001192093</ele>
        <time>2020-10-18T07:16:56.000Z</time>
      </trkpt>
      <trkpt lat="47.26744" lon="-2.33089">
        <ele>1.2000000476837</ele>
        <time>2020-10-18T07:16:57.000Z</time>
      </trkpt>
      <trkpt lat="47.26748" lon="-2.33086">
        <ele>1.6000000238419</ele>
        <time>2020-10-18T07:16:58.000Z</time>
      </trkpt>
      <trkpt lat="47.26752" lon="-2.33085">
        <ele>2</ele>
        <time>2020-10-18T07:16:59.000Z</time>
      </trkpt>
      <trkpt lat="47.26756" lon="-2.33086">
        <ele>2</ele>
        <time>2020-10-18T07:17:00.000Z</time>
      </trkpt>
      <trkpt lat="47.26759" lon="-2.33089">
        <ele>2</ele>
        <time>2020-10-18T07:17:01.000Z</time>
      </trkpt>
      <trkpt lat="47.26762" lon="-2.33101">
        <ele>2</ele>
        <time>2020-10-18T07:17:03.000Z</time>
      </trkpt>
      <trkpt lat="47.26765" lon="-2.33117">
        <ele>2</ele>
        <time>2020-10-18T07:17:05.000Z</time>
      </trkpt>
      <trkpt lat="47.26765" lon="-2.33124">
        <ele>2</ele>
        <time>2020-10-18T07:17:06.000Z</time>
      </trkpt>
      <trkpt lat="47.26765" lon="-2.33132">
        <ele>2</ele>
        <time>2020-10-18T07:17:07.000Z</time>
      </trkpt>
      <trkpt lat="47.26757" lon="-2.33163">
        <ele>2</ele>
        <time>2020-10-18T07:17:11.000Z</time>
      </trkpt>
      <trkpt lat="47.26746" lon="-2.33198">
        <ele>2</ele>
        <time>2020-10-18T07:17:16.000Z</time>
      </trkpt>
      <trkpt lat="47.26731" lon="-2.3325">
        <ele>2</ele>
        <time>2020-10-18T07:17:23.000Z</time>
      </trkpt>
      <trkpt lat="47.26729" lon="-2.33267">
        <ele>2</ele>
        <time>2020-10-18T07:17:25.000Z</time>
      </trkpt>
      <trkpt lat="47.2673" lon="-2.33283">
        <ele>2</ele>
        <time>2020-10-18T07:17:27.000Z</time>
      </trkpt>
      <trkpt lat="47.26732" lon="-2.3329">
        <ele>2</ele>
        <time>2020-10-18T07:17:28.000Z</time>
      </trkpt>
      <trkpt lat="47.2674" lon="-2.33313">
        <ele>2</ele>
        <time>2020-10-18T07:17:31.000Z</time>
      </trkpt>
      <trkpt lat="47.26744" lon="-2.33328">
        <ele>2</ele>
        <time>2020-10-18T07:17:33.000Z</time>
      </trkpt>
      <trkpt lat="47.2675" lon="-2.33358">
        <ele>2</ele>
        <time>2020-10-18T07:17:37.000Z</time>
      </trkpt>
      <trkpt lat="47.26756" lon="-2.33414">
        <ele>2</ele>
        <time>2020-10-18T07:17:44.000Z</time>
      </trkpt>
      <trkpt lat="47.26765" lon="-2.33469">
        <ele>2</ele>
        <time>2020-10-18T07:17:51.000Z</time>
      </trkpt>
      <trkpt lat="47.26775" lon="-2.33535">
        <ele>2</ele>
        <time>2020-10-18T07:17:59.000Z</time>
      </trkpt>
      <trkpt lat="47.26781" lon="-2.33563">
        <ele>2</ele>
        <time>2020-10-18T07:18:03.000Z</time>
      </trkpt>
      <trkpt lat="47.26786" lon="-2.33565">
        <ele>2</ele>
        <time>2020-10-18T07:18:04.000Z</time>
      </trkpt>
      <trkpt lat="47.26804" lon="-2.33561">
        <ele>2</ele>
        <time>2020-10-18T07:18:08.000Z</time>
      </trkpt>
      <trkpt lat="47.26809" lon="-2.33559">
        <ele>2</ele>
        <time>2020-10-18T07:18:09.000Z</time>
      </trkpt>
      <trkpt lat="47.26837" lon="-2.33546">
        <ele>2</ele>
        <time>2020-10-18T07:18:15.000Z</time>
      </trkpt>
      <trkpt lat="47.26842" lon="-2.33543">
        <ele>2</ele>
        <time>2020-10-18T07:18:16.000Z</time>
      </trkpt>
      <trkpt lat="47.26852" lon="-2.33539">
        <ele>2</ele>
        <time>2020-10-18T07:18:18.000Z</time>
      </trkpt>
      <trkpt lat="47.26864" lon="-2.33536">
        <ele>2</ele>
        <time>2020-10-18T07:18:20.000Z</time>
      </trkpt>
      <trkpt lat="47.2688" lon="-2.33535">
        <ele>2</ele>
        <time>2020-10-18T07:18:23.000Z</time>
      </trkpt>
      <trkpt lat="47.2689" lon="-2.33542">
        <ele>2</ele>
        <time>2020-10-18T07:18:25.000Z</time>
      </trkpt>
      <trkpt lat="47.26905" lon="-2.33567">
        <ele>2.4000000953674</ele>
        <time>2020-10-18T07:18:30.000Z</time>
      </trkpt>
      <trkpt lat="47.26908" lon="-2.33573">
        <ele>2.7999999523163</ele>
        <time>2020-10-18T07:18:31.000Z</time>
      </trkpt>
      <trkpt lat="47.2691" lon="-2.33579">
        <ele>3.2000000476837</ele>
        <time>2020-10-18T07:18:32.000Z</time>
      </trkpt>
      <trkpt lat="47.26913" lon="-2.33584">
        <ele>3.5999999046326</ele>
        <time>2020-10-18T07:18:33.000Z</time>
      </trkpt>
      <trkpt lat="47.26915" lon="-2.3359">
        <ele>4</ele>
        <time>2020-10-18T07:18:34.000Z</time>
      </trkpt>
      <trkpt lat="47.26923" lon="-2.33616">
        <ele>4</ele>
        <time>2020-10-18T07:18:38.000Z</time>
      </trkpt>
      <trkpt lat="47.26932" lon="-2.33662">
        <ele>4</ele>
        <time>2020-10-18T07:18:45.000Z</time>
      </trkpt>
      <trkpt lat="47.26933" lon="-2.33668">
        <ele>4.4000000953674</ele>
        <time>2020-10-18T07:18:46.000Z</time>
      </trkpt>
      <trkpt lat="47.26935" lon="-2.33675">
        <ele>5.4000000953674</ele>
        <time>2020-10-18T07:18:47.000Z</time>
      </trkpt>
      <trkpt lat="47.26936" lon="-2.33681">
        <ele>5.8000001907349</ele>
        <time>2020-10-18T07:18:48.000Z</time>
      </trkpt>
      <trkpt lat="47.26937" lon="-2.33688">
        <ele>6.1999998092651</ele>
        <time>2020-10-18T07:18:49.000Z</time>
      </trkpt>
      <trkpt lat="47.2694" lon="-2.33714">
        <ele>6.1999998092651</ele>
        <time>2020-10-18T07:18:53.000Z</time>
      </trkpt>
      <trkpt lat="47.26935" lon="-2.3375">
        <ele>6.1999998092651</ele>
        <time>2020-10-18T07:18:58.000Z</time>
      </trkpt>
      <trkpt lat="47.26929" lon="-2.33782">
        <ele>6.1999998092651</ele>
        <time>2020-10-18T07:19:02.000Z</time>
      </trkpt>
      <trkpt lat="47.26931" lon="-2.33798">
        <ele>6.1999998092651</ele>
        <time>2020-10-18T07:19:04.000Z</time>
      </trkpt>
      <trkpt lat="47.26941" lon="-2.33816">
        <ele>6.1999998092651</ele>
        <time>2020-10-18T07:19:07.000Z</time>
      </trkpt>
      <trkpt lat="47.26965" lon="-2.33833">
        <ele>6.1999998092651</ele>
        <time>2020-10-18T07:19:12.000Z</time>
      </trkpt>
      <trkpt lat="47.26979" lon="-2.3384">
        <ele>6.5999999046326</ele>
        <time>2020-10-18T07:19:15.000Z</time>
      </trkpt>
      <trkpt lat="47.26984" lon="-2.33843">
        <ele>7</ele>
        <time>2020-10-18T07:19:16.000Z</time>
      </trkpt>
      <trkpt lat="47.26988" lon="-2.33845">
        <ele>7.4000000953674</ele>
        <time>2020-10-18T07:19:17.000Z</time>
      </trkpt>
      <trkpt lat="47.26993" lon="-2.33847">
        <ele>7.8000001907349</ele>
        <time>2020-10-18T07:19:18.000Z</time>
      </trkpt>
      <trkpt lat="47.26997" lon="-2.3385">
        <ele>8.1999998092651</ele>
        <time>2020-10-18T07:19:19.000Z</time>
      </trkpt>
      <trkpt lat="47.27001" lon="-2.33853">
        <ele>8.1999998092651</ele>
        <time>2020-10-18T07:19:20.000Z</time>
      </trkpt>
      <trkpt lat="47.27008" lon="-2.33858">
        <ele>8.6000003814697</ele>
        <time>2020-10-18T07:19:22.000Z</time>
      </trkpt>
      <trkpt lat="47.27012" lon="-2.33861">
        <ele>9.1999998092651</ele>
        <time>2020-10-18T07:19:23.000Z</time>
      </trkpt>
      <trkpt lat="47.27016" lon="-2.33863">
        <ele>9.6000003814697</ele>
        <time>2020-10-18T07:19:24.000Z</time>
      </trkpt>
      <trkpt lat="47.27019" lon="-2.33866">
        <ele>10</ele>
        <time>2020-10-18T07:19:25.000Z</time>
      </trkpt>
      <trkpt lat="47.27023" lon="-2.33868">
        <ele>10.39999961853</ele>
        <time>2020-10-18T07:19:26.000Z</time>
      </trkpt>
      <trkpt lat="47.27038" lon="-2.3388">
        <ele>10.800000190735</ele>
        <time>2020-10-18T07:19:30.000Z</time>
      </trkpt>
      <trkpt lat="47.27041" lon="-2.33883">
        <ele>11.199999809265</ele>
        <time>2020-10-18T07:19:31.000Z</time>
      </trkpt>
      <trkpt lat="47.27045" lon="-2.33887">
        <ele>11.60000038147</ele>
        <time>2020-10-18T07:19:32.000Z</time>
      </trkpt>
      <trkpt lat="47.27049" lon="-2.33891">
        <ele>12</ele>
        <time>2020-10-18T07:19:33.000Z</time>
      </trkpt>
      <trkpt lat="47.27053" lon="-2.33895">
        <ele>12.39999961853</ele>
        <time>2020-10-18T07:19:34.000Z</time>
      </trkpt>
      <trkpt lat="47.27071" lon="-2.33911">
        <ele>12.39999961853</ele>
        <time>2020-10-18T07:19:39.000Z</time>
      </trkpt>
      <trkpt lat="47.27082" lon="-2.3392">
        <ele>12.800000190735</ele>
        <time>2020-10-18T07:19:42.000Z</time>
      </trkpt>
      <trkpt lat="47.27085" lon="-2.33923">
        <ele>13.39999961853</ele>
        <time>2020-10-18T07:19:43.000Z</time>
      </trkpt>
      <trkpt lat="47.27088" lon="-2.33926">
        <ele>13.800000190735</ele>
        <time>2020-10-18T07:19:44.000Z</time>
      </trkpt>
      <trkpt lat="47.27092" lon="-2.33929">
        <ele>14.199999809265</ele>
        <time>2020-10-18T07:19:45.000Z</time>
      </trkpt>
      <trkpt lat="47.27095" lon="-2.33932">
        <ele>14.60000038147</ele>
        <time>2020-10-18T07:19:46.000Z</time>
      </trkpt>
      <trkpt lat="47.27098" lon="-2.33934">
        <ele>14.60000038147</ele>
        <time>2020-10-18T07:19:47.000Z</time>
      </trkpt>
      <trkpt lat="47.27105" lon="-2.33939">
        <ele>15</ele>
        <time>2020-10-18T07:19:49.000Z</time>
      </trkpt>
      <trkpt lat="47.27108" lon="-2.33942">
        <ele>15.39999961853</ele>
        <time>2020-10-18T07:19:50.000Z</time>
      </trkpt>
      <trkpt lat="47.27111" lon="-2.33944">
        <ele>15.800000190735</ele>
        <time>2020-10-18T07:19:51.000Z</time>
      </trkpt>
      <trkpt lat="47.27114" lon="-2.33947">
        <ele>16.39999961853</ele>
        <time>2020-10-18T07:19:52.000Z</time>
      </trkpt>
      <trkpt lat="47.27117" lon="-2.3395">
        <ele>16.799999237061</ele>
        <time>2020-10-18T07:19:53.000Z</time>
      </trkpt>
      <trkpt lat="47.27123" lon="-2.33957">
        <ele>16.799999237061</ele>
        <time>2020-10-18T07:19:55.000Z</time>
      </trkpt>
      <trkpt lat="47.27143" lon="-2.33977">
        <ele>17.200000762939</ele>
        <time>2020-10-18T07:20:01.000Z</time>
      </trkpt>
      <trkpt lat="47.27146" lon="-2.3398">
        <ele>17.60000038147</ele>
        <time>2020-10-18T07:20:02.000Z</time>
      </trkpt>
      <trkpt lat="47.27149" lon="-2.33983">
        <ele>18</ele>
        <time>2020-10-18T07:20:03.000Z</time>
      </trkpt>
      <trkpt lat="47.27153" lon="-2.33987">
        <ele>18.39999961853</ele>
        <time>2020-10-18T07:20:04.000Z</time>
      </trkpt>
      <trkpt lat="47.27157" lon="-2.3399">
        <ele>18.799999237061</ele>
        <time>2020-10-18T07:20:05.000Z</time>
      </trkpt>
      <trkpt lat="47.27164" lon="-2.33998">
        <ele>18.799999237061</ele>
        <time>2020-10-18T07:20:07.000Z</time>
      </trkpt>
      <trkpt lat="47.2719" lon="-2.34023">
        <ele>18.799999237061</ele>
        <time>2020-10-18T07:20:14.000Z</time>
      </trkpt>
      <trkpt lat="47.27219" lon="-2.3405">
        <ele>18.799999237061</ele>
        <time>2020-10-18T07:20:22.000Z</time>
      </trkpt>
      <trkpt lat="47.27223" lon="-2.34052">
        <ele>18.799999237061</ele>
        <time>2020-10-18T07:20:23.000Z</time>
      </trkpt>
      <trkpt lat="47.27232" lon="-2.34052">
        <ele>19.799999237061</ele>
        <time>2020-10-18T07:20:25.000Z</time>
      </trkpt>
      <trkpt lat="47.27237" lon="-2.34052">
        <ele>20.200000762939</ele>
        <time>2020-10-18T07:20:26.000Z</time>
      </trkpt>
      <trkpt lat="47.27241" lon="-2.34052">
        <ele>20.60000038147</ele>
        <time>2020-10-18T07:20:27.000Z</time>
      </trkpt>
      <trkpt lat="47.27245" lon="-2.34052">
        <ele>21</ele>
        <time>2020-10-18T07:20:28.000Z</time>
      </trkpt>
      <trkpt lat="47.27261" lon="-2.34056">
        <ele>21</ele>
        <time>2020-10-18T07:20:32.000Z</time>
      </trkpt>
      <trkpt lat="47.27269" lon="-2.34062">
        <ele>21</ele>
        <time>2020-10-18T07:20:34.000Z</time>
      </trkpt>
      <trkpt lat="47.27273" lon="-2.34065">
        <ele>21</ele>
        <time>2020-10-18T07:20:35.000Z</time>
      </trkpt>
      <trkpt lat="47.27284" lon="-2.34084">
        <ele>21</ele>
        <time>2020-10-18T07:20:39.000Z</time>
      </trkpt>
      <trkpt lat="47.27285" lon="-2.34092">
        <ele>21</ele>
        <time>2020-10-18T07:20:40.000Z</time>
      </trkpt>
      <trkpt lat="47.27288" lon="-2.34115">
        <ele>21</ele>
        <time>2020-10-18T07:20:43.000Z</time>
      </trkpt>
      <trkpt lat="47.27304" lon="-2.34133">
        <ele>21</ele>
        <time>2020-10-18T07:20:47.000Z</time>
      </trkpt>
      <trkpt lat="47.27347" lon="-2.34161">
        <ele>21</ele>
        <time>2020-10-18T07:20:56.000Z</time>
      </trkpt>
      <trkpt lat="47.27388" lon="-2.34188">
        <ele>21</ele>
        <time>2020-10-18T07:21:05.000Z</time>
      </trkpt>
      <trkpt lat="47.27395" lon="-2.34195">
        <ele>21</ele>
        <time>2020-10-18T07:21:07.000Z</time>
      </trkpt>
      <trkpt lat="47.27402" lon="-2.34207">
        <ele>21</ele>
        <time>2020-10-18T07:21:10.000Z</time>
      </trkpt>
      <trkpt lat="47.27404" lon="-2.34223">
        <ele>21</ele>
        <time>2020-10-18T07:21:13.000Z</time>
      </trkpt>
      <trkpt lat="47.27405" lon="-2.34229">
        <ele>21</ele>
        <time>2020-10-18T07:21:14.000Z</time>
      </trkpt>
      <trkpt lat="47.27408" lon="-2.34236">
        <ele>21</ele>
        <time>2020-10-18T07:21:16.000Z</time>
      </trkpt>
      <trkpt lat="47.2741" lon="-2.34238">
        <ele>21</ele>
        <time>2020-10-18T07:21:17.000Z</time>
      </trkpt>
      <trkpt lat="47.27417" lon="-2.34259">
        <ele>21</ele>
        <time>2020-10-18T07:21:22.000Z</time>
      </trkpt>
      <trkpt lat="47.27416" lon="-2.34289">
        <ele>21</ele>
        <time>2020-10-18T07:21:27.000Z</time>
      </trkpt>
      <trkpt lat="47.27417" lon="-2.34319">
        <ele>21</ele>
        <time>2020-10-18T07:21:32.000Z</time>
      </trkpt>
      <trkpt lat="47.27419" lon="-2.34363">
        <ele>21</ele>
        <time>2020-10-18T07:21:38.000Z</time>
      </trkpt>
      <trkpt lat="47.27424" lon="-2.34413">
        <ele>21</ele>
        <time>2020-10-18T07:21:45.000Z</time>
      </trkpt>
      <trkpt lat="47.27425" lon="-2.34443">
        <ele>21.39999961853</ele>
        <time>2020-10-18T07:21:49.000Z</time>
      </trkpt>
      <trkpt lat="47.27425" lon="-2.3445">
        <ele>21.799999237061</ele>
        <time>2020-10-18T07:21:50.000Z</time>
      </trkpt>
      <trkpt lat="47.27425" lon="-2.34457">
        <ele>22.200000762939</ele>
        <time>2020-10-18T07:21:51.000Z</time>
      </trkpt>
      <trkpt lat="47.27425" lon="-2.34464">
        <ele>22.60000038147</ele>
        <time>2020-10-18T07:21:52.000Z</time>
      </trkpt>
      <trkpt lat="47.27425" lon="-2.34471">
        <ele>23</ele>
        <time>2020-10-18T07:21:53.000Z</time>
      </trkpt>
      <trkpt lat="47.27433" lon="-2.34511">
        <ele>23</ele>
        <time>2020-10-18T07:21:59.000Z</time>
      </trkpt>
      <trkpt lat="47.27444" lon="-2.34549">
        <ele>23</ele>
        <time>2020-10-18T07:22:06.000Z</time>
      </trkpt>
      <trkpt lat="47.27453" lon="-2.3458">
        <ele>23</ele>
        <time>2020-10-18T07:22:11.000Z</time>
      </trkpt>
      <trkpt lat="47.27454" lon="-2.34589">
        <ele>23</ele>
        <time>2020-10-18T07:22:12.000Z</time>
      </trkpt>
      <trkpt lat="47.27458" lon="-2.34638">
        <ele>23</ele>
        <time>2020-10-18T07:22:18.000Z</time>
      </trkpt>
      <trkpt lat="47.27463" lon="-2.34686">
        <ele>23</ele>
        <time>2020-10-18T07:22:24.000Z</time>
      </trkpt>
      <trkpt lat="47.27471" lon="-2.34688">
        <ele>23</ele>
        <time>2020-10-18T07:22:26.000Z</time>
      </trkpt>
      <trkpt lat="47.27479" lon="-2.34683">
        <ele>23</ele>
        <time>2020-10-18T07:22:28.000Z</time>
      </trkpt>
      <trkpt lat="47.27483" lon="-2.34679">
        <ele>23</ele>
        <time>2020-10-18T07:22:29.000Z</time>
      </trkpt>
      <trkpt lat="47.27488" lon="-2.34677">
        <ele>23</ele>
        <time>2020-10-18T07:22:30.000Z</time>
      </trkpt>
      <trkpt lat="47.27512" lon="-2.34675">
        <ele>23</ele>
        <time>2020-10-18T07:22:35.000Z</time>
      </trkpt>
      <trkpt lat="47.27522" lon="-2.34675">
        <ele>23</ele>
        <time>2020-10-18T07:22:37.000Z</time>
      </trkpt>
      <trkpt lat="47.27542" lon="-2.34673">
        <ele>23</ele>
        <time>2020-10-18T07:22:41.000Z</time>
      </trkpt>
      <trkpt lat="47.27552" lon="-2.3467">
        <ele>23</ele>
        <time>2020-10-18T07:22:43.000Z</time>
      </trkpt>
      <trkpt lat="47.27567" lon="-2.34661">
        <ele>23</ele>
        <time>2020-10-18T07:22:46.000Z</time>
      </trkpt>
      <trkpt lat="47.27576" lon="-2.34653">
        <ele>23</ele>
        <time>2020-10-18T07:22:48.000Z</time>
      </trkpt>
      <trkpt lat="47.2759" lon="-2.3464">
        <ele>23</ele>
        <time>2020-10-18T07:22:51.000Z</time>
      </trkpt>
      <trkpt lat="47.27618" lon="-2.34613">
        <ele>23</ele>
        <time>2020-10-18T07:22:57.000Z</time>
      </trkpt>
      <trkpt lat="47.27644" lon="-2.34589">
        <ele>23</ele>
        <time>2020-10-18T07:23:03.000Z</time>
      </trkpt>
      <trkpt lat="47.27669" lon="-2.34565">
        <ele>23</ele>
        <time>2020-10-18T07:23:09.000Z</time>
      </trkpt>
      <trkpt lat="47.27673" lon="-2.34563">
        <ele>23</ele>
        <time>2020-10-18T07:23:10.000Z</time>
      </trkpt>
      <trkpt lat="47.27678" lon="-2.34563">
        <ele>23</ele>
        <time>2020-10-18T07:23:12.000Z</time>
      </trkpt>
      <trkpt lat="47.27679" lon="-2.34566">
        <ele>23</ele>
        <time>2020-10-18T07:23:13.000Z</time>
      </trkpt>
      <trkpt lat="47.27684" lon="-2.3458">
        <ele>23</ele>
        <time>2020-10-18T07:23:18.000Z</time>
      </trkpt>
      <trkpt lat="47.27691" lon="-2.34606">
        <ele>23</ele>
        <time>2020-10-18T07:23:23.000Z</time>
      </trkpt>
      <trkpt lat="47.27693" lon="-2.3462">
        <ele>23</ele>
        <time>2020-10-18T07:23:25.000Z</time>
      </trkpt>
      <trkpt lat="47.27693" lon="-2.3464">
        <ele>23</ele>
        <time>2020-10-18T07:23:28.000Z</time>
      </trkpt>
      <trkpt lat="47.27697" lon="-2.34675">
        <ele>23</ele>
        <time>2020-10-18T07:23:34.000Z</time>
      </trkpt>
      <trkpt lat="47.27697" lon="-2.34679">
        <ele>23</ele>
        <time>2020-10-18T07:23:35.000Z</time>
      </trkpt>
      <trkpt lat="47.277" lon="-2.34693">
        <ele>23</ele>
        <time>2020-10-18T07:23:38.000Z</time>
      </trkpt>
      <trkpt lat="47.27702" lon="-2.34699">
        <ele>23</ele>
        <time>2020-10-18T07:23:39.000Z</time>
      </trkpt>
      <trkpt lat="47.27707" lon="-2.34712">
        <ele>23</ele>
        <time>2020-10-18T07:23:41.000Z</time>
      </trkpt>
      <trkpt lat="47.27712" lon="-2.34724">
        <ele>23</ele>
        <time>2020-10-18T07:23:43.000Z</time>
      </trkpt>
      <trkpt lat="47.27734" lon="-2.34766">
        <ele>23</ele>
        <time>2020-10-18T07:23:50.000Z</time>
      </trkpt>
      <trkpt lat="47.2776" lon="-2.34814">
        <ele>23</ele>
        <time>2020-10-18T07:23:58.000Z</time>
      </trkpt>
      <trkpt lat="47.27779" lon="-2.34853">
        <ele>22.60000038147</ele>
        <time>2020-10-18T07:24:04.000Z</time>
      </trkpt>
      <trkpt lat="47.27783" lon="-2.34859">
        <ele>22.200000762939</ele>
        <time>2020-10-18T07:24:05.000Z</time>
      </trkpt>
      <trkpt lat="47.27786" lon="-2.34864">
        <ele>21.39999961853</ele>
        <time>2020-10-18T07:24:06.000Z</time>
      </trkpt>
      <trkpt lat="47.27789" lon="-2.34867">
        <ele>20.799999237061</ele>
        <time>2020-10-18T07:24:07.000Z</time>
      </trkpt>
      <trkpt lat="47.27793" lon="-2.34873">
        <ele>20.39999961853</ele>
        <time>2020-10-18T07:24:09.000Z</time>
      </trkpt>
      <trkpt lat="47.27795" lon="-2.34876">
        <ele>20</ele>
        <time>2020-10-18T07:24:10.000Z</time>
      </trkpt>
      <trkpt lat="47.27798" lon="-2.34879">
        <ele>19.60000038147</ele>
        <time>2020-10-18T07:24:11.000Z</time>
      </trkpt>
      <trkpt lat="47.278" lon="-2.34881">
        <ele>19.200000762939</ele>
        <time>2020-10-18T07:24:12.000Z</time>
      </trkpt>
      <trkpt lat="47.27803" lon="-2.34883">
        <ele>18.60000038147</ele>
        <time>2020-10-18T07:24:13.000Z</time>
      </trkpt>
      <trkpt lat="47.2781" lon="-2.34887">
        <ele>18.60000038147</ele>
        <time>2020-10-18T07:24:15.000Z</time>
      </trkpt>
      <trkpt lat="47.27833" lon="-2.34906">
        <ele>18.60000038147</ele>
        <time>2020-10-18T07:24:22.000Z</time>
      </trkpt>
      <trkpt lat="47.27859" lon="-2.34937">
        <ele>18.60000038147</ele>
        <time>2020-10-18T07:24:30.000Z</time>
      </trkpt>
      <trkpt lat="47.27873" lon="-2.34955">
        <ele>18.60000038147</ele>
        <time>2020-10-18T07:24:34.000Z</time>
      </trkpt>
      <trkpt lat="47.27882" lon="-2.34971">
        <ele>18.60000038147</ele>
        <time>2020-10-18T07:24:37.000Z</time>
      </trkpt>
      <trkpt lat="47.27884" lon="-2.34976">
        <ele>18.60000038147</ele>
        <time>2020-10-18T07:24:38.000Z</time>
      </trkpt>
      <trkpt lat="47.27896" lon="-2.34999">
        <ele>18.60000038147</ele>
        <time>2020-10-18T07:24:42.000Z</time>
      </trkpt>
      <trkpt lat="47.2791" lon="-2.35002">
        <ele>18.60000038147</ele>
        <time>2020-10-18T07:24:45.000Z</time>
      </trkpt>
      <trkpt lat="47.27916" lon="-2.35013">
        <ele>18.60000038147</ele>
        <time>2020-10-18T07:24:48.000Z</time>
      </trkpt>
      <trkpt lat="47.27918" lon="-2.35021">
        <ele>18.60000038147</ele>
        <time>2020-10-18T07:24:50.000Z</time>
      </trkpt>
      <trkpt lat="47.27925" lon="-2.35032">
        <ele>18.60000038147</ele>
        <time>2020-10-18T07:24:53.000Z</time>
      </trkpt>
      <trkpt lat="47.2793" lon="-2.35035">
        <ele>18.60000038147</ele>
        <time>2020-10-18T07:24:54.000Z</time>
      </trkpt>
      <trkpt lat="47.27943" lon="-2.35046">
        <ele>18.60000038147</ele>
        <time>2020-10-18T07:24:57.000Z</time>
      </trkpt>
      <trkpt lat="47.27958" lon="-2.35069">
        <ele>18.60000038147</ele>
        <time>2020-10-18T07:25:01.000Z</time>
      </trkpt>
      <trkpt lat="47.27961" lon="-2.35075">
        <ele>18.60000038147</ele>
        <time>2020-10-18T07:25:02.000Z</time>
      </trkpt>
      <trkpt lat="47.27966" lon="-2.35088">
        <ele>18.60000038147</ele>
        <time>2020-10-18T07:25:04.000Z</time>
      </trkpt>
      <trkpt lat="47.27972" lon="-2.35099">
        <ele>18.60000038147</ele>
        <time>2020-10-18T07:25:07.000Z</time>
      </trkpt>
      <trkpt lat="47.2798" lon="-2.35094">
        <ele>18.60000038147</ele>
        <time>2020-10-18T07:25:11.000Z</time>
      </trkpt>
      <trkpt lat="47.27989" lon="-2.35077">
        <ele>18.60000038147</ele>
        <time>2020-10-18T07:25:15.000Z</time>
      </trkpt>
      <trkpt lat="47.28004" lon="-2.35047">
        <ele>18.60000038147</ele>
        <time>2020-10-18T07:25:21.000Z</time>
      </trkpt>
      <trkpt lat="47.28013" lon="-2.35029">
        <ele>18.60000038147</ele>
        <time>2020-10-18T07:25:24.000Z</time>
      </trkpt>
      <trkpt lat="47.28023" lon="-2.35017">
        <ele>18.60000038147</ele>
        <time>2020-10-18T07:25:27.000Z</time>
      </trkpt>
      <trkpt lat="47.2803" lon="-2.35009">
        <ele>18.60000038147</ele>
        <time>2020-10-18T07:25:29.000Z</time>
      </trkpt>
      <trkpt lat="47.28044" lon="-2.3499">
        <ele>18.60000038147</ele>
        <time>2020-10-18T07:25:33.000Z</time>
      </trkpt>
      <trkpt lat="47.28064" lon="-2.34975">
        <ele>18.60000038147</ele>
        <time>2020-10-18T07:25:39.000Z</time>
      </trkpt>
      <trkpt lat="47.28071" lon="-2.34979">
        <ele>18.60000038147</ele>
        <time>2020-10-18T07:25:41.000Z</time>
      </trkpt>
      <trkpt lat="47.28077" lon="-2.34988">
        <ele>18.60000038147</ele>
        <time>2020-10-18T07:25:43.000Z</time>
      </trkpt>
      <trkpt lat="47.28092" lon="-2.35014">
        <ele>18.60000038147</ele>
        <time>2020-10-18T07:25:49.000Z</time>
      </trkpt>
      <trkpt lat="47.28116" lon="-2.3506">
        <ele>19</ele>
        <time>2020-10-18T07:25:58.000Z</time>
      </trkpt>
      <trkpt lat="47.28119" lon="-2.35065">
        <ele>19.39999961853</ele>
        <time>2020-10-18T07:25:59.000Z</time>
      </trkpt>
      <trkpt lat="47.28121" lon="-2.3507">
        <ele>19.799999237061</ele>
        <time>2020-10-18T07:26:00.000Z</time>
      </trkpt>
      <trkpt lat="47.28124" lon="-2.35075">
        <ele>20.39999961853</ele>
        <time>2020-10-18T07:26:01.000Z</time>
      </trkpt>
      <trkpt lat="47.28127" lon="-2.3508">
        <ele>20.799999237061</ele>
        <time>2020-10-18T07:26:02.000Z</time>
      </trkpt>
      <trkpt lat="47.28148" lon="-2.35106">
        <ele>20.799999237061</ele>
        <time>2020-10-18T07:26:08.000Z</time>
      </trkpt>
      <trkpt lat="47.28167" lon="-2.35125">
        <ele>21.200000762939</ele>
        <time>2020-10-18T07:26:13.000Z</time>
      </trkpt>
      <trkpt lat="47.2817" lon="-2.35129">
        <ele>21.60000038147</ele>
        <time>2020-10-18T07:26:14.000Z</time>
      </trkpt>
      <trkpt lat="47.28174" lon="-2.35133">
        <ele>22</ele>
        <time>2020-10-18T07:26:15.000Z</time>
      </trkpt>
      <trkpt lat="47.28177" lon="-2.35139">
        <ele>22.39999961853</ele>
        <time>2020-10-18T07:26:16.000Z</time>
      </trkpt>
      <trkpt lat="47.2818" lon="-2.35145">
        <ele>22.799999237061</ele>
        <time>2020-10-18T07:26:17.000Z</time>
      </trkpt>
      <trkpt lat="47.28185" lon="-2.35156">
        <ele>22.799999237061</ele>
        <time>2020-10-18T07:26:19.000Z</time>
      </trkpt>
      <trkpt lat="47.28211" lon="-2.35205">
        <ele>22.799999237061</ele>
        <time>2020-10-18T07:26:28.000Z</time>
      </trkpt>
      <trkpt lat="47.28234" lon="-2.35246">
        <ele>22.799999237061</ele>
        <time>2020-10-18T07:26:36.000Z</time>
      </trkpt>
      <trkpt lat="47.28238" lon="-2.35247">
        <ele>22.799999237061</ele>
        <time>2020-10-18T07:26:37.000Z</time>
      </trkpt>
      <trkpt lat="47.28247" lon="-2.35245">
        <ele>22.799999237061</ele>
        <time>2020-10-18T07:26:39.000Z</time>
      </trkpt>
      <trkpt lat="47.2826" lon="-2.35235">
        <ele>22.799999237061</ele>
        <time>2020-10-18T07:26:42.000Z</time>
      </trkpt>
      <trkpt lat="47.28269" lon="-2.35229">
        <ele>22.799999237061</ele>
        <time>2020-10-18T07:26:44.000Z</time>
      </trkpt>
      <trkpt lat="47.28281" lon="-2.35222">
        <ele>22.799999237061</ele>
        <time>2020-10-18T07:26:47.000Z</time>
      </trkpt>
      <trkpt lat="47.28286" lon="-2.3523">
        <ele>22.799999237061</ele>
        <time>2020-10-18T07:26:49.000Z</time>
      </trkpt>
      <trkpt lat="47.28293" lon="-2.35248">
        <ele>22.799999237061</ele>
        <time>2020-10-18T07:26:52.000Z</time>
      </trkpt>
      <trkpt lat="47.28295" lon="-2.35255">
        <ele>22.799999237061</ele>
        <time>2020-10-18T07:26:53.000Z</time>
      </trkpt>
      <trkpt lat="47.28308" lon="-2.35301">
        <ele>22.799999237061</ele>
        <time>2020-10-18T07:27:00.000Z</time>
      </trkpt>
      <trkpt lat="47.28322" lon="-2.35308">
        <ele>22.799999237061</ele>
        <time>2020-10-18T07:27:03.000Z</time>
      </trkpt>
      <trkpt lat="47.2834" lon="-2.353">
        <ele>22.799999237061</ele>
        <time>2020-10-18T07:27:07.000Z</time>
      </trkpt>
      <trkpt lat="47.28349" lon="-2.35301">
        <ele>22.799999237061</ele>
        <time>2020-10-18T07:27:09.000Z</time>
      </trkpt>
      <trkpt lat="47.28352" lon="-2.35307">
        <ele>22.799999237061</ele>
        <time>2020-10-18T07:27:11.000Z</time>
      </trkpt>
      <trkpt lat="47.28358" lon="-2.35333">
        <ele>22.799999237061</ele>
        <time>2020-10-18T07:27:16.000Z</time>
      </trkpt>
      <trkpt lat="47.28359" lon="-2.35338">
        <ele>22.799999237061</ele>
        <time>2020-10-18T07:27:17.000Z</time>
      </trkpt>
      <trkpt lat="47.28363" lon="-2.3535">
        <ele>22.799999237061</ele>
        <time>2020-10-18T07:27:21.000Z</time>
      </trkpt>
      <trkpt lat="47.28368" lon="-2.35361">
        <ele>22.799999237061</ele>
        <time>2020-10-18T07:27:27.000Z</time>
      </trkpt>
      <trkpt lat="47.28371" lon="-2.35368">
        <ele>23.200000762939</ele>
        <time>2020-10-18T07:27:30.000Z</time>
      </trkpt>
      <trkpt lat="47.28372" lon="-2.35371">
        <ele>23.60000038147</ele>
        <time>2020-10-18T07:27:31.000Z</time>
      </trkpt>
      <trkpt lat="47.28372" lon="-2.35373">
        <ele>24</ele>
        <time>2020-10-18T07:27:32.000Z</time>
      </trkpt>
      <trkpt lat="47.28373" lon="-2.35375">
        <ele>24.39999961853</ele>
        <time>2020-10-18T07:27:33.000Z</time>
      </trkpt>
      <trkpt lat="47.28374" lon="-2.35377">
        <ele>24.799999237061</ele>
        <time>2020-10-18T07:27:34.000Z</time>
      </trkpt>
      <trkpt lat="47.28375" lon="-2.35379">
        <ele>25.39999961853</ele>
        <time>2020-10-18T07:27:35.000Z</time>
      </trkpt>
      <trkpt lat="47.28375" lon="-2.35381">
        <ele>25.799999237061</ele>
        <time>2020-10-18T07:27:36.000Z</time>
      </trkpt>
      <trkpt lat="47.28376" lon="-2.35384">
        <ele>26.39999961853</ele>
        <time>2020-10-18T07:27:37.000Z</time>
      </trkpt>
      <trkpt lat="47.28377" lon="-2.35386">
        <ele>26.799999237061</ele>
        <time>2020-10-18T07:27:38.000Z</time>
      </trkpt>
      <trkpt lat="47.28379" lon="-2.35389">
        <ele>27.39999961853</ele>
        <time>2020-10-18T07:27:39.000Z</time>
      </trkpt>
      <trkpt lat="47.2838" lon="-2.35392">
        <ele>27.799999237061</ele>
        <time>2020-10-18T07:27:40.000Z</time>
      </trkpt>
      <trkpt lat="47.28382" lon="-2.35395">
        <ele>28.39999961853</ele>
        <time>2020-10-18T07:27:41.000Z</time>
      </trkpt>
      <trkpt lat="47.28385" lon="-2.35398">
        <ele>29</ele>
        <time>2020-10-18T07:27:42.000Z</time>
      </trkpt>
      <trkpt lat="47.28388" lon="-2.35402">
        <ele>29.39999961853</ele>
        <time>2020-10-18T07:27:43.000Z</time>
      </trkpt>
      <trkpt lat="47.28395" lon="-2.3541">
        <ele>29.799999237061</ele>
        <time>2020-10-18T07:27:46.000Z</time>
      </trkpt>
      <trkpt lat="47.28398" lon="-2.35413">
        <ele>30.200000762939</ele>
        <time>2020-10-18T07:27:47.000Z</time>
      </trkpt>
      <trkpt lat="47.284" lon="-2.35416">
        <ele>31</ele>
        <time>2020-10-18T07:27:48.000Z</time>
      </trkpt>
      <trkpt lat="47.28402" lon="-2.35418">
        <ele>31.39999961853</ele>
        <time>2020-10-18T07:27:49.000Z</time>
      </trkpt>
      <trkpt lat="47.28412" lon="-2.3542">
        <ele>31.39999961853</ele>
        <time>2020-10-18T07:27:53.000Z</time>
      </trkpt>
      <trkpt lat="47.28419" lon="-2.35413">
        <ele>31.39999961853</ele>
        <time>2020-10-18T07:27:57.000Z</time>
      </trkpt>
      <trkpt lat="47.28431" lon="-2.35405">
        <ele>31.39999961853</ele>
        <time>2020-10-18T07:28:04.000Z</time>
      </trkpt>
      <trkpt lat="47.28438" lon="-2.35405">
        <ele>31.39999961853</ele>
        <time>2020-10-18T07:28:07.000Z</time>
      </trkpt>
      <trkpt lat="47.28442" lon="-2.354">
        <ele>31.39999961853</ele>
        <time>2020-10-18T07:28:09.000Z</time>
      </trkpt>
      <trkpt lat="47.28445" lon="-2.35382">
        <ele>31</ele>
        <time>2020-10-18T07:28:13.000Z</time>
      </trkpt>
      <trkpt lat="47.28445" lon="-2.35377">
        <ele>30.60000038147</ele>
        <time>2020-10-18T07:28:14.000Z</time>
      </trkpt>
      <trkpt lat="47.28447" lon="-2.35371">
        <ele>30.200000762939</ele>
        <time>2020-10-18T07:28:15.000Z</time>
      </trkpt>
      <trkpt lat="47.28448" lon="-2.35366">
        <ele>29.799999237061</ele>
        <time>2020-10-18T07:28:16.000Z</time>
      </trkpt>
      <trkpt lat="47.28449" lon="-2.3536">
        <ele>29.200000762939</ele>
        <time>2020-10-18T07:28:17.000Z</time>
      </trkpt>
      <trkpt lat="47.2845" lon="-2.35356">
        <ele>28.60000038147</ele>
        <time>2020-10-18T07:28:18.000Z</time>
      </trkpt>
      <trkpt lat="47.28451" lon="-2.35352">
        <ele>28</ele>
        <time>2020-10-18T07:28:19.000Z</time>
      </trkpt>
      <trkpt lat="47.28451" lon="-2.35348">
        <ele>27.39999961853</ele>
        <time>2020-10-18T07:28:20.000Z</time>
      </trkpt>
      <trkpt lat="47.28453" lon="-2.35346">
        <ele>26.799999237061</ele>
        <time>2020-10-18T07:28:21.000Z</time>
      </trkpt>
      <trkpt lat="47.28454" lon="-2.35345">
        <ele>26.200000762939</ele>
        <time>2020-10-18T07:28:22.000Z</time>
      </trkpt>
      <trkpt lat="47.28457" lon="-2.35344">
        <ele>25.60000038147</ele>
        <time>2020-10-18T07:28:23.000Z</time>
      </trkpt>
      <trkpt lat="47.2846" lon="-2.35344">
        <ele>25</ele>
        <time>2020-10-18T07:28:24.000Z</time>
      </trkpt>
      <trkpt lat="47.28462" lon="-2.35345">
        <ele>24.200000762939</ele>
        <time>2020-10-18T07:28:25.000Z</time>
      </trkpt>
      <trkpt lat="47.28469" lon="-2.35354">
        <ele>24.200000762939</ele>
        <time>2020-10-18T07:28:28.000Z</time>
      </trkpt>
      <trkpt lat="47.28476" lon="-2.35379">
        <ele>24.200000762939</ele>
        <time>2020-10-18T07:28:32.000Z</time>
      </trkpt>
      <trkpt lat="47.28477" lon="-2.35384">
        <ele>24.200000762939</ele>
        <time>2020-10-18T07:28:33.000Z</time>
      </trkpt>
      <trkpt lat="47.28482" lon="-2.35411">
        <ele>24.200000762939</ele>
        <time>2020-10-18T07:28:39.000Z</time>
      </trkpt>
      <trkpt lat="47.28482" lon="-2.3542">
        <ele>24.200000762939</ele>
        <time>2020-10-18T07:28:42.000Z</time>
      </trkpt>
      <trkpt lat="47.2848" lon="-2.35426">
        <ele>24.200000762939</ele>
        <time>2020-10-18T07:28:44.000Z</time>
      </trkpt>
      <trkpt lat="47.28479" lon="-2.35427">
        <ele>24.799999237061</ele>
        <time>2020-10-18T07:28:45.000Z</time>
      </trkpt>
      <trkpt lat="47.28479" lon="-2.35429">
        <ele>25.200000762939</ele>
        <time>2020-10-18T07:28:46.000Z</time>
      </trkpt>
      <trkpt lat="47.28478" lon="-2.35431">
        <ele>25.60000038147</ele>
        <time>2020-10-18T07:28:47.000Z</time>
      </trkpt>
      <trkpt lat="47.28476" lon="-2.35433">
        <ele>26</ele>
        <time>2020-10-18T07:28:48.000Z</time>
      </trkpt>
      <trkpt lat="47.28475" lon="-2.35436">
        <ele>26.60000038147</ele>
        <time>2020-10-18T07:28:49.000Z</time>
      </trkpt>
      <trkpt lat="47.28472" lon="-2.35438">
        <ele>26.60000038147</ele>
        <time>2020-10-18T07:28:51.000Z</time>
      </trkpt>
      <trkpt lat="47.28471" lon="-2.35438">
        <ele>27</ele>
        <time>2020-10-18T07:28:52.000Z</time>
      </trkpt>
      <trkpt lat="47.2847" lon="-2.35438">
        <ele>27.39999961853</ele>
        <time>2020-10-18T07:28:53.000Z</time>
      </trkpt>
      <trkpt lat="47.28468" lon="-2.35438">
        <ele>27.799999237061</ele>
        <time>2020-10-18T07:28:54.000Z</time>
      </trkpt>
      <trkpt lat="47.28467" lon="-2.35438">
        <ele>28.39999961853</ele>
        <time>2020-10-18T07:28:55.000Z</time>
      </trkpt>
      <trkpt lat="47.28465" lon="-2.35437">
        <ele>28.799999237061</ele>
        <time>2020-10-18T07:28:56.000Z</time>
      </trkpt>
      <trkpt lat="47.28462" lon="-2.35435">
        <ele>28.799999237061</ele>
        <time>2020-10-18T07:28:58.000Z</time>
      </trkpt>
      <trkpt lat="47.28461" lon="-2.35432">
        <ele>29.200000762939</ele>
        <time>2020-10-18T07:28:59.000Z</time>
      </trkpt>
      <trkpt lat="47.2846" lon="-2.3543">
        <ele>29.60000038147</ele>
        <time>2020-10-18T07:29:00.000Z</time>
      </trkpt>
      <trkpt lat="47.28459" lon="-2.35428">
        <ele>30</ele>
        <time>2020-10-18T07:29:01.000Z</time>
      </trkpt>
      <trkpt lat="47.28457" lon="-2.35428">
        <ele>30.39999961853</ele>
        <time>2020-10-18T07:29:02.000Z</time>
      </trkpt>
      <trkpt lat="47.28455" lon="-2.35427">
        <ele>30.799999237061</ele>
        <time>2020-10-18T07:29:03.000Z</time>
      </trkpt>
      <trkpt lat="47.28453" lon="-2.35428">
        <ele>30.799999237061</ele>
        <time>2020-10-18T07:29:04.000Z</time>
      </trkpt>
      <trkpt lat="47.28437" lon="-2.3544">
        <ele>30.799999237061</ele>
        <time>2020-10-18T07:29:09.000Z</time>
      </trkpt>
      <trkpt lat="47.28428" lon="-2.35453">
        <ele>30.799999237061</ele>
        <time>2020-10-18T07:29:12.000Z</time>
      </trkpt>
      <trkpt lat="47.28422" lon="-2.35463">
        <ele>30.799999237061</ele>
        <time>2020-10-18T07:29:14.000Z</time>
      </trkpt>
      <trkpt lat="47.28416" lon="-2.35474">
        <ele>30.799999237061</ele>
        <time>2020-10-18T07:29:16.000Z</time>
      </trkpt>
      <trkpt lat="47.28408" lon="-2.35487">
        <ele>30.39999961853</ele>
        <time>2020-10-18T07:29:19.000Z</time>
      </trkpt>
      <trkpt lat="47.28406" lon="-2.35493">
        <ele>30</ele>
        <time>2020-10-18T07:29:20.000Z</time>
      </trkpt>
      <trkpt lat="47.28405" lon="-2.355">
        <ele>29.60000038147</ele>
        <time>2020-10-18T07:29:21.000Z</time>
      </trkpt>
      <trkpt lat="47.28404" lon="-2.35507">
        <ele>29</ele>
        <time>2020-10-18T07:29:22.000Z</time>
      </trkpt>
      <trkpt lat="47.28404" lon="-2.35514">
        <ele>28.60000038147</ele>
        <time>2020-10-18T07:29:23.000Z</time>
      </trkpt>
      <trkpt lat="47.28412" lon="-2.35541">
        <ele>28.60000038147</ele>
        <time>2020-10-18T07:29:27.000Z</time>
      </trkpt>
      <trkpt lat="47.28419" lon="-2.35553">
        <ele>28.60000038147</ele>
        <time>2020-10-18T07:29:29.000Z</time>
      </trkpt>
      <trkpt lat="47.28424" lon="-2.35565">
        <ele>28.60000038147</ele>
        <time>2020-10-18T07:29:31.000Z</time>
      </trkpt>
      <trkpt lat="47.28429" lon="-2.35576">
        <ele>28.60000038147</ele>
        <time>2020-10-18T07:29:33.000Z</time>
      </trkpt>
      <trkpt lat="47.28446" lon="-2.35612">
        <ele>28.60000038147</ele>
        <time>2020-10-18T07:29:40.000Z</time>
      </trkpt>
      <trkpt lat="47.28469" lon="-2.35635">
        <ele>28.60000038147</ele>
        <time>2020-10-18T07:29:47.000Z</time>
      </trkpt>
      <trkpt lat="47.28493" lon="-2.35661">
        <ele>28.60000038147</ele>
        <time>2020-10-18T07:29:54.000Z</time>
      </trkpt>
      <trkpt lat="47.28506" lon="-2.35685">
        <ele>28.60000038147</ele>
        <time>2020-10-18T07:29:59.000Z</time>
      </trkpt>
      <trkpt lat="47.28525" lon="-2.3572">
        <ele>28.60000038147</ele>
        <time>2020-10-18T07:30:06.000Z</time>
      </trkpt>
      <trkpt lat="47.28543" lon="-2.35752">
        <ele>28.60000038147</ele>
        <time>2020-10-18T07:30:13.000Z</time>
      </trkpt>
      <trkpt lat="47.28552" lon="-2.35784">
        <ele>28.60000038147</ele>
        <time>2020-10-18T07:30:19.000Z</time>
      </trkpt>
      <trkpt lat="47.28557" lon="-2.35808">
        <ele>28.60000038147</ele>
        <time>2020-10-18T07:30:25.000Z</time>
      </trkpt>
      <trkpt lat="47.28559" lon="-2.35818">
        <ele>28.60000038147</ele>
        <time>2020-10-18T07:30:29.000Z</time>
      </trkpt>
      <trkpt lat="47.28559" lon="-2.35826">
        <ele>28.60000038147</ele>
        <time>2020-10-18T07:30:31.000Z</time>
      </trkpt>
      <trkpt lat="47.28562" lon="-2.35833">
        <ele>28.60000038147</ele>
        <time>2020-10-18T07:30:33.000Z</time>
      </trkpt>
      <trkpt lat="47.28565" lon="-2.35847">
        <ele>28.60000038147</ele>
        <time>2020-10-18T07:30:35.000Z</time>
      </trkpt>
      <trkpt lat="47.28571" lon="-2.35866">
        <ele>28.60000038147</ele>
        <time>2020-10-18T07:30:38.000Z</time>
      </trkpt>
      <trkpt lat="47.28576" lon="-2.35875">
        <ele>29</ele>
        <time>2020-10-18T07:30:40.000Z</time>
      </trkpt>
      <trkpt lat="47.28578" lon="-2.3588">
        <ele>29.799999237061</ele>
        <time>2020-10-18T07:30:41.000Z</time>
      </trkpt>
      <trkpt lat="47.2858" lon="-2.35884">
        <ele>30.200000762939</ele>
        <time>2020-10-18T07:30:42.000Z</time>
      </trkpt>
      <trkpt lat="47.28582" lon="-2.35889">
        <ele>30.60000038147</ele>
        <time>2020-10-18T07:30:43.000Z</time>
      </trkpt>
      <trkpt lat="47.28586" lon="-2.35912">
        <ele>30.60000038147</ele>
        <time>2020-10-18T07:30:48.000Z</time>
      </trkpt>
      <trkpt lat="47.28586" lon="-2.35934">
        <ele>30.60000038147</ele>
        <time>2020-10-18T07:30:54.000Z</time>
      </trkpt>
      <trkpt lat="47.28589" lon="-2.35939">
        <ele>30.60000038147</ele>
        <time>2020-10-18T07:30:56.000Z</time>
      </trkpt>
      <trkpt lat="47.28593" lon="-2.35941">
        <ele>30.60000038147</ele>
        <time>2020-10-18T07:30:58.000Z</time>
      </trkpt>
      <trkpt lat="47.28603" lon="-2.35957">
        <ele>30.60000038147</ele>
        <time>2020-10-18T07:31:02.000Z</time>
      </trkpt>
      <trkpt lat="47.28617" lon="-2.35986">
        <ele>30.60000038147</ele>
        <time>2020-10-18T07:31:08.000Z</time>
      </trkpt>
      <trkpt lat="47.2862" lon="-2.35996">
        <ele>31</ele>
        <time>2020-10-18T07:31:10.000Z</time>
      </trkpt>
      <trkpt lat="47.28622" lon="-2.36">
        <ele>31.60000038147</ele>
        <time>2020-10-18T07:31:11.000Z</time>
      </trkpt>
      <trkpt lat="47.28623" lon="-2.36005">
        <ele>32</ele>
        <time>2020-10-18T07:31:12.000Z</time>
      </trkpt>
      <trkpt lat="47.28624" lon="-2.3601">
        <ele>32.400001525879</ele>
        <time>2020-10-18T07:31:13.000Z</time>
      </trkpt>
      <trkpt lat="47.28626" lon="-2.36015">
        <ele>32.799999237061</ele>
        <time>2020-10-18T07:31:14.000Z</time>
      </trkpt>
      <trkpt lat="47.28628" lon="-2.3602">
        <ele>32.799999237061</ele>
        <time>2020-10-18T07:31:15.000Z</time>
      </trkpt>
      <trkpt lat="47.28639" lon="-2.3605">
        <ele>32.799999237061</ele>
        <time>2020-10-18T07:31:21.000Z</time>
      </trkpt>
      <trkpt lat="47.28647" lon="-2.36075">
        <ele>32.799999237061</ele>
        <time>2020-10-18T07:31:27.000Z</time>
      </trkpt>
      <trkpt lat="47.28652" lon="-2.36081">
        <ele>33.599998474121</ele>
        <time>2020-10-18T07:31:29.000Z</time>
      </trkpt>
      <trkpt lat="47.28654" lon="-2.36085">
        <ele>34</ele>
        <time>2020-10-18T07:31:30.000Z</time>
      </trkpt>
      <trkpt lat="47.28656" lon="-2.36088">
        <ele>34.400001525879</ele>
        <time>2020-10-18T07:31:31.000Z</time>
      </trkpt>
      <trkpt lat="47.28659" lon="-2.36092">
        <ele>34.799999237061</ele>
        <time>2020-10-18T07:31:32.000Z</time>
      </trkpt>
      <trkpt lat="47.28663" lon="-2.36103">
        <ele>34.799999237061</ele>
        <time>2020-10-18T07:31:34.000Z</time>
      </trkpt>
      <trkpt lat="47.28673" lon="-2.36141">
        <ele>34.799999237061</ele>
        <time>2020-10-18T07:31:41.000Z</time>
      </trkpt>
      <trkpt lat="47.28674" lon="-2.36147">
        <ele>34.799999237061</ele>
        <time>2020-10-18T07:31:44.000Z</time>
      </trkpt>
      <trkpt lat="47.28678" lon="-2.36155">
        <ele>34.799999237061</ele>
        <time>2020-10-18T07:31:50.000Z</time>
      </trkpt>
      <trkpt lat="47.28681" lon="-2.36162">
        <ele>34.799999237061</ele>
        <time>2020-10-18T07:31:57.000Z</time>
      </trkpt>
      <trkpt lat="47.28684" lon="-2.3617">
        <ele>34.799999237061</ele>
        <time>2020-10-18T07:32:01.000Z</time>
      </trkpt>
      <trkpt lat="47.28694" lon="-2.36189">
        <ele>34.799999237061</ele>
        <time>2020-10-18T07:32:06.000Z</time>
      </trkpt>
      <trkpt lat="47.287" lon="-2.36215">
        <ele>34.799999237061</ele>
        <time>2020-10-18T07:32:10.000Z</time>
      </trkpt>
      <trkpt lat="47.28713" lon="-2.36241">
        <ele>34.799999237061</ele>
        <time>2020-10-18T07:32:16.000Z</time>
      </trkpt>
      <trkpt lat="47.28724" lon="-2.36247">
        <ele>34.799999237061</ele>
        <time>2020-10-18T07:32:20.000Z</time>
      </trkpt>
      <trkpt lat="47.28726" lon="-2.36245">
        <ele>34.799999237061</ele>
        <time>2020-10-18T07:32:21.000Z</time>
      </trkpt>
      <trkpt lat="47.28745" lon="-2.36226">
        <ele>34.799999237061</ele>
        <time>2020-10-18T07:32:28.000Z</time>
      </trkpt>
      <trkpt lat="47.28764" lon="-2.36211">
        <ele>34.799999237061</ele>
        <time>2020-10-18T07:32:34.000Z</time>
      </trkpt>
      <trkpt lat="47.28792" lon="-2.36193">
        <ele>34.799999237061</ele>
        <time>2020-10-18T07:32:41.000Z</time>
      </trkpt>
      <trkpt lat="47.28821" lon="-2.36173">
        <ele>34.799999237061</ele>
        <time>2020-10-18T07:32:48.000Z</time>
      </trkpt>
      <trkpt lat="47.28828" lon="-2.36164">
        <ele>34.799999237061</ele>
        <time>2020-10-18T07:32:50.000Z</time>
      </trkpt>
      <trkpt lat="47.2884" lon="-2.36146">
        <ele>34.799999237061</ele>
        <time>2020-10-18T07:32:54.000Z</time>
      </trkpt>
      <trkpt lat="47.2887" lon="-2.3611">
        <ele>34.799999237061</ele>
        <time>2020-10-18T07:33:02.000Z</time>
      </trkpt>
      <trkpt lat="47.28911" lon="-2.36071">
        <ele>34.799999237061</ele>
        <time>2020-10-18T07:33:11.000Z</time>
      </trkpt>
      <trkpt lat="47.28945" lon="-2.36048">
        <ele>34.799999237061</ele>
        <time>2020-10-18T07:33:18.000Z</time>
      </trkpt>
      <trkpt lat="47.28973" lon="-2.36027">
        <ele>34.799999237061</ele>
        <time>2020-10-18T07:33:24.000Z</time>
      </trkpt>
      <trkpt lat="47.29003" lon="-2.35996">
        <ele>34.799999237061</ele>
        <time>2020-10-18T07:33:31.000Z</time>
      </trkpt>
      <trkpt lat="47.29048" lon="-2.35948">
        <ele>34.799999237061</ele>
        <time>2020-10-18T07:33:41.000Z</time>
      </trkpt>
      <trkpt lat="47.29084" lon="-2.35906">
        <ele>34.799999237061</ele>
        <time>2020-10-18T07:33:49.000Z</time>
      </trkpt>
      <trkpt lat="47.2912" lon="-2.35863">
        <ele>34.799999237061</ele>
        <time>2020-10-18T07:33:57.000Z</time>
      </trkpt>
      <trkpt lat="47.29152" lon="-2.3583">
        <ele>34.799999237061</ele>
        <time>2020-10-18T07:34:04.000Z</time>
      </trkpt>
      <trkpt lat="47.29186" lon="-2.35806">
        <ele>34.799999237061</ele>
        <time>2020-10-18T07:34:11.000Z</time>
      </trkpt>
      <trkpt lat="47.29224" lon="-2.35775">
        <ele>34.799999237061</ele>
        <time>2020-10-18T07:34:19.000Z</time>
      </trkpt>
      <trkpt lat="47.29244" lon="-2.35752">
        <ele>34.799999237061</ele>
        <time>2020-10-18T07:34:24.000Z</time>
      </trkpt>
      <trkpt lat="47.29247" lon="-2.35748">
        <ele>34.799999237061</ele>
        <time>2020-10-18T07:34:25.000Z</time>
      </trkpt>
      <trkpt lat="47.29255" lon="-2.35733">
        <ele>34.799999237061</ele>
        <time>2020-10-18T07:34:30.000Z</time>
      </trkpt>
      <trkpt lat="47.29257" lon="-2.35731">
        <ele>34.799999237061</ele>
        <time>2020-10-18T07:34:39.000Z</time>
      </trkpt>
      <trkpt lat="47.2926" lon="-2.3573">
        <ele>34.799999237061</ele>
        <time>2020-10-18T07:34:41.000Z</time>
      </trkpt>
      <trkpt lat="47.29274" lon="-2.35739">
        <ele>34.799999237061</ele>
        <time>2020-10-18T07:34:45.000Z</time>
      </trkpt>
      <trkpt lat="47.29306" lon="-2.35768">
        <ele>34.799999237061</ele>
        <time>2020-10-18T07:34:53.000Z</time>
      </trkpt>
      <trkpt lat="47.29339" lon="-2.35798">
        <ele>34.799999237061</ele>
        <time>2020-10-18T07:35:00.000Z</time>
      </trkpt>
      <trkpt lat="47.29372" lon="-2.35829">
        <ele>34.799999237061</ele>
        <time>2020-10-18T07:35:07.000Z</time>
      </trkpt>
      <trkpt lat="47.29405" lon="-2.35862">
        <ele>34.799999237061</ele>
        <time>2020-10-18T07:35:15.000Z</time>
      </trkpt>
      <trkpt lat="47.29434" lon="-2.359">
        <ele>34.799999237061</ele>
        <time>2020-10-18T07:35:23.000Z</time>
      </trkpt>
      <trkpt lat="47.29451" lon="-2.35905">
        <ele>34.799999237061</ele>
        <time>2020-10-18T07:35:27.000Z</time>
      </trkpt>
      <trkpt lat="47.29476" lon="-2.35903">
        <ele>34.799999237061</ele>
        <time>2020-10-18T07:35:33.000Z</time>
      </trkpt>
      <trkpt lat="47.29495" lon="-2.359">
        <ele>34.799999237061</ele>
        <time>2020-10-18T07:35:38.000Z</time>
      </trkpt>
      <trkpt lat="47.29498" lon="-2.35902">
        <ele>34.799999237061</ele>
        <time>2020-10-18T07:35:39.000Z</time>
      </trkpt>
      <trkpt lat="47.29504" lon="-2.35915">
        <ele>34.799999237061</ele>
        <time>2020-10-18T07:35:42.000Z</time>
      </trkpt>
      <trkpt lat="47.29515" lon="-2.35942">
        <ele>34.799999237061</ele>
        <time>2020-10-18T07:35:48.000Z</time>
      </trkpt>
      <trkpt lat="47.29526" lon="-2.3594">
        <ele>34.799999237061</ele>
        <time>2020-10-18T07:35:51.000Z</time>
      </trkpt>
      <trkpt lat="47.2953" lon="-2.35937">
        <ele>34.799999237061</ele>
        <time>2020-10-18T07:35:52.000Z</time>
      </trkpt>
      <trkpt lat="47.2956" lon="-2.35918">
        <ele>34.799999237061</ele>
        <time>2020-10-18T07:35:59.000Z</time>
      </trkpt>
      <trkpt lat="47.296" lon="-2.35895">
        <ele>34.799999237061</ele>
        <time>2020-10-18T07:36:07.000Z</time>
      </trkpt>
      <trkpt lat="47.29636" lon="-2.35873">
        <ele>34.799999237061</ele>
        <time>2020-10-18T07:36:14.000Z</time>
      </trkpt>
      <trkpt lat="47.29646" lon="-2.35865">
        <ele>34.799999237061</ele>
        <time>2020-10-18T07:36:16.000Z</time>
      </trkpt>
      <trkpt lat="47.29653" lon="-2.35853">
        <ele>34.799999237061</ele>
        <time>2020-10-18T07:36:18.000Z</time>
      </trkpt>
      <trkpt lat="47.29665" lon="-2.35835">
        <ele>34.799999237061</ele>
        <time>2020-10-18T07:36:22.000Z</time>
      </trkpt>
      <trkpt lat="47.29676" lon="-2.35837">
        <ele>34.799999237061</ele>
        <time>2020-10-18T07:36:24.000Z</time>
      </trkpt>
      <trkpt lat="47.29682" lon="-2.35839">
        <ele>34.799999237061</ele>
        <time>2020-10-18T07:36:25.000Z</time>
      </trkpt>
      <trkpt lat="47.29688" lon="-2.35838">
        <ele>34.799999237061</ele>
        <time>2020-10-18T07:36:26.000Z</time>
      </trkpt>
      <trkpt lat="47.29722" lon="-2.35826">
        <ele>34.799999237061</ele>
        <time>2020-10-18T07:36:32.000Z</time>
      </trkpt>
      <trkpt lat="47.29741" lon="-2.35816">
        <ele>35.200000762939</ele>
        <time>2020-10-18T07:36:36.000Z</time>
      </trkpt>
      <trkpt lat="47.29746" lon="-2.35813">
        <ele>35.599998474121</ele>
        <time>2020-10-18T07:36:37.000Z</time>
      </trkpt>
      <trkpt lat="47.2975" lon="-2.35811">
        <ele>36</ele>
        <time>2020-10-18T07:36:38.000Z</time>
      </trkpt>
      <trkpt lat="47.29755" lon="-2.35809">
        <ele>36.599998474121</ele>
        <time>2020-10-18T07:36:39.000Z</time>
      </trkpt>
      <trkpt lat="47.2976" lon="-2.35808">
        <ele>37</ele>
        <time>2020-10-18T07:36:40.000Z</time>
      </trkpt>
      <trkpt lat="47.29803" lon="-2.35792">
        <ele>37</ele>
        <time>2020-10-18T07:36:49.000Z</time>
      </trkpt>
      <trkpt lat="47.29841" lon="-2.35778">
        <ele>37</ele>
        <time>2020-10-18T07:36:56.000Z</time>
      </trkpt>
      <trkpt lat="47.29879" lon="-2.35764">
        <ele>37</ele>
        <time>2020-10-18T07:37:02.000Z</time>
      </trkpt>
      <trkpt lat="47.29892" lon="-2.35758">
        <ele>37</ele>
        <time>2020-10-18T07:37:05.000Z</time>
      </trkpt>
      <trkpt lat="47.29896" lon="-2.35749">
        <ele>37</ele>
        <time>2020-10-18T07:37:07.000Z</time>
      </trkpt>
      <trkpt lat="47.29893" lon="-2.35726">
        <ele>37</ele>
        <time>2020-10-18T07:37:11.000Z</time>
      </trkpt>
      <trkpt lat="47.2989" lon="-2.35714">
        <ele>37</ele>
        <time>2020-10-18T07:37:13.000Z</time>
      </trkpt>
      <trkpt lat="47.29885" lon="-2.35694">
        <ele>37</ele>
        <time>2020-10-18T07:37:16.000Z</time>
      </trkpt>
      <trkpt lat="47.29874" lon="-2.35632">
        <ele>37</ele>
        <time>2020-10-18T07:37:24.000Z</time>
      </trkpt>
      <trkpt lat="47.29858" lon="-2.3557">
        <ele>37</ele>
        <time>2020-10-18T07:37:32.000Z</time>
      </trkpt>
      <trkpt lat="47.29855" lon="-2.35562">
        <ele>36.599998474121</ele>
        <time>2020-10-18T07:37:33.000Z</time>
      </trkpt>
      <trkpt lat="47.29853" lon="-2.35554">
        <ele>36.200000762939</ele>
        <time>2020-10-18T07:37:34.000Z</time>
      </trkpt>
      <trkpt lat="47.29851" lon="-2.35546">
        <ele>35.799999237061</ele>
        <time>2020-10-18T07:37:35.000Z</time>
      </trkpt>
      <trkpt lat="47.29849" lon="-2.35538">
        <ele>35.400001525879</ele>
        <time>2020-10-18T07:37:36.000Z</time>
      </trkpt>
      <trkpt lat="47.29846" lon="-2.3553">
        <ele>35</ele>
        <time>2020-10-18T07:37:37.000Z</time>
      </trkpt>
      <trkpt lat="47.29842" lon="-2.35513">
        <ele>35</ele>
        <time>2020-10-18T07:37:39.000Z</time>
      </trkpt>
      <trkpt lat="47.2983" lon="-2.35466">
        <ele>35</ele>
        <time>2020-10-18T07:37:45.000Z</time>
      </trkpt>
      <trkpt lat="47.29837" lon="-2.35446">
        <ele>35</ele>
        <time>2020-10-18T07:37:48.000Z</time>
      </trkpt>
      <trkpt lat="47.29841" lon="-2.35441">
        <ele>35</ele>
        <time>2020-10-18T07:37:49.000Z</time>
      </trkpt>
      <trkpt lat="47.2985" lon="-2.3543">
        <ele>34.599998474121</ele>
        <time>2020-10-18T07:37:51.000Z</time>
      </trkpt>
      <trkpt lat="47.29855" lon="-2.35425">
        <ele>34.200000762939</ele>
        <time>2020-10-18T07:37:52.000Z</time>
      </trkpt>
      <trkpt lat="47.2986" lon="-2.3542">
        <ele>33.799999237061</ele>
        <time>2020-10-18T07:37:53.000Z</time>
      </trkpt>
      <trkpt lat="47.29866" lon="-2.35414">
        <ele>33.200000762939</ele>
        <time>2020-10-18T07:37:54.000Z</time>
      </trkpt>
      <trkpt lat="47.29871" lon="-2.35409">
        <ele>32.799999237061</ele>
        <time>2020-10-18T07:37:55.000Z</time>
      </trkpt>
      <trkpt lat="47.29909" lon="-2.3537">
        <ele>32.799999237061</ele>
        <time>2020-10-18T07:38:02.000Z</time>
      </trkpt>
      <trkpt lat="47.29948" lon="-2.3532">
        <ele>32.799999237061</ele>
        <time>2020-10-18T07:38:10.000Z</time>
      </trkpt>
      <trkpt lat="47.29962" lon="-2.35303">
        <ele>32.799999237061</ele>
        <time>2020-10-18T07:38:13.000Z</time>
      </trkpt>
      <trkpt lat="47.29975" lon="-2.35285">
        <ele>32.799999237061</ele>
        <time>2020-10-18T07:38:16.000Z</time>
      </trkpt>
      <trkpt lat="47.29993" lon="-2.35265">
        <ele>32.400001525879</ele>
        <time>2020-10-18T07:38:21.000Z</time>
      </trkpt>
      <trkpt lat="47.29996" lon="-2.35262">
        <ele>32</ele>
        <time>2020-10-18T07:38:22.000Z</time>
      </trkpt>
      <trkpt lat="47.29999" lon="-2.35259">
        <ele>31.60000038147</ele>
        <time>2020-10-18T07:38:23.000Z</time>
      </trkpt>
      <trkpt lat="47.30002" lon="-2.35257">
        <ele>31.200000762939</ele>
        <time>2020-10-18T07:38:24.000Z</time>
      </trkpt>
      <trkpt lat="47.30004" lon="-2.35256">
        <ele>30.799999237061</ele>
        <time>2020-10-18T07:38:25.000Z</time>
      </trkpt>
      <trkpt lat="47.30006" lon="-2.35254">
        <ele>30.799999237061</ele>
        <time>2020-10-18T07:38:26.000Z</time>
      </trkpt>
      <trkpt lat="47.30017" lon="-2.3525">
        <ele>30.799999237061</ele>
        <time>2020-10-18T07:38:32.000Z</time>
      </trkpt>
      <trkpt lat="47.30022" lon="-2.35246">
        <ele>30.799999237061</ele>
        <time>2020-10-18T07:38:37.000Z</time>
      </trkpt>
      <trkpt lat="47.30024" lon="-2.35245">
        <ele>30.799999237061</ele>
        <time>2020-10-18T07:38:38.000Z</time>
      </trkpt>
      <trkpt lat="47.3003" lon="-2.35243">
        <ele>30.799999237061</ele>
        <time>2020-10-18T07:38:42.000Z</time>
      </trkpt>
      <trkpt lat="47.30035" lon="-2.3524">
        <ele>30.799999237061</ele>
        <time>2020-10-18T07:38:44.000Z</time>
      </trkpt>
      <trkpt lat="47.30045" lon="-2.35233">
        <ele>30.799999237061</ele>
        <time>2020-10-18T07:38:47.000Z</time>
      </trkpt>
      <trkpt lat="47.30061" lon="-2.35226">
        <ele>30.799999237061</ele>
        <time>2020-10-18T07:38:52.000Z</time>
      </trkpt>
      <trkpt lat="47.30077" lon="-2.35217">
        <ele>30.799999237061</ele>
        <time>2020-10-18T07:38:57.000Z</time>
      </trkpt>
      <trkpt lat="47.30088" lon="-2.35212">
        <ele>30.799999237061</ele>
        <time>2020-10-18T07:39:00.000Z</time>
      </trkpt>
      <trkpt lat="47.30098" lon="-2.35208">
        <ele>30.799999237061</ele>
        <time>2020-10-18T07:39:02.000Z</time>
      </trkpt>
      <trkpt lat="47.30108" lon="-2.35203">
        <ele>30.799999237061</ele>
        <time>2020-10-18T07:39:04.000Z</time>
      </trkpt>
      <trkpt lat="47.30118" lon="-2.35199">
        <ele>30.799999237061</ele>
        <time>2020-10-18T07:39:06.000Z</time>
      </trkpt>
      <trkpt lat="47.30127" lon="-2.35197">
        <ele>30.799999237061</ele>
        <time>2020-10-18T07:39:08.000Z</time>
      </trkpt>
      <trkpt lat="47.30148" lon="-2.35195">
        <ele>30.799999237061</ele>
        <time>2020-10-18T07:39:14.000Z</time>
      </trkpt>
      <trkpt lat="47.30159" lon="-2.35186">
        <ele>30.799999237061</ele>
        <time>2020-10-18T07:39:18.000Z</time>
      </trkpt>
      <trkpt lat="47.30177" lon="-2.35175">
        <ele>30.799999237061</ele>
        <time>2020-10-18T07:39:22.000Z</time>
      </trkpt>
      <trkpt lat="47.3019" lon="-2.35172">
        <ele>30.799999237061</ele>
        <time>2020-10-18T07:39:24.000Z</time>
      </trkpt>
      <trkpt lat="47.30199" lon="-2.35166">
        <ele>30.799999237061</ele>
        <time>2020-10-18T07:39:26.000Z</time>
      </trkpt>
      <trkpt lat="47.30206" lon="-2.35147">
        <ele>30.799999237061</ele>
        <time>2020-10-18T07:39:29.000Z</time>
      </trkpt>
      <trkpt lat="47.30206" lon="-2.35125">
        <ele>31.200000762939</ele>
        <time>2020-10-18T07:39:32.000Z</time>
      </trkpt>
      <trkpt lat="47.30206" lon="-2.35117">
        <ele>31.60000038147</ele>
        <time>2020-10-18T07:39:33.000Z</time>
      </trkpt>
      <trkpt lat="47.30207" lon="-2.3511">
        <ele>32</ele>
        <time>2020-10-18T07:39:34.000Z</time>
      </trkpt>
      <trkpt lat="47.30207" lon="-2.35102">
        <ele>32.400001525879</ele>
        <time>2020-10-18T07:39:35.000Z</time>
      </trkpt>
      <trkpt lat="47.30208" lon="-2.35094">
        <ele>32.799999237061</ele>
        <time>2020-10-18T07:39:36.000Z</time>
      </trkpt>
      <trkpt lat="47.30208" lon="-2.35087">
        <ele>32.799999237061</ele>
        <time>2020-10-18T07:39:37.000Z</time>
      </trkpt>
      <trkpt lat="47.30208" lon="-2.35071">
        <ele>32.799999237061</ele>
        <time>2020-10-18T07:39:39.000Z</time>
      </trkpt>
      <trkpt lat="47.30208" lon="-2.35055">
        <ele>32.799999237061</ele>
        <time>2020-10-18T07:39:41.000Z</time>
      </trkpt>
      <trkpt lat="47.30208" lon="-2.35032">
        <ele>32.799999237061</ele>
        <time>2020-10-18T07:39:44.000Z</time>
      </trkpt>
      <trkpt lat="47.30207" lon="-2.34995">
        <ele>33.400001525879</ele>
        <time>2020-10-18T07:39:49.000Z</time>
      </trkpt>
      <trkpt lat="47.30206" lon="-2.34989">
        <ele>33.799999237061</ele>
        <time>2020-10-18T07:39:50.000Z</time>
      </trkpt>
      <trkpt lat="47.30206" lon="-2.34982">
        <ele>34.200000762939</ele>
        <time>2020-10-18T07:39:51.000Z</time>
      </trkpt>
      <trkpt lat="47.30207" lon="-2.34975">
        <ele>34.599998474121</ele>
        <time>2020-10-18T07:39:52.000Z</time>
      </trkpt>
      <trkpt lat="47.30207" lon="-2.34968">
        <ele>35</ele>
        <time>2020-10-18T07:39:53.000Z</time>
      </trkpt>
      <trkpt lat="47.30208" lon="-2.34946">
        <ele>35</ele>
        <time>2020-10-18T07:39:56.000Z</time>
      </trkpt>
      <trkpt lat="47.30208" lon="-2.34924">
        <ele>35</ele>
        <time>2020-10-18T07:39:59.000Z</time>
      </trkpt>
      <trkpt lat="47.3021" lon="-2.3491">
        <ele>35.400001525879</ele>
        <time>2020-10-18T07:40:01.000Z</time>
      </trkpt>
      <trkpt lat="47.30212" lon="-2.34904">
        <ele>35.799999237061</ele>
        <time>2020-10-18T07:40:02.000Z</time>
      </trkpt>
      <trkpt lat="47.30214" lon="-2.34899">
        <ele>36.200000762939</ele>
        <time>2020-10-18T07:40:03.000Z</time>
      </trkpt>
      <trkpt lat="47.30218" lon="-2.34895">
        <ele>36.599998474121</ele>
        <time>2020-10-18T07:40:04.000Z</time>
      </trkpt>
      <trkpt lat="47.30222" lon="-2.34891">
        <ele>37</ele>
        <time>2020-10-18T07:40:05.000Z</time>
      </trkpt>
      <trkpt lat="47.30236" lon="-2.3488">
        <ele>37</ele>
        <time>2020-10-18T07:40:08.000Z</time>
      </trkpt>
      <trkpt lat="47.30249" lon="-2.3487">
        <ele>37</ele>
        <time>2020-10-18T07:40:11.000Z</time>
      </trkpt>
      <trkpt lat="47.30283" lon="-2.34851">
        <ele>37</ele>
        <time>2020-10-18T07:40:18.000Z</time>
      </trkpt>
      <trkpt lat="47.30287" lon="-2.34848">
        <ele>37</ele>
        <time>2020-10-18T07:40:19.000Z</time>
      </trkpt>
      <trkpt lat="47.30297" lon="-2.34839">
        <ele>37</ele>
        <time>2020-10-18T07:40:21.000Z</time>
      </trkpt>
      <trkpt lat="47.30301" lon="-2.34834">
        <ele>37</ele>
        <time>2020-10-18T07:40:22.000Z</time>
      </trkpt>
      <trkpt lat="47.30305" lon="-2.34829">
        <ele>37</ele>
        <time>2020-10-18T07:40:23.000Z</time>
      </trkpt>
      <trkpt lat="47.30313" lon="-2.34818">
        <ele>37</ele>
        <time>2020-10-18T07:40:25.000Z</time>
      </trkpt>
      <trkpt lat="47.3032" lon="-2.34805">
        <ele>37</ele>
        <time>2020-10-18T07:40:27.000Z</time>
      </trkpt>
      <trkpt lat="47.30335" lon="-2.34781">
        <ele>37</ele>
        <time>2020-10-18T07:40:31.000Z</time>
      </trkpt>
      <trkpt lat="47.30343" lon="-2.34772">
        <ele>37</ele>
        <time>2020-10-18T07:40:33.000Z</time>
      </trkpt>
      <trkpt lat="47.30369" lon="-2.34752">
        <ele>37</ele>
        <time>2020-10-18T07:40:39.000Z</time>
      </trkpt>
      <trkpt lat="47.30398" lon="-2.34734">
        <ele>37</ele>
        <time>2020-10-18T07:40:45.000Z</time>
      </trkpt>
      <trkpt lat="47.30408" lon="-2.34726">
        <ele>37</ele>
        <time>2020-10-18T07:40:47.000Z</time>
      </trkpt>
      <trkpt lat="47.30426" lon="-2.3471">
        <ele>37</ele>
        <time>2020-10-18T07:40:50.000Z</time>
      </trkpt>
      <trkpt lat="47.30462" lon="-2.3468">
        <ele>37</ele>
        <time>2020-10-18T07:40:56.000Z</time>
      </trkpt>
      <trkpt lat="47.30494" lon="-2.34648">
        <ele>37</ele>
        <time>2020-10-18T07:41:02.000Z</time>
      </trkpt>
      <trkpt lat="47.30504" lon="-2.34632">
        <ele>37</ele>
        <time>2020-10-18T07:41:05.000Z</time>
      </trkpt>
      <trkpt lat="47.30509" lon="-2.3462">
        <ele>37</ele>
        <time>2020-10-18T07:41:07.000Z</time>
      </trkpt>
      <trkpt lat="47.30512" lon="-2.34615">
        <ele>37</ele>
        <time>2020-10-18T07:41:08.000Z</time>
      </trkpt>
      <trkpt lat="47.30523" lon="-2.34602">
        <ele>37</ele>
        <time>2020-10-18T07:41:11.000Z</time>
      </trkpt>
      <trkpt lat="47.30548" lon="-2.34562">
        <ele>37</ele>
        <time>2020-10-18T07:41:18.000Z</time>
      </trkpt>
      <trkpt lat="47.30558" lon="-2.34545">
        <ele>37</ele>
        <time>2020-10-18T07:41:22.000Z</time>
      </trkpt>
      <trkpt lat="47.30559" lon="-2.3453">
        <ele>37</ele>
        <time>2020-10-18T07:41:26.000Z</time>
      </trkpt>
      <trkpt lat="47.30551" lon="-2.34509">
        <ele>37</ele>
        <time>2020-10-18T07:41:32.000Z</time>
      </trkpt>
      <trkpt lat="47.30537" lon="-2.34492">
        <ele>37.400001525879</ele>
        <time>2020-10-18T07:41:36.000Z</time>
      </trkpt>
      <trkpt lat="47.30534" lon="-2.34489">
        <ele>37.799999237061</ele>
        <time>2020-10-18T07:41:37.000Z</time>
      </trkpt>
      <trkpt lat="47.30531" lon="-2.34487">
        <ele>38.200000762939</ele>
        <time>2020-10-18T07:41:38.000Z</time>
      </trkpt>
      <trkpt lat="47.30528" lon="-2.34485">
        <ele>38.599998474121</ele>
        <time>2020-10-18T07:41:39.000Z</time>
      </trkpt>
      <trkpt lat="47.30525" lon="-2.34484">
        <ele>39</ele>
        <time>2020-10-18T07:41:40.000Z</time>
      </trkpt>
      <trkpt lat="47.3052" lon="-2.3448">
        <ele>39</ele>
        <time>2020-10-18T07:41:42.000Z</time>
      </trkpt>
      <trkpt lat="47.30512" lon="-2.34464">
        <ele>39</ele>
        <time>2020-10-18T07:41:47.000Z</time>
      </trkpt>
      <trkpt lat="47.30507" lon="-2.3444">
        <ele>39</ele>
        <time>2020-10-18T07:41:52.000Z</time>
      </trkpt>
      <trkpt lat="47.30508" lon="-2.34416">
        <ele>39</ele>
        <time>2020-10-18T07:41:56.000Z</time>
      </trkpt>
      <trkpt lat="47.3051" lon="-2.34393">
        <ele>39</ele>
        <time>2020-10-18T07:42:01.000Z</time>
      </trkpt>
      <trkpt lat="47.30513" lon="-2.34354">
        <ele>39</ele>
        <time>2020-10-18T07:42:06.000Z</time>
      </trkpt>
      <trkpt lat="47.3051" lon="-2.34318">
        <ele>39</ele>
        <time>2020-10-18T07:42:12.000Z</time>
      </trkpt>
      <trkpt lat="47.30499" lon="-2.34287">
        <ele>39</ele>
        <time>2020-10-18T07:42:17.000Z</time>
      </trkpt>
      <trkpt lat="47.30497" lon="-2.34281">
        <ele>39</ele>
        <time>2020-10-18T07:42:18.000Z</time>
      </trkpt>
      <trkpt lat="47.30492" lon="-2.34256">
        <ele>39</ele>
        <time>2020-10-18T07:42:23.000Z</time>
      </trkpt>
      <trkpt lat="47.305" lon="-2.34222">
        <ele>39</ele>
        <time>2020-10-18T07:42:29.000Z</time>
      </trkpt>
      <trkpt lat="47.30511" lon="-2.34198">
        <ele>38.599998474121</ele>
        <time>2020-10-18T07:42:33.000Z</time>
      </trkpt>
      <trkpt lat="47.30514" lon="-2.34193">
        <ele>38.200000762939</ele>
        <time>2020-10-18T07:42:34.000Z</time>
      </trkpt>
      <trkpt lat="47.30517" lon="-2.34188">
        <ele>37.400001525879</ele>
        <time>2020-10-18T07:42:35.000Z</time>
      </trkpt>
      <trkpt lat="47.30519" lon="-2.34183">
        <ele>37</ele>
        <time>2020-10-18T07:42:36.000Z</time>
      </trkpt>
      <trkpt lat="47.30532" lon="-2.34172">
        <ele>37</ele>
        <time>2020-10-18T07:42:40.000Z</time>
      </trkpt>
      <trkpt lat="47.30554" lon="-2.34156">
        <ele>37</ele>
        <time>2020-10-18T07:42:46.000Z</time>
      </trkpt>
      <trkpt lat="47.30574" lon="-2.34136">
        <ele>37</ele>
        <time>2020-10-18T07:42:51.000Z</time>
      </trkpt>
      <trkpt lat="47.30589" lon="-2.34114">
        <ele>37</ele>
        <time>2020-10-18T07:42:56.000Z</time>
      </trkpt>
      <trkpt lat="47.30601" lon="-2.34085">
        <ele>37</ele>
        <time>2020-10-18T07:43:02.000Z</time>
      </trkpt>
      <trkpt lat="47.30616" lon="-2.3407">
        <ele>37</ele>
        <time>2020-10-18T07:43:07.000Z</time>
      </trkpt>
      <trkpt lat="47.30641" lon="-2.34053">
        <ele>37</ele>
        <time>2020-10-18T07:43:14.000Z</time>
      </trkpt>
      <trkpt lat="47.30655" lon="-2.34048">
        <ele>36.599998474121</ele>
        <time>2020-10-18T07:43:17.000Z</time>
      </trkpt>
      <trkpt lat="47.30659" lon="-2.34046">
        <ele>36.200000762939</ele>
        <time>2020-10-18T07:43:18.000Z</time>
      </trkpt>
      <trkpt lat="47.30663" lon="-2.34043">
        <ele>35.799999237061</ele>
        <time>2020-10-18T07:43:19.000Z</time>
      </trkpt>
      <trkpt lat="47.30666" lon="-2.3404">
        <ele>35.400001525879</ele>
        <time>2020-10-18T07:43:20.000Z</time>
      </trkpt>
      <trkpt lat="47.30669" lon="-2.34037">
        <ele>35</ele>
        <time>2020-10-18T07:43:21.000Z</time>
      </trkpt>
      <trkpt lat="47.30683" lon="-2.34023">
        <ele>35</ele>
        <time>2020-10-18T07:43:26.000Z</time>
      </trkpt>
      <trkpt lat="47.30696" lon="-2.34019">
        <ele>35</ele>
        <time>2020-10-18T07:43:30.000Z</time>
      </trkpt>
      <trkpt lat="47.30716" lon="-2.34017">
        <ele>35</ele>
        <time>2020-10-18T07:43:37.000Z</time>
      </trkpt>
      <trkpt lat="47.3072" lon="-2.34013">
        <ele>35</ele>
        <time>2020-10-18T07:43:39.000Z</time>
      </trkpt>
      <trkpt lat="47.30722" lon="-2.34004">
        <ele>35</ele>
        <time>2020-10-18T07:43:41.000Z</time>
      </trkpt>
      <trkpt lat="47.30726" lon="-2.33985">
        <ele>35</ele>
        <time>2020-10-18T07:43:45.000Z</time>
      </trkpt>
      <trkpt lat="47.30736" lon="-2.3398">
        <ele>35</ele>
        <time>2020-10-18T07:43:49.000Z</time>
      </trkpt>
      <trkpt lat="47.30738" lon="-2.33979">
        <ele>35</ele>
        <time>2020-10-18T07:43:50.000Z</time>
      </trkpt>
      <trkpt lat="47.30754" lon="-2.33977">
        <ele>35</ele>
        <time>2020-10-18T07:43:56.000Z</time>
      </trkpt>
      <trkpt lat="47.30772" lon="-2.3397">
        <ele>35</ele>
        <time>2020-10-18T07:44:03.000Z</time>
      </trkpt>
      <trkpt lat="47.30795" lon="-2.33964">
        <ele>35</ele>
        <time>2020-10-18T07:44:11.000Z</time>
      </trkpt>
      <trkpt lat="47.30811" lon="-2.33957">
        <ele>35</ele>
        <time>2020-10-18T07:44:17.000Z</time>
      </trkpt>
      <trkpt lat="47.30834" lon="-2.33952">
        <ele>35</ele>
        <time>2020-10-18T07:44:22.000Z</time>
      </trkpt>
      <trkpt lat="47.3087" lon="-2.33948">
        <ele>35</ele>
        <time>2020-10-18T07:44:30.000Z</time>
      </trkpt>
      <trkpt lat="47.30901" lon="-2.33944">
        <ele>35</ele>
        <time>2020-10-18T07:44:37.000Z</time>
      </trkpt>
      <trkpt lat="47.30937" lon="-2.33947">
        <ele>35</ele>
        <time>2020-10-18T07:44:45.000Z</time>
      </trkpt>
      <trkpt lat="47.3097" lon="-2.33955">
        <ele>35</ele>
        <time>2020-10-18T07:44:52.000Z</time>
      </trkpt>
      <trkpt lat="47.31008" lon="-2.33953">
        <ele>35</ele>
        <time>2020-10-18T07:44:59.000Z</time>
      </trkpt>
      <trkpt lat="47.31047" lon="-2.33947">
        <ele>35</ele>
        <time>2020-10-18T07:45:06.000Z</time>
      </trkpt>
      <trkpt lat="47.31052" lon="-2.33947">
        <ele>35</ele>
        <time>2020-10-18T07:45:07.000Z</time>
      </trkpt>
      <trkpt lat="47.31061" lon="-2.33953">
        <ele>35</ele>
        <time>2020-10-18T07:45:09.000Z</time>
      </trkpt>
      <trkpt lat="47.31065" lon="-2.33975">
        <ele>35</ele>
        <time>2020-10-18T07:45:12.000Z</time>
      </trkpt>
      <trkpt lat="47.31066" lon="-2.3399">
        <ele>35</ele>
        <time>2020-10-18T07:45:14.000Z</time>
      </trkpt>
      <trkpt lat="47.31068" lon="-2.34031">
        <ele>35</ele>
        <time>2020-10-18T07:45:19.000Z</time>
      </trkpt>
      <trkpt lat="47.31075" lon="-2.34073">
        <ele>35</ele>
        <time>2020-10-18T07:45:24.000Z</time>
      </trkpt>
      <trkpt lat="47.31078" lon="-2.34082">
        <ele>35</ele>
        <time>2020-10-18T07:45:25.000Z</time>
      </trkpt>
      <trkpt lat="47.31087" lon="-2.34107">
        <ele>34</ele>
        <time>2020-10-18T07:45:28.000Z</time>
      </trkpt>
      <trkpt lat="47.3109" lon="-2.34115">
        <ele>33.599998474121</ele>
        <time>2020-10-18T07:45:29.000Z</time>
      </trkpt>
      <trkpt lat="47.31095" lon="-2.34123">
        <ele>33.200000762939</ele>
        <time>2020-10-18T07:45:30.000Z</time>
      </trkpt>
      <trkpt lat="47.31099" lon="-2.34132">
        <ele>32.799999237061</ele>
        <time>2020-10-18T07:45:31.000Z</time>
      </trkpt>
      <trkpt lat="47.31119" lon="-2.3417">
        <ele>32.200000762939</ele>
        <time>2020-10-18T07:45:35.000Z</time>
      </trkpt>
      <trkpt lat="47.31124" lon="-2.3418">
        <ele>31.799999237061</ele>
        <time>2020-10-18T07:45:36.000Z</time>
      </trkpt>
      <trkpt lat="47.31129" lon="-2.3419">
        <ele>31.39999961853</ele>
        <time>2020-10-18T07:45:37.000Z</time>
      </trkpt>
      <trkpt lat="47.31135" lon="-2.342">
        <ele>31</ele>
        <time>2020-10-18T07:45:38.000Z</time>
      </trkpt>
      <trkpt lat="47.3114" lon="-2.3421">
        <ele>30.39999961853</ele>
        <time>2020-10-18T07:45:39.000Z</time>
      </trkpt>
      <trkpt lat="47.31152" lon="-2.34231">
        <ele>30</ele>
        <time>2020-10-18T07:45:41.000Z</time>
      </trkpt>
      <trkpt lat="47.31157" lon="-2.34241">
        <ele>29.60000038147</ele>
        <time>2020-10-18T07:45:42.000Z</time>
      </trkpt>
      <trkpt lat="47.31162" lon="-2.34252">
        <ele>29.200000762939</ele>
        <time>2020-10-18T07:45:43.000Z</time>
      </trkpt>
      <trkpt lat="47.31167" lon="-2.34262">
        <ele>28.60000038147</ele>
        <time>2020-10-18T07:45:44.000Z</time>
      </trkpt>
      <trkpt lat="47.31172" lon="-2.34273">
        <ele>28.200000762939</ele>
        <time>2020-10-18T07:45:45.000Z</time>
      </trkpt>
      <trkpt lat="47.31186" lon="-2.34304">
        <ele>27.799999237061</ele>
        <time>2020-10-18T07:45:48.000Z</time>
      </trkpt>
      <trkpt lat="47.31191" lon="-2.34314">
        <ele>27.200000762939</ele>
        <time>2020-10-18T07:45:49.000Z</time>
      </trkpt>
      <trkpt lat="47.31196" lon="-2.34324">
        <ele>26.799999237061</ele>
        <time>2020-10-18T07:45:50.000Z</time>
      </trkpt>
      <trkpt lat="47.31201" lon="-2.34332">
        <ele>26.39999961853</ele>
        <time>2020-10-18T07:45:51.000Z</time>
      </trkpt>
      <trkpt lat="47.31207" lon="-2.3434">
        <ele>25.799999237061</ele>
        <time>2020-10-18T07:45:52.000Z</time>
      </trkpt>
      <trkpt lat="47.3122" lon="-2.34351">
        <ele>25.799999237061</ele>
        <time>2020-10-18T07:45:54.000Z</time>
      </trkpt>
      <trkpt lat="47.31241" lon="-2.3436">
        <ele>25.799999237061</ele>
        <time>2020-10-18T07:45:57.000Z</time>
      </trkpt>
      <trkpt lat="47.31248" lon="-2.34363">
        <ele>25.799999237061</ele>
        <time>2020-10-18T07:45:58.000Z</time>
      </trkpt>
      <trkpt lat="47.31255" lon="-2.34367">
        <ele>25.799999237061</ele>
        <time>2020-10-18T07:45:59.000Z</time>
      </trkpt>
      <trkpt lat="47.31268" lon="-2.34388">
        <ele>25.799999237061</ele>
        <time>2020-10-18T07:46:02.000Z</time>
      </trkpt>
      <trkpt lat="47.3127" lon="-2.34396">
        <ele>25.799999237061</ele>
        <time>2020-10-18T07:46:03.000Z</time>
      </trkpt>
      <trkpt lat="47.31271" lon="-2.34405">
        <ele>25.799999237061</ele>
        <time>2020-10-18T07:46:04.000Z</time>
      </trkpt>
      <trkpt lat="47.31275" lon="-2.34432">
        <ele>25.799999237061</ele>
        <time>2020-10-18T07:46:07.000Z</time>
      </trkpt>
      <trkpt lat="47.31277" lon="-2.34458">
        <ele>26.200000762939</ele>
        <time>2020-10-18T07:46:10.000Z</time>
      </trkpt>
      <trkpt lat="47.31278" lon="-2.34467">
        <ele>26.60000038147</ele>
        <time>2020-10-18T07:46:11.000Z</time>
      </trkpt>
      <trkpt lat="47.31279" lon="-2.34476">
        <ele>27</ele>
        <time>2020-10-18T07:46:12.000Z</time>
      </trkpt>
      <trkpt lat="47.31279" lon="-2.34484">
        <ele>27.39999961853</ele>
        <time>2020-10-18T07:46:13.000Z</time>
      </trkpt>
      <trkpt lat="47.3128" lon="-2.34493">
        <ele>28</ele>
        <time>2020-10-18T07:46:14.000Z</time>
      </trkpt>
      <trkpt lat="47.31282" lon="-2.3451">
        <ele>28</ele>
        <time>2020-10-18T07:46:16.000Z</time>
      </trkpt>
      <trkpt lat="47.31286" lon="-2.3455">
        <ele>28.39999961853</ele>
        <time>2020-10-18T07:46:21.000Z</time>
      </trkpt>
      <trkpt lat="47.31286" lon="-2.34558">
        <ele>28.799999237061</ele>
        <time>2020-10-18T07:46:22.000Z</time>
      </trkpt>
      <trkpt lat="47.31287" lon="-2.34566">
        <ele>29.200000762939</ele>
        <time>2020-10-18T07:46:23.000Z</time>
      </trkpt>
      <trkpt lat="47.31288" lon="-2.34574">
        <ele>29.60000038147</ele>
        <time>2020-10-18T07:46:24.000Z</time>
      </trkpt>
      <trkpt lat="47.31288" lon="-2.34582">
        <ele>30</ele>
        <time>2020-10-18T07:46:25.000Z</time>
      </trkpt>
      <trkpt lat="47.31291" lon="-2.34611">
        <ele>30</ele>
        <time>2020-10-18T07:46:29.000Z</time>
      </trkpt>
      <trkpt lat="47.31294" lon="-2.3464">
        <ele>30.39999961853</ele>
        <time>2020-10-18T07:46:33.000Z</time>
      </trkpt>
      <trkpt lat="47.31295" lon="-2.34647">
        <ele>30.799999237061</ele>
        <time>2020-10-18T07:46:34.000Z</time>
      </trkpt>
      <trkpt lat="47.31295" lon="-2.34653">
        <ele>31.200000762939</ele>
        <time>2020-10-18T07:46:35.000Z</time>
      </trkpt>
      <trkpt lat="47.31295" lon="-2.34658">
        <ele>31.60000038147</ele>
        <time>2020-10-18T07:46:36.000Z</time>
      </trkpt>
      <trkpt lat="47.31294" lon="-2.34665">
        <ele>32</ele>
        <time>2020-10-18T07:46:37.000Z</time>
      </trkpt>
      <trkpt lat="47.31292" lon="-2.34677">
        <ele>32</ele>
        <time>2020-10-18T07:46:39.000Z</time>
      </trkpt>
      <trkpt lat="47.31283" lon="-2.34693">
        <ele>32</ele>
        <time>2020-10-18T07:46:42.000Z</time>
      </trkpt>
      <trkpt lat="47.3128" lon="-2.34699">
        <ele>32</ele>
        <time>2020-10-18T07:46:43.000Z</time>
      </trkpt>
      <trkpt lat="47.31279" lon="-2.34706">
        <ele>32.599998474121</ele>
        <time>2020-10-18T07:46:44.000Z</time>
      </trkpt>
      <trkpt lat="47.31279" lon="-2.34713">
        <ele>33</ele>
        <time>2020-10-18T07:46:45.000Z</time>
      </trkpt>
      <trkpt lat="47.3128" lon="-2.34721">
        <ele>33.400001525879</ele>
        <time>2020-10-18T07:46:46.000Z</time>
      </trkpt>
      <trkpt lat="47.31281" lon="-2.34728">
        <ele>33.799999237061</ele>
        <time>2020-10-18T07:46:47.000Z</time>
      </trkpt>
      <trkpt lat="47.31282" lon="-2.34737">
        <ele>34.200000762939</ele>
        <time>2020-10-18T07:46:48.000Z</time>
      </trkpt>
      <trkpt lat="47.31284" lon="-2.34753">
        <ele>34.200000762939</ele>
        <time>2020-10-18T07:46:50.000Z</time>
      </trkpt>
      <trkpt lat="47.31296" lon="-2.34809">
        <ele>34.200000762939</ele>
        <time>2020-10-18T07:46:57.000Z</time>
      </trkpt>
      <trkpt lat="47.31305" lon="-2.3486">
        <ele>34.200000762939</ele>
        <time>2020-10-18T07:47:03.000Z</time>
      </trkpt>
      <trkpt lat="47.3131" lon="-2.34878">
        <ele>34.200000762939</ele>
        <time>2020-10-18T07:47:05.000Z</time>
      </trkpt>
      <trkpt lat="47.31318" lon="-2.34905">
        <ele>34.200000762939</ele>
        <time>2020-10-18T07:47:08.000Z</time>
      </trkpt>
      <trkpt lat="47.31337" lon="-2.34973">
        <ele>34.200000762939</ele>
        <time>2020-10-18T07:47:15.000Z</time>
      </trkpt>
      <trkpt lat="47.31345" lon="-2.35031">
        <ele>34.200000762939</ele>
        <time>2020-10-18T07:47:21.000Z</time>
      </trkpt>
      <trkpt lat="47.31345" lon="-2.35102">
        <ele>34.200000762939</ele>
        <time>2020-10-18T07:47:28.000Z</time>
      </trkpt>
      <trkpt lat="47.31342" lon="-2.35181">
        <ele>34.200000762939</ele>
        <time>2020-10-18T07:47:36.000Z</time>
      </trkpt>
      <trkpt lat="47.31341" lon="-2.35239">
        <ele>34.200000762939</ele>
        <time>2020-10-18T07:47:42.000Z</time>
      </trkpt>
      <trkpt lat="47.31339" lon="-2.35322">
        <ele>34.200000762939</ele>
        <time>2020-10-18T07:47:51.000Z</time>
      </trkpt>
      <trkpt lat="47.31338" lon="-2.35377">
        <ele>34.200000762939</ele>
        <time>2020-10-18T07:47:57.000Z</time>
      </trkpt>
      <trkpt lat="47.31337" lon="-2.35441">
        <ele>34.200000762939</ele>
        <time>2020-10-18T07:48:04.000Z</time>
      </trkpt>
      <trkpt lat="47.31336" lon="-2.35463">
        <ele>34.200000762939</ele>
        <time>2020-10-18T07:48:07.000Z</time>
      </trkpt>
      <trkpt lat="47.31335" lon="-2.35478">
        <ele>34.200000762939</ele>
        <time>2020-10-18T07:48:09.000Z</time>
      </trkpt>
      <trkpt lat="47.31333" lon="-2.35512">
        <ele>34.200000762939</ele>
        <time>2020-10-18T07:48:14.000Z</time>
      </trkpt>
      <trkpt lat="47.3133" lon="-2.35549">
        <ele>34.200000762939</ele>
        <time>2020-10-18T07:48:20.000Z</time>
      </trkpt>
      <trkpt lat="47.3133" lon="-2.35567">
        <ele>34.200000762939</ele>
        <time>2020-10-18T07:48:23.000Z</time>
      </trkpt>
      <trkpt lat="47.3133" lon="-2.35579">
        <ele>34.200000762939</ele>
        <time>2020-10-18T07:48:25.000Z</time>
      </trkpt>
      <trkpt lat="47.31332" lon="-2.35612">
        <ele>34.599998474121</ele>
        <time>2020-10-18T07:48:30.000Z</time>
      </trkpt>
      <trkpt lat="47.31332" lon="-2.3562">
        <ele>35</ele>
        <time>2020-10-18T07:48:31.000Z</time>
      </trkpt>
      <trkpt lat="47.31332" lon="-2.35627">
        <ele>35.400001525879</ele>
        <time>2020-10-18T07:48:32.000Z</time>
      </trkpt>
      <trkpt lat="47.31332" lon="-2.35634">
        <ele>35.799999237061</ele>
        <time>2020-10-18T07:48:33.000Z</time>
      </trkpt>
      <trkpt lat="47.31333" lon="-2.35642">
        <ele>36.200000762939</ele>
        <time>2020-10-18T07:48:34.000Z</time>
      </trkpt>
      <trkpt lat="47.31334" lon="-2.3565">
        <ele>36.200000762939</ele>
        <time>2020-10-18T07:48:35.000Z</time>
      </trkpt>
      <trkpt lat="47.31334" lon="-2.35705">
        <ele>36.200000762939</ele>
        <time>2020-10-18T07:48:42.000Z</time>
      </trkpt>
      <trkpt lat="47.31334" lon="-2.35721">
        <ele>36.200000762939</ele>
        <time>2020-10-18T07:48:44.000Z</time>
      </trkpt>
      <trkpt lat="47.31333" lon="-2.35744">
        <ele>36.200000762939</ele>
        <time>2020-10-18T07:48:47.000Z</time>
      </trkpt>
      <trkpt lat="47.31333" lon="-2.35769">
        <ele>36.200000762939</ele>
        <time>2020-10-18T07:48:50.000Z</time>
      </trkpt>
      <trkpt lat="47.31335" lon="-2.35777">
        <ele>36.200000762939</ele>
        <time>2020-10-18T07:48:51.000Z</time>
      </trkpt>
      <trkpt lat="47.3134" lon="-2.35828">
        <ele>36.200000762939</ele>
        <time>2020-10-18T07:48:57.000Z</time>
      </trkpt>
      <trkpt lat="47.31345" lon="-2.35862">
        <ele>36.200000762939</ele>
        <time>2020-10-18T07:49:01.000Z</time>
      </trkpt>
      <trkpt lat="47.31348" lon="-2.35871">
        <ele>36.200000762939</ele>
        <time>2020-10-18T07:49:02.000Z</time>
      </trkpt>
      <trkpt lat="47.31368" lon="-2.35912">
        <ele>36.200000762939</ele>
        <time>2020-10-18T07:49:07.000Z</time>
      </trkpt>
      <trkpt lat="47.31393" lon="-2.35956">
        <ele>36.200000762939</ele>
        <time>2020-10-18T07:49:13.000Z</time>
      </trkpt>
      <trkpt lat="47.31408" lon="-2.35993">
        <ele>36.200000762939</ele>
        <time>2020-10-18T07:49:18.000Z</time>
      </trkpt>
      <trkpt lat="47.31422" lon="-2.36024">
        <ele>36.200000762939</ele>
        <time>2020-10-18T07:49:23.000Z</time>
      </trkpt>
      <trkpt lat="47.31427" lon="-2.36045">
        <ele>36.599998474121</ele>
        <time>2020-10-18T07:49:26.000Z</time>
      </trkpt>
      <trkpt lat="47.31429" lon="-2.36053">
        <ele>37</ele>
        <time>2020-10-18T07:49:27.000Z</time>
      </trkpt>
      <trkpt lat="47.31431" lon="-2.3606">
        <ele>37.400001525879</ele>
        <time>2020-10-18T07:49:28.000Z</time>
      </trkpt>
      <trkpt lat="47.31433" lon="-2.36067">
        <ele>37.799999237061</ele>
        <time>2020-10-18T07:49:29.000Z</time>
      </trkpt>
      <trkpt lat="47.31435" lon="-2.36074">
        <ele>38.200000762939</ele>
        <time>2020-10-18T07:49:30.000Z</time>
      </trkpt>
      <trkpt lat="47.31446" lon="-2.36108">
        <ele>38.200000762939</ele>
        <time>2020-10-18T07:49:35.000Z</time>
      </trkpt>
      <trkpt lat="47.31458" lon="-2.36154">
        <ele>38.200000762939</ele>
        <time>2020-10-18T07:49:42.000Z</time>
      </trkpt>
      <trkpt lat="47.31464" lon="-2.36165">
        <ele>38.200000762939</ele>
        <time>2020-10-18T07:49:45.000Z</time>
      </trkpt>
      <trkpt lat="47.31466" lon="-2.36166">
        <ele>38.200000762939</ele>
        <time>2020-10-18T07:49:46.000Z</time>
      </trkpt>
      <trkpt lat="47.31475" lon="-2.36162">
        <ele>38.200000762939</ele>
        <time>2020-10-18T07:49:51.000Z</time>
      </trkpt>
      <trkpt lat="47.31479" lon="-2.36156">
        <ele>38.200000762939</ele>
        <time>2020-10-18T07:49:57.000Z</time>
      </trkpt>
      <trkpt lat="47.31481" lon="-2.36153">
        <ele>38.200000762939</ele>
        <time>2020-10-18T07:51:17.000Z</time>
      </trkpt>
      <trkpt lat="47.31483" lon="-2.36149">
        <ele>38.200000762939</ele>
        <time>2020-10-18T07:51:19.000Z</time>
      </trkpt>
      <trkpt lat="47.31493" lon="-2.36139">
        <ele>38.200000762939</ele>
        <time>2020-10-18T07:51:24.000Z</time>
      </trkpt>
      <trkpt lat="47.31495" lon="-2.36137">
        <ele>38.200000762939</ele>
        <time>2020-10-18T07:51:25.000Z</time>
      </trkpt>
      <trkpt lat="47.31511" lon="-2.3612">
        <ele>38.200000762939</ele>
        <time>2020-10-18T07:51:31.000Z</time>
      </trkpt>
      <trkpt lat="47.31526" lon="-2.36107">
        <ele>38.200000762939</ele>
        <time>2020-10-18T07:51:37.000Z</time>
      </trkpt>
      <trkpt lat="47.31533" lon="-2.361">
        <ele>38.200000762939</ele>
        <time>2020-10-18T07:51:43.000Z</time>
      </trkpt>
      <trkpt lat="47.31536" lon="-2.36095">
        <ele>38.200000762939</ele>
        <time>2020-10-18T07:52:04.000Z</time>
      </trkpt>
      <trkpt lat="47.31541" lon="-2.3609">
        <ele>38.200000762939</ele>
        <time>2020-10-18T07:52:06.000Z</time>
      </trkpt>
      <trkpt lat="47.31554" lon="-2.36073">
        <ele>38.200000762939</ele>
        <time>2020-10-18T07:52:11.000Z</time>
      </trkpt>
      <trkpt lat="47.31572" lon="-2.36056">
        <ele>38.200000762939</ele>
        <time>2020-10-18T07:52:16.000Z</time>
      </trkpt>
      <trkpt lat="47.3158" lon="-2.36047">
        <ele>38.200000762939</ele>
        <time>2020-10-18T07:52:18.000Z</time>
      </trkpt>
      <trkpt lat="47.31604" lon="-2.36025">
        <ele>38.200000762939</ele>
        <time>2020-10-18T07:52:23.000Z</time>
      </trkpt>
      <trkpt lat="47.31613" lon="-2.36014">
        <ele>38.200000762939</ele>
        <time>2020-10-18T07:52:25.000Z</time>
      </trkpt>
      <trkpt lat="47.31626" lon="-2.35999">
        <ele>38.200000762939</ele>
        <time>2020-10-18T07:52:28.000Z</time>
      </trkpt>
      <trkpt lat="47.31652" lon="-2.35974">
        <ele>38.200000762939</ele>
        <time>2020-10-18T07:52:34.000Z</time>
      </trkpt>
      <trkpt lat="47.31675" lon="-2.35956">
        <ele>38.200000762939</ele>
        <time>2020-10-18T07:52:39.000Z</time>
      </trkpt>
      <trkpt lat="47.3168" lon="-2.35953">
        <ele>38.200000762939</ele>
        <time>2020-10-18T07:52:40.000Z</time>
      </trkpt>
      <trkpt lat="47.317" lon="-2.35941">
        <ele>37.799999237061</ele>
        <time>2020-10-18T07:52:44.000Z</time>
      </trkpt>
      <trkpt lat="47.31705" lon="-2.35938">
        <ele>37.400001525879</ele>
        <time>2020-10-18T07:52:45.000Z</time>
      </trkpt>
      <trkpt lat="47.3171" lon="-2.35936">
        <ele>37</ele>
        <time>2020-10-18T07:52:46.000Z</time>
      </trkpt>
      <trkpt lat="47.31714" lon="-2.35933">
        <ele>36.599998474121</ele>
        <time>2020-10-18T07:52:47.000Z</time>
      </trkpt>
      <trkpt lat="47.31719" lon="-2.3593">
        <ele>36.200000762939</ele>
        <time>2020-10-18T07:52:48.000Z</time>
      </trkpt>
      <trkpt lat="47.31748" lon="-2.35912">
        <ele>36.200000762939</ele>
        <time>2020-10-18T07:52:54.000Z</time>
      </trkpt>
      <trkpt lat="47.31775" lon="-2.35898">
        <ele>35.799999237061</ele>
        <time>2020-10-18T07:52:59.000Z</time>
      </trkpt>
      <trkpt lat="47.31781" lon="-2.35894">
        <ele>35.400001525879</ele>
        <time>2020-10-18T07:53:00.000Z</time>
      </trkpt>
      <trkpt lat="47.31786" lon="-2.35891">
        <ele>35</ele>
        <time>2020-10-18T07:53:01.000Z</time>
      </trkpt>
      <trkpt lat="47.31792" lon="-2.35889">
        <ele>34.599998474121</ele>
        <time>2020-10-18T07:53:02.000Z</time>
      </trkpt>
      <trkpt lat="47.31797" lon="-2.35887">
        <ele>34.200000762939</ele>
        <time>2020-10-18T07:53:03.000Z</time>
      </trkpt>
      <trkpt lat="47.31802" lon="-2.35885">
        <ele>34.200000762939</ele>
        <time>2020-10-18T07:53:04.000Z</time>
      </trkpt>
      <trkpt lat="47.31807" lon="-2.35883">
        <ele>34.200000762939</ele>
        <time>2020-10-18T07:53:05.000Z</time>
      </trkpt>
      <trkpt lat="47.31816" lon="-2.35879">
        <ele>34.200000762939</ele>
        <time>2020-10-18T07:53:07.000Z</time>
      </trkpt>
      <trkpt lat="47.31822" lon="-2.3587">
        <ele>34.200000762939</ele>
        <time>2020-10-18T07:53:09.000Z</time>
      </trkpt>
      <trkpt lat="47.31823" lon="-2.35855">
        <ele>34.200000762939</ele>
        <time>2020-10-18T07:53:12.000Z</time>
      </trkpt>
      <trkpt lat="47.31822" lon="-2.35849">
        <ele>34.200000762939</ele>
        <time>2020-10-18T07:53:13.000Z</time>
      </trkpt>
      <trkpt lat="47.3182" lon="-2.35844">
        <ele>34.200000762939</ele>
        <time>2020-10-18T07:53:14.000Z</time>
      </trkpt>
      <trkpt lat="47.31815" lon="-2.35835">
        <ele>34.200000762939</ele>
        <time>2020-10-18T07:53:16.000Z</time>
      </trkpt>
      <trkpt lat="47.31803" lon="-2.35817">
        <ele>34.200000762939</ele>
        <time>2020-10-18T07:53:20.000Z</time>
      </trkpt>
      <trkpt lat="47.31795" lon="-2.35807">
        <ele>34.200000762939</ele>
        <time>2020-10-18T07:53:22.000Z</time>
      </trkpt>
      <trkpt lat="47.31788" lon="-2.35797">
        <ele>34.200000762939</ele>
        <time>2020-10-18T07:53:24.000Z</time>
      </trkpt>
      <trkpt lat="47.31782" lon="-2.35776">
        <ele>34.200000762939</ele>
        <time>2020-10-18T07:53:27.000Z</time>
      </trkpt>
      <trkpt lat="47.3178" lon="-2.35752">
        <ele>34.200000762939</ele>
        <time>2020-10-18T07:53:30.000Z</time>
      </trkpt>
      <trkpt lat="47.31781" lon="-2.35734">
        <ele>34.200000762939</ele>
        <time>2020-10-18T07:53:32.000Z</time>
      </trkpt>
      <trkpt lat="47.3178" lon="-2.35718">
        <ele>33.799999237061</ele>
        <time>2020-10-18T07:53:34.000Z</time>
      </trkpt>
      <trkpt lat="47.3178" lon="-2.35708">
        <ele>33.400001525879</ele>
        <time>2020-10-18T07:53:35.000Z</time>
      </trkpt>
      <trkpt lat="47.3178" lon="-2.35699">
        <ele>33</ele>
        <time>2020-10-18T07:53:36.000Z</time>
      </trkpt>
      <trkpt lat="47.3178" lon="-2.35689">
        <ele>32.599998474121</ele>
        <time>2020-10-18T07:53:37.000Z</time>
      </trkpt>
      <trkpt lat="47.31781" lon="-2.35679">
        <ele>32.200000762939</ele>
        <time>2020-10-18T07:53:38.000Z</time>
      </trkpt>
      <trkpt lat="47.31781" lon="-2.35652">
        <ele>31.799999237061</ele>
        <time>2020-10-18T07:53:41.000Z</time>
      </trkpt>
      <trkpt lat="47.31782" lon="-2.35644">
        <ele>31.39999961853</ele>
        <time>2020-10-18T07:53:42.000Z</time>
      </trkpt>
      <trkpt lat="47.31784" lon="-2.35635">
        <ele>30.799999237061</ele>
        <time>2020-10-18T07:53:43.000Z</time>
      </trkpt>
      <trkpt lat="47.31786" lon="-2.35626">
        <ele>30.39999961853</ele>
        <time>2020-10-18T07:53:44.000Z</time>
      </trkpt>
      <trkpt lat="47.31789" lon="-2.35618">
        <ele>30</ele>
        <time>2020-10-18T07:53:45.000Z</time>
      </trkpt>
      <trkpt lat="47.31798" lon="-2.35594">
        <ele>30</ele>
        <time>2020-10-18T07:53:48.000Z</time>
      </trkpt>
      <trkpt lat="47.31804" lon="-2.35579">
        <ele>30</ele>
        <time>2020-10-18T07:53:50.000Z</time>
      </trkpt>
      <trkpt lat="47.31815" lon="-2.35556">
        <ele>30</ele>
        <time>2020-10-18T07:53:54.000Z</time>
      </trkpt>
      <trkpt lat="47.31819" lon="-2.35552">
        <ele>29.60000038147</ele>
        <time>2020-10-18T07:53:55.000Z</time>
      </trkpt>
      <trkpt lat="47.31823" lon="-2.35548">
        <ele>29.200000762939</ele>
        <time>2020-10-18T07:53:56.000Z</time>
      </trkpt>
      <trkpt lat="47.31826" lon="-2.35543">
        <ele>28.799999237061</ele>
        <time>2020-10-18T07:53:57.000Z</time>
      </trkpt>
      <trkpt lat="47.31828" lon="-2.35539">
        <ele>28.39999961853</ele>
        <time>2020-10-18T07:53:58.000Z</time>
      </trkpt>
      <trkpt lat="47.31829" lon="-2.35534">
        <ele>27.799999237061</ele>
        <time>2020-10-18T07:53:59.000Z</time>
      </trkpt>
      <trkpt lat="47.31828" lon="-2.35529">
        <ele>27.799999237061</ele>
        <time>2020-10-18T07:54:00.000Z</time>
      </trkpt>
      <trkpt lat="47.3182" lon="-2.35505">
        <ele>27.799999237061</ele>
        <time>2020-10-18T07:54:04.000Z</time>
      </trkpt>
      <trkpt lat="47.31812" lon="-2.35484">
        <ele>27.799999237061</ele>
        <time>2020-10-18T07:54:07.000Z</time>
      </trkpt>
      <trkpt lat="47.31803" lon="-2.35466">
        <ele>27.799999237061</ele>
        <time>2020-10-18T07:54:10.000Z</time>
      </trkpt>
      <trkpt lat="47.3179" lon="-2.35441">
        <ele>27.799999237061</ele>
        <time>2020-10-18T07:54:15.000Z</time>
      </trkpt>
      <trkpt lat="47.31777" lon="-2.35421">
        <ele>27.799999237061</ele>
        <time>2020-10-18T07:54:19.000Z</time>
      </trkpt>
      <trkpt lat="47.31771" lon="-2.35413">
        <ele>27.799999237061</ele>
        <time>2020-10-18T07:54:21.000Z</time>
      </trkpt>
      <trkpt lat="47.31767" lon="-2.35408">
        <ele>28.39999961853</ele>
        <time>2020-10-18T07:54:22.000Z</time>
      </trkpt>
      <trkpt lat="47.31765" lon="-2.35404">
        <ele>28.799999237061</ele>
        <time>2020-10-18T07:54:23.000Z</time>
      </trkpt>
      <trkpt lat="47.31762" lon="-2.35399">
        <ele>29.200000762939</ele>
        <time>2020-10-18T07:54:24.000Z</time>
      </trkpt>
      <trkpt lat="47.3176" lon="-2.35394">
        <ele>29.60000038147</ele>
        <time>2020-10-18T07:54:25.000Z</time>
      </trkpt>
      <trkpt lat="47.31758" lon="-2.3539">
        <ele>30</ele>
        <time>2020-10-18T07:54:26.000Z</time>
      </trkpt>
      <trkpt lat="47.31756" lon="-2.35386">
        <ele>30</ele>
        <time>2020-10-18T07:54:27.000Z</time>
      </trkpt>
      <trkpt lat="47.31753" lon="-2.35368">
        <ele>30</ele>
        <time>2020-10-18T07:54:31.000Z</time>
      </trkpt>
      <trkpt lat="47.31766" lon="-2.35347">
        <ele>30</ele>
        <time>2020-10-18T07:54:36.000Z</time>
      </trkpt>
      <trkpt lat="47.31792" lon="-2.35324">
        <ele>30</ele>
        <time>2020-10-18T07:54:42.000Z</time>
      </trkpt>
      <trkpt lat="47.31801" lon="-2.35314">
        <ele>30</ele>
        <time>2020-10-18T07:54:44.000Z</time>
      </trkpt>
      <trkpt lat="47.31814" lon="-2.35299">
        <ele>30</ele>
        <time>2020-10-18T07:54:47.000Z</time>
      </trkpt>
      <trkpt lat="47.31849" lon="-2.3527">
        <ele>30</ele>
        <time>2020-10-18T07:54:53.000Z</time>
      </trkpt>
      <trkpt lat="47.31855" lon="-2.35265">
        <ele>29.60000038147</ele>
        <time>2020-10-18T07:54:54.000Z</time>
      </trkpt>
      <trkpt lat="47.31862" lon="-2.35261">
        <ele>28.799999237061</ele>
        <time>2020-10-18T07:54:55.000Z</time>
      </trkpt>
      <trkpt lat="47.31869" lon="-2.35257">
        <ele>28.39999961853</ele>
        <time>2020-10-18T07:54:56.000Z</time>
      </trkpt>
      <trkpt lat="47.31875" lon="-2.35252">
        <ele>28</ele>
        <time>2020-10-18T07:54:57.000Z</time>
      </trkpt>
      <trkpt lat="47.31892" lon="-2.35239">
        <ele>28</ele>
        <time>2020-10-18T07:55:00.000Z</time>
      </trkpt>
      <trkpt lat="47.31929" lon="-2.35204">
        <ele>28</ele>
        <time>2020-10-18T07:55:07.000Z</time>
      </trkpt>
      <trkpt lat="47.31966" lon="-2.35164">
        <ele>28</ele>
        <time>2020-10-18T07:55:14.000Z</time>
      </trkpt>
      <trkpt lat="47.31971" lon="-2.35159">
        <ele>27.60000038147</ele>
        <time>2020-10-18T07:55:15.000Z</time>
      </trkpt>
      <trkpt lat="47.31976" lon="-2.35154">
        <ele>27.200000762939</ele>
        <time>2020-10-18T07:55:16.000Z</time>
      </trkpt>
      <trkpt lat="47.31982" lon="-2.35147">
        <ele>26.799999237061</ele>
        <time>2020-10-18T07:55:17.000Z</time>
      </trkpt>
      <trkpt lat="47.31988" lon="-2.35141">
        <ele>26.39999961853</ele>
        <time>2020-10-18T07:55:18.000Z</time>
      </trkpt>
      <trkpt lat="47.31993" lon="-2.35135">
        <ele>26</ele>
        <time>2020-10-18T07:55:19.000Z</time>
      </trkpt>
      <trkpt lat="47.31999" lon="-2.35129">
        <ele>26</ele>
        <time>2020-10-18T07:55:20.000Z</time>
      </trkpt>
      <trkpt lat="47.32026" lon="-2.35101">
        <ele>26</ele>
        <time>2020-10-18T07:55:25.000Z</time>
      </trkpt>
      <trkpt lat="47.32029" lon="-2.35095">
        <ele>26</ele>
        <time>2020-10-18T07:55:26.000Z</time>
      </trkpt>
      <trkpt lat="47.3203" lon="-2.35089">
        <ele>26</ele>
        <time>2020-10-18T07:55:27.000Z</time>
      </trkpt>
      <trkpt lat="47.32027" lon="-2.35067">
        <ele>26</ele>
        <time>2020-10-18T07:55:30.000Z</time>
      </trkpt>
      <trkpt lat="47.32028" lon="-2.35061">
        <ele>26</ele>
        <time>2020-10-18T07:55:31.000Z</time>
      </trkpt>
      <trkpt lat="47.32038" lon="-2.35053">
        <ele>26</ele>
        <time>2020-10-18T07:55:34.000Z</time>
      </trkpt>
      <trkpt lat="47.32055" lon="-2.35052">
        <ele>26</ele>
        <time>2020-10-18T07:55:38.000Z</time>
      </trkpt>
      <trkpt lat="47.32092" lon="-2.35053">
        <ele>26</ele>
        <time>2020-10-18T07:55:44.000Z</time>
      </trkpt>
      <trkpt lat="47.32134" lon="-2.35052">
        <ele>26</ele>
        <time>2020-10-18T07:55:51.000Z</time>
      </trkpt>
      <trkpt lat="47.32166" lon="-2.35051">
        <ele>26</ele>
        <time>2020-10-18T07:55:57.000Z</time>
      </trkpt>
      <trkpt lat="47.32194" lon="-2.35052">
        <ele>26</ele>
        <time>2020-10-18T07:56:02.000Z</time>
      </trkpt>
      <trkpt lat="47.322" lon="-2.35052">
        <ele>26</ele>
        <time>2020-10-18T07:56:03.000Z</time>
      </trkpt>
      <trkpt lat="47.32228" lon="-2.35047">
        <ele>26</ele>
        <time>2020-10-18T07:56:08.000Z</time>
      </trkpt>
      <trkpt lat="47.32262" lon="-2.35043">
        <ele>26</ele>
        <time>2020-10-18T07:56:14.000Z</time>
      </trkpt>
      <trkpt lat="47.3228" lon="-2.35043">
        <ele>26.39999961853</ele>
        <time>2020-10-18T07:56:17.000Z</time>
      </trkpt>
      <trkpt lat="47.32286" lon="-2.35044">
        <ele>26.799999237061</ele>
        <time>2020-10-18T07:56:18.000Z</time>
      </trkpt>
      <trkpt lat="47.32292" lon="-2.35044">
        <ele>27.200000762939</ele>
        <time>2020-10-18T07:56:19.000Z</time>
      </trkpt>
      <trkpt lat="47.32297" lon="-2.35044">
        <ele>27.60000038147</ele>
        <time>2020-10-18T07:56:20.000Z</time>
      </trkpt>
      <trkpt lat="47.32303" lon="-2.35045">
        <ele>28</ele>
        <time>2020-10-18T07:56:21.000Z</time>
      </trkpt>
      <trkpt lat="47.32308" lon="-2.35045">
        <ele>28</ele>
        <time>2020-10-18T07:56:22.000Z</time>
      </trkpt>
      <trkpt lat="47.32345" lon="-2.35048">
        <ele>28</ele>
        <time>2020-10-18T07:56:28.000Z</time>
      </trkpt>
      <trkpt lat="47.32367" lon="-2.35049">
        <ele>28.39999961853</ele>
        <time>2020-10-18T07:56:32.000Z</time>
      </trkpt>
      <trkpt lat="47.32372" lon="-2.35049">
        <ele>28.799999237061</ele>
        <time>2020-10-18T07:56:33.000Z</time>
      </trkpt>
      <trkpt lat="47.32377" lon="-2.35048">
        <ele>29.60000038147</ele>
        <time>2020-10-18T07:56:34.000Z</time>
      </trkpt>
      <trkpt lat="47.32382" lon="-2.35048">
        <ele>30</ele>
        <time>2020-10-18T07:56:35.000Z</time>
      </trkpt>
      <trkpt lat="47.32387" lon="-2.35048">
        <ele>30</ele>
        <time>2020-10-18T07:56:36.000Z</time>
      </trkpt>
      <trkpt lat="47.3242" lon="-2.35044">
        <ele>30</ele>
        <time>2020-10-18T07:56:42.000Z</time>
      </trkpt>
      <trkpt lat="47.32454" lon="-2.35041">
        <ele>30</ele>
        <time>2020-10-18T07:56:48.000Z</time>
      </trkpt>
      <trkpt lat="47.32495" lon="-2.35031">
        <ele>30</ele>
        <time>2020-10-18T07:56:55.000Z</time>
      </trkpt>
      <trkpt lat="47.3254" lon="-2.35018">
        <ele>30</ele>
        <time>2020-10-18T07:57:03.000Z</time>
      </trkpt>
      <trkpt lat="47.32575" lon="-2.35003">
        <ele>30</ele>
        <time>2020-10-18T07:57:09.000Z</time>
      </trkpt>
      <trkpt lat="47.32609" lon="-2.34983">
        <ele>30</ele>
        <time>2020-10-18T07:57:15.000Z</time>
      </trkpt>
      <trkpt lat="47.32645" lon="-2.34965">
        <ele>29.60000038147</ele>
        <time>2020-10-18T07:57:22.000Z</time>
      </trkpt>
      <trkpt lat="47.32647" lon="-2.34964">
        <ele>29.200000762939</ele>
        <time>2020-10-18T07:57:23.000Z</time>
      </trkpt>
      <trkpt lat="47.32649" lon="-2.34962">
        <ele>28.39999961853</ele>
        <time>2020-10-18T07:57:24.000Z</time>
      </trkpt>
      <trkpt lat="47.3265" lon="-2.3496">
        <ele>27.799999237061</ele>
        <time>2020-10-18T07:57:25.000Z</time>
      </trkpt>
      <trkpt lat="47.32666" lon="-2.34949">
        <ele>27.799999237061</ele>
        <time>2020-10-18T07:57:31.000Z</time>
      </trkpt>
      <trkpt lat="47.32691" lon="-2.34924">
        <ele>27.799999237061</ele>
        <time>2020-10-18T07:57:37.000Z</time>
      </trkpt>
      <trkpt lat="47.32733" lon="-2.34898">
        <ele>27.799999237061</ele>
        <time>2020-10-18T07:57:43.000Z</time>
      </trkpt>
      <trkpt lat="47.32752" lon="-2.34885">
        <ele>27.39999961853</ele>
        <time>2020-10-18T07:57:46.000Z</time>
      </trkpt>
      <trkpt lat="47.32758" lon="-2.34881">
        <ele>27</ele>
        <time>2020-10-18T07:57:47.000Z</time>
      </trkpt>
      <trkpt lat="47.32764" lon="-2.34876">
        <ele>26.200000762939</ele>
        <time>2020-10-18T07:57:48.000Z</time>
      </trkpt>
      <trkpt lat="47.3277" lon="-2.34872">
        <ele>25.799999237061</ele>
        <time>2020-10-18T07:57:49.000Z</time>
      </trkpt>
      <trkpt lat="47.32776" lon="-2.34868">
        <ele>25.799999237061</ele>
        <time>2020-10-18T07:57:50.000Z</time>
      </trkpt>
      <trkpt lat="47.32818" lon="-2.34839">
        <ele>25.799999237061</ele>
        <time>2020-10-18T07:57:57.000Z</time>
      </trkpt>
      <trkpt lat="47.32865" lon="-2.34806">
        <ele>25.799999237061</ele>
        <time>2020-10-18T07:58:05.000Z</time>
      </trkpt>
      <trkpt lat="47.32896" lon="-2.34786">
        <ele>25.39999961853</ele>
        <time>2020-10-18T07:58:10.000Z</time>
      </trkpt>
      <trkpt lat="47.32901" lon="-2.34784">
        <ele>25</ele>
        <time>2020-10-18T07:58:11.000Z</time>
      </trkpt>
      <trkpt lat="47.32904" lon="-2.34784">
        <ele>24.60000038147</ele>
        <time>2020-10-18T07:58:12.000Z</time>
      </trkpt>
      <trkpt lat="47.32908" lon="-2.34786">
        <ele>23.60000038147</ele>
        <time>2020-10-18T07:58:13.000Z</time>
      </trkpt>
      <trkpt lat="47.32911" lon="-2.34789">
        <ele>23.60000038147</ele>
        <time>2020-10-18T07:58:14.000Z</time>
      </trkpt>
      <trkpt lat="47.32918" lon="-2.34801">
        <ele>23.60000038147</ele>
        <time>2020-10-18T07:58:17.000Z</time>
      </trkpt>
      <trkpt lat="47.32922" lon="-2.34811">
        <ele>23.60000038147</ele>
        <time>2020-10-18T07:58:19.000Z</time>
      </trkpt>
      <trkpt lat="47.32936" lon="-2.34855">
        <ele>23.60000038147</ele>
        <time>2020-10-18T07:58:27.000Z</time>
      </trkpt>
      <trkpt lat="47.32947" lon="-2.3489">
        <ele>23.60000038147</ele>
        <time>2020-10-18T07:58:33.000Z</time>
      </trkpt>
      <trkpt lat="47.32958" lon="-2.3491">
        <ele>23.60000038147</ele>
        <time>2020-10-18T07:58:38.000Z</time>
      </trkpt>
      <trkpt lat="47.32962" lon="-2.34916">
        <ele>23.60000038147</ele>
        <time>2020-10-18T07:58:43.000Z</time>
      </trkpt>
      <trkpt lat="47.32972" lon="-2.34942">
        <ele>23.60000038147</ele>
        <time>2020-10-18T08:01:39.000Z</time>
      </trkpt>
      <trkpt lat="47.32974" lon="-2.34949">
        <ele>23.60000038147</ele>
        <time>2020-10-18T08:01:42.000Z</time>
      </trkpt>
      <trkpt lat="47.32984" lon="-2.34969">
        <ele>23.60000038147</ele>
        <time>2020-10-18T08:01:49.000Z</time>
      </trkpt>
      <trkpt lat="47.32986" lon="-2.34974">
        <ele>24</ele>
        <time>2020-10-18T08:01:50.000Z</time>
      </trkpt>
      <trkpt lat="47.32988" lon="-2.34978">
        <ele>24.39999961853</ele>
        <time>2020-10-18T08:01:51.000Z</time>
      </trkpt>
      <trkpt lat="47.3299" lon="-2.34982">
        <ele>25</ele>
        <time>2020-10-18T08:01:52.000Z</time>
      </trkpt>
      <trkpt lat="47.32992" lon="-2.34986">
        <ele>25.39999961853</ele>
        <time>2020-10-18T08:01:53.000Z</time>
      </trkpt>
      <trkpt lat="47.32994" lon="-2.34991">
        <ele>25.799999237061</ele>
        <time>2020-10-18T08:01:54.000Z</time>
      </trkpt>
      <trkpt lat="47.32998" lon="-2.35">
        <ele>25.799999237061</ele>
        <time>2020-10-18T08:01:56.000Z</time>
      </trkpt>
      <trkpt lat="47.33004" lon="-2.35026">
        <ele>25.799999237061</ele>
        <time>2020-10-18T08:02:02.000Z</time>
      </trkpt>
      <trkpt lat="47.33007" lon="-2.35042">
        <ele>25.799999237061</ele>
        <time>2020-10-18T08:02:06.000Z</time>
      </trkpt>
      <trkpt lat="47.3301" lon="-2.35054">
        <ele>25.799999237061</ele>
        <time>2020-10-18T08:02:09.000Z</time>
      </trkpt>
      <trkpt lat="47.33014" lon="-2.35062">
        <ele>26.200000762939</ele>
        <time>2020-10-18T08:02:11.000Z</time>
      </trkpt>
      <trkpt lat="47.33015" lon="-2.35067">
        <ele>26.60000038147</ele>
        <time>2020-10-18T08:02:12.000Z</time>
      </trkpt>
      <trkpt lat="47.33016" lon="-2.35072">
        <ele>27</ele>
        <time>2020-10-18T08:02:13.000Z</time>
      </trkpt>
      <trkpt lat="47.33017" lon="-2.35077">
        <ele>27.39999961853</ele>
        <time>2020-10-18T08:02:14.000Z</time>
      </trkpt>
      <trkpt lat="47.33018" lon="-2.35081">
        <ele>27.799999237061</ele>
        <time>2020-10-18T08:02:15.000Z</time>
      </trkpt>
      <trkpt lat="47.33022" lon="-2.3511">
        <ele>27.799999237061</ele>
        <time>2020-10-18T08:02:20.000Z</time>
      </trkpt>
      <trkpt lat="47.33025" lon="-2.35142">
        <ele>27.799999237061</ele>
        <time>2020-10-18T08:02:26.000Z</time>
      </trkpt>
      <trkpt lat="47.3303" lon="-2.35172">
        <ele>27.799999237061</ele>
        <time>2020-10-18T08:02:31.000Z</time>
      </trkpt>
      <trkpt lat="47.33035" lon="-2.35184">
        <ele>27.799999237061</ele>
        <time>2020-10-18T08:02:34.000Z</time>
      </trkpt>
      <trkpt lat="47.33037" lon="-2.35184">
        <ele>27.799999237061</ele>
        <time>2020-10-18T08:02:35.000Z</time>
      </trkpt>
      <trkpt lat="47.33047" lon="-2.3517">
        <ele>27.799999237061</ele>
        <time>2020-10-18T08:02:39.000Z</time>
      </trkpt>
      <trkpt lat="47.33061" lon="-2.3514">
        <ele>27.799999237061</ele>
        <time>2020-10-18T08:02:45.000Z</time>
      </trkpt>
      <trkpt lat="47.33078" lon="-2.35113">
        <ele>27.799999237061</ele>
        <time>2020-10-18T08:02:51.000Z</time>
      </trkpt>
      <trkpt lat="47.33089" lon="-2.35097">
        <ele>27.799999237061</ele>
        <time>2020-10-18T08:02:54.000Z</time>
      </trkpt>
      <trkpt lat="47.33098" lon="-2.35088">
        <ele>27.799999237061</ele>
        <time>2020-10-18T08:02:56.000Z</time>
      </trkpt>
      <trkpt lat="47.33108" lon="-2.35074">
        <ele>27.799999237061</ele>
        <time>2020-10-18T08:02:59.000Z</time>
      </trkpt>
      <trkpt lat="47.33117" lon="-2.35058">
        <ele>27.799999237061</ele>
        <time>2020-10-18T08:03:02.000Z</time>
      </trkpt>
      <trkpt lat="47.33133" lon="-2.35033">
        <ele>27.799999237061</ele>
        <time>2020-10-18T08:03:07.000Z</time>
      </trkpt>
      <trkpt lat="47.33147" lon="-2.3501">
        <ele>27.799999237061</ele>
        <time>2020-10-18T08:03:13.000Z</time>
      </trkpt>
      <trkpt lat="47.3315" lon="-2.35011">
        <ele>27.799999237061</ele>
        <time>2020-10-18T08:03:14.000Z</time>
      </trkpt>
      <trkpt lat="47.33158" lon="-2.35015">
        <ele>27.799999237061</ele>
        <time>2020-10-18T08:03:17.000Z</time>
      </trkpt>
      <trkpt lat="47.33164" lon="-2.35017">
        <ele>27.799999237061</ele>
        <time>2020-10-18T08:03:19.000Z</time>
      </trkpt>
      <trkpt lat="47.33172" lon="-2.35013">
        <ele>27.799999237061</ele>
        <time>2020-10-18T08:03:22.000Z</time>
      </trkpt>
      <trkpt lat="47.33179" lon="-2.35003">
        <ele>27.799999237061</ele>
        <time>2020-10-18T08:03:25.000Z</time>
      </trkpt>
      <trkpt lat="47.33186" lon="-2.34994">
        <ele>27.799999237061</ele>
        <time>2020-10-18T08:03:27.000Z</time>
      </trkpt>
      <trkpt lat="47.33208" lon="-2.34965">
        <ele>27.799999237061</ele>
        <time>2020-10-18T08:03:32.000Z</time>
      </trkpt>
      <trkpt lat="47.33234" lon="-2.34941">
        <ele>27.799999237061</ele>
        <time>2020-10-18T08:03:38.000Z</time>
      </trkpt>
      <trkpt lat="47.33254" lon="-2.34937">
        <ele>27.799999237061</ele>
        <time>2020-10-18T08:03:41.000Z</time>
      </trkpt>
      <trkpt lat="47.33265" lon="-2.34936">
        <ele>27.799999237061</ele>
        <time>2020-10-18T08:03:43.000Z</time>
      </trkpt>
      <trkpt lat="47.3327" lon="-2.34937">
        <ele>27.799999237061</ele>
        <time>2020-10-18T08:03:44.000Z</time>
      </trkpt>
      <trkpt lat="47.33289" lon="-2.34937">
        <ele>27.799999237061</ele>
        <time>2020-10-18T08:03:48.000Z</time>
      </trkpt>
      <trkpt lat="47.33308" lon="-2.34938">
        <ele>27.799999237061</ele>
        <time>2020-10-18T08:03:53.000Z</time>
      </trkpt>
      <trkpt lat="47.33312" lon="-2.34935">
        <ele>27.799999237061</ele>
        <time>2020-10-18T08:03:55.000Z</time>
      </trkpt>
      <trkpt lat="47.33316" lon="-2.34932">
        <ele>27.799999237061</ele>
        <time>2020-10-18T08:03:57.000Z</time>
      </trkpt>
      <trkpt lat="47.33328" lon="-2.34931">
        <ele>27.799999237061</ele>
        <time>2020-10-18T08:04:02.000Z</time>
      </trkpt>
      <trkpt lat="47.3333" lon="-2.34931">
        <ele>27.799999237061</ele>
        <time>2020-10-18T08:04:03.000Z</time>
      </trkpt>
      <trkpt lat="47.33341" lon="-2.34935">
        <ele>27.799999237061</ele>
        <time>2020-10-18T08:04:08.000Z</time>
      </trkpt>
      <trkpt lat="47.33363" lon="-2.34928">
        <ele>27.799999237061</ele>
        <time>2020-10-18T08:04:14.000Z</time>
      </trkpt>
      <trkpt lat="47.33384" lon="-2.34926">
        <ele>27.799999237061</ele>
        <time>2020-10-18T08:04:20.000Z</time>
      </trkpt>
      <trkpt lat="47.33403" lon="-2.3492">
        <ele>28.60000038147</ele>
        <time>2020-10-18T08:04:25.000Z</time>
      </trkpt>
      <trkpt lat="47.33408" lon="-2.34918">
        <ele>29</ele>
        <time>2020-10-18T08:04:26.000Z</time>
      </trkpt>
      <trkpt lat="47.33412" lon="-2.34916">
        <ele>29.39999961853</ele>
        <time>2020-10-18T08:04:27.000Z</time>
      </trkpt>
      <trkpt lat="47.33416" lon="-2.34913">
        <ele>30</ele>
        <time>2020-10-18T08:04:28.000Z</time>
      </trkpt>
      <trkpt lat="47.33433" lon="-2.34905">
        <ele>30</ele>
        <time>2020-10-18T08:04:32.000Z</time>
      </trkpt>
      <trkpt lat="47.33447" lon="-2.349">
        <ele>30</ele>
        <time>2020-10-18T08:04:35.000Z</time>
      </trkpt>
      <trkpt lat="47.33463" lon="-2.34897">
        <ele>30</ele>
        <time>2020-10-18T08:04:38.000Z</time>
      </trkpt>
      <trkpt lat="47.3349" lon="-2.34893">
        <ele>30</ele>
        <time>2020-10-18T08:04:45.000Z</time>
      </trkpt>
      <trkpt lat="47.33514" lon="-2.34894">
        <ele>30</ele>
        <time>2020-10-18T08:04:53.000Z</time>
      </trkpt>
      <trkpt lat="47.33536" lon="-2.3491">
        <ele>30</ele>
        <time>2020-10-18T08:04:59.000Z</time>
      </trkpt>
      <trkpt lat="47.3357" lon="-2.34925">
        <ele>30</ele>
        <time>2020-10-18T08:05:05.000Z</time>
      </trkpt>
      <trkpt lat="47.33612" lon="-2.34945">
        <ele>30</ele>
        <time>2020-10-18T08:05:12.000Z</time>
      </trkpt>
      <trkpt lat="47.33646" lon="-2.34961">
        <ele>29.60000038147</ele>
        <time>2020-10-18T08:05:18.000Z</time>
      </trkpt>
      <trkpt lat="47.33651" lon="-2.34962">
        <ele>29</ele>
        <time>2020-10-18T08:05:19.000Z</time>
      </trkpt>
      <trkpt lat="47.33656" lon="-2.34961">
        <ele>28.60000038147</ele>
        <time>2020-10-18T08:05:20.000Z</time>
      </trkpt>
      <trkpt lat="47.33661" lon="-2.34959">
        <ele>28.200000762939</ele>
        <time>2020-10-18T08:05:21.000Z</time>
      </trkpt>
      <trkpt lat="47.33665" lon="-2.34958">
        <ele>27.799999237061</ele>
        <time>2020-10-18T08:05:22.000Z</time>
      </trkpt>
      <trkpt lat="47.33669" lon="-2.3496">
        <ele>27.799999237061</ele>
        <time>2020-10-18T08:05:23.000Z</time>
      </trkpt>
      <trkpt lat="47.33679" lon="-2.34967">
        <ele>27.799999237061</ele>
        <time>2020-10-18T08:05:25.000Z</time>
      </trkpt>
      <trkpt lat="47.33692" lon="-2.34979">
        <ele>27.799999237061</ele>
        <time>2020-10-18T08:05:28.000Z</time>
      </trkpt>
      <trkpt lat="47.33695" lon="-2.34985">
        <ele>27.799999237061</ele>
        <time>2020-10-18T08:05:29.000Z</time>
      </trkpt>
      <trkpt lat="47.33698" lon="-2.3499">
        <ele>27.799999237061</ele>
        <time>2020-10-18T08:05:30.000Z</time>
      </trkpt>
      <trkpt lat="47.33715" lon="-2.35003">
        <ele>27.799999237061</ele>
        <time>2020-10-18T08:05:34.000Z</time>
      </trkpt>
      <trkpt lat="47.33731" lon="-2.34992">
        <ele>27.799999237061</ele>
        <time>2020-10-18T08:05:37.000Z</time>
      </trkpt>
      <trkpt lat="47.33737" lon="-2.34988">
        <ele>27.799999237061</ele>
        <time>2020-10-18T08:05:38.000Z</time>
      </trkpt>
      <trkpt lat="47.33763" lon="-2.34964">
        <ele>27.799999237061</ele>
        <time>2020-10-18T08:05:43.000Z</time>
      </trkpt>
      <trkpt lat="47.3378" lon="-2.34947">
        <ele>27.39999961853</ele>
        <time>2020-10-18T08:05:46.000Z</time>
      </trkpt>
      <trkpt lat="47.33784" lon="-2.3494">
        <ele>27</ele>
        <time>2020-10-18T08:05:47.000Z</time>
      </trkpt>
      <trkpt lat="47.33788" lon="-2.34933">
        <ele>26.60000038147</ele>
        <time>2020-10-18T08:05:48.000Z</time>
      </trkpt>
      <trkpt lat="47.33793" lon="-2.34926">
        <ele>26.200000762939</ele>
        <time>2020-10-18T08:05:49.000Z</time>
      </trkpt>
      <trkpt lat="47.33796" lon="-2.34918">
        <ele>25.799999237061</ele>
        <time>2020-10-18T08:05:50.000Z</time>
      </trkpt>
      <trkpt lat="47.33804" lon="-2.349">
        <ele>25.799999237061</ele>
        <time>2020-10-18T08:05:53.000Z</time>
      </trkpt>
      <trkpt lat="47.33808" lon="-2.34888">
        <ele>25.39999961853</ele>
        <time>2020-10-18T08:05:56.000Z</time>
      </trkpt>
      <trkpt lat="47.33809" lon="-2.34885">
        <ele>25</ele>
        <time>2020-10-18T08:05:57.000Z</time>
      </trkpt>
      <trkpt lat="47.33811" lon="-2.34882">
        <ele>24.60000038147</ele>
        <time>2020-10-18T08:05:58.000Z</time>
      </trkpt>
      <trkpt lat="47.33813" lon="-2.34879">
        <ele>24.200000762939</ele>
        <time>2020-10-18T08:05:59.000Z</time>
      </trkpt>
      <trkpt lat="47.33814" lon="-2.34877">
        <ele>23.799999237061</ele>
        <time>2020-10-18T08:06:00.000Z</time>
      </trkpt>
      <trkpt lat="47.33821" lon="-2.34868">
        <ele>23.799999237061</ele>
        <time>2020-10-18T08:06:03.000Z</time>
      </trkpt>
      <trkpt lat="47.33845" lon="-2.34847">
        <ele>23.799999237061</ele>
        <time>2020-10-18T08:06:09.000Z</time>
      </trkpt>
      <trkpt lat="47.33854" lon="-2.34826">
        <ele>23.799999237061</ele>
        <time>2020-10-18T08:06:13.000Z</time>
      </trkpt>
      <trkpt lat="47.3386" lon="-2.34798">
        <ele>23.799999237061</ele>
        <time>2020-10-18T08:06:17.000Z</time>
      </trkpt>
      <trkpt lat="47.33861" lon="-2.34792">
        <ele>23.799999237061</ele>
        <time>2020-10-18T08:06:18.000Z</time>
      </trkpt>
      <trkpt lat="47.33865" lon="-2.34756">
        <ele>23.799999237061</ele>
        <time>2020-10-18T08:06:24.000Z</time>
      </trkpt>
      <trkpt lat="47.33867" lon="-2.34728">
        <ele>24.200000762939</ele>
        <time>2020-10-18T08:06:28.000Z</time>
      </trkpt>
      <trkpt lat="47.33868" lon="-2.34722">
        <ele>24.799999237061</ele>
        <time>2020-10-18T08:06:29.000Z</time>
      </trkpt>
      <trkpt lat="47.33868" lon="-2.34715">
        <ele>25.200000762939</ele>
        <time>2020-10-18T08:06:30.000Z</time>
      </trkpt>
      <trkpt lat="47.33869" lon="-2.34709">
        <ele>25.60000038147</ele>
        <time>2020-10-18T08:06:31.000Z</time>
      </trkpt>
      <trkpt lat="47.3387" lon="-2.34702">
        <ele>26</ele>
        <time>2020-10-18T08:06:32.000Z</time>
      </trkpt>
      <trkpt lat="47.33872" lon="-2.34668">
        <ele>26</ele>
        <time>2020-10-18T08:06:37.000Z</time>
      </trkpt>
      <trkpt lat="47.33881" lon="-2.34626">
        <ele>26</ele>
        <time>2020-10-18T08:06:44.000Z</time>
      </trkpt>
      <trkpt lat="47.33892" lon="-2.346">
        <ele>26</ele>
        <time>2020-10-18T08:06:50.000Z</time>
      </trkpt>
      <trkpt lat="47.33896" lon="-2.34599">
        <ele>26</ele>
        <time>2020-10-18T08:06:51.000Z</time>
      </trkpt>
      <trkpt lat="47.33914" lon="-2.34593">
        <ele>26</ele>
        <time>2020-10-18T08:06:54.000Z</time>
      </trkpt>
      <trkpt lat="47.33935" lon="-2.34589">
        <ele>26.39999961853</ele>
        <time>2020-10-18T08:06:58.000Z</time>
      </trkpt>
      <trkpt lat="47.33941" lon="-2.34587">
        <ele>26.799999237061</ele>
        <time>2020-10-18T08:06:59.000Z</time>
      </trkpt>
      <trkpt lat="47.33945" lon="-2.34587">
        <ele>27.200000762939</ele>
        <time>2020-10-18T08:07:00.000Z</time>
      </trkpt>
      <trkpt lat="47.33951" lon="-2.34587">
        <ele>27.60000038147</ele>
        <time>2020-10-18T08:07:01.000Z</time>
      </trkpt>
      <trkpt lat="47.33957" lon="-2.34587">
        <ele>28</ele>
        <time>2020-10-18T08:07:02.000Z</time>
      </trkpt>
      <trkpt lat="47.33979" lon="-2.34591">
        <ele>28</ele>
        <time>2020-10-18T08:07:06.000Z</time>
      </trkpt>
      <trkpt lat="47.33988" lon="-2.34593">
        <ele>28</ele>
        <time>2020-10-18T08:07:08.000Z</time>
      </trkpt>
      <trkpt lat="47.34009" lon="-2.34597">
        <ele>28</ele>
        <time>2020-10-18T08:07:12.000Z</time>
      </trkpt>
      <trkpt lat="47.34019" lon="-2.34598">
        <ele>28</ele>
        <time>2020-10-18T08:07:14.000Z</time>
      </trkpt>
      <trkpt lat="47.34051" lon="-2.3459">
        <ele>28</ele>
        <time>2020-10-18T08:07:20.000Z</time>
      </trkpt>
      <trkpt lat="47.34056" lon="-2.34586">
        <ele>28</ele>
        <time>2020-10-18T08:07:21.000Z</time>
      </trkpt>
      <trkpt lat="47.34072" lon="-2.34569">
        <ele>27.60000038147</ele>
        <time>2020-10-18T08:07:26.000Z</time>
      </trkpt>
      <trkpt lat="47.34075" lon="-2.34564">
        <ele>27.200000762939</ele>
        <time>2020-10-18T08:07:27.000Z</time>
      </trkpt>
      <trkpt lat="47.3408" lon="-2.3456">
        <ele>26.799999237061</ele>
        <time>2020-10-18T08:07:28.000Z</time>
      </trkpt>
      <trkpt lat="47.34084" lon="-2.34556">
        <ele>26.200000762939</ele>
        <time>2020-10-18T08:07:29.000Z</time>
      </trkpt>
      <trkpt lat="47.3409" lon="-2.34552">
        <ele>25.799999237061</ele>
        <time>2020-10-18T08:07:30.000Z</time>
      </trkpt>
      <trkpt lat="47.34121" lon="-2.34529">
        <ele>25.799999237061</ele>
        <time>2020-10-18T08:07:37.000Z</time>
      </trkpt>
      <trkpt lat="47.34135" lon="-2.34523">
        <ele>25.799999237061</ele>
        <time>2020-10-18T08:07:40.000Z</time>
      </trkpt>
      <trkpt lat="47.34144" lon="-2.34519">
        <ele>25.799999237061</ele>
        <time>2020-10-18T08:07:42.000Z</time>
      </trkpt>
      <trkpt lat="47.34168" lon="-2.3451">
        <ele>25.799999237061</ele>
        <time>2020-10-18T08:07:48.000Z</time>
      </trkpt>
      <trkpt lat="47.34178" lon="-2.34507">
        <ele>25.799999237061</ele>
        <time>2020-10-18T08:07:50.000Z</time>
      </trkpt>
      <trkpt lat="47.34214" lon="-2.34492">
        <ele>25.799999237061</ele>
        <time>2020-10-18T08:07:56.000Z</time>
      </trkpt>
      <trkpt lat="47.34245" lon="-2.34478">
        <ele>25.799999237061</ele>
        <time>2020-10-18T08:08:02.000Z</time>
      </trkpt>
      <trkpt lat="47.34283" lon="-2.34465">
        <ele>25.799999237061</ele>
        <time>2020-10-18T08:08:09.000Z</time>
      </trkpt>
      <trkpt lat="47.34319" lon="-2.34463">
        <ele>25.799999237061</ele>
        <time>2020-10-18T08:08:15.000Z</time>
      </trkpt>
      <trkpt lat="47.3435" lon="-2.34452">
        <ele>25.799999237061</ele>
        <time>2020-10-18T08:08:20.000Z</time>
      </trkpt>
      <trkpt lat="47.34356" lon="-2.34448">
        <ele>25.799999237061</ele>
        <time>2020-10-18T08:08:21.000Z</time>
      </trkpt>
      <trkpt lat="47.34391" lon="-2.34427">
        <ele>25.799999237061</ele>
        <time>2020-10-18T08:08:27.000Z</time>
      </trkpt>
      <trkpt lat="47.34436" lon="-2.34405">
        <ele>25.799999237061</ele>
        <time>2020-10-18T08:08:34.000Z</time>
      </trkpt>
      <trkpt lat="47.3448" lon="-2.34389">
        <ele>25.799999237061</ele>
        <time>2020-10-18T08:08:41.000Z</time>
      </trkpt>
      <trkpt lat="47.34509" lon="-2.34365">
        <ele>25.799999237061</ele>
        <time>2020-10-18T08:08:46.000Z</time>
      </trkpt>
      <trkpt lat="47.34519" lon="-2.34354">
        <ele>25.39999961853</ele>
        <time>2020-10-18T08:08:48.000Z</time>
      </trkpt>
      <trkpt lat="47.34524" lon="-2.34349">
        <ele>25</ele>
        <time>2020-10-18T08:08:49.000Z</time>
      </trkpt>
      <trkpt lat="47.34529" lon="-2.34344">
        <ele>24.60000038147</ele>
        <time>2020-10-18T08:08:50.000Z</time>
      </trkpt>
      <trkpt lat="47.34534" lon="-2.3434">
        <ele>24.200000762939</ele>
        <time>2020-10-18T08:08:51.000Z</time>
      </trkpt>
      <trkpt lat="47.34538" lon="-2.34336">
        <ele>23.799999237061</ele>
        <time>2020-10-18T08:08:52.000Z</time>
      </trkpt>
      <trkpt lat="47.34554" lon="-2.34319">
        <ele>23.799999237061</ele>
        <time>2020-10-18T08:08:56.000Z</time>
      </trkpt>
      <trkpt lat="47.34574" lon="-2.34304">
        <ele>23.799999237061</ele>
        <time>2020-10-18T08:09:01.000Z</time>
      </trkpt>
      <trkpt lat="47.34579" lon="-2.34301">
        <ele>23.799999237061</ele>
        <time>2020-10-18T08:09:02.000Z</time>
      </trkpt>
      <trkpt lat="47.34589" lon="-2.34296">
        <ele>23.39999961853</ele>
        <time>2020-10-18T08:09:04.000Z</time>
      </trkpt>
      <trkpt lat="47.34595" lon="-2.34295">
        <ele>23</ele>
        <time>2020-10-18T08:09:05.000Z</time>
      </trkpt>
      <trkpt lat="47.34601" lon="-2.34294">
        <ele>22.60000038147</ele>
        <time>2020-10-18T08:09:06.000Z</time>
      </trkpt>
      <trkpt lat="47.34606" lon="-2.34294">
        <ele>22.200000762939</ele>
        <time>2020-10-18T08:09:07.000Z</time>
      </trkpt>
      <trkpt lat="47.34612" lon="-2.34293">
        <ele>21.799999237061</ele>
        <time>2020-10-18T08:09:08.000Z</time>
      </trkpt>
      <trkpt lat="47.34627" lon="-2.34293">
        <ele>21.200000762939</ele>
        <time>2020-10-18T08:09:11.000Z</time>
      </trkpt>
      <trkpt lat="47.34631" lon="-2.34292">
        <ele>20.799999237061</ele>
        <time>2020-10-18T08:09:12.000Z</time>
      </trkpt>
      <trkpt lat="47.34636" lon="-2.34289">
        <ele>20.39999961853</ele>
        <time>2020-10-18T08:09:13.000Z</time>
      </trkpt>
      <trkpt lat="47.3464" lon="-2.34284">
        <ele>19.799999237061</ele>
        <time>2020-10-18T08:09:14.000Z</time>
      </trkpt>
      <trkpt lat="47.34644" lon="-2.34279">
        <ele>19.39999961853</ele>
        <time>2020-10-18T08:09:15.000Z</time>
      </trkpt>
      <trkpt lat="47.34659" lon="-2.34264">
        <ele>19.39999961853</ele>
        <time>2020-10-18T08:09:18.000Z</time>
      </trkpt>
      <trkpt lat="47.34671" lon="-2.34259">
        <ele>19.39999961853</ele>
        <time>2020-10-18T08:09:20.000Z</time>
      </trkpt>
      <trkpt lat="47.34684" lon="-2.34257">
        <ele>19.39999961853</ele>
        <time>2020-10-18T08:09:22.000Z</time>
      </trkpt>
      <trkpt lat="47.34709" lon="-2.34253">
        <ele>19.39999961853</ele>
        <time>2020-10-18T08:09:26.000Z</time>
      </trkpt>
      <trkpt lat="47.34732" lon="-2.34249">
        <ele>19.39999961853</ele>
        <time>2020-10-18T08:09:30.000Z</time>
      </trkpt>
      <trkpt lat="47.34744" lon="-2.34246">
        <ele>19.39999961853</ele>
        <time>2020-10-18T08:09:32.000Z</time>
      </trkpt>
      <trkpt lat="47.34781" lon="-2.34237">
        <ele>19.39999961853</ele>
        <time>2020-10-18T08:09:39.000Z</time>
      </trkpt>
      <trkpt lat="47.34801" lon="-2.34231">
        <ele>19.39999961853</ele>
        <time>2020-10-18T08:09:43.000Z</time>
      </trkpt>
      <trkpt lat="47.34816" lon="-2.34229">
        <ele>19.39999961853</ele>
        <time>2020-10-18T08:09:46.000Z</time>
      </trkpt>
      <trkpt lat="47.34833" lon="-2.34229">
        <ele>19.799999237061</ele>
        <time>2020-10-18T08:09:50.000Z</time>
      </trkpt>
      <trkpt lat="47.34837" lon="-2.34229">
        <ele>20.200000762939</ele>
        <time>2020-10-18T08:09:51.000Z</time>
      </trkpt>
      <trkpt lat="47.34841" lon="-2.34229">
        <ele>20.60000038147</ele>
        <time>2020-10-18T08:09:52.000Z</time>
      </trkpt>
      <trkpt lat="47.34844" lon="-2.34229">
        <ele>21</ele>
        <time>2020-10-18T08:09:53.000Z</time>
      </trkpt>
      <trkpt lat="47.34848" lon="-2.3423">
        <ele>21.60000038147</ele>
        <time>2020-10-18T08:09:54.000Z</time>
      </trkpt>
      <trkpt lat="47.34851" lon="-2.34233">
        <ele>21.60000038147</ele>
        <time>2020-10-18T08:09:55.000Z</time>
      </trkpt>
      <trkpt lat="47.34853" lon="-2.34235">
        <ele>21.60000038147</ele>
        <time>2020-10-18T08:09:56.000Z</time>
      </trkpt>
      <trkpt lat="47.34856" lon="-2.34237">
        <ele>22</ele>
        <time>2020-10-18T08:09:57.000Z</time>
      </trkpt>
      <trkpt lat="47.34858" lon="-2.34237">
        <ele>22.39999961853</ele>
        <time>2020-10-18T08:09:58.000Z</time>
      </trkpt>
      <trkpt lat="47.34861" lon="-2.34236">
        <ele>23</ele>
        <time>2020-10-18T08:09:59.000Z</time>
      </trkpt>
      <trkpt lat="47.34864" lon="-2.34234">
        <ele>23.39999961853</ele>
        <time>2020-10-18T08:10:00.000Z</time>
      </trkpt>
      <trkpt lat="47.34867" lon="-2.34233">
        <ele>23.799999237061</ele>
        <time>2020-10-18T08:10:01.000Z</time>
      </trkpt>
      <trkpt lat="47.34872" lon="-2.34225">
        <ele>24.200000762939</ele>
        <time>2020-10-18T08:10:04.000Z</time>
      </trkpt>
      <trkpt lat="47.34873" lon="-2.34222">
        <ele>24.799999237061</ele>
        <time>2020-10-18T08:10:05.000Z</time>
      </trkpt>
      <trkpt lat="47.34875" lon="-2.34219">
        <ele>25.200000762939</ele>
        <time>2020-10-18T08:10:06.000Z</time>
      </trkpt>
      <trkpt lat="47.34877" lon="-2.34216">
        <ele>25.60000038147</ele>
        <time>2020-10-18T08:10:07.000Z</time>
      </trkpt>
      <trkpt lat="47.34878" lon="-2.34214">
        <ele>26</ele>
        <time>2020-10-18T08:10:08.000Z</time>
      </trkpt>
      <trkpt lat="47.3488" lon="-2.34213">
        <ele>26</ele>
        <time>2020-10-18T08:10:09.000Z</time>
      </trkpt>
      <trkpt lat="47.34882" lon="-2.34212">
        <ele>26</ele>
        <time>2020-10-18T08:10:10.000Z</time>
      </trkpt>
      <trkpt lat="47.34884" lon="-2.34211">
        <ele>26.799999237061</ele>
        <time>2020-10-18T08:10:11.000Z</time>
      </trkpt>
      <trkpt lat="47.34886" lon="-2.3421">
        <ele>27.39999961853</ele>
        <time>2020-10-18T08:10:12.000Z</time>
      </trkpt>
      <trkpt lat="47.34888" lon="-2.34208">
        <ele>27.799999237061</ele>
        <time>2020-10-18T08:10:13.000Z</time>
      </trkpt>
      <trkpt lat="47.3489" lon="-2.34206">
        <ele>28.200000762939</ele>
        <time>2020-10-18T08:10:14.000Z</time>
      </trkpt>
      <trkpt lat="47.34893" lon="-2.34205">
        <ele>28.200000762939</ele>
        <time>2020-10-18T08:10:15.000Z</time>
      </trkpt>
      <trkpt lat="47.34901" lon="-2.34205">
        <ele>28.200000762939</ele>
        <time>2020-10-18T08:10:17.000Z</time>
      </trkpt>
      <trkpt lat="47.34912" lon="-2.34207">
        <ele>28.200000762939</ele>
        <time>2020-10-18T08:10:19.000Z</time>
      </trkpt>
      <trkpt lat="47.3493" lon="-2.34207">
        <ele>28.200000762939</ele>
        <time>2020-10-18T08:10:22.000Z</time>
      </trkpt>
      <trkpt lat="47.34941" lon="-2.34202">
        <ele>28.200000762939</ele>
        <time>2020-10-18T08:10:24.000Z</time>
      </trkpt>
      <trkpt lat="47.34946" lon="-2.342">
        <ele>27.60000038147</ele>
        <time>2020-10-18T08:10:25.000Z</time>
      </trkpt>
      <trkpt lat="47.34951" lon="-2.34197">
        <ele>27.200000762939</ele>
        <time>2020-10-18T08:10:26.000Z</time>
      </trkpt>
      <trkpt lat="47.34956" lon="-2.34195">
        <ele>26.799999237061</ele>
        <time>2020-10-18T08:10:27.000Z</time>
      </trkpt>
      <trkpt lat="47.3496" lon="-2.34194">
        <ele>26.200000762939</ele>
        <time>2020-10-18T08:10:28.000Z</time>
      </trkpt>
      <trkpt lat="47.34964" lon="-2.34193">
        <ele>25.799999237061</ele>
        <time>2020-10-18T08:10:29.000Z</time>
      </trkpt>
      <trkpt lat="47.34967" lon="-2.34193">
        <ele>25.39999961853</ele>
        <time>2020-10-18T08:10:30.000Z</time>
      </trkpt>
      <trkpt lat="47.3497" lon="-2.34194">
        <ele>25</ele>
        <time>2020-10-18T08:10:31.000Z</time>
      </trkpt>
      <trkpt lat="47.34972" lon="-2.34197">
        <ele>24.60000038147</ele>
        <time>2020-10-18T08:10:32.000Z</time>
      </trkpt>
      <trkpt lat="47.34974" lon="-2.34201">
        <ele>24</ele>
        <time>2020-10-18T08:10:33.000Z</time>
      </trkpt>
      <trkpt lat="47.34977" lon="-2.34203">
        <ele>23.60000038147</ele>
        <time>2020-10-18T08:10:34.000Z</time>
      </trkpt>
      <trkpt lat="47.3498" lon="-2.34208">
        <ele>23.60000038147</ele>
        <time>2020-10-18T08:10:35.000Z</time>
      </trkpt>
      <trkpt lat="47.34986" lon="-2.34219">
        <ele>23.200000762939</ele>
        <time>2020-10-18T08:10:37.000Z</time>
      </trkpt>
      <trkpt lat="47.34988" lon="-2.34225">
        <ele>22.799999237061</ele>
        <time>2020-10-18T08:10:38.000Z</time>
      </trkpt>
      <trkpt lat="47.3499" lon="-2.34232">
        <ele>22.39999961853</ele>
        <time>2020-10-18T08:10:39.000Z</time>
      </trkpt>
      <trkpt lat="47.34991" lon="-2.34239">
        <ele>21.799999237061</ele>
        <time>2020-10-18T08:10:40.000Z</time>
      </trkpt>
      <trkpt lat="47.34994" lon="-2.34247">
        <ele>21.39999961853</ele>
        <time>2020-10-18T08:10:41.000Z</time>
      </trkpt>
      <trkpt lat="47.35001" lon="-2.34271">
        <ele>21.39999961853</ele>
        <time>2020-10-18T08:10:44.000Z</time>
      </trkpt>
      <trkpt lat="47.35003" lon="-2.34279">
        <ele>21</ele>
        <time>2020-10-18T08:10:45.000Z</time>
      </trkpt>
      <trkpt lat="47.35006" lon="-2.34287">
        <ele>20.39999961853</ele>
        <time>2020-10-18T08:10:46.000Z</time>
      </trkpt>
      <trkpt lat="47.35009" lon="-2.34296">
        <ele>20</ele>
        <time>2020-10-18T08:10:47.000Z</time>
      </trkpt>
      <trkpt lat="47.35012" lon="-2.34305">
        <ele>19.60000038147</ele>
        <time>2020-10-18T08:10:48.000Z</time>
      </trkpt>
      <trkpt lat="47.35015" lon="-2.34313">
        <ele>19</ele>
        <time>2020-10-18T08:10:49.000Z</time>
      </trkpt>
      <trkpt lat="47.35018" lon="-2.34321">
        <ele>18.60000038147</ele>
        <time>2020-10-18T08:10:50.000Z</time>
      </trkpt>
      <trkpt lat="47.35021" lon="-2.34328">
        <ele>18.200000762939</ele>
        <time>2020-10-18T08:10:51.000Z</time>
      </trkpt>
      <trkpt lat="47.35023" lon="-2.34335">
        <ele>17.60000038147</ele>
        <time>2020-10-18T08:10:52.000Z</time>
      </trkpt>
      <trkpt lat="47.35025" lon="-2.3434">
        <ele>17.200000762939</ele>
        <time>2020-10-18T08:10:53.000Z</time>
      </trkpt>
      <trkpt lat="47.35026" lon="-2.34344">
        <ele>16.60000038147</ele>
        <time>2020-10-18T08:10:54.000Z</time>
      </trkpt>
      <trkpt lat="47.35026" lon="-2.34348">
        <ele>16.200000762939</ele>
        <time>2020-10-18T08:10:55.000Z</time>
      </trkpt>
      <trkpt lat="47.35025" lon="-2.34351">
        <ele>15.60000038147</ele>
        <time>2020-10-18T08:10:56.000Z</time>
      </trkpt>
      <trkpt lat="47.35024" lon="-2.34354">
        <ele>15</ele>
        <time>2020-10-18T08:10:57.000Z</time>
      </trkpt>
      <trkpt lat="47.35024" lon="-2.34355">
        <ele>14.39999961853</ele>
        <time>2020-10-18T08:10:58.000Z</time>
      </trkpt>
      <trkpt lat="47.35023" lon="-2.34357">
        <ele>14.39999961853</ele>
        <time>2020-10-18T08:10:59.000Z</time>
      </trkpt>
      <trkpt lat="47.35016" lon="-2.34363">
        <ele>14.39999961853</ele>
        <time>2020-10-18T08:11:02.000Z</time>
      </trkpt>
      <trkpt lat="47.34998" lon="-2.3437">
        <ele>14.39999961853</ele>
        <time>2020-10-18T08:11:07.000Z</time>
      </trkpt>
      <trkpt lat="47.34974" lon="-2.34372">
        <ele>14.39999961853</ele>
        <time>2020-10-18T08:11:13.000Z</time>
      </trkpt>
      <trkpt lat="47.3497" lon="-2.34372">
        <ele>14.39999961853</ele>
        <time>2020-10-18T08:11:14.000Z</time>
      </trkpt>
      <trkpt lat="47.34949" lon="-2.34373">
        <ele>14.39999961853</ele>
        <time>2020-10-18T08:11:19.000Z</time>
      </trkpt>
      <trkpt lat="47.34934" lon="-2.3437">
        <ele>14.800000190735</ele>
        <time>2020-10-18T08:11:23.000Z</time>
      </trkpt>
      <trkpt lat="47.34931" lon="-2.3437">
        <ele>15.39999961853</ele>
        <time>2020-10-18T08:11:24.000Z</time>
      </trkpt>
      <trkpt lat="47.34927" lon="-2.34369">
        <ele>16.200000762939</ele>
        <time>2020-10-18T08:11:25.000Z</time>
      </trkpt>
      <trkpt lat="47.34924" lon="-2.34369">
        <ele>16.60000038147</ele>
        <time>2020-10-18T08:11:26.000Z</time>
      </trkpt>
      <trkpt lat="47.34909" lon="-2.34371">
        <ele>16.60000038147</ele>
        <time>2020-10-18T08:11:30.000Z</time>
      </trkpt>
      <trkpt lat="47.3489" lon="-2.34374">
        <ele>16.60000038147</ele>
        <time>2020-10-18T08:11:36.000Z</time>
      </trkpt>
      <trkpt lat="47.34887" lon="-2.34374">
        <ele>17</ele>
        <time>2020-10-18T08:11:37.000Z</time>
      </trkpt>
      <trkpt lat="47.34884" lon="-2.34373">
        <ele>17.39999961853</ele>
        <time>2020-10-18T08:11:38.000Z</time>
      </trkpt>
      <trkpt lat="47.3488" lon="-2.34373">
        <ele>17.799999237061</ele>
        <time>2020-10-18T08:11:39.000Z</time>
      </trkpt>
      <trkpt lat="47.34876" lon="-2.34373">
        <ele>18.200000762939</ele>
        <time>2020-10-18T08:11:40.000Z</time>
      </trkpt>
      <trkpt lat="47.34872" lon="-2.34372">
        <ele>18.60000038147</ele>
        <time>2020-10-18T08:11:41.000Z</time>
      </trkpt>
      <trkpt lat="47.34853" lon="-2.34375">
        <ele>18.60000038147</ele>
        <time>2020-10-18T08:11:46.000Z</time>
      </trkpt>
      <trkpt lat="47.3483" lon="-2.3438">
        <ele>18.60000038147</ele>
        <time>2020-10-18T08:11:52.000Z</time>
      </trkpt>
      <trkpt lat="47.34817" lon="-2.34381">
        <ele>18.60000038147</ele>
        <time>2020-10-18T08:11:55.000Z</time>
      </trkpt>
      <trkpt lat="47.34809" lon="-2.34383">
        <ele>18.60000038147</ele>
        <time>2020-10-18T08:11:57.000Z</time>
      </trkpt>
      <trkpt lat="47.34785" lon="-2.34389">
        <ele>18.60000038147</ele>
        <time>2020-10-18T08:12:03.000Z</time>
      </trkpt>
      <trkpt lat="47.34782" lon="-2.34392">
        <ele>18.60000038147</ele>
        <time>2020-10-18T08:12:04.000Z</time>
      </trkpt>
      <trkpt lat="47.34778" lon="-2.344">
        <ele>18.60000038147</ele>
        <time>2020-10-18T08:12:06.000Z</time>
      </trkpt>
      <trkpt lat="47.34774" lon="-2.34409">
        <ele>18.60000038147</ele>
        <time>2020-10-18T08:12:08.000Z</time>
      </trkpt>
      <trkpt lat="47.34765" lon="-2.34426">
        <ele>18.60000038147</ele>
        <time>2020-10-18T08:12:12.000Z</time>
      </trkpt>
      <trkpt lat="47.34752" lon="-2.34461">
        <ele>18.60000038147</ele>
        <time>2020-10-18T08:12:19.000Z</time>
      </trkpt>
      <trkpt lat="47.34747" lon="-2.34481">
        <ele>18.60000038147</ele>
        <time>2020-10-18T08:12:24.000Z</time>
      </trkpt>
      <trkpt lat="47.34738" lon="-2.34484">
        <ele>18.60000038147</ele>
        <time>2020-10-18T08:12:28.000Z</time>
      </trkpt>
      <trkpt lat="47.34723" lon="-2.3449">
        <ele>18.60000038147</ele>
        <time>2020-10-18T08:12:33.000Z</time>
      </trkpt>
      <trkpt lat="47.34705" lon="-2.34498">
        <ele>18.60000038147</ele>
        <time>2020-10-18T08:12:39.000Z</time>
      </trkpt>
      <trkpt lat="47.34684" lon="-2.34507">
        <ele>18.60000038147</ele>
        <time>2020-10-18T08:12:46.000Z</time>
      </trkpt>
      <trkpt lat="47.34663" lon="-2.34514">
        <ele>18.60000038147</ele>
        <time>2020-10-18T08:12:53.000Z</time>
      </trkpt>
      <trkpt lat="47.34645" lon="-2.3452">
        <ele>18.60000038147</ele>
        <time>2020-10-18T08:12:59.000Z</time>
      </trkpt>
      <trkpt lat="47.34628" lon="-2.34525">
        <ele>18.60000038147</ele>
        <time>2020-10-18T08:13:04.000Z</time>
      </trkpt>
      <trkpt lat="47.34611" lon="-2.34533">
        <ele>18.60000038147</ele>
        <time>2020-10-18T08:13:10.000Z</time>
      </trkpt>
      <trkpt lat="47.34613" lon="-2.34554">
        <ele>18.60000038147</ele>
        <time>2020-10-18T08:13:14.000Z</time>
      </trkpt>
      <trkpt lat="47.34621" lon="-2.34601">
        <ele>18.60000038147</ele>
        <time>2020-10-18T08:13:20.000Z</time>
      </trkpt>
      <trkpt lat="47.34632" lon="-2.34662">
        <ele>18.60000038147</ele>
        <time>2020-10-18T08:13:26.000Z</time>
      </trkpt>
      <trkpt lat="47.34639" lon="-2.34709">
        <ele>18.200000762939</ele>
        <time>2020-10-18T08:13:30.000Z</time>
      </trkpt>
      <trkpt lat="47.3464" lon="-2.34721">
        <ele>17.799999237061</ele>
        <time>2020-10-18T08:13:31.000Z</time>
      </trkpt>
      <trkpt lat="47.3464" lon="-2.34732">
        <ele>17.39999961853</ele>
        <time>2020-10-18T08:13:32.000Z</time>
      </trkpt>
      <trkpt lat="47.3464" lon="-2.34743">
        <ele>16.799999237061</ele>
        <time>2020-10-18T08:13:33.000Z</time>
      </trkpt>
      <trkpt lat="47.34638" lon="-2.34754">
        <ele>16.39999961853</ele>
        <time>2020-10-18T08:13:34.000Z</time>
      </trkpt>
      <trkpt lat="47.34634" lon="-2.34774">
        <ele>16.39999961853</ele>
        <time>2020-10-18T08:13:36.000Z</time>
      </trkpt>
      <trkpt lat="47.34623" lon="-2.34802">
        <ele>16.39999961853</ele>
        <time>2020-10-18T08:13:39.000Z</time>
      </trkpt>
      <trkpt lat="47.34615" lon="-2.34819">
        <ele>16.39999961853</ele>
        <time>2020-10-18T08:13:41.000Z</time>
      </trkpt>
      <trkpt lat="47.34593" lon="-2.34866">
        <ele>16.39999961853</ele>
        <time>2020-10-18T08:13:47.000Z</time>
      </trkpt>
      <trkpt lat="47.3458" lon="-2.34892">
        <ele>16.39999961853</ele>
        <time>2020-10-18T08:13:52.000Z</time>
      </trkpt>
      <trkpt lat="47.34576" lon="-2.34904">
        <ele>16.39999961853</ele>
        <time>2020-10-18T08:13:55.000Z</time>
      </trkpt>
      <trkpt lat="47.34577" lon="-2.34907">
        <ele>16.39999961853</ele>
        <time>2020-10-18T08:13:56.000Z</time>
      </trkpt>
      <trkpt lat="47.34584" lon="-2.34921">
        <ele>16.39999961853</ele>
        <time>2020-10-18T08:14:02.000Z</time>
      </trkpt>
      <trkpt lat="47.34594" lon="-2.3494">
        <ele>16.39999961853</ele>
        <time>2020-10-18T08:14:08.000Z</time>
      </trkpt>
      <trkpt lat="47.34605" lon="-2.3496">
        <ele>16.39999961853</ele>
        <time>2020-10-18T08:14:13.000Z</time>
      </trkpt>
      <trkpt lat="47.34623" lon="-2.34987">
        <ele>16.39999961853</ele>
        <time>2020-10-18T08:14:18.000Z</time>
      </trkpt>
      <trkpt lat="47.34641" lon="-2.35017">
        <ele>16.39999961853</ele>
        <time>2020-10-18T08:14:24.000Z</time>
      </trkpt>
      <trkpt lat="47.34656" lon="-2.35024">
        <ele>16.39999961853</ele>
        <time>2020-10-18T08:14:29.000Z</time>
      </trkpt>
      <trkpt lat="47.34658" lon="-2.35025">
        <ele>16</ele>
        <time>2020-10-18T08:14:30.000Z</time>
      </trkpt>
      <trkpt lat="47.3466" lon="-2.35026">
        <ele>15.60000038147</ele>
        <time>2020-10-18T08:14:31.000Z</time>
      </trkpt>
      <trkpt lat="47.34663" lon="-2.35027">
        <ele>15.199999809265</ele>
        <time>2020-10-18T08:14:32.000Z</time>
      </trkpt>
      <trkpt lat="47.34665" lon="-2.35027">
        <ele>14.800000190735</ele>
        <time>2020-10-18T08:14:33.000Z</time>
      </trkpt>
      <trkpt lat="47.34668" lon="-2.35027">
        <ele>14.39999961853</ele>
        <time>2020-10-18T08:14:34.000Z</time>
      </trkpt>
      <trkpt lat="47.3467" lon="-2.35027">
        <ele>14.39999961853</ele>
        <time>2020-10-18T08:14:35.000Z</time>
      </trkpt>
      <trkpt lat="47.34676" lon="-2.35033">
        <ele>14.39999961853</ele>
        <time>2020-10-18T08:14:40.000Z</time>
      </trkpt>
      <trkpt lat="47.34685" lon="-2.35047">
        <ele>14.39999961853</ele>
        <time>2020-10-18T08:14:45.000Z</time>
      </trkpt>
      <trkpt lat="47.34688" lon="-2.35049">
        <ele>14.39999961853</ele>
        <time>2020-10-18T08:14:46.000Z</time>
      </trkpt>
      <trkpt lat="47.347" lon="-2.35061">
        <ele>14.39999961853</ele>
        <time>2020-10-18T08:14:50.000Z</time>
      </trkpt>
      <trkpt lat="47.34704" lon="-2.35073">
        <ele>14.39999961853</ele>
        <time>2020-10-18T08:14:52.000Z</time>
      </trkpt>
      <trkpt lat="47.34724" lon="-2.35108">
        <ele>14.39999961853</ele>
        <time>2020-10-18T08:14:58.000Z</time>
      </trkpt>
      <trkpt lat="47.3473" lon="-2.35115">
        <ele>14.39999961853</ele>
        <time>2020-10-18T08:15:00.000Z</time>
      </trkpt>
      <trkpt lat="47.34741" lon="-2.35131">
        <ele>14.39999961853</ele>
        <time>2020-10-18T08:15:02.000Z</time>
      </trkpt>
      <trkpt lat="47.34756" lon="-2.35166">
        <ele>14.39999961853</ele>
        <time>2020-10-18T08:15:07.000Z</time>
      </trkpt>
      <trkpt lat="47.34757" lon="-2.35173">
        <ele>14.39999961853</ele>
        <time>2020-10-18T08:15:08.000Z</time>
      </trkpt>
      <trkpt lat="47.34758" lon="-2.35184">
        <ele>14.39999961853</ele>
        <time>2020-10-18T08:15:10.000Z</time>
      </trkpt>
      <trkpt lat="47.34757" lon="-2.35212">
        <ele>14.39999961853</ele>
        <time>2020-10-18T08:15:15.000Z</time>
      </trkpt>
      <trkpt lat="47.34757" lon="-2.35226">
        <ele>14.39999961853</ele>
        <time>2020-10-18T08:15:17.000Z</time>
      </trkpt>
      <trkpt lat="47.34754" lon="-2.3524">
        <ele>14.39999961853</ele>
        <time>2020-10-18T08:15:19.000Z</time>
      </trkpt>
      <trkpt lat="47.34753" lon="-2.35253">
        <ele>14.39999961853</ele>
        <time>2020-10-18T08:15:21.000Z</time>
      </trkpt>
      <trkpt lat="47.3475" lon="-2.35276">
        <ele>14.39999961853</ele>
        <time>2020-10-18T08:15:25.000Z</time>
      </trkpt>
      <trkpt lat="47.34743" lon="-2.35292">
        <ele>14.39999961853</ele>
        <time>2020-10-18T08:15:29.000Z</time>
      </trkpt>
      <trkpt lat="47.34736" lon="-2.35303">
        <ele>14.800000190735</ele>
        <time>2020-10-18T08:15:33.000Z</time>
      </trkpt>
      <trkpt lat="47.34734" lon="-2.35307">
        <ele>15.199999809265</ele>
        <time>2020-10-18T08:15:34.000Z</time>
      </trkpt>
      <trkpt lat="47.34732" lon="-2.35311">
        <ele>15.800000190735</ele>
        <time>2020-10-18T08:15:35.000Z</time>
      </trkpt>
      <trkpt lat="47.34732" lon="-2.35315">
        <ele>16.200000762939</ele>
        <time>2020-10-18T08:15:36.000Z</time>
      </trkpt>
      <trkpt lat="47.34731" lon="-2.35319">
        <ele>16.60000038147</ele>
        <time>2020-10-18T08:15:37.000Z</time>
      </trkpt>
      <trkpt lat="47.3473" lon="-2.35329">
        <ele>16.60000038147</ele>
        <time>2020-10-18T08:15:39.000Z</time>
      </trkpt>
      <trkpt lat="47.34729" lon="-2.35348">
        <ele>16.60000038147</ele>
        <time>2020-10-18T08:15:43.000Z</time>
      </trkpt>
      <trkpt lat="47.34729" lon="-2.35353">
        <ele>16.60000038147</ele>
        <time>2020-10-18T08:15:44.000Z</time>
      </trkpt>
      <trkpt lat="47.34725" lon="-2.35361">
        <ele>16.60000038147</ele>
        <time>2020-10-18T08:15:46.000Z</time>
      </trkpt>
      <trkpt lat="47.34717" lon="-2.35377">
        <ele>16.60000038147</ele>
        <time>2020-10-18T08:15:51.000Z</time>
      </trkpt>
      <trkpt lat="47.34702" lon="-2.35392">
        <ele>16.60000038147</ele>
        <time>2020-10-18T08:15:57.000Z</time>
      </trkpt>
      <trkpt lat="47.34696" lon="-2.35397">
        <ele>16.60000038147</ele>
        <time>2020-10-18T08:15:59.000Z</time>
      </trkpt>
      <trkpt lat="47.34689" lon="-2.35398">
        <ele>16.60000038147</ele>
        <time>2020-10-18T08:16:01.000Z</time>
      </trkpt>
      <trkpt lat="47.34668" lon="-2.35401">
        <ele>16.60000038147</ele>
        <time>2020-10-18T08:16:06.000Z</time>
      </trkpt>
      <trkpt lat="47.34663" lon="-2.35403">
        <ele>16.60000038147</ele>
        <time>2020-10-18T08:16:08.000Z</time>
      </trkpt>
      <trkpt lat="47.34658" lon="-2.35403">
        <ele>16.60000038147</ele>
        <time>2020-10-18T08:16:10.000Z</time>
      </trkpt>
      <trkpt lat="47.34653" lon="-2.35414">
        <ele>16.60000038147</ele>
        <time>2020-10-18T08:16:15.000Z</time>
      </trkpt>
      <trkpt lat="47.34664" lon="-2.35423">
        <ele>16.60000038147</ele>
        <time>2020-10-18T08:16:18.000Z</time>
      </trkpt>
      <trkpt lat="47.34678" lon="-2.3544">
        <ele>16.60000038147</ele>
        <time>2020-10-18T08:16:22.000Z</time>
      </trkpt>
      <trkpt lat="47.34683" lon="-2.35448">
        <ele>16.60000038147</ele>
        <time>2020-10-18T08:16:24.000Z</time>
      </trkpt>
      <trkpt lat="47.34696" lon="-2.3547">
        <ele>16.60000038147</ele>
        <time>2020-10-18T08:16:30.000Z</time>
      </trkpt>
      <trkpt lat="47.34714" lon="-2.35498">
        <ele>16.60000038147</ele>
        <time>2020-10-18T08:16:36.000Z</time>
      </trkpt>
      <trkpt lat="47.34736" lon="-2.35534">
        <ele>16.60000038147</ele>
        <time>2020-10-18T08:16:43.000Z</time>
      </trkpt>
      <trkpt lat="47.34753" lon="-2.35561">
        <ele>16.60000038147</ele>
        <time>2020-10-18T08:16:50.000Z</time>
      </trkpt>
      <trkpt lat="47.34766" lon="-2.35577">
        <ele>16.60000038147</ele>
        <time>2020-10-18T08:16:56.000Z</time>
      </trkpt>
      <trkpt lat="47.34788" lon="-2.35604">
        <ele>16.60000038147</ele>
        <time>2020-10-18T08:17:04.000Z</time>
      </trkpt>
      <trkpt lat="47.34807" lon="-2.35625">
        <ele>16.60000038147</ele>
        <time>2020-10-18T08:17:10.000Z</time>
      </trkpt>
      <trkpt lat="47.34814" lon="-2.35632">
        <ele>16.60000038147</ele>
        <time>2020-10-18T08:17:12.000Z</time>
      </trkpt>
      <trkpt lat="47.34822" lon="-2.35637">
        <ele>16.60000038147</ele>
        <time>2020-10-18T08:17:14.000Z</time>
      </trkpt>
      <trkpt lat="47.34839" lon="-2.35647">
        <ele>16.60000038147</ele>
        <time>2020-10-18T08:17:18.000Z</time>
      </trkpt>
      <trkpt lat="47.34859" lon="-2.3566">
        <ele>16.60000038147</ele>
        <time>2020-10-18T08:17:24.000Z</time>
      </trkpt>
      <trkpt lat="47.34859" lon="-2.35672">
        <ele>16.60000038147</ele>
        <time>2020-10-18T08:17:27.000Z</time>
      </trkpt>
      <trkpt lat="47.34855" lon="-2.35682">
        <ele>16.60000038147</ele>
        <time>2020-10-18T08:17:29.000Z</time>
      </trkpt>
      <trkpt lat="47.3485" lon="-2.35694">
        <ele>16.60000038147</ele>
        <time>2020-10-18T08:17:31.000Z</time>
      </trkpt>
      <trkpt lat="47.34842" lon="-2.35713">
        <ele>16.60000038147</ele>
        <time>2020-10-18T08:17:34.000Z</time>
      </trkpt>
      <trkpt lat="47.34836" lon="-2.35721">
        <ele>16.60000038147</ele>
        <time>2020-10-18T08:17:36.000Z</time>
      </trkpt>
      <trkpt lat="47.34821" lon="-2.35726">
        <ele>16.60000038147</ele>
        <time>2020-10-18T08:17:40.000Z</time>
      </trkpt>
      <trkpt lat="47.34817" lon="-2.35728">
        <ele>16.60000038147</ele>
        <time>2020-10-18T08:17:41.000Z</time>
      </trkpt>
      <trkpt lat="47.34798" lon="-2.35736">
        <ele>16.60000038147</ele>
        <time>2020-10-18T08:17:46.000Z</time>
      </trkpt>
      <trkpt lat="47.34794" lon="-2.35737">
        <ele>16.60000038147</ele>
        <time>2020-10-18T08:17:47.000Z</time>
      </trkpt>
      <trkpt lat="47.34778" lon="-2.35745">
        <ele>16.60000038147</ele>
        <time>2020-10-18T08:17:51.000Z</time>
      </trkpt>
      <trkpt lat="47.34764" lon="-2.35751">
        <ele>16.60000038147</ele>
        <time>2020-10-18T08:17:55.000Z</time>
      </trkpt>
      <trkpt lat="47.34743" lon="-2.35763">
        <ele>16.60000038147</ele>
        <time>2020-10-18T08:18:00.000Z</time>
      </trkpt>
      <trkpt lat="47.34738" lon="-2.35767">
        <ele>16.60000038147</ele>
        <time>2020-10-18T08:18:01.000Z</time>
      </trkpt>
      <trkpt lat="47.34711" lon="-2.35788">
        <ele>16.60000038147</ele>
        <time>2020-10-18T08:18:07.000Z</time>
      </trkpt>
      <trkpt lat="47.34677" lon="-2.35815">
        <ele>16.60000038147</ele>
        <time>2020-10-18T08:18:14.000Z</time>
      </trkpt>
      <trkpt lat="47.34642" lon="-2.35843">
        <ele>16.60000038147</ele>
        <time>2020-10-18T08:18:21.000Z</time>
      </trkpt>
      <trkpt lat="47.34621" lon="-2.3586">
        <ele>16.60000038147</ele>
        <time>2020-10-18T08:18:26.000Z</time>
      </trkpt>
      <trkpt lat="47.34591" lon="-2.35884">
        <ele>16.60000038147</ele>
        <time>2020-10-18T08:18:32.000Z</time>
      </trkpt>
      <trkpt lat="47.3456" lon="-2.35905">
        <ele>16.60000038147</ele>
        <time>2020-10-18T08:18:38.000Z</time>
      </trkpt>
      <trkpt lat="47.34521" lon="-2.35921">
        <ele>16.60000038147</ele>
        <time>2020-10-18T08:18:45.000Z</time>
      </trkpt>
      <trkpt lat="47.34515" lon="-2.35923">
        <ele>17</ele>
        <time>2020-10-18T08:18:46.000Z</time>
      </trkpt>
      <trkpt lat="47.3451" lon="-2.35925">
        <ele>17.39999961853</ele>
        <time>2020-10-18T08:18:47.000Z</time>
      </trkpt>
      <trkpt lat="47.34505" lon="-2.35927">
        <ele>17.799999237061</ele>
        <time>2020-10-18T08:18:48.000Z</time>
      </trkpt>
      <trkpt lat="47.345" lon="-2.35929">
        <ele>18.60000038147</ele>
        <time>2020-10-18T08:18:49.000Z</time>
      </trkpt>
      <trkpt lat="47.3449" lon="-2.35934">
        <ele>18.60000038147</ele>
        <time>2020-10-18T08:18:51.000Z</time>
      </trkpt>
      <trkpt lat="47.34454" lon="-2.35957">
        <ele>19.200000762939</ele>
        <time>2020-10-18T08:18:59.000Z</time>
      </trkpt>
      <trkpt lat="47.3445" lon="-2.35961">
        <ele>19.60000038147</ele>
        <time>2020-10-18T08:19:00.000Z</time>
      </trkpt>
      <trkpt lat="47.34446" lon="-2.35964">
        <ele>20</ele>
        <time>2020-10-18T08:19:01.000Z</time>
      </trkpt>
      <trkpt lat="47.34442" lon="-2.35967">
        <ele>20.39999961853</ele>
        <time>2020-10-18T08:19:02.000Z</time>
      </trkpt>
      <trkpt lat="47.34438" lon="-2.35971">
        <ele>20.799999237061</ele>
        <time>2020-10-18T08:19:03.000Z</time>
      </trkpt>
      <trkpt lat="47.34416" lon="-2.35989">
        <ele>20.799999237061</ele>
        <time>2020-10-18T08:19:09.000Z</time>
      </trkpt>
      <trkpt lat="47.34409" lon="-2.35997">
        <ele>20.799999237061</ele>
        <time>2020-10-18T08:19:12.000Z</time>
      </trkpt>
      <trkpt lat="47.34409" lon="-2.36002">
        <ele>20.799999237061</ele>
        <time>2020-10-18T08:19:13.000Z</time>
      </trkpt>
      <trkpt lat="47.34414" lon="-2.36016">
        <ele>20.799999237061</ele>
        <time>2020-10-18T08:19:16.000Z</time>
      </trkpt>
      <trkpt lat="47.34415" lon="-2.36021">
        <ele>21.200000762939</ele>
        <time>2020-10-18T08:19:17.000Z</time>
      </trkpt>
      <trkpt lat="47.34417" lon="-2.36026">
        <ele>21.60000038147</ele>
        <time>2020-10-18T08:19:18.000Z</time>
      </trkpt>
      <trkpt lat="47.34419" lon="-2.36031">
        <ele>22</ele>
        <time>2020-10-18T08:19:19.000Z</time>
      </trkpt>
      <trkpt lat="47.34421" lon="-2.36037">
        <ele>22.39999961853</ele>
        <time>2020-10-18T08:19:20.000Z</time>
      </trkpt>
      <trkpt lat="47.34422" lon="-2.36044">
        <ele>22.799999237061</ele>
        <time>2020-10-18T08:19:21.000Z</time>
      </trkpt>
      <trkpt lat="47.34426" lon="-2.36058">
        <ele>22.799999237061</ele>
        <time>2020-10-18T08:19:23.000Z</time>
      </trkpt>
      <trkpt lat="47.34437" lon="-2.36095">
        <ele>22.799999237061</ele>
        <time>2020-10-18T08:19:28.000Z</time>
      </trkpt>
      <trkpt lat="47.34454" lon="-2.36144">
        <ele>22.799999237061</ele>
        <time>2020-10-18T08:19:34.000Z</time>
      </trkpt>
      <trkpt lat="47.34474" lon="-2.36184">
        <ele>22.799999237061</ele>
        <time>2020-10-18T08:19:39.000Z</time>
      </trkpt>
      <trkpt lat="47.34478" lon="-2.36191">
        <ele>22.799999237061</ele>
        <time>2020-10-18T08:19:40.000Z</time>
      </trkpt>
      <trkpt lat="47.34487" lon="-2.36206">
        <ele>22.39999961853</ele>
        <time>2020-10-18T08:19:42.000Z</time>
      </trkpt>
      <trkpt lat="47.34491" lon="-2.36213">
        <ele>22</ele>
        <time>2020-10-18T08:19:43.000Z</time>
      </trkpt>
      <trkpt lat="47.34496" lon="-2.3622">
        <ele>21.60000038147</ele>
        <time>2020-10-18T08:19:44.000Z</time>
      </trkpt>
      <trkpt lat="47.345" lon="-2.36229">
        <ele>21.200000762939</ele>
        <time>2020-10-18T08:19:45.000Z</time>
      </trkpt>
      <trkpt lat="47.34503" lon="-2.36237">
        <ele>20.799999237061</ele>
        <time>2020-10-18T08:19:46.000Z</time>
      </trkpt>
      <trkpt lat="47.34509" lon="-2.36255">
        <ele>20.799999237061</ele>
        <time>2020-10-18T08:19:48.000Z</time>
      </trkpt>
      <trkpt lat="47.34529" lon="-2.36315">
        <ele>20.799999237061</ele>
        <time>2020-10-18T08:19:55.000Z</time>
      </trkpt>
      <trkpt lat="47.34537" lon="-2.36338">
        <ele>20.799999237061</ele>
        <time>2020-10-18T08:19:58.000Z</time>
      </trkpt>
      <trkpt lat="47.34545" lon="-2.36362">
        <ele>20.799999237061</ele>
        <time>2020-10-18T08:20:01.000Z</time>
      </trkpt>
      <trkpt lat="47.34558" lon="-2.36388">
        <ele>20.799999237061</ele>
        <time>2020-10-18T08:20:05.000Z</time>
      </trkpt>
      <trkpt lat="47.34562" lon="-2.36393">
        <ele>20.799999237061</ele>
        <time>2020-10-18T08:20:06.000Z</time>
      </trkpt>
      <trkpt lat="47.34585" lon="-2.36424">
        <ele>21.200000762939</ele>
        <time>2020-10-18T08:20:12.000Z</time>
      </trkpt>
      <trkpt lat="47.34587" lon="-2.36427">
        <ele>21.60000038147</ele>
        <time>2020-10-18T08:20:13.000Z</time>
      </trkpt>
      <trkpt lat="47.3459" lon="-2.3643">
        <ele>22</ele>
        <time>2020-10-18T08:20:14.000Z</time>
      </trkpt>
      <trkpt lat="47.34591" lon="-2.36433">
        <ele>22.39999961853</ele>
        <time>2020-10-18T08:20:15.000Z</time>
      </trkpt>
      <trkpt lat="47.34594" lon="-2.36435">
        <ele>22.799999237061</ele>
        <time>2020-10-18T08:20:16.000Z</time>
      </trkpt>
      <trkpt lat="47.34597" lon="-2.36435">
        <ele>22.799999237061</ele>
        <time>2020-10-18T08:20:17.000Z</time>
      </trkpt>
      <trkpt lat="47.34603" lon="-2.36434">
        <ele>22.799999237061</ele>
        <time>2020-10-18T08:20:19.000Z</time>
      </trkpt>
      <trkpt lat="47.34625" lon="-2.3642">
        <ele>22.799999237061</ele>
        <time>2020-10-18T08:20:25.000Z</time>
      </trkpt>
      <trkpt lat="47.34638" lon="-2.36414">
        <ele>23.200000762939</ele>
        <time>2020-10-18T08:20:28.000Z</time>
      </trkpt>
      <trkpt lat="47.34642" lon="-2.36412">
        <ele>23.60000038147</ele>
        <time>2020-10-18T08:20:29.000Z</time>
      </trkpt>
      <trkpt lat="47.34646" lon="-2.36411">
        <ele>24</ele>
        <time>2020-10-18T08:20:30.000Z</time>
      </trkpt>
      <trkpt lat="47.34649" lon="-2.3641">
        <ele>24.39999961853</ele>
        <time>2020-10-18T08:20:31.000Z</time>
      </trkpt>
      <trkpt lat="47.34653" lon="-2.36408">
        <ele>24.799999237061</ele>
        <time>2020-10-18T08:20:32.000Z</time>
      </trkpt>
      <trkpt lat="47.3467" lon="-2.36401">
        <ele>24.799999237061</ele>
        <time>2020-10-18T08:20:37.000Z</time>
      </trkpt>
      <trkpt lat="47.34698" lon="-2.36391">
        <ele>25.200000762939</ele>
        <time>2020-10-18T08:20:44.000Z</time>
      </trkpt>
      <trkpt lat="47.34701" lon="-2.3639">
        <ele>25.60000038147</ele>
        <time>2020-10-18T08:20:45.000Z</time>
      </trkpt>
      <trkpt lat="47.34705" lon="-2.36388">
        <ele>26</ele>
        <time>2020-10-18T08:20:46.000Z</time>
      </trkpt>
      <trkpt lat="47.34709" lon="-2.36387">
        <ele>26.39999961853</ele>
        <time>2020-10-18T08:20:47.000Z</time>
      </trkpt>
      <trkpt lat="47.34714" lon="-2.36385">
        <ele>26.799999237061</ele>
        <time>2020-10-18T08:20:48.000Z</time>
      </trkpt>
      <trkpt lat="47.34727" lon="-2.36378">
        <ele>26.799999237061</ele>
        <time>2020-10-18T08:20:51.000Z</time>
      </trkpt>
      <trkpt lat="47.34756" lon="-2.36362">
        <ele>26.799999237061</ele>
        <time>2020-10-18T08:20:57.000Z</time>
      </trkpt>
      <trkpt lat="47.34786" lon="-2.36343">
        <ele>26.799999237061</ele>
        <time>2020-10-18T08:21:03.000Z</time>
      </trkpt>
      <trkpt lat="47.34829" lon="-2.36316">
        <ele>26.799999237061</ele>
        <time>2020-10-18T08:21:11.000Z</time>
      </trkpt>
      <trkpt lat="47.34883" lon="-2.36279">
        <ele>26.799999237061</ele>
        <time>2020-10-18T08:21:21.000Z</time>
      </trkpt>
      <trkpt lat="47.34904" lon="-2.36262">
        <ele>26.799999237061</ele>
        <time>2020-10-18T08:21:25.000Z</time>
      </trkpt>
      <trkpt lat="47.34931" lon="-2.36238">
        <ele>26.799999237061</ele>
        <time>2020-10-18T08:21:30.000Z</time>
      </trkpt>
      <trkpt lat="47.34966" lon="-2.36194">
        <ele>26.799999237061</ele>
        <time>2020-10-18T08:21:37.000Z</time>
      </trkpt>
      <trkpt lat="47.34994" lon="-2.36169">
        <ele>26</ele>
        <time>2020-10-18T08:21:42.000Z</time>
      </trkpt>
      <trkpt lat="47.35" lon="-2.36166">
        <ele>25.60000038147</ele>
        <time>2020-10-18T08:21:43.000Z</time>
      </trkpt>
      <trkpt lat="47.35006" lon="-2.36165">
        <ele>25.200000762939</ele>
        <time>2020-10-18T08:21:44.000Z</time>
      </trkpt>
      <trkpt lat="47.35012" lon="-2.36164">
        <ele>24.799999237061</ele>
        <time>2020-10-18T08:21:45.000Z</time>
      </trkpt>
      <trkpt lat="47.35018" lon="-2.36164">
        <ele>24.799999237061</ele>
        <time>2020-10-18T08:21:46.000Z</time>
      </trkpt>
      <trkpt lat="47.35044" lon="-2.36171">
        <ele>24.39999961853</ele>
        <time>2020-10-18T08:21:50.000Z</time>
      </trkpt>
      <trkpt lat="47.35051" lon="-2.36174">
        <ele>24</ele>
        <time>2020-10-18T08:21:51.000Z</time>
      </trkpt>
      <trkpt lat="47.35058" lon="-2.36175">
        <ele>23.60000038147</ele>
        <time>2020-10-18T08:21:52.000Z</time>
      </trkpt>
      <trkpt lat="47.35064" lon="-2.36176">
        <ele>23.200000762939</ele>
        <time>2020-10-18T08:21:53.000Z</time>
      </trkpt>
      <trkpt lat="47.35071" lon="-2.36176">
        <ele>22.799999237061</ele>
        <time>2020-10-18T08:21:54.000Z</time>
      </trkpt>
      <trkpt lat="47.35076" lon="-2.36175">
        <ele>22.799999237061</ele>
        <time>2020-10-18T08:21:55.000Z</time>
      </trkpt>
      <trkpt lat="47.35088" lon="-2.36172">
        <ele>22.799999237061</ele>
        <time>2020-10-18T08:21:57.000Z</time>
      </trkpt>
      <trkpt lat="47.35101" lon="-2.36169">
        <ele>22.799999237061</ele>
        <time>2020-10-18T08:22:00.000Z</time>
      </trkpt>
      <trkpt lat="47.35127" lon="-2.36155">
        <ele>22.799999237061</ele>
        <time>2020-10-18T08:22:05.000Z</time>
      </trkpt>
      <trkpt lat="47.35164" lon="-2.36128">
        <ele>22.799999237061</ele>
        <time>2020-10-18T08:22:12.000Z</time>
      </trkpt>
      <trkpt lat="47.35181" lon="-2.36116">
        <ele>22.39999961853</ele>
        <time>2020-10-18T08:22:15.000Z</time>
      </trkpt>
      <trkpt lat="47.35187" lon="-2.36111">
        <ele>22</ele>
        <time>2020-10-18T08:22:16.000Z</time>
      </trkpt>
      <trkpt lat="47.35193" lon="-2.36107">
        <ele>21.60000038147</ele>
        <time>2020-10-18T08:22:17.000Z</time>
      </trkpt>
      <trkpt lat="47.35198" lon="-2.36102">
        <ele>21</ele>
        <time>2020-10-18T08:22:18.000Z</time>
      </trkpt>
      <trkpt lat="47.35204" lon="-2.36098">
        <ele>20.60000038147</ele>
        <time>2020-10-18T08:22:19.000Z</time>
      </trkpt>
      <trkpt lat="47.35241" lon="-2.36067">
        <ele>20.60000038147</ele>
        <time>2020-10-18T08:22:26.000Z</time>
      </trkpt>
      <trkpt lat="47.35285" lon="-2.3603">
        <ele>20.60000038147</ele>
        <time>2020-10-18T08:22:34.000Z</time>
      </trkpt>
      <trkpt lat="47.35296" lon="-2.36017">
        <ele>20.60000038147</ele>
        <time>2020-10-18T08:22:36.000Z</time>
      </trkpt>
      <trkpt lat="47.35307" lon="-2.36001">
        <ele>20.60000038147</ele>
        <time>2020-10-18T08:22:38.000Z</time>
      </trkpt>
      <trkpt lat="47.35327" lon="-2.35958">
        <ele>20.60000038147</ele>
        <time>2020-10-18T08:22:43.000Z</time>
      </trkpt>
      <trkpt lat="47.35356" lon="-2.35908">
        <ele>20.60000038147</ele>
        <time>2020-10-18T08:22:50.000Z</time>
      </trkpt>
      <trkpt lat="47.35391" lon="-2.3587">
        <ele>20.60000038147</ele>
        <time>2020-10-18T08:22:57.000Z</time>
      </trkpt>
      <trkpt lat="47.35396" lon="-2.35863">
        <ele>20.60000038147</ele>
        <time>2020-10-18T08:22:58.000Z</time>
      </trkpt>
      <trkpt lat="47.3541" lon="-2.35845">
        <ele>20.60000038147</ele>
        <time>2020-10-18T08:23:01.000Z</time>
      </trkpt>
      <trkpt lat="47.35421" lon="-2.35832">
        <ele>21</ele>
        <time>2020-10-18T08:23:03.000Z</time>
      </trkpt>
      <trkpt lat="47.35425" lon="-2.35826">
        <ele>21.39999961853</ele>
        <time>2020-10-18T08:23:04.000Z</time>
      </trkpt>
      <trkpt lat="47.3543" lon="-2.3582">
        <ele>21.799999237061</ele>
        <time>2020-10-18T08:23:05.000Z</time>
      </trkpt>
      <trkpt lat="47.35434" lon="-2.35814">
        <ele>22.200000762939</ele>
        <time>2020-10-18T08:23:06.000Z</time>
      </trkpt>
      <trkpt lat="47.35439" lon="-2.35808">
        <ele>22.60000038147</ele>
        <time>2020-10-18T08:23:07.000Z</time>
      </trkpt>
      <trkpt lat="47.35443" lon="-2.35802">
        <ele>22.60000038147</ele>
        <time>2020-10-18T08:23:08.000Z</time>
      </trkpt>
      <trkpt lat="47.3548" lon="-2.3575">
        <ele>22.60000038147</ele>
        <time>2020-10-18T08:23:16.000Z</time>
      </trkpt>
      <trkpt lat="47.35507" lon="-2.35708">
        <ele>22.60000038147</ele>
        <time>2020-10-18T08:23:22.000Z</time>
      </trkpt>
      <trkpt lat="47.3554" lon="-2.35672">
        <ele>22.60000038147</ele>
        <time>2020-10-18T08:23:28.000Z</time>
      </trkpt>
      <trkpt lat="47.35583" lon="-2.35634">
        <ele>22.60000038147</ele>
        <time>2020-10-18T08:23:35.000Z</time>
      </trkpt>
      <trkpt lat="47.35607" lon="-2.35608">
        <ele>22.200000762939</ele>
        <time>2020-10-18T08:23:39.000Z</time>
      </trkpt>
      <trkpt lat="47.35613" lon="-2.35601">
        <ele>21.799999237061</ele>
        <time>2020-10-18T08:23:40.000Z</time>
      </trkpt>
      <trkpt lat="47.35618" lon="-2.35593">
        <ele>21.39999961853</ele>
        <time>2020-10-18T08:23:41.000Z</time>
      </trkpt>
      <trkpt lat="47.35624" lon="-2.35587">
        <ele>21</ele>
        <time>2020-10-18T08:23:42.000Z</time>
      </trkpt>
      <trkpt lat="47.3563" lon="-2.35581">
        <ele>20.60000038147</ele>
        <time>2020-10-18T08:23:43.000Z</time>
      </trkpt>
      <trkpt lat="47.35661" lon="-2.35553">
        <ele>20.60000038147</ele>
        <time>2020-10-18T08:23:48.000Z</time>
      </trkpt>
      <trkpt lat="47.35711" lon="-2.35523">
        <ele>20.60000038147</ele>
        <time>2020-10-18T08:23:56.000Z</time>
      </trkpt>
      <trkpt lat="47.35747" lon="-2.35508">
        <ele>20.200000762939</ele>
        <time>2020-10-18T08:24:02.000Z</time>
      </trkpt>
      <trkpt lat="47.35754" lon="-2.35505">
        <ele>19.799999237061</ele>
        <time>2020-10-18T08:24:03.000Z</time>
      </trkpt>
      <trkpt lat="47.35761" lon="-2.35501">
        <ele>19.39999961853</ele>
        <time>2020-10-18T08:24:04.000Z</time>
      </trkpt>
      <trkpt lat="47.35768" lon="-2.35498">
        <ele>19</ele>
        <time>2020-10-18T08:24:05.000Z</time>
      </trkpt>
      <trkpt lat="47.35775" lon="-2.35495">
        <ele>18.60000038147</ele>
        <time>2020-10-18T08:24:06.000Z</time>
      </trkpt>
      <trkpt lat="47.35821" lon="-2.35472">
        <ele>18.60000038147</ele>
        <time>2020-10-18T08:24:13.000Z</time>
      </trkpt>
      <trkpt lat="47.35859" lon="-2.35453">
        <ele>18.60000038147</ele>
        <time>2020-10-18T08:24:19.000Z</time>
      </trkpt>
      <trkpt lat="47.35865" lon="-2.35449">
        <ele>18.60000038147</ele>
        <time>2020-10-18T08:24:20.000Z</time>
      </trkpt>
      <trkpt lat="47.35894" lon="-2.35425">
        <ele>18.60000038147</ele>
        <time>2020-10-18T08:24:25.000Z</time>
      </trkpt>
      <trkpt lat="47.35936" lon="-2.35396">
        <ele>18.60000038147</ele>
        <time>2020-10-18T08:24:32.000Z</time>
      </trkpt>
      <trkpt lat="47.35942" lon="-2.3539">
        <ele>18.60000038147</ele>
        <time>2020-10-18T08:24:33.000Z</time>
      </trkpt>
      <trkpt lat="47.35957" lon="-2.3537">
        <ele>18.60000038147</ele>
        <time>2020-10-18T08:24:36.000Z</time>
      </trkpt>
      <trkpt lat="47.35991" lon="-2.35319">
        <ele>18.60000038147</ele>
        <time>2020-10-18T08:24:43.000Z</time>
      </trkpt>
      <trkpt lat="47.3602" lon="-2.3528">
        <ele>18.60000038147</ele>
        <time>2020-10-18T08:24:49.000Z</time>
      </trkpt>
      <trkpt lat="47.36048" lon="-2.35244">
        <ele>18.60000038147</ele>
        <time>2020-10-18T08:24:55.000Z</time>
      </trkpt>
      <trkpt lat="47.36086" lon="-2.35192">
        <ele>18.60000038147</ele>
        <time>2020-10-18T08:25:03.000Z</time>
      </trkpt>
      <trkpt lat="47.36121" lon="-2.35146">
        <ele>18.60000038147</ele>
        <time>2020-10-18T08:25:10.000Z</time>
      </trkpt>
      <trkpt lat="47.36154" lon="-2.35107">
        <ele>18.60000038147</ele>
        <time>2020-10-18T08:25:16.000Z</time>
      </trkpt>
      <trkpt lat="47.36193" lon="-2.35066">
        <ele>18.60000038147</ele>
        <time>2020-10-18T08:25:23.000Z</time>
      </trkpt>
      <trkpt lat="47.36223" lon="-2.35031">
        <ele>18.60000038147</ele>
        <time>2020-10-18T08:25:29.000Z</time>
      </trkpt>
      <trkpt lat="47.36227" lon="-2.35024">
        <ele>18.60000038147</ele>
        <time>2020-10-18T08:25:30.000Z</time>
      </trkpt>
      <trkpt lat="47.36251" lon="-2.34975">
        <ele>18.60000038147</ele>
        <time>2020-10-18T08:25:37.000Z</time>
      </trkpt>
      <trkpt lat="47.36271" lon="-2.34933">
        <ele>18.60000038147</ele>
        <time>2020-10-18T08:25:44.000Z</time>
      </trkpt>
      <trkpt lat="47.36279" lon="-2.34924">
        <ele>18.60000038147</ele>
        <time>2020-10-18T08:25:47.000Z</time>
      </trkpt>
      <trkpt lat="47.36282" lon="-2.34926">
        <ele>18.60000038147</ele>
        <time>2020-10-18T08:25:48.000Z</time>
      </trkpt>
      <trkpt lat="47.36288" lon="-2.34943">
        <ele>18.60000038147</ele>
        <time>2020-10-18T08:25:51.000Z</time>
      </trkpt>
      <trkpt lat="47.36289" lon="-2.3495">
        <ele>18.60000038147</ele>
        <time>2020-10-18T08:25:52.000Z</time>
      </trkpt>
      <trkpt lat="47.36294" lon="-2.34974">
        <ele>18.200000762939</ele>
        <time>2020-10-18T08:25:55.000Z</time>
      </trkpt>
      <trkpt lat="47.36294" lon="-2.34983">
        <ele>17.60000038147</ele>
        <time>2020-10-18T08:25:56.000Z</time>
      </trkpt>
      <trkpt lat="47.36295" lon="-2.34991">
        <ele>17.200000762939</ele>
        <time>2020-10-18T08:25:57.000Z</time>
      </trkpt>
      <trkpt lat="47.36296" lon="-2.34998">
        <ele>16.799999237061</ele>
        <time>2020-10-18T08:25:58.000Z</time>
      </trkpt>
      <trkpt lat="47.36297" lon="-2.35004">
        <ele>16.39999961853</ele>
        <time>2020-10-18T08:25:59.000Z</time>
      </trkpt>
      <trkpt lat="47.363" lon="-2.35009">
        <ele>16.39999961853</ele>
        <time>2020-10-18T08:26:00.000Z</time>
      </trkpt>
      <trkpt lat="47.3631" lon="-2.35011">
        <ele>16.39999961853</ele>
        <time>2020-10-18T08:26:03.000Z</time>
      </trkpt>
      <trkpt lat="47.3632" lon="-2.35005">
        <ele>16.39999961853</ele>
        <time>2020-10-18T08:26:05.000Z</time>
      </trkpt>
      <trkpt lat="47.36324" lon="-2.35001">
        <ele>16.39999961853</ele>
        <time>2020-10-18T08:26:06.000Z</time>
      </trkpt>
      <trkpt lat="47.36327" lon="-2.34996">
        <ele>16.39999961853</ele>
        <time>2020-10-18T08:26:07.000Z</time>
      </trkpt>
      <trkpt lat="47.36346" lon="-2.34978">
        <ele>16.39999961853</ele>
        <time>2020-10-18T08:26:12.000Z</time>
      </trkpt>
      <trkpt lat="47.36355" lon="-2.34989">
        <ele>16.39999961853</ele>
        <time>2020-10-18T08:26:15.000Z</time>
      </trkpt>
      <trkpt lat="47.36365" lon="-2.35003">
        <ele>16.39999961853</ele>
        <time>2020-10-18T08:26:18.000Z</time>
      </trkpt>
      <trkpt lat="47.36371" lon="-2.35015">
        <ele>16.39999961853</ele>
        <time>2020-10-18T08:26:20.000Z</time>
      </trkpt>
      <trkpt lat="47.36377" lon="-2.35028">
        <ele>16.39999961853</ele>
        <time>2020-10-18T08:26:22.000Z</time>
      </trkpt>
      <trkpt lat="47.36385" lon="-2.35055">
        <ele>16.39999961853</ele>
        <time>2020-10-18T08:26:26.000Z</time>
      </trkpt>
      <trkpt lat="47.36397" lon="-2.35075">
        <ele>16.39999961853</ele>
        <time>2020-10-18T08:26:31.000Z</time>
      </trkpt>
      <trkpt lat="47.36407" lon="-2.35069">
        <ele>15.39999961853</ele>
        <time>2020-10-18T08:26:34.000Z</time>
      </trkpt>
      <trkpt lat="47.36408" lon="-2.35068">
        <ele>15</ele>
        <time>2020-10-18T08:26:35.000Z</time>
      </trkpt>
      <trkpt lat="47.36408" lon="-2.35068">
        <ele>14.60000038147</ele>
        <time>2020-10-18T08:26:36.000Z</time>
      </trkpt>
      <trkpt lat="47.36408" lon="-2.35068">
        <ele>14.199999809265</ele>
        <time>2020-10-18T08:26:37.000Z</time>
      </trkpt>
      <trkpt lat="47.36409" lon="-2.35068">
        <ele>14.199999809265</ele>
        <time>2020-10-18T08:26:39.000Z</time>
      </trkpt>
      <trkpt lat="47.36421" lon="-2.35068">
        <ele>14.199999809265</ele>
        <time>2020-10-18T08:27:06.000Z</time>
      </trkpt>
      <trkpt lat="47.36433" lon="-2.35075">
        <ele>14.199999809265</ele>
        <time>2020-10-18T08:27:09.000Z</time>
      </trkpt>
      <trkpt lat="47.36444" lon="-2.3508">
        <ele>14.199999809265</ele>
        <time>2020-10-18T08:27:11.000Z</time>
      </trkpt>
      <trkpt lat="47.3646" lon="-2.35087">
        <ele>14.199999809265</ele>
        <time>2020-10-18T08:27:14.000Z</time>
      </trkpt>
      <trkpt lat="47.36494" lon="-2.35105">
        <ele>14.199999809265</ele>
        <time>2020-10-18T08:27:21.000Z</time>
      </trkpt>
      <trkpt lat="47.36511" lon="-2.35103">
        <ele>14.199999809265</ele>
        <time>2020-10-18T08:27:25.000Z</time>
      </trkpt>
      <trkpt lat="47.36516" lon="-2.35102">
        <ele>14.199999809265</ele>
        <time>2020-10-18T08:27:26.000Z</time>
      </trkpt>
      <trkpt lat="47.36531" lon="-2.35099">
        <ele>14.199999809265</ele>
        <time>2020-10-18T08:27:29.000Z</time>
      </trkpt>
      <trkpt lat="47.36541" lon="-2.35099">
        <ele>14.199999809265</ele>
        <time>2020-10-18T08:27:31.000Z</time>
      </trkpt>
      <trkpt lat="47.36548" lon="-2.35095">
        <ele>14.199999809265</ele>
        <time>2020-10-18T08:27:34.000Z</time>
      </trkpt>
      <trkpt lat="47.36549" lon="-2.35092">
        <ele>14.199999809265</ele>
        <time>2020-10-18T08:27:35.000Z</time>
      </trkpt>
      <trkpt lat="47.36544" lon="-2.35078">
        <ele>14.199999809265</ele>
        <time>2020-10-18T08:27:39.000Z</time>
      </trkpt>
      <trkpt lat="47.36542" lon="-2.35073">
        <ele>14.199999809265</ele>
        <time>2020-10-18T08:27:40.000Z</time>
      </trkpt>
      <trkpt lat="47.3653" lon="-2.35056">
        <ele>14.199999809265</ele>
        <time>2020-10-18T08:27:44.000Z</time>
      </trkpt>
      <trkpt lat="47.36528" lon="-2.35051">
        <ele>14.199999809265</ele>
        <time>2020-10-18T08:27:45.000Z</time>
      </trkpt>
      <trkpt lat="47.36519" lon="-2.35037">
        <ele>14.199999809265</ele>
        <time>2020-10-18T08:27:48.000Z</time>
      </trkpt>
      <trkpt lat="47.36517" lon="-2.35031">
        <ele>14.199999809265</ele>
        <time>2020-10-18T08:27:49.000Z</time>
      </trkpt>
      <trkpt lat="47.36511" lon="-2.3502">
        <ele>14.199999809265</ele>
        <time>2020-10-18T08:27:51.000Z</time>
      </trkpt>
      <trkpt lat="47.36505" lon="-2.35011">
        <ele>14.199999809265</ele>
        <time>2020-10-18T08:27:53.000Z</time>
      </trkpt>
      <trkpt lat="47.36495" lon="-2.34995">
        <ele>14.199999809265</ele>
        <time>2020-10-18T08:27:57.000Z</time>
      </trkpt>
      <trkpt lat="47.36496" lon="-2.34986">
        <ele>14.199999809265</ele>
        <time>2020-10-18T08:27:59.000Z</time>
      </trkpt>
      <trkpt lat="47.36498" lon="-2.34985">
        <ele>14.199999809265</ele>
        <time>2020-10-18T08:28:00.000Z</time>
      </trkpt>
      <trkpt lat="47.36507" lon="-2.34993">
        <ele>14.199999809265</ele>
        <time>2020-10-18T08:28:03.000Z</time>
      </trkpt>
      <trkpt lat="47.36513" lon="-2.35005">
        <ele>14.199999809265</ele>
        <time>2020-10-18T08:28:05.000Z</time>
      </trkpt>
      <trkpt lat="47.3652" lon="-2.35018">
        <ele>14.199999809265</ele>
        <time>2020-10-18T08:28:07.000Z</time>
      </trkpt>
      <trkpt lat="47.36546" lon="-2.35067">
        <ele>14.199999809265</ele>
        <time>2020-10-18T08:28:14.000Z</time>
      </trkpt>
      <trkpt lat="47.36578" lon="-2.35125">
        <ele>14.199999809265</ele>
        <time>2020-10-18T08:28:22.000Z</time>
      </trkpt>
      <trkpt lat="47.36617" lon="-2.35193">
        <ele>14.199999809265</ele>
        <time>2020-10-18T08:28:31.000Z</time>
      </trkpt>
      <trkpt lat="47.3664" lon="-2.35229">
        <ele>14.199999809265</ele>
        <time>2020-10-18T08:28:37.000Z</time>
      </trkpt>
      <trkpt lat="47.36644" lon="-2.35231">
        <ele>13.800000190735</ele>
        <time>2020-10-18T08:28:38.000Z</time>
      </trkpt>
      <trkpt lat="47.36648" lon="-2.35229">
        <ele>13.39999961853</ele>
        <time>2020-10-18T08:28:39.000Z</time>
      </trkpt>
      <trkpt lat="47.36652" lon="-2.35225">
        <ele>13</ele>
        <time>2020-10-18T08:28:40.000Z</time>
      </trkpt>
      <trkpt lat="47.36655" lon="-2.3522">
        <ele>12.60000038147</ele>
        <time>2020-10-18T08:28:41.000Z</time>
      </trkpt>
      <trkpt lat="47.36659" lon="-2.35215">
        <ele>12.199999809265</ele>
        <time>2020-10-18T08:28:42.000Z</time>
      </trkpt>
      <trkpt lat="47.36662" lon="-2.35208">
        <ele>12.199999809265</ele>
        <time>2020-10-18T08:28:43.000Z</time>
      </trkpt>
      <trkpt lat="47.36673" lon="-2.35188">
        <ele>12.199999809265</ele>
        <time>2020-10-18T08:28:46.000Z</time>
      </trkpt>
      <trkpt lat="47.36692" lon="-2.35155">
        <ele>12.199999809265</ele>
        <time>2020-10-18T08:28:51.000Z</time>
      </trkpt>
      <trkpt lat="47.36716" lon="-2.35115">
        <ele>12.60000038147</ele>
        <time>2020-10-18T08:28:57.000Z</time>
      </trkpt>
      <trkpt lat="47.36719" lon="-2.35109">
        <ele>13</ele>
        <time>2020-10-18T08:28:58.000Z</time>
      </trkpt>
      <trkpt lat="47.36723" lon="-2.35102">
        <ele>13.39999961853</ele>
        <time>2020-10-18T08:28:59.000Z</time>
      </trkpt>
      <trkpt lat="47.36727" lon="-2.35096">
        <ele>13.800000190735</ele>
        <time>2020-10-18T08:29:00.000Z</time>
      </trkpt>
      <trkpt lat="47.3673" lon="-2.3509">
        <ele>14.199999809265</ele>
        <time>2020-10-18T08:29:01.000Z</time>
      </trkpt>
      <trkpt lat="47.36741" lon="-2.35072">
        <ele>14.199999809265</ele>
        <time>2020-10-18T08:29:04.000Z</time>
      </trkpt>
      <trkpt lat="47.3676" lon="-2.35042">
        <ele>14.60000038147</ele>
        <time>2020-10-18T08:29:09.000Z</time>
      </trkpt>
      <trkpt lat="47.36763" lon="-2.35036">
        <ele>15</ele>
        <time>2020-10-18T08:29:10.000Z</time>
      </trkpt>
      <trkpt lat="47.36767" lon="-2.3503">
        <ele>15.39999961853</ele>
        <time>2020-10-18T08:29:11.000Z</time>
      </trkpt>
      <trkpt lat="47.3677" lon="-2.35024">
        <ele>15.800000190735</ele>
        <time>2020-10-18T08:29:12.000Z</time>
      </trkpt>
      <trkpt lat="47.36774" lon="-2.35018">
        <ele>16.39999961853</ele>
        <time>2020-10-18T08:29:13.000Z</time>
      </trkpt>
      <trkpt lat="47.36789" lon="-2.34994">
        <ele>16.39999961853</ele>
        <time>2020-10-18T08:29:17.000Z</time>
      </trkpt>
      <trkpt lat="47.36802" lon="-2.34976">
        <ele>16.39999961853</ele>
        <time>2020-10-18T08:29:20.000Z</time>
      </trkpt>
      <trkpt lat="47.36814" lon="-2.3497">
        <ele>16.39999961853</ele>
        <time>2020-10-18T08:29:22.000Z</time>
      </trkpt>
      <trkpt lat="47.36826" lon="-2.34966">
        <ele>16.39999961853</ele>
        <time>2020-10-18T08:29:24.000Z</time>
      </trkpt>
      <trkpt lat="47.36845" lon="-2.3496">
        <ele>16.39999961853</ele>
        <time>2020-10-18T08:29:27.000Z</time>
      </trkpt>
      <trkpt lat="47.3688" lon="-2.3495">
        <ele>16.39999961853</ele>
        <time>2020-10-18T08:29:32.000Z</time>
      </trkpt>
      <trkpt lat="47.36887" lon="-2.34949">
        <ele>16.39999961853</ele>
        <time>2020-10-18T08:29:33.000Z</time>
      </trkpt>
      <trkpt lat="47.36924" lon="-2.34939">
        <ele>15.800000190735</ele>
        <time>2020-10-18T08:29:38.000Z</time>
      </trkpt>
      <trkpt lat="47.36931" lon="-2.34937">
        <ele>15.39999961853</ele>
        <time>2020-10-18T08:29:39.000Z</time>
      </trkpt>
      <trkpt lat="47.36938" lon="-2.34935">
        <ele>15</ele>
        <time>2020-10-18T08:29:40.000Z</time>
      </trkpt>
      <trkpt lat="47.36945" lon="-2.34932">
        <ele>14.60000038147</ele>
        <time>2020-10-18T08:29:41.000Z</time>
      </trkpt>
      <trkpt lat="47.36952" lon="-2.34927">
        <ele>14.199999809265</ele>
        <time>2020-10-18T08:29:42.000Z</time>
      </trkpt>
      <trkpt lat="47.3697" lon="-2.34909">
        <ele>14.199999809265</ele>
        <time>2020-10-18T08:29:45.000Z</time>
      </trkpt>
      <trkpt lat="47.36974" lon="-2.349">
        <ele>14.199999809265</ele>
        <time>2020-10-18T08:29:46.000Z</time>
      </trkpt>
      <trkpt lat="47.36982" lon="-2.34873">
        <ele>14.199999809265</ele>
        <time>2020-10-18T08:29:50.000Z</time>
      </trkpt>
      <trkpt lat="47.36986" lon="-2.34871">
        <ele>14.199999809265</ele>
        <time>2020-10-18T08:29:51.000Z</time>
      </trkpt>
      <trkpt lat="47.36996" lon="-2.34871">
        <ele>14.199999809265</ele>
        <time>2020-10-18T08:29:53.000Z</time>
      </trkpt>
      <trkpt lat="47.37013" lon="-2.34873">
        <ele>14.199999809265</ele>
        <time>2020-10-18T08:29:56.000Z</time>
      </trkpt>
      <trkpt lat="47.37019" lon="-2.34873">
        <ele>13.800000190735</ele>
        <time>2020-10-18T08:29:57.000Z</time>
      </trkpt>
      <trkpt lat="47.37026" lon="-2.34872">
        <ele>13.39999961853</ele>
        <time>2020-10-18T08:29:58.000Z</time>
      </trkpt>
      <trkpt lat="47.37033" lon="-2.3487">
        <ele>13</ele>
        <time>2020-10-18T08:29:59.000Z</time>
      </trkpt>
      <trkpt lat="47.3704" lon="-2.34868">
        <ele>12.60000038147</ele>
        <time>2020-10-18T08:30:00.000Z</time>
      </trkpt>
      <trkpt lat="47.37047" lon="-2.34866">
        <ele>12.199999809265</ele>
        <time>2020-10-18T08:30:01.000Z</time>
      </trkpt>
      <trkpt lat="47.37061" lon="-2.34862">
        <ele>12.199999809265</ele>
        <time>2020-10-18T08:30:03.000Z</time>
      </trkpt>
      <trkpt lat="47.37068" lon="-2.34862">
        <ele>12.199999809265</ele>
        <time>2020-10-18T08:30:04.000Z</time>
      </trkpt>
      <trkpt lat="47.37088" lon="-2.34866">
        <ele>12.199999809265</ele>
        <time>2020-10-18T08:30:07.000Z</time>
      </trkpt>
      <trkpt lat="47.37116" lon="-2.34881">
        <ele>12.199999809265</ele>
        <time>2020-10-18T08:30:11.000Z</time>
      </trkpt>
      <trkpt lat="47.37123" lon="-2.34886">
        <ele>12.199999809265</ele>
        <time>2020-10-18T08:30:12.000Z</time>
      </trkpt>
      <trkpt lat="47.3717" lon="-2.34927">
        <ele>12.199999809265</ele>
        <time>2020-10-18T08:30:19.000Z</time>
      </trkpt>
      <trkpt lat="47.37175" lon="-2.34935">
        <ele>12.199999809265</ele>
        <time>2020-10-18T08:30:20.000Z</time>
      </trkpt>
      <trkpt lat="47.37185" lon="-2.34953">
        <ele>11.800000190735</ele>
        <time>2020-10-18T08:30:22.000Z</time>
      </trkpt>
      <trkpt lat="47.37189" lon="-2.34964">
        <ele>11.199999809265</ele>
        <time>2020-10-18T08:30:23.000Z</time>
      </trkpt>
      <trkpt lat="47.37193" lon="-2.34974">
        <ele>10.800000190735</ele>
        <time>2020-10-18T08:30:24.000Z</time>
      </trkpt>
      <trkpt lat="47.37196" lon="-2.34984">
        <ele>10.39999961853</ele>
        <time>2020-10-18T08:30:25.000Z</time>
      </trkpt>
      <trkpt lat="47.37199" lon="-2.34994">
        <ele>10</ele>
        <time>2020-10-18T08:30:26.000Z</time>
      </trkpt>
      <trkpt lat="47.37203" lon="-2.35016">
        <ele>10</ele>
        <time>2020-10-18T08:30:28.000Z</time>
      </trkpt>
      <trkpt lat="47.37214" lon="-2.3508">
        <ele>10</ele>
        <time>2020-10-18T08:30:34.000Z</time>
      </trkpt>
      <trkpt lat="47.37224" lon="-2.35135">
        <ele>10</ele>
        <time>2020-10-18T08:30:40.000Z</time>
      </trkpt>
      <trkpt lat="47.37231" lon="-2.35178">
        <ele>10</ele>
        <time>2020-10-18T08:30:46.000Z</time>
      </trkpt>
      <trkpt lat="47.37232" lon="-2.35186">
        <ele>10</ele>
        <time>2020-10-18T08:30:47.000Z</time>
      </trkpt>
      <trkpt lat="47.3724" lon="-2.35218">
        <ele>10</ele>
        <time>2020-10-18T08:30:51.000Z</time>
      </trkpt>
      <trkpt lat="47.37248" lon="-2.35244">
        <ele>10</ele>
        <time>2020-10-18T08:30:54.000Z</time>
      </trkpt>
      <trkpt lat="47.37254" lon="-2.3527">
        <ele>10</ele>
        <time>2020-10-18T08:30:57.000Z</time>
      </trkpt>
      <trkpt lat="47.37261" lon="-2.35306">
        <ele>10</ele>
        <time>2020-10-18T08:31:01.000Z</time>
      </trkpt>
      <trkpt lat="47.37258" lon="-2.35313">
        <ele>10</ele>
        <time>2020-10-18T08:31:02.000Z</time>
      </trkpt>
      <trkpt lat="47.37247" lon="-2.35334">
        <ele>10</ele>
        <time>2020-10-18T08:31:05.000Z</time>
      </trkpt>
      <trkpt lat="47.37242" lon="-2.35341">
        <ele>10</ele>
        <time>2020-10-18T08:31:06.000Z</time>
      </trkpt>
      <trkpt lat="47.37218" lon="-2.35377">
        <ele>10</ele>
        <time>2020-10-18T08:31:11.000Z</time>
      </trkpt>
      <trkpt lat="47.3719" lon="-2.35417">
        <ele>10</ele>
        <time>2020-10-18T08:31:17.000Z</time>
      </trkpt>
      <trkpt lat="47.37186" lon="-2.35423">
        <ele>10</ele>
        <time>2020-10-18T08:31:18.000Z</time>
      </trkpt>
      <trkpt lat="47.37184" lon="-2.35438">
        <ele>10</ele>
        <time>2020-10-18T08:31:20.000Z</time>
      </trkpt>
      <trkpt lat="47.37192" lon="-2.35456">
        <ele>10</ele>
        <time>2020-10-18T08:31:23.000Z</time>
      </trkpt>
      <trkpt lat="47.37196" lon="-2.35462">
        <ele>10</ele>
        <time>2020-10-18T08:31:24.000Z</time>
      </trkpt>
      <trkpt lat="47.37214" lon="-2.35497">
        <ele>10</ele>
        <time>2020-10-18T08:31:29.000Z</time>
      </trkpt>
      <trkpt lat="47.37243" lon="-2.35544">
        <ele>10</ele>
        <time>2020-10-18T08:31:36.000Z</time>
      </trkpt>
      <trkpt lat="47.37272" lon="-2.35594">
        <ele>10</ele>
        <time>2020-10-18T08:31:43.000Z</time>
      </trkpt>
      <trkpt lat="47.37282" lon="-2.35606">
        <ele>10</ele>
        <time>2020-10-18T08:31:45.000Z</time>
      </trkpt>
      <trkpt lat="47.37296" lon="-2.35612">
        <ele>10</ele>
        <time>2020-10-18T08:31:47.000Z</time>
      </trkpt>
      <trkpt lat="47.37312" lon="-2.35617">
        <ele>10</ele>
        <time>2020-10-18T08:31:49.000Z</time>
      </trkpt>
      <trkpt lat="47.37343" lon="-2.35625">
        <ele>10</ele>
        <time>2020-10-18T08:31:53.000Z</time>
      </trkpt>
      <trkpt lat="47.374" lon="-2.35642">
        <ele>10</ele>
        <time>2020-10-18T08:32:01.000Z</time>
      </trkpt>
      <trkpt lat="47.37406" lon="-2.35645">
        <ele>9.6000003814697</ele>
        <time>2020-10-18T08:32:02.000Z</time>
      </trkpt>
      <trkpt lat="47.37411" lon="-2.35648">
        <ele>9</ele>
        <time>2020-10-18T08:32:03.000Z</time>
      </trkpt>
      <trkpt lat="47.37415" lon="-2.35654">
        <ele>8.6000003814697</ele>
        <time>2020-10-18T08:32:04.000Z</time>
      </trkpt>
      <trkpt lat="47.37418" lon="-2.35663">
        <ele>8.1999998092651</ele>
        <time>2020-10-18T08:32:05.000Z</time>
      </trkpt>
      <trkpt lat="47.37419" lon="-2.35674">
        <ele>7.8000001907349</ele>
        <time>2020-10-18T08:32:06.000Z</time>
      </trkpt>
      <trkpt lat="47.3742" lon="-2.35697">
        <ele>7.8000001907349</ele>
        <time>2020-10-18T08:32:08.000Z</time>
      </trkpt>
      <trkpt lat="47.3742" lon="-2.35708">
        <ele>7.8000001907349</ele>
        <time>2020-10-18T08:32:09.000Z</time>
      </trkpt>
      <trkpt lat="47.37423" lon="-2.35748">
        <ele>7.8000001907349</ele>
        <time>2020-10-18T08:32:13.000Z</time>
      </trkpt>
      <trkpt lat="47.37423" lon="-2.35784">
        <ele>7.8000001907349</ele>
        <time>2020-10-18T08:32:17.000Z</time>
      </trkpt>
      <trkpt lat="47.37421" lon="-2.35794">
        <ele>7.8000001907349</ele>
        <time>2020-10-18T08:32:18.000Z</time>
      </trkpt>
      <trkpt lat="47.37409" lon="-2.35814">
        <ele>7.8000001907349</ele>
        <time>2020-10-18T08:32:21.000Z</time>
      </trkpt>
      <trkpt lat="47.37392" lon="-2.35827">
        <ele>7.8000001907349</ele>
        <time>2020-10-18T08:32:24.000Z</time>
      </trkpt>
      <trkpt lat="47.37381" lon="-2.35835">
        <ele>7.8000001907349</ele>
        <time>2020-10-18T08:32:26.000Z</time>
      </trkpt>
      <trkpt lat="47.37349" lon="-2.35855">
        <ele>7.8000001907349</ele>
        <time>2020-10-18T08:32:31.000Z</time>
      </trkpt>
      <trkpt lat="47.37317" lon="-2.35875">
        <ele>7.8000001907349</ele>
        <time>2020-10-18T08:32:36.000Z</time>
      </trkpt>
      <trkpt lat="47.37312" lon="-2.35882">
        <ele>7.8000001907349</ele>
        <time>2020-10-18T08:32:37.000Z</time>
      </trkpt>
      <trkpt lat="47.37297" lon="-2.35906">
        <ele>7.8000001907349</ele>
        <time>2020-10-18T08:32:40.000Z</time>
      </trkpt>
      <trkpt lat="47.37294" lon="-2.35915">
        <ele>7.8000001907349</ele>
        <time>2020-10-18T08:32:41.000Z</time>
      </trkpt>
      <trkpt lat="47.37277" lon="-2.35946">
        <ele>7.8000001907349</ele>
        <time>2020-10-18T08:32:45.000Z</time>
      </trkpt>
      <trkpt lat="47.37259" lon="-2.35978">
        <ele>7.8000001907349</ele>
        <time>2020-10-18T08:32:50.000Z</time>
      </trkpt>
      <trkpt lat="47.37236" lon="-2.36028">
        <ele>7.8000001907349</ele>
        <time>2020-10-18T08:32:57.000Z</time>
      </trkpt>
      <trkpt lat="47.37229" lon="-2.36051">
        <ele>7.8000001907349</ele>
        <time>2020-10-18T08:33:01.000Z</time>
      </trkpt>
      <trkpt lat="47.3723" lon="-2.36058">
        <ele>7.8000001907349</ele>
        <time>2020-10-18T08:33:02.000Z</time>
      </trkpt>
      <trkpt lat="47.37231" lon="-2.36079">
        <ele>7.8000001907349</ele>
        <time>2020-10-18T08:33:07.000Z</time>
      </trkpt>
      <trkpt lat="47.37231" lon="-2.36084">
        <ele>7.8000001907349</ele>
        <time>2020-10-18T08:33:11.000Z</time>
      </trkpt>
      <trkpt lat="47.3723" lon="-2.36088">
        <ele>5.8000001907349</ele>
        <time>2020-10-18T08:46:23.000Z</time>
      </trkpt>
      <trkpt lat="47.37234" lon="-2.36092">
        <ele>5.8000001907349</ele>
        <time>2020-10-18T08:46:26.000Z</time>
      </trkpt>
      <trkpt lat="47.37242" lon="-2.36099">
        <ele>5.4000000953674</ele>
        <time>2020-10-18T08:46:32.000Z</time>
      </trkpt>
      <trkpt lat="47.37243" lon="-2.361">
        <ele>5</ele>
        <time>2020-10-18T08:46:33.000Z</time>
      </trkpt>
      <trkpt lat="47.37244" lon="-2.361">
        <ele>4.5999999046326</ele>
        <time>2020-10-18T08:46:34.000Z</time>
      </trkpt>
      <trkpt lat="47.37245" lon="-2.36102">
        <ele>4.1999998092651</ele>
        <time>2020-10-18T08:46:35.000Z</time>
      </trkpt>
      <trkpt lat="47.37246" lon="-2.36103">
        <ele>3.7999999523163</ele>
        <time>2020-10-18T08:46:36.000Z</time>
      </trkpt>
      <trkpt lat="47.37246" lon="-2.36104">
        <ele>3.7999999523163</ele>
        <time>2020-10-18T08:46:38.000Z</time>
      </trkpt>
      <trkpt lat="47.37269" lon="-2.36123">
        <ele>3.7999999523163</ele>
        <time>2020-10-18T08:47:15.000Z</time>
      </trkpt>
      <trkpt lat="47.37282" lon="-2.36134">
        <ele>3.7999999523163</ele>
        <time>2020-10-18T08:47:21.000Z</time>
      </trkpt>
      <trkpt lat="47.37292" lon="-2.36124">
        <ele>3.7999999523163</ele>
        <time>2020-10-18T08:47:25.000Z</time>
      </trkpt>
      <trkpt lat="47.37298" lon="-2.3612">
        <ele>3.7999999523163</ele>
        <time>2020-10-18T08:47:27.000Z</time>
      </trkpt>
      <trkpt lat="47.37307" lon="-2.36118">
        <ele>3.7999999523163</ele>
        <time>2020-10-18T08:47:29.000Z</time>
      </trkpt>
      <trkpt lat="47.37332" lon="-2.36116">
        <ele>3.7999999523163</ele>
        <time>2020-10-18T08:47:35.000Z</time>
      </trkpt>
      <trkpt lat="47.37346" lon="-2.36125">
        <ele>3.7999999523163</ele>
        <time>2020-10-18T08:47:40.000Z</time>
      </trkpt>
      <trkpt lat="47.37363" lon="-2.36118">
        <ele>3.7999999523163</ele>
        <time>2020-10-18T08:47:45.000Z</time>
      </trkpt>
      <trkpt lat="47.37379" lon="-2.36105">
        <ele>3.7999999523163</ele>
        <time>2020-10-18T08:47:49.000Z</time>
      </trkpt>
      <trkpt lat="47.37383" lon="-2.36104">
        <ele>3.7999999523163</ele>
        <time>2020-10-18T08:47:50.000Z</time>
      </trkpt>
      <trkpt lat="47.37394" lon="-2.36117">
        <ele>3.7999999523163</ele>
        <time>2020-10-18T08:47:53.000Z</time>
      </trkpt>
      <trkpt lat="47.37416" lon="-2.36139">
        <ele>3.7999999523163</ele>
        <time>2020-10-18T08:47:59.000Z</time>
      </trkpt>
      <trkpt lat="47.37429" lon="-2.36129">
        <ele>3.7999999523163</ele>
        <time>2020-10-18T08:48:02.000Z</time>
      </trkpt>
      <trkpt lat="47.37441" lon="-2.3612">
        <ele>4.1999998092651</ele>
        <time>2020-10-18T08:48:05.000Z</time>
      </trkpt>
      <trkpt lat="47.37445" lon="-2.36117">
        <ele>4.5999999046326</ele>
        <time>2020-10-18T08:48:06.000Z</time>
      </trkpt>
      <trkpt lat="47.37448" lon="-2.36115">
        <ele>5</ele>
        <time>2020-10-18T08:48:07.000Z</time>
      </trkpt>
      <trkpt lat="47.37452" lon="-2.36112">
        <ele>5.4000000953674</ele>
        <time>2020-10-18T08:48:08.000Z</time>
      </trkpt>
      <trkpt lat="47.37456" lon="-2.3611">
        <ele>5.8000001907349</ele>
        <time>2020-10-18T08:48:09.000Z</time>
      </trkpt>
      <trkpt lat="47.37463" lon="-2.36106">
        <ele>6.1999998092651</ele>
        <time>2020-10-18T08:48:11.000Z</time>
      </trkpt>
      <trkpt lat="47.37467" lon="-2.36105">
        <ele>6.5999999046326</ele>
        <time>2020-10-18T08:48:12.000Z</time>
      </trkpt>
      <trkpt lat="47.37471" lon="-2.36104">
        <ele>7</ele>
        <time>2020-10-18T08:48:13.000Z</time>
      </trkpt>
      <trkpt lat="47.37474" lon="-2.36101">
        <ele>7.4000000953674</ele>
        <time>2020-10-18T08:48:14.000Z</time>
      </trkpt>
      <trkpt lat="47.37478" lon="-2.36099">
        <ele>7.8000001907349</ele>
        <time>2020-10-18T08:48:15.000Z</time>
      </trkpt>
      <trkpt lat="47.37496" lon="-2.3609">
        <ele>8.1999998092651</ele>
        <time>2020-10-18T08:48:20.000Z</time>
      </trkpt>
      <trkpt lat="47.375" lon="-2.36088">
        <ele>8.6000003814697</ele>
        <time>2020-10-18T08:48:21.000Z</time>
      </trkpt>
      <trkpt lat="47.37504" lon="-2.36086">
        <ele>9</ele>
        <time>2020-10-18T08:48:22.000Z</time>
      </trkpt>
      <trkpt lat="47.37509" lon="-2.36083">
        <ele>9.3999996185303</ele>
        <time>2020-10-18T08:48:23.000Z</time>
      </trkpt>
      <trkpt lat="47.37513" lon="-2.36081">
        <ele>9.8000001907349</ele>
        <time>2020-10-18T08:48:24.000Z</time>
      </trkpt>
      <trkpt lat="47.37532" lon="-2.36072">
        <ele>9.8000001907349</ele>
        <time>2020-10-18T08:48:29.000Z</time>
      </trkpt>
      <trkpt lat="47.37541" lon="-2.36069">
        <ele>9.8000001907349</ele>
        <time>2020-10-18T08:48:33.000Z</time>
      </trkpt>
      <trkpt lat="47.37557" lon="-2.36063">
        <ele>9.8000001907349</ele>
        <time>2020-10-18T08:48:41.000Z</time>
      </trkpt>
      <trkpt lat="47.37572" lon="-2.36058">
        <ele>9.8000001907349</ele>
        <time>2020-10-18T08:48:46.000Z</time>
      </trkpt>
      <trkpt lat="47.37597" lon="-2.3605">
        <ele>9.8000001907349</ele>
        <time>2020-10-18T08:48:52.000Z</time>
      </trkpt>
      <trkpt lat="47.3763" lon="-2.36046">
        <ele>9.8000001907349</ele>
        <time>2020-10-18T08:49:00.000Z</time>
      </trkpt>
      <trkpt lat="47.37634" lon="-2.36044">
        <ele>9.8000001907349</ele>
        <time>2020-10-18T08:49:01.000Z</time>
      </trkpt>
      <trkpt lat="47.37642" lon="-2.36032">
        <ele>9.8000001907349</ele>
        <time>2020-10-18T08:49:04.000Z</time>
      </trkpt>
      <trkpt lat="47.37643" lon="-2.36014">
        <ele>9.8000001907349</ele>
        <time>2020-10-18T08:49:07.000Z</time>
      </trkpt>
      <trkpt lat="47.37647" lon="-2.36005">
        <ele>9.8000001907349</ele>
        <time>2020-10-18T08:49:09.000Z</time>
      </trkpt>
      <trkpt lat="47.37659" lon="-2.3601">
        <ele>9.8000001907349</ele>
        <time>2020-10-18T08:49:12.000Z</time>
      </trkpt>
      <trkpt lat="47.3769" lon="-2.36019">
        <ele>9.8000001907349</ele>
        <time>2020-10-18T08:49:18.000Z</time>
      </trkpt>
      <trkpt lat="47.37722" lon="-2.36036">
        <ele>9.8000001907349</ele>
        <time>2020-10-18T08:49:24.000Z</time>
      </trkpt>
      <trkpt lat="47.37753" lon="-2.36058">
        <ele>9.8000001907349</ele>
        <time>2020-10-18T08:49:30.000Z</time>
      </trkpt>
      <trkpt lat="47.3779" lon="-2.36077">
        <ele>9.8000001907349</ele>
        <time>2020-10-18T08:49:37.000Z</time>
      </trkpt>
      <trkpt lat="47.37818" lon="-2.36092">
        <ele>9.8000001907349</ele>
        <time>2020-10-18T08:49:43.000Z</time>
      </trkpt>
      <trkpt lat="47.37837" lon="-2.36102">
        <ele>10.199999809265</ele>
        <time>2020-10-18T08:49:47.000Z</time>
      </trkpt>
      <trkpt lat="47.37842" lon="-2.36104">
        <ele>10.60000038147</ele>
        <time>2020-10-18T08:49:48.000Z</time>
      </trkpt>
      <trkpt lat="47.37848" lon="-2.36107">
        <ele>11.39999961853</ele>
        <time>2020-10-18T08:49:49.000Z</time>
      </trkpt>
      <trkpt lat="47.37853" lon="-2.3611">
        <ele>11.800000190735</ele>
        <time>2020-10-18T08:49:50.000Z</time>
      </trkpt>
      <trkpt lat="47.37887" lon="-2.36128">
        <ele>11.800000190735</ele>
        <time>2020-10-18T08:49:57.000Z</time>
      </trkpt>
      <trkpt lat="47.37892" lon="-2.36129">
        <ele>11.800000190735</ele>
        <time>2020-10-18T08:49:58.000Z</time>
      </trkpt>
      <trkpt lat="47.37907" lon="-2.36125">
        <ele>11.800000190735</ele>
        <time>2020-10-18T08:50:01.000Z</time>
      </trkpt>
      <trkpt lat="47.37912" lon="-2.36124">
        <ele>11.800000190735</ele>
        <time>2020-10-18T08:50:02.000Z</time>
      </trkpt>
      <trkpt lat="47.37917" lon="-2.36121">
        <ele>11.800000190735</ele>
        <time>2020-10-18T08:50:03.000Z</time>
      </trkpt>
      <trkpt lat="47.37938" lon="-2.36112">
        <ele>11.800000190735</ele>
        <time>2020-10-18T08:50:07.000Z</time>
      </trkpt>
      <trkpt lat="47.37976" lon="-2.3609">
        <ele>11.800000190735</ele>
        <time>2020-10-18T08:50:14.000Z</time>
      </trkpt>
      <trkpt lat="47.37981" lon="-2.36087">
        <ele>11.39999961853</ele>
        <time>2020-10-18T08:50:15.000Z</time>
      </trkpt>
      <trkpt lat="47.37987" lon="-2.36084">
        <ele>11</ele>
        <time>2020-10-18T08:50:16.000Z</time>
      </trkpt>
      <trkpt lat="47.37993" lon="-2.36081">
        <ele>10.60000038147</ele>
        <time>2020-10-18T08:50:17.000Z</time>
      </trkpt>
      <trkpt lat="47.37998" lon="-2.36079">
        <ele>10.199999809265</ele>
        <time>2020-10-18T08:50:18.000Z</time>
      </trkpt>
      <trkpt lat="47.38004" lon="-2.36078">
        <ele>9.8000001907349</ele>
        <time>2020-10-18T08:50:19.000Z</time>
      </trkpt>
      <trkpt lat="47.38016" lon="-2.36073">
        <ele>9.8000001907349</ele>
        <time>2020-10-18T08:50:21.000Z</time>
      </trkpt>
      <trkpt lat="47.3806" lon="-2.36059">
        <ele>9.8000001907349</ele>
        <time>2020-10-18T08:50:29.000Z</time>
      </trkpt>
      <trkpt lat="47.38097" lon="-2.36046">
        <ele>9.8000001907349</ele>
        <time>2020-10-18T08:50:36.000Z</time>
      </trkpt>
      <trkpt lat="47.38139" lon="-2.36025">
        <ele>9.8000001907349</ele>
        <time>2020-10-18T08:50:43.000Z</time>
      </trkpt>
      <trkpt lat="47.38182" lon="-2.35993">
        <ele>9.8000001907349</ele>
        <time>2020-10-18T08:50:50.000Z</time>
      </trkpt>
      <trkpt lat="47.38227" lon="-2.35961">
        <ele>9.8000001907349</ele>
        <time>2020-10-18T08:50:58.000Z</time>
      </trkpt>
      <trkpt lat="47.38261" lon="-2.35938">
        <ele>9</ele>
        <time>2020-10-18T08:51:04.000Z</time>
      </trkpt>
      <trkpt lat="47.38266" lon="-2.35934">
        <ele>8.6000003814697</ele>
        <time>2020-10-18T08:51:05.000Z</time>
      </trkpt>
      <trkpt lat="47.38271" lon="-2.35931">
        <ele>8.1999998092651</ele>
        <time>2020-10-18T08:51:06.000Z</time>
      </trkpt>
      <trkpt lat="47.38275" lon="-2.35928">
        <ele>7.8000001907349</ele>
        <time>2020-10-18T08:51:07.000Z</time>
      </trkpt>
      <trkpt lat="47.3828" lon="-2.35925">
        <ele>7.1999998092651</ele>
        <time>2020-10-18T08:51:09.000Z</time>
      </trkpt>
      <trkpt lat="47.38281" lon="-2.35924">
        <ele>6.8000001907349</ele>
        <time>2020-10-18T08:51:10.000Z</time>
      </trkpt>
      <trkpt lat="47.38282" lon="-2.35923">
        <ele>6.4000000953674</ele>
        <time>2020-10-18T08:51:11.000Z</time>
      </trkpt>
      <trkpt lat="47.38283" lon="-2.35923">
        <ele>6</ele>
        <time>2020-10-18T08:51:12.000Z</time>
      </trkpt>
      <trkpt lat="47.38283" lon="-2.35922">
        <ele>5.5999999046326</ele>
        <time>2020-10-18T08:51:13.000Z</time>
      </trkpt>
      <trkpt lat="47.38286" lon="-2.35922">
        <ele>5.5999999046326</ele>
        <time>2020-10-18T08:51:15.000Z</time>
      </trkpt>
      <trkpt lat="47.38287" lon="-2.35922">
        <ele>5.5999999046326</ele>
        <time>2020-10-18T08:51:19.000Z</time>
      </trkpt>
      <trkpt lat="47.38294" lon="-2.35934">
        <ele>5</ele>
        <time>2020-10-18T08:52:28.000Z</time>
      </trkpt>
      <trkpt lat="47.38295" lon="-2.35937">
        <ele>5</ele>
        <time>2020-10-18T08:52:29.000Z</time>
      </trkpt>
      <trkpt lat="47.38302" lon="-2.35962">
        <ele>5</ele>
        <time>2020-10-18T08:52:35.000Z</time>
      </trkpt>
      <trkpt lat="47.38311" lon="-2.35998">
        <ele>5</ele>
        <time>2020-10-18T08:52:41.000Z</time>
      </trkpt>
      <trkpt lat="47.38318" lon="-2.36042">
        <ele>5</ele>
        <time>2020-10-18T08:52:47.000Z</time>
      </trkpt>
      <trkpt lat="47.3832" lon="-2.36049">
        <ele>5</ele>
        <time>2020-10-18T08:52:48.000Z</time>
      </trkpt>
      <trkpt lat="47.38331" lon="-2.36077">
        <ele>5</ele>
        <time>2020-10-18T08:52:52.000Z</time>
      </trkpt>
      <trkpt lat="47.38351" lon="-2.36127">
        <ele>5</ele>
        <time>2020-10-18T08:52:59.000Z</time>
      </trkpt>
      <trkpt lat="47.38356" lon="-2.36141">
        <ele>5</ele>
        <time>2020-10-18T08:53:01.000Z</time>
      </trkpt>
      <trkpt lat="47.3836" lon="-2.36156">
        <ele>5</ele>
        <time>2020-10-18T08:53:03.000Z</time>
      </trkpt>
      <trkpt lat="47.38364" lon="-2.36169">
        <ele>5</ele>
        <time>2020-10-18T08:53:05.000Z</time>
      </trkpt>
      <trkpt lat="47.3837" lon="-2.36179">
        <ele>5</ele>
        <time>2020-10-18T08:53:07.000Z</time>
      </trkpt>
      <trkpt lat="47.38378" lon="-2.36185">
        <ele>5</ele>
        <time>2020-10-18T08:53:09.000Z</time>
      </trkpt>
      <trkpt lat="47.38386" lon="-2.36188">
        <ele>5</ele>
        <time>2020-10-18T08:53:11.000Z</time>
      </trkpt>
      <trkpt lat="47.3839" lon="-2.36188">
        <ele>5</ele>
        <time>2020-10-18T08:53:12.000Z</time>
      </trkpt>
      <trkpt lat="47.38397" lon="-2.36192">
        <ele>5</ele>
        <time>2020-10-18T08:53:16.000Z</time>
      </trkpt>
      <trkpt lat="47.38402" lon="-2.36202">
        <ele>5</ele>
        <time>2020-10-18T08:53:21.000Z</time>
      </trkpt>
      <trkpt lat="47.38403" lon="-2.36203">
        <ele>5</ele>
        <time>2020-10-18T08:53:22.000Z</time>
      </trkpt>
      <trkpt lat="47.38412" lon="-2.36205">
        <ele>5</ele>
        <time>2020-10-18T08:53:28.000Z</time>
      </trkpt>
      <trkpt lat="47.38417" lon="-2.36215">
        <ele>5</ele>
        <time>2020-10-18T08:53:33.000Z</time>
      </trkpt>
      <trkpt lat="47.38418" lon="-2.36227">
        <ele>5</ele>
        <time>2020-10-18T08:53:37.000Z</time>
      </trkpt>
      <trkpt lat="47.3842" lon="-2.3623">
        <ele>5</ele>
        <time>2020-10-18T08:53:38.000Z</time>
      </trkpt>
      <trkpt lat="47.38428" lon="-2.36242">
        <ele>5</ele>
        <time>2020-10-18T08:53:42.000Z</time>
      </trkpt>
      <trkpt lat="47.38433" lon="-2.36244">
        <ele>5</ele>
        <time>2020-10-18T08:53:44.000Z</time>
      </trkpt>
      <trkpt lat="47.38452" lon="-2.36248">
        <ele>5</ele>
        <time>2020-10-18T08:53:49.000Z</time>
      </trkpt>
      <trkpt lat="47.38455" lon="-2.36247">
        <ele>5</ele>
        <time>2020-10-18T08:53:50.000Z</time>
      </trkpt>
      <trkpt lat="47.38461" lon="-2.36241">
        <ele>5</ele>
        <time>2020-10-18T08:53:52.000Z</time>
      </trkpt>
      <trkpt lat="47.38473" lon="-2.36232">
        <ele>5</ele>
        <time>2020-10-18T08:53:56.000Z</time>
      </trkpt>
      <trkpt lat="47.38477" lon="-2.36231">
        <ele>5</ele>
        <time>2020-10-18T08:53:57.000Z</time>
      </trkpt>
      <trkpt lat="47.38504" lon="-2.36235">
        <ele>5</ele>
        <time>2020-10-18T08:54:04.000Z</time>
      </trkpt>
      <trkpt lat="47.38529" lon="-2.36238">
        <ele>5</ele>
        <time>2020-10-18T08:54:09.000Z</time>
      </trkpt>
      <trkpt lat="47.38568" lon="-2.36248">
        <ele>5</ele>
        <time>2020-10-18T08:54:15.000Z</time>
      </trkpt>
      <trkpt lat="47.38596" lon="-2.36253">
        <ele>5</ele>
        <time>2020-10-18T08:54:20.000Z</time>
      </trkpt>
      <trkpt lat="47.38602" lon="-2.36258">
        <ele>5</ele>
        <time>2020-10-18T08:54:21.000Z</time>
      </trkpt>
      <trkpt lat="47.3861" lon="-2.36271">
        <ele>5</ele>
        <time>2020-10-18T08:54:23.000Z</time>
      </trkpt>
      <trkpt lat="47.38617" lon="-2.36306">
        <ele>5</ele>
        <time>2020-10-18T08:54:27.000Z</time>
      </trkpt>
      <trkpt lat="47.38617" lon="-2.36316">
        <ele>5</ele>
        <time>2020-10-18T08:54:28.000Z</time>
      </trkpt>
      <trkpt lat="47.38612" lon="-2.36341">
        <ele>5</ele>
        <time>2020-10-18T08:54:31.000Z</time>
      </trkpt>
      <trkpt lat="47.3861" lon="-2.36349">
        <ele>5</ele>
        <time>2020-10-18T08:54:32.000Z</time>
      </trkpt>
      <trkpt lat="47.38588" lon="-2.364">
        <ele>5</ele>
        <time>2020-10-18T08:54:39.000Z</time>
      </trkpt>
      <trkpt lat="47.38569" lon="-2.36442">
        <ele>5</ele>
        <time>2020-10-18T08:54:45.000Z</time>
      </trkpt>
      <trkpt lat="47.38549" lon="-2.36488">
        <ele>5</ele>
        <time>2020-10-18T08:54:51.000Z</time>
      </trkpt>
      <trkpt lat="47.38532" lon="-2.36516">
        <ele>5</ele>
        <time>2020-10-18T08:54:55.000Z</time>
      </trkpt>
      <trkpt lat="47.38528" lon="-2.36522">
        <ele>5</ele>
        <time>2020-10-18T08:54:56.000Z</time>
      </trkpt>
      <trkpt lat="47.38505" lon="-2.36549">
        <ele>5</ele>
        <time>2020-10-18T08:55:01.000Z</time>
      </trkpt>
      <trkpt lat="47.38489" lon="-2.36559">
        <ele>5</ele>
        <time>2020-10-18T08:55:04.000Z</time>
      </trkpt>
      <trkpt lat="47.38477" lon="-2.36564">
        <ele>5</ele>
        <time>2020-10-18T08:55:06.000Z</time>
      </trkpt>
      <trkpt lat="47.38471" lon="-2.36566">
        <ele>5</ele>
        <time>2020-10-18T08:55:07.000Z</time>
      </trkpt>
      <trkpt lat="47.38456" lon="-2.36574">
        <ele>5</ele>
        <time>2020-10-18T08:55:10.000Z</time>
      </trkpt>
      <trkpt lat="47.3844" lon="-2.36583">
        <ele>5</ele>
        <time>2020-10-18T08:55:13.000Z</time>
      </trkpt>
      <trkpt lat="47.38425" lon="-2.36596">
        <ele>5</ele>
        <time>2020-10-18T08:55:16.000Z</time>
      </trkpt>
      <trkpt lat="47.38413" lon="-2.36616">
        <ele>5</ele>
        <time>2020-10-18T08:55:19.000Z</time>
      </trkpt>
      <trkpt lat="47.3841" lon="-2.36623">
        <ele>5</ele>
        <time>2020-10-18T08:55:20.000Z</time>
      </trkpt>
      <trkpt lat="47.38407" lon="-2.3663">
        <ele>5</ele>
        <time>2020-10-18T08:55:21.000Z</time>
      </trkpt>
      <trkpt lat="47.38401" lon="-2.36645">
        <ele>5</ele>
        <time>2020-10-18T08:55:23.000Z</time>
      </trkpt>
      <trkpt lat="47.38393" lon="-2.36669">
        <ele>5</ele>
        <time>2020-10-18T08:55:26.000Z</time>
      </trkpt>
      <trkpt lat="47.38391" lon="-2.36677">
        <ele>5</ele>
        <time>2020-10-18T08:55:27.000Z</time>
      </trkpt>
      <trkpt lat="47.3838" lon="-2.36706">
        <ele>5</ele>
        <time>2020-10-18T08:55:31.000Z</time>
      </trkpt>
      <trkpt lat="47.38367" lon="-2.36744">
        <ele>5</ele>
        <time>2020-10-18T08:55:36.000Z</time>
      </trkpt>
      <trkpt lat="47.38361" lon="-2.36759">
        <ele>5</ele>
        <time>2020-10-18T08:55:38.000Z</time>
      </trkpt>
      <trkpt lat="47.38349" lon="-2.36776">
        <ele>5</ele>
        <time>2020-10-18T08:55:41.000Z</time>
      </trkpt>
      <trkpt lat="47.38334" lon="-2.36785">
        <ele>5</ele>
        <time>2020-10-18T08:55:44.000Z</time>
      </trkpt>
      <trkpt lat="47.38329" lon="-2.36787">
        <ele>5</ele>
        <time>2020-10-18T08:55:45.000Z</time>
      </trkpt>
      <trkpt lat="47.38312" lon="-2.36794">
        <ele>5</ele>
        <time>2020-10-18T08:55:48.000Z</time>
      </trkpt>
      <trkpt lat="47.38293" lon="-2.368">
        <ele>5</ele>
        <time>2020-10-18T08:55:51.000Z</time>
      </trkpt>
      <trkpt lat="47.38259" lon="-2.36814">
        <ele>5</ele>
        <time>2020-10-18T08:55:57.000Z</time>
      </trkpt>
      <trkpt lat="47.38225" lon="-2.36835">
        <ele>5</ele>
        <time>2020-10-18T08:56:04.000Z</time>
      </trkpt>
      <trkpt lat="47.38193" lon="-2.36853">
        <ele>5</ele>
        <time>2020-10-18T08:56:11.000Z</time>
      </trkpt>
      <trkpt lat="47.38181" lon="-2.3686">
        <ele>5.5999999046326</ele>
        <time>2020-10-18T08:56:14.000Z</time>
      </trkpt>
      <trkpt lat="47.38176" lon="-2.36862">
        <ele>6</ele>
        <time>2020-10-18T08:56:15.000Z</time>
      </trkpt>
      <trkpt lat="47.38172" lon="-2.36865">
        <ele>6.4000000953674</ele>
        <time>2020-10-18T08:56:16.000Z</time>
      </trkpt>
      <trkpt lat="47.38168" lon="-2.36868">
        <ele>6.8000001907349</ele>
        <time>2020-10-18T08:56:17.000Z</time>
      </trkpt>
      <trkpt lat="47.38164" lon="-2.3687">
        <ele>7.4000000953674</ele>
        <time>2020-10-18T08:56:18.000Z</time>
      </trkpt>
      <trkpt lat="47.38141" lon="-2.36884">
        <ele>7.4000000953674</ele>
        <time>2020-10-18T08:56:24.000Z</time>
      </trkpt>
      <trkpt lat="47.38125" lon="-2.36893">
        <ele>7.8000001907349</ele>
        <time>2020-10-18T08:56:28.000Z</time>
      </trkpt>
      <trkpt lat="47.38122" lon="-2.36894">
        <ele>8.1999998092651</ele>
        <time>2020-10-18T08:56:29.000Z</time>
      </trkpt>
      <trkpt lat="47.38119" lon="-2.36896">
        <ele>8.6000003814697</ele>
        <time>2020-10-18T08:56:30.000Z</time>
      </trkpt>
      <trkpt lat="47.38116" lon="-2.36897">
        <ele>9</ele>
        <time>2020-10-18T08:56:31.000Z</time>
      </trkpt>
      <trkpt lat="47.38114" lon="-2.36899">
        <ele>9.3999996185303</ele>
        <time>2020-10-18T08:56:32.000Z</time>
      </trkpt>
      <trkpt lat="47.3811" lon="-2.36902">
        <ele>9.3999996185303</ele>
        <time>2020-10-18T08:56:34.000Z</time>
      </trkpt>
      <trkpt lat="47.3811" lon="-2.36913">
        <ele>9.3999996185303</ele>
        <time>2020-10-18T08:56:39.000Z</time>
      </trkpt>
      <trkpt lat="47.38111" lon="-2.36915">
        <ele>9.3999996185303</ele>
        <time>2020-10-18T08:56:40.000Z</time>
      </trkpt>
      <trkpt lat="47.38113" lon="-2.36923">
        <ele>9.3999996185303</ele>
        <time>2020-10-18T08:56:43.000Z</time>
      </trkpt>
      <trkpt lat="47.38117" lon="-2.36945">
        <ele>9.3999996185303</ele>
        <time>2020-10-18T08:56:49.000Z</time>
      </trkpt>
      <trkpt lat="47.38126" lon="-2.36967">
        <ele>9.3999996185303</ele>
        <time>2020-10-18T08:56:53.000Z</time>
      </trkpt>
      <trkpt lat="47.38137" lon="-2.36992">
        <ele>9.3999996185303</ele>
        <time>2020-10-18T08:56:58.000Z</time>
      </trkpt>
      <trkpt lat="47.38144" lon="-2.37015">
        <ele>9.3999996185303</ele>
        <time>2020-10-18T08:57:02.000Z</time>
      </trkpt>
      <trkpt lat="47.38165" lon="-2.37056">
        <ele>9.3999996185303</ele>
        <time>2020-10-18T08:57:08.000Z</time>
      </trkpt>
      <trkpt lat="47.38189" lon="-2.37105">
        <ele>9.3999996185303</ele>
        <time>2020-10-18T08:57:14.000Z</time>
      </trkpt>
      <trkpt lat="47.38207" lon="-2.37141">
        <ele>9</ele>
        <time>2020-10-18T08:57:18.000Z</time>
      </trkpt>
      <trkpt lat="47.38212" lon="-2.3715">
        <ele>8.3999996185303</ele>
        <time>2020-10-18T08:57:19.000Z</time>
      </trkpt>
      <trkpt lat="47.38217" lon="-2.37159">
        <ele>8</ele>
        <time>2020-10-18T08:57:20.000Z</time>
      </trkpt>
      <trkpt lat="47.38222" lon="-2.37168">
        <ele>7.5999999046326</ele>
        <time>2020-10-18T08:57:21.000Z</time>
      </trkpt>
      <trkpt lat="47.38227" lon="-2.37178">
        <ele>7</ele>
        <time>2020-10-18T08:57:22.000Z</time>
      </trkpt>
      <trkpt lat="47.38239" lon="-2.37203">
        <ele>7</ele>
        <time>2020-10-18T08:57:25.000Z</time>
      </trkpt>
      <trkpt lat="47.38242" lon="-2.37209">
        <ele>6.5999999046326</ele>
        <time>2020-10-18T08:57:26.000Z</time>
      </trkpt>
      <trkpt lat="47.38243" lon="-2.37213">
        <ele>6.1999998092651</ele>
        <time>2020-10-18T08:57:27.000Z</time>
      </trkpt>
      <trkpt lat="47.38244" lon="-2.37216">
        <ele>5.5999999046326</ele>
        <time>2020-10-18T08:57:28.000Z</time>
      </trkpt>
      <trkpt lat="47.38246" lon="-2.37219">
        <ele>5.1999998092651</ele>
        <time>2020-10-18T08:57:29.000Z</time>
      </trkpt>
      <trkpt lat="47.38247" lon="-2.3722">
        <ele>4.8000001907349</ele>
        <time>2020-10-18T08:57:30.000Z</time>
      </trkpt>
      <trkpt lat="47.3825" lon="-2.37222">
        <ele>4.8000001907349</ele>
        <time>2020-10-18T08:57:32.000Z</time>
      </trkpt>
      <trkpt lat="47.38253" lon="-2.37219">
        <ele>4.8000001907349</ele>
        <time>2020-10-18T08:57:34.000Z</time>
      </trkpt>
      <trkpt lat="47.38256" lon="-2.37218">
        <ele>4.8000001907349</ele>
        <time>2020-10-18T08:57:35.000Z</time>
      </trkpt>
      <trkpt lat="47.38259" lon="-2.37218">
        <ele>4.8000001907349</ele>
        <time>2020-10-18T08:57:36.000Z</time>
      </trkpt>
      <trkpt lat="47.38268" lon="-2.37219">
        <ele>4.8000001907349</ele>
        <time>2020-10-18T08:57:39.000Z</time>
      </trkpt>
      <trkpt lat="47.38271" lon="-2.3722">
        <ele>4.8000001907349</ele>
        <time>2020-10-18T08:57:40.000Z</time>
      </trkpt>
      <trkpt lat="47.3828" lon="-2.3722">
        <ele>4.8000001907349</ele>
        <time>2020-10-18T08:57:45.000Z</time>
      </trkpt>
      <trkpt lat="47.38284" lon="-2.37229">
        <ele>4.8000001907349</ele>
        <time>2020-10-18T08:57:50.000Z</time>
      </trkpt>
      <trkpt lat="47.38288" lon="-2.37233">
        <ele>4.8000001907349</ele>
        <time>2020-10-18T08:57:53.000Z</time>
      </trkpt>
      <trkpt lat="47.38292" lon="-2.37235">
        <ele>4.8000001907349</ele>
        <time>2020-10-18T08:57:55.000Z</time>
      </trkpt>
      <trkpt lat="47.38294" lon="-2.37238">
        <ele>4.8000001907349</ele>
        <time>2020-10-18T08:57:57.000Z</time>
      </trkpt>
      <trkpt lat="47.38298" lon="-2.37242">
        <ele>4.8000001907349</ele>
        <time>2020-10-18T08:57:59.000Z</time>
      </trkpt>
      <trkpt lat="47.38302" lon="-2.37246">
        <ele>4.8000001907349</ele>
        <time>2020-10-18T08:58:02.000Z</time>
      </trkpt>
      <trkpt lat="47.38309" lon="-2.37254">
        <ele>4.8000001907349</ele>
        <time>2020-10-18T08:58:07.000Z</time>
      </trkpt>
      <trkpt lat="47.38317" lon="-2.37268">
        <ele>4.8000001907349</ele>
        <time>2020-10-18T08:58:13.000Z</time>
      </trkpt>
      <trkpt lat="47.38318" lon="-2.37278">
        <ele>4.8000001907349</ele>
        <time>2020-10-18T08:58:19.000Z</time>
      </trkpt>
      <trkpt lat="47.38316" lon="-2.37289">
        <ele>4.8000001907349</ele>
        <time>2020-10-18T08:58:25.000Z</time>
      </trkpt>
      <trkpt lat="47.38315" lon="-2.3729">
        <ele>4.8000001907349</ele>
        <time>2020-10-18T08:58:26.000Z</time>
      </trkpt>
      <trkpt lat="47.38326" lon="-2.37297">
        <ele>4.8000001907349</ele>
        <time>2020-10-18T08:58:35.000Z</time>
      </trkpt>
      <trkpt lat="47.38331" lon="-2.37306">
        <ele>4.8000001907349</ele>
        <time>2020-10-18T08:58:38.000Z</time>
      </trkpt>
      <trkpt lat="47.38336" lon="-2.37322">
        <ele>4.8000001907349</ele>
        <time>2020-10-18T08:58:43.000Z</time>
      </trkpt>
      <trkpt lat="47.38336" lon="-2.37326">
        <ele>4.8000001907349</ele>
        <time>2020-10-18T08:58:44.000Z</time>
      </trkpt>
      <trkpt lat="47.38334" lon="-2.3734">
        <ele>4.8000001907349</ele>
        <time>2020-10-18T08:58:47.000Z</time>
      </trkpt>
      <trkpt lat="47.38334" lon="-2.37356">
        <ele>4.8000001907349</ele>
        <time>2020-10-18T08:58:51.000Z</time>
      </trkpt>
      <trkpt lat="47.38338" lon="-2.3738">
        <ele>4.8000001907349</ele>
        <time>2020-10-18T08:58:55.000Z</time>
      </trkpt>
      <trkpt lat="47.38345" lon="-2.37404">
        <ele>4.8000001907349</ele>
        <time>2020-10-18T08:58:59.000Z</time>
      </trkpt>
      <trkpt lat="47.38346" lon="-2.37411">
        <ele>4.8000001907349</ele>
        <time>2020-10-18T08:59:00.000Z</time>
      </trkpt>
      <trkpt lat="47.38354" lon="-2.37451">
        <ele>4.8000001907349</ele>
        <time>2020-10-18T08:59:06.000Z</time>
      </trkpt>
      <trkpt lat="47.38357" lon="-2.37479">
        <ele>4.8000001907349</ele>
        <time>2020-10-18T08:59:11.000Z</time>
      </trkpt>
      <trkpt lat="47.38358" lon="-2.37531">
        <ele>4.8000001907349</ele>
        <time>2020-10-18T08:59:19.000Z</time>
      </trkpt>
      <trkpt lat="47.38357" lon="-2.37538">
        <ele>4.8000001907349</ele>
        <time>2020-10-18T08:59:20.000Z</time>
      </trkpt>
      <trkpt lat="47.38356" lon="-2.37559">
        <ele>5.1999998092651</ele>
        <time>2020-10-18T08:59:23.000Z</time>
      </trkpt>
      <trkpt lat="47.38355" lon="-2.37567">
        <ele>5.5999999046326</ele>
        <time>2020-10-18T08:59:24.000Z</time>
      </trkpt>
      <trkpt lat="47.38355" lon="-2.37573">
        <ele>6</ele>
        <time>2020-10-18T08:59:25.000Z</time>
      </trkpt>
      <trkpt lat="47.38353" lon="-2.37579">
        <ele>6.4000000953674</ele>
        <time>2020-10-18T08:59:26.000Z</time>
      </trkpt>
      <trkpt lat="47.38351" lon="-2.37583">
        <ele>6.8000001907349</ele>
        <time>2020-10-18T08:59:27.000Z</time>
      </trkpt>
      <trkpt lat="47.38349" lon="-2.37586">
        <ele>6.8000001907349</ele>
        <time>2020-10-18T08:59:28.000Z</time>
      </trkpt>
      <trkpt lat="47.38334" lon="-2.37594">
        <ele>6.8000001907349</ele>
        <time>2020-10-18T08:59:32.000Z</time>
      </trkpt>
      <trkpt lat="47.38306" lon="-2.37608">
        <ele>6.8000001907349</ele>
        <time>2020-10-18T08:59:38.000Z</time>
      </trkpt>
      <trkpt lat="47.38278" lon="-2.37619">
        <ele>6.8000001907349</ele>
        <time>2020-10-18T08:59:44.000Z</time>
      </trkpt>
      <trkpt lat="47.38274" lon="-2.3762">
        <ele>6.8000001907349</ele>
        <time>2020-10-18T08:59:45.000Z</time>
      </trkpt>
      <trkpt lat="47.38265" lon="-2.37625">
        <ele>6.8000001907349</ele>
        <time>2020-10-18T08:59:49.000Z</time>
      </trkpt>
      <trkpt lat="47.38255" lon="-2.37627">
        <ele>7.1999998092651</ele>
        <time>2020-10-18T08:59:54.000Z</time>
      </trkpt>
      <trkpt lat="47.38254" lon="-2.37627">
        <ele>7.5999999046326</ele>
        <time>2020-10-18T08:59:55.000Z</time>
      </trkpt>
      <trkpt lat="47.38253" lon="-2.37627">
        <ele>8</ele>
        <time>2020-10-18T08:59:56.000Z</time>
      </trkpt>
      <trkpt lat="47.38251" lon="-2.37628">
        <ele>8.3999996185303</ele>
        <time>2020-10-18T08:59:57.000Z</time>
      </trkpt>
      <trkpt lat="47.38248" lon="-2.3763">
        <ele>8.8000001907349</ele>
        <time>2020-10-18T08:59:58.000Z</time>
      </trkpt>
      <trkpt lat="47.38242" lon="-2.37631">
        <ele>8.8000001907349</ele>
        <time>2020-10-18T09:00:00.000Z</time>
      </trkpt>
      <trkpt lat="47.38227" lon="-2.37641">
        <ele>8.8000001907349</ele>
        <time>2020-10-18T09:00:06.000Z</time>
      </trkpt>
      <trkpt lat="47.38213" lon="-2.37654">
        <ele>8.8000001907349</ele>
        <time>2020-10-18T09:00:11.000Z</time>
      </trkpt>
      <trkpt lat="47.38206" lon="-2.3766">
        <ele>9.1999998092651</ele>
        <time>2020-10-18T09:00:13.000Z</time>
      </trkpt>
      <trkpt lat="47.38203" lon="-2.37663">
        <ele>9.6000003814697</ele>
        <time>2020-10-18T09:00:14.000Z</time>
      </trkpt>
      <trkpt lat="47.38198" lon="-2.37667">
        <ele>10</ele>
        <time>2020-10-18T09:00:15.000Z</time>
      </trkpt>
      <trkpt lat="47.38195" lon="-2.3767">
        <ele>10.60000038147</ele>
        <time>2020-10-18T09:00:16.000Z</time>
      </trkpt>
      <trkpt lat="47.38191" lon="-2.37674">
        <ele>11</ele>
        <time>2020-10-18T09:00:17.000Z</time>
      </trkpt>
      <trkpt lat="47.38184" lon="-2.37681">
        <ele>11</ele>
        <time>2020-10-18T09:00:19.000Z</time>
      </trkpt>
      <trkpt lat="47.38153" lon="-2.37707">
        <ele>11</ele>
        <time>2020-10-18T09:00:27.000Z</time>
      </trkpt>
      <trkpt lat="47.38121" lon="-2.37735">
        <ele>11</ele>
        <time>2020-10-18T09:00:35.000Z</time>
      </trkpt>
      <trkpt lat="47.38105" lon="-2.37749">
        <ele>11.39999961853</ele>
        <time>2020-10-18T09:00:39.000Z</time>
      </trkpt>
      <trkpt lat="47.38101" lon="-2.37752">
        <ele>11.800000190735</ele>
        <time>2020-10-18T09:00:40.000Z</time>
      </trkpt>
      <trkpt lat="47.38097" lon="-2.37755">
        <ele>12.199999809265</ele>
        <time>2020-10-18T09:00:41.000Z</time>
      </trkpt>
      <trkpt lat="47.38093" lon="-2.37758">
        <ele>12.60000038147</ele>
        <time>2020-10-18T09:00:42.000Z</time>
      </trkpt>
      <trkpt lat="47.3809" lon="-2.37761">
        <ele>13</ele>
        <time>2020-10-18T09:00:43.000Z</time>
      </trkpt>
      <trkpt lat="47.38083" lon="-2.37766">
        <ele>13</ele>
        <time>2020-10-18T09:00:45.000Z</time>
      </trkpt>
      <trkpt lat="47.38075" lon="-2.37772">
        <ele>13</ele>
        <time>2020-10-18T09:00:47.000Z</time>
      </trkpt>
      <trkpt lat="47.3806" lon="-2.37786">
        <ele>13</ele>
        <time>2020-10-18T09:00:52.000Z</time>
      </trkpt>
      <trkpt lat="47.38053" lon="-2.37792">
        <ele>13.39999961853</ele>
        <time>2020-10-18T09:00:54.000Z</time>
      </trkpt>
      <trkpt lat="47.38049" lon="-2.37795">
        <ele>14</ele>
        <time>2020-10-18T09:00:55.000Z</time>
      </trkpt>
      <trkpt lat="47.38045" lon="-2.37798">
        <ele>14.800000190735</ele>
        <time>2020-10-18T09:00:56.000Z</time>
      </trkpt>
      <trkpt lat="47.3804" lon="-2.37801">
        <ele>15.199999809265</ele>
        <time>2020-10-18T09:00:57.000Z</time>
      </trkpt>
      <trkpt lat="47.38023" lon="-2.37814">
        <ele>15.199999809265</ele>
        <time>2020-10-18T09:01:02.000Z</time>
      </trkpt>
      <trkpt lat="47.37996" lon="-2.37836">
        <ele>15.199999809265</ele>
        <time>2020-10-18T09:01:09.000Z</time>
      </trkpt>
      <trkpt lat="47.37972" lon="-2.37854">
        <ele>15.199999809265</ele>
        <time>2020-10-18T09:01:15.000Z</time>
      </trkpt>
      <trkpt lat="47.37945" lon="-2.37872">
        <ele>15.199999809265</ele>
        <time>2020-10-18T09:01:21.000Z</time>
      </trkpt>
      <trkpt lat="47.37937" lon="-2.37878">
        <ele>15.60000038147</ele>
        <time>2020-10-18T09:01:23.000Z</time>
      </trkpt>
      <trkpt lat="47.37933" lon="-2.37881">
        <ele>16</ele>
        <time>2020-10-18T09:01:24.000Z</time>
      </trkpt>
      <trkpt lat="47.37928" lon="-2.37884">
        <ele>16.60000038147</ele>
        <time>2020-10-18T09:01:25.000Z</time>
      </trkpt>
      <trkpt lat="47.37924" lon="-2.37888">
        <ele>17</ele>
        <time>2020-10-18T09:01:26.000Z</time>
      </trkpt>
      <trkpt lat="47.3792" lon="-2.37891">
        <ele>17.39999961853</ele>
        <time>2020-10-18T09:01:27.000Z</time>
      </trkpt>
      <trkpt lat="47.37907" lon="-2.379">
        <ele>17.39999961853</ele>
        <time>2020-10-18T09:01:30.000Z</time>
      </trkpt>
      <trkpt lat="47.37877" lon="-2.37923">
        <ele>17.39999961853</ele>
        <time>2020-10-18T09:01:37.000Z</time>
      </trkpt>
      <trkpt lat="47.37869" lon="-2.37929">
        <ele>17.39999961853</ele>
        <time>2020-10-18T09:01:39.000Z</time>
      </trkpt>
      <trkpt lat="47.37852" lon="-2.37941">
        <ele>17.39999961853</ele>
        <time>2020-10-18T09:01:43.000Z</time>
      </trkpt>
      <trkpt lat="47.37813" lon="-2.37968">
        <ele>17.39999961853</ele>
        <time>2020-10-18T09:01:51.000Z</time>
      </trkpt>
      <trkpt lat="47.37772" lon="-2.37996">
        <ele>17.39999961853</ele>
        <time>2020-10-18T09:01:59.000Z</time>
      </trkpt>
      <trkpt lat="47.3774" lon="-2.38016">
        <ele>17.39999961853</ele>
        <time>2020-10-18T09:02:05.000Z</time>
      </trkpt>
      <trkpt lat="47.3771" lon="-2.38035">
        <ele>17.39999961853</ele>
        <time>2020-10-18T09:02:11.000Z</time>
      </trkpt>
      <trkpt lat="47.37707" lon="-2.38038">
        <ele>17</ele>
        <time>2020-10-18T09:02:12.000Z</time>
      </trkpt>
      <trkpt lat="47.37704" lon="-2.38041">
        <ele>16.60000038147</ele>
        <time>2020-10-18T09:02:13.000Z</time>
      </trkpt>
      <trkpt lat="47.37701" lon="-2.38045">
        <ele>16.200000762939</ele>
        <time>2020-10-18T09:02:14.000Z</time>
      </trkpt>
      <trkpt lat="47.37697" lon="-2.3805">
        <ele>15.60000038147</ele>
        <time>2020-10-18T09:02:15.000Z</time>
      </trkpt>
      <trkpt lat="47.37693" lon="-2.38055">
        <ele>15.199999809265</ele>
        <time>2020-10-18T09:02:16.000Z</time>
      </trkpt>
      <trkpt lat="47.37664" lon="-2.38087">
        <ele>15.199999809265</ele>
        <time>2020-10-18T09:02:22.000Z</time>
      </trkpt>
      <trkpt lat="47.3763" lon="-2.38112">
        <ele>15.199999809265</ele>
        <time>2020-10-18T09:02:28.000Z</time>
      </trkpt>
      <trkpt lat="47.37613" lon="-2.38123">
        <ele>14.800000190735</ele>
        <time>2020-10-18T09:02:31.000Z</time>
      </trkpt>
      <trkpt lat="47.37607" lon="-2.38127">
        <ele>14.39999961853</ele>
        <time>2020-10-18T09:02:32.000Z</time>
      </trkpt>
      <trkpt lat="47.37601" lon="-2.3813">
        <ele>14</ele>
        <time>2020-10-18T09:02:33.000Z</time>
      </trkpt>
      <trkpt lat="47.37596" lon="-2.38133">
        <ele>13.60000038147</ele>
        <time>2020-10-18T09:02:34.000Z</time>
      </trkpt>
      <trkpt lat="47.3759" lon="-2.38137">
        <ele>13</ele>
        <time>2020-10-18T09:02:35.000Z</time>
      </trkpt>
      <trkpt lat="47.37547" lon="-2.38164">
        <ele>13</ele>
        <time>2020-10-18T09:02:43.000Z</time>
      </trkpt>
      <trkpt lat="47.37532" lon="-2.38173">
        <ele>13</ele>
        <time>2020-10-18T09:02:46.000Z</time>
      </trkpt>
      <trkpt lat="47.37522" lon="-2.38179">
        <ele>13</ele>
        <time>2020-10-18T09:02:48.000Z</time>
      </trkpt>
      <trkpt lat="47.37488" lon="-2.382">
        <ele>13</ele>
        <time>2020-10-18T09:02:54.000Z</time>
      </trkpt>
      <trkpt lat="47.37449" lon="-2.38222">
        <ele>13</ele>
        <time>2020-10-18T09:03:01.000Z</time>
      </trkpt>
      <trkpt lat="47.37409" lon="-2.38247">
        <ele>13</ele>
        <time>2020-10-18T09:03:08.000Z</time>
      </trkpt>
      <trkpt lat="47.37371" lon="-2.38267">
        <ele>13</ele>
        <time>2020-10-18T09:03:15.000Z</time>
      </trkpt>
      <trkpt lat="47.37335" lon="-2.3829">
        <ele>13</ele>
        <time>2020-10-18T09:03:22.000Z</time>
      </trkpt>
      <trkpt lat="47.37325" lon="-2.38295">
        <ele>14</ele>
        <time>2020-10-18T09:03:24.000Z</time>
      </trkpt>
      <trkpt lat="47.37319" lon="-2.38298">
        <ele>14.39999961853</ele>
        <time>2020-10-18T09:03:25.000Z</time>
      </trkpt>
      <trkpt lat="47.37313" lon="-2.38301">
        <ele>14.800000190735</ele>
        <time>2020-10-18T09:03:26.000Z</time>
      </trkpt>
      <trkpt lat="47.37308" lon="-2.38305">
        <ele>15.199999809265</ele>
        <time>2020-10-18T09:03:27.000Z</time>
      </trkpt>
      <trkpt lat="47.37262" lon="-2.38334">
        <ele>15.199999809265</ele>
        <time>2020-10-18T09:03:35.000Z</time>
      </trkpt>
      <trkpt lat="47.37237" lon="-2.38346">
        <ele>15.199999809265</ele>
        <time>2020-10-18T09:03:39.000Z</time>
      </trkpt>
      <trkpt lat="47.37224" lon="-2.38349">
        <ele>15.199999809265</ele>
        <time>2020-10-18T09:03:41.000Z</time>
      </trkpt>
      <trkpt lat="47.37211" lon="-2.3835">
        <ele>15.199999809265</ele>
        <time>2020-10-18T09:03:43.000Z</time>
      </trkpt>
      <trkpt lat="47.37188" lon="-2.3835">
        <ele>15.199999809265</ele>
        <time>2020-10-18T09:03:46.000Z</time>
      </trkpt>
      <trkpt lat="47.37167" lon="-2.38354">
        <ele>14.199999809265</ele>
        <time>2020-10-18T09:03:49.000Z</time>
      </trkpt>
      <trkpt lat="47.3716" lon="-2.38357">
        <ele>13.800000190735</ele>
        <time>2020-10-18T09:03:50.000Z</time>
      </trkpt>
      <trkpt lat="47.37154" lon="-2.38359">
        <ele>13.39999961853</ele>
        <time>2020-10-18T09:03:51.000Z</time>
      </trkpt>
      <trkpt lat="47.37148" lon="-2.38361">
        <ele>13</ele>
        <time>2020-10-18T09:03:52.000Z</time>
      </trkpt>
      <trkpt lat="47.3711" lon="-2.38378">
        <ele>12.39999961853</ele>
        <time>2020-10-18T09:03:58.000Z</time>
      </trkpt>
      <trkpt lat="47.37104" lon="-2.38382">
        <ele>12</ele>
        <time>2020-10-18T09:03:59.000Z</time>
      </trkpt>
      <trkpt lat="47.37098" lon="-2.38386">
        <ele>11.60000038147</ele>
        <time>2020-10-18T09:04:00.000Z</time>
      </trkpt>
      <trkpt lat="47.37093" lon="-2.3839">
        <ele>11.199999809265</ele>
        <time>2020-10-18T09:04:01.000Z</time>
      </trkpt>
      <trkpt lat="47.37088" lon="-2.38394">
        <ele>10.800000190735</ele>
        <time>2020-10-18T09:04:02.000Z</time>
      </trkpt>
      <trkpt lat="47.37085" lon="-2.38399">
        <ele>10.800000190735</ele>
        <time>2020-10-18T09:04:03.000Z</time>
      </trkpt>
      <trkpt lat="47.37081" lon="-2.38405">
        <ele>10.39999961853</ele>
        <time>2020-10-18T09:04:04.000Z</time>
      </trkpt>
      <trkpt lat="47.37078" lon="-2.38412">
        <ele>10</ele>
        <time>2020-10-18T09:04:05.000Z</time>
      </trkpt>
      <trkpt lat="47.37075" lon="-2.38419">
        <ele>9.6000003814697</ele>
        <time>2020-10-18T09:04:06.000Z</time>
      </trkpt>
      <trkpt lat="47.37072" lon="-2.38425">
        <ele>9.1999998092651</ele>
        <time>2020-10-18T09:04:07.000Z</time>
      </trkpt>
      <trkpt lat="47.37069" lon="-2.38431">
        <ele>8.8000001907349</ele>
        <time>2020-10-18T09:04:08.000Z</time>
      </trkpt>
      <trkpt lat="47.37061" lon="-2.38451">
        <ele>8.8000001907349</ele>
        <time>2020-10-18T09:04:11.000Z</time>
      </trkpt>
      <trkpt lat="47.37062" lon="-2.38462">
        <ele>8.8000001907349</ele>
        <time>2020-10-18T09:04:13.000Z</time>
      </trkpt>
      <trkpt lat="47.37071" lon="-2.38471">
        <ele>8.8000001907349</ele>
        <time>2020-10-18T09:04:16.000Z</time>
      </trkpt>
      <trkpt lat="47.37075" lon="-2.38474">
        <ele>8.8000001907349</ele>
        <time>2020-10-18T09:04:17.000Z</time>
      </trkpt>
      <trkpt lat="47.37107" lon="-2.38497">
        <ele>9.1999998092651</ele>
        <time>2020-10-18T09:04:25.000Z</time>
      </trkpt>
      <trkpt lat="47.37111" lon="-2.385">
        <ele>9.6000003814697</ele>
        <time>2020-10-18T09:04:26.000Z</time>
      </trkpt>
      <trkpt lat="47.37116" lon="-2.38503">
        <ele>10.199999809265</ele>
        <time>2020-10-18T09:04:27.000Z</time>
      </trkpt>
      <trkpt lat="47.37119" lon="-2.38506">
        <ele>10.60000038147</ele>
        <time>2020-10-18T09:04:28.000Z</time>
      </trkpt>
      <trkpt lat="47.37123" lon="-2.38509">
        <ele>11</ele>
        <time>2020-10-18T09:04:29.000Z</time>
      </trkpt>
      <trkpt lat="47.37131" lon="-2.38515">
        <ele>11</ele>
        <time>2020-10-18T09:04:31.000Z</time>
      </trkpt>
      <trkpt lat="47.37143" lon="-2.38525">
        <ele>11</ele>
        <time>2020-10-18T09:04:34.000Z</time>
      </trkpt>
      <trkpt lat="47.37153" lon="-2.3854">
        <ele>11</ele>
        <time>2020-10-18T09:04:37.000Z</time>
      </trkpt>
      <trkpt lat="47.37156" lon="-2.38546">
        <ele>11.800000190735</ele>
        <time>2020-10-18T09:04:38.000Z</time>
      </trkpt>
      <trkpt lat="47.37159" lon="-2.38553">
        <ele>12.199999809265</ele>
        <time>2020-10-18T09:04:39.000Z</time>
      </trkpt>
      <trkpt lat="47.37162" lon="-2.38559">
        <ele>12.60000038147</ele>
        <time>2020-10-18T09:04:40.000Z</time>
      </trkpt>
      <trkpt lat="47.37165" lon="-2.38566">
        <ele>13</ele>
        <time>2020-10-18T09:04:41.000Z</time>
      </trkpt>
      <trkpt lat="47.37169" lon="-2.38573">
        <ele>13</ele>
        <time>2020-10-18T09:04:42.000Z</time>
      </trkpt>
      <trkpt lat="47.37189" lon="-2.38621">
        <ele>13</ele>
        <time>2020-10-18T09:04:49.000Z</time>
      </trkpt>
      <trkpt lat="47.37212" lon="-2.38681">
        <ele>13</ele>
        <time>2020-10-18T09:04:57.000Z</time>
      </trkpt>
      <trkpt lat="47.37239" lon="-2.38749">
        <ele>13</ele>
        <time>2020-10-18T09:05:06.000Z</time>
      </trkpt>
      <trkpt lat="47.37245" lon="-2.38764">
        <ele>13.39999961853</ele>
        <time>2020-10-18T09:05:08.000Z</time>
      </trkpt>
      <trkpt lat="47.37248" lon="-2.38773">
        <ele>13.800000190735</ele>
        <time>2020-10-18T09:05:09.000Z</time>
      </trkpt>
      <trkpt lat="47.37252" lon="-2.3878">
        <ele>14.199999809265</ele>
        <time>2020-10-18T09:05:10.000Z</time>
      </trkpt>
      <trkpt lat="47.37254" lon="-2.38787">
        <ele>14.800000190735</ele>
        <time>2020-10-18T09:05:11.000Z</time>
      </trkpt>
      <trkpt lat="47.37257" lon="-2.38795">
        <ele>15.199999809265</ele>
        <time>2020-10-18T09:05:12.000Z</time>
      </trkpt>
      <trkpt lat="47.37262" lon="-2.38811">
        <ele>15.199999809265</ele>
        <time>2020-10-18T09:05:14.000Z</time>
      </trkpt>
      <trkpt lat="47.37279" lon="-2.38868">
        <ele>15.199999809265</ele>
        <time>2020-10-18T09:05:21.000Z</time>
      </trkpt>
      <trkpt lat="47.37299" lon="-2.38938">
        <ele>15.199999809265</ele>
        <time>2020-10-18T09:05:29.000Z</time>
      </trkpt>
      <trkpt lat="47.37305" lon="-2.38989">
        <ele>15.199999809265</ele>
        <time>2020-10-18T09:05:34.000Z</time>
      </trkpt>
      <trkpt lat="47.37311" lon="-2.39052">
        <ele>15.199999809265</ele>
        <time>2020-10-18T09:05:40.000Z</time>
      </trkpt>
      <trkpt lat="47.37314" lon="-2.39112">
        <ele>15.199999809265</ele>
        <time>2020-10-18T09:05:46.000Z</time>
      </trkpt>
      <trkpt lat="47.37314" lon="-2.39135">
        <ele>15.199999809265</ele>
        <time>2020-10-18T09:05:49.000Z</time>
      </trkpt>
      <trkpt lat="47.37314" lon="-2.39149">
        <ele>15.199999809265</ele>
        <time>2020-10-18T09:05:51.000Z</time>
      </trkpt>
      <trkpt lat="47.37311" lon="-2.39155">
        <ele>15.60000038147</ele>
        <time>2020-10-18T09:05:52.000Z</time>
      </trkpt>
      <trkpt lat="47.37307" lon="-2.39161">
        <ele>16</ele>
        <time>2020-10-18T09:05:53.000Z</time>
      </trkpt>
      <trkpt lat="47.37303" lon="-2.39166">
        <ele>16.39999961853</ele>
        <time>2020-10-18T09:05:54.000Z</time>
      </trkpt>
      <trkpt lat="47.37299" lon="-2.39172">
        <ele>16.799999237061</ele>
        <time>2020-10-18T09:05:55.000Z</time>
      </trkpt>
      <trkpt lat="47.37293" lon="-2.39177">
        <ele>17.200000762939</ele>
        <time>2020-10-18T09:05:56.000Z</time>
      </trkpt>
      <trkpt lat="47.37274" lon="-2.39196">
        <ele>17.200000762939</ele>
        <time>2020-10-18T09:06:00.000Z</time>
      </trkpt>
      <trkpt lat="47.37245" lon="-2.39226">
        <ele>17.200000762939</ele>
        <time>2020-10-18T09:06:07.000Z</time>
      </trkpt>
      <trkpt lat="47.3722" lon="-2.39247">
        <ele>17.200000762939</ele>
        <time>2020-10-18T09:06:12.000Z</time>
      </trkpt>
      <trkpt lat="47.37189" lon="-2.39274">
        <ele>17.200000762939</ele>
        <time>2020-10-18T09:06:18.000Z</time>
      </trkpt>
      <trkpt lat="47.37173" lon="-2.39288">
        <ele>17.200000762939</ele>
        <time>2020-10-18T09:06:21.000Z</time>
      </trkpt>
      <trkpt lat="47.37157" lon="-2.39303">
        <ele>17.200000762939</ele>
        <time>2020-10-18T09:06:24.000Z</time>
      </trkpt>
      <trkpt lat="47.37119" lon="-2.39338">
        <ele>17.200000762939</ele>
        <time>2020-10-18T09:06:31.000Z</time>
      </trkpt>
      <trkpt lat="47.37084" lon="-2.3937">
        <ele>17.200000762939</ele>
        <time>2020-10-18T09:06:38.000Z</time>
      </trkpt>
      <trkpt lat="47.37054" lon="-2.39399">
        <ele>17.200000762939</ele>
        <time>2020-10-18T09:06:44.000Z</time>
      </trkpt>
      <trkpt lat="47.37024" lon="-2.39434">
        <ele>17.200000762939</ele>
        <time>2020-10-18T09:06:50.000Z</time>
      </trkpt>
      <trkpt lat="47.36991" lon="-2.39467">
        <ele>17.200000762939</ele>
        <time>2020-10-18T09:06:56.000Z</time>
      </trkpt>
      <trkpt lat="47.36954" lon="-2.39497">
        <ele>17.200000762939</ele>
        <time>2020-10-18T09:07:02.000Z</time>
      </trkpt>
      <trkpt lat="47.36948" lon="-2.39503">
        <ele>17.200000762939</ele>
        <time>2020-10-18T09:07:03.000Z</time>
      </trkpt>
      <trkpt lat="47.36932" lon="-2.39523">
        <ele>16.799999237061</ele>
        <time>2020-10-18T09:07:06.000Z</time>
      </trkpt>
      <trkpt lat="47.36927" lon="-2.3953">
        <ele>16</ele>
        <time>2020-10-18T09:07:07.000Z</time>
      </trkpt>
      <trkpt lat="47.36922" lon="-2.39536">
        <ele>15.60000038147</ele>
        <time>2020-10-18T09:07:08.000Z</time>
      </trkpt>
      <trkpt lat="47.36917" lon="-2.39543">
        <ele>15.199999809265</ele>
        <time>2020-10-18T09:07:09.000Z</time>
      </trkpt>
      <trkpt lat="47.36893" lon="-2.39579">
        <ele>15.199999809265</ele>
        <time>2020-10-18T09:07:14.000Z</time>
      </trkpt>
      <trkpt lat="47.36876" lon="-2.39596">
        <ele>14.60000038147</ele>
        <time>2020-10-18T09:07:17.000Z</time>
      </trkpt>
      <trkpt lat="47.36869" lon="-2.39602">
        <ele>14.199999809265</ele>
        <time>2020-10-18T09:07:18.000Z</time>
      </trkpt>
      <trkpt lat="47.36864" lon="-2.39609">
        <ele>13.800000190735</ele>
        <time>2020-10-18T09:07:19.000Z</time>
      </trkpt>
      <trkpt lat="47.36859" lon="-2.39615">
        <ele>13.39999961853</ele>
        <time>2020-10-18T09:07:20.000Z</time>
      </trkpt>
      <trkpt lat="47.36853" lon="-2.3962">
        <ele>13</ele>
        <time>2020-10-18T09:07:21.000Z</time>
      </trkpt>
      <trkpt lat="47.36834" lon="-2.39635">
        <ele>13</ele>
        <time>2020-10-18T09:07:24.000Z</time>
      </trkpt>
      <trkpt lat="47.36824" lon="-2.39647">
        <ele>13</ele>
        <time>2020-10-18T09:07:26.000Z</time>
      </trkpt>
      <trkpt lat="47.36818" lon="-2.39651">
        <ele>13</ele>
        <time>2020-10-18T09:07:27.000Z</time>
      </trkpt>
      <trkpt lat="47.36813" lon="-2.39653">
        <ele>13</ele>
        <time>2020-10-18T09:07:28.000Z</time>
      </trkpt>
      <trkpt lat="47.36796" lon="-2.39659">
        <ele>13</ele>
        <time>2020-10-18T09:07:31.000Z</time>
      </trkpt>
      <trkpt lat="47.36785" lon="-2.39668">
        <ele>13</ele>
        <time>2020-10-18T09:07:33.000Z</time>
      </trkpt>
      <trkpt lat="47.3678" lon="-2.39671">
        <ele>13</ele>
        <time>2020-10-18T09:07:34.000Z</time>
      </trkpt>
      <trkpt lat="47.36763" lon="-2.39674">
        <ele>13</ele>
        <time>2020-10-18T09:07:37.000Z</time>
      </trkpt>
      <trkpt lat="47.36758" lon="-2.39674">
        <ele>13</ele>
        <time>2020-10-18T09:07:38.000Z</time>
      </trkpt>
      <trkpt lat="47.36741" lon="-2.39671">
        <ele>13</ele>
        <time>2020-10-18T09:07:41.000Z</time>
      </trkpt>
      <trkpt lat="47.36717" lon="-2.39668">
        <ele>12.60000038147</ele>
        <time>2020-10-18T09:07:45.000Z</time>
      </trkpt>
      <trkpt lat="47.36711" lon="-2.39667">
        <ele>12.199999809265</ele>
        <time>2020-10-18T09:07:46.000Z</time>
      </trkpt>
      <trkpt lat="47.36705" lon="-2.39665">
        <ele>11.800000190735</ele>
        <time>2020-10-18T09:07:47.000Z</time>
      </trkpt>
      <trkpt lat="47.36699" lon="-2.39662">
        <ele>11.39999961853</ele>
        <time>2020-10-18T09:07:48.000Z</time>
      </trkpt>
      <trkpt lat="47.36694" lon="-2.39658">
        <ele>10.800000190735</ele>
        <time>2020-10-18T09:07:49.000Z</time>
      </trkpt>
      <trkpt lat="47.36683" lon="-2.39651">
        <ele>10.800000190735</ele>
        <time>2020-10-18T09:07:51.000Z</time>
      </trkpt>
      <trkpt lat="47.36663" lon="-2.39635">
        <ele>10.800000190735</ele>
        <time>2020-10-18T09:07:55.000Z</time>
      </trkpt>
      <trkpt lat="47.36659" lon="-2.39629">
        <ele>10.800000190735</ele>
        <time>2020-10-18T09:07:56.000Z</time>
      </trkpt>
      <trkpt lat="47.36641" lon="-2.39617">
        <ele>10.800000190735</ele>
        <time>2020-10-18T09:08:00.000Z</time>
      </trkpt>
      <trkpt lat="47.36633" lon="-2.39613">
        <ele>11.39999961853</ele>
        <time>2020-10-18T09:08:02.000Z</time>
      </trkpt>
      <trkpt lat="47.36629" lon="-2.39611">
        <ele>11.800000190735</ele>
        <time>2020-10-18T09:08:03.000Z</time>
      </trkpt>
      <trkpt lat="47.36625" lon="-2.3961">
        <ele>12.199999809265</ele>
        <time>2020-10-18T09:08:04.000Z</time>
      </trkpt>
      <trkpt lat="47.3662" lon="-2.39609">
        <ele>12.60000038147</ele>
        <time>2020-10-18T09:08:05.000Z</time>
      </trkpt>
      <trkpt lat="47.36616" lon="-2.39608">
        <ele>13</ele>
        <time>2020-10-18T09:08:06.000Z</time>
      </trkpt>
      <trkpt lat="47.36589" lon="-2.39601">
        <ele>13</ele>
        <time>2020-10-18T09:08:12.000Z</time>
      </trkpt>
      <trkpt lat="47.36584" lon="-2.396">
        <ele>13</ele>
        <time>2020-10-18T09:08:13.000Z</time>
      </trkpt>
      <trkpt lat="47.3656" lon="-2.39599">
        <ele>13</ele>
        <time>2020-10-18T09:08:18.000Z</time>
      </trkpt>
      <trkpt lat="47.36531" lon="-2.39608">
        <ele>13</ele>
        <time>2020-10-18T09:08:24.000Z</time>
      </trkpt>
      <trkpt lat="47.36526" lon="-2.3961">
        <ele>13</ele>
        <time>2020-10-18T09:08:25.000Z</time>
      </trkpt>
      <trkpt lat="47.36501" lon="-2.39627">
        <ele>13</ele>
        <time>2020-10-18T09:08:30.000Z</time>
      </trkpt>
      <trkpt lat="47.36477" lon="-2.3964">
        <ele>13</ele>
        <time>2020-10-18T09:08:34.000Z</time>
      </trkpt>
      <trkpt lat="47.3646" lon="-2.39646">
        <ele>13</ele>
        <time>2020-10-18T09:08:37.000Z</time>
      </trkpt>
      <trkpt lat="47.36455" lon="-2.39648">
        <ele>13</ele>
        <time>2020-10-18T09:08:38.000Z</time>
      </trkpt>
      <trkpt lat="47.36449" lon="-2.39657">
        <ele>13</ele>
        <time>2020-10-18T09:08:40.000Z</time>
      </trkpt>
      <trkpt lat="47.36453" lon="-2.39679">
        <ele>13</ele>
        <time>2020-10-18T09:08:43.000Z</time>
      </trkpt>
      <trkpt lat="47.36456" lon="-2.39686">
        <ele>13</ele>
        <time>2020-10-18T09:08:44.000Z</time>
      </trkpt>
      <trkpt lat="47.3647" lon="-2.39726">
        <ele>13</ele>
        <time>2020-10-18T09:08:49.000Z</time>
      </trkpt>
      <trkpt lat="47.36475" lon="-2.39743">
        <ele>13</ele>
        <time>2020-10-18T09:08:51.000Z</time>
      </trkpt>
      <trkpt lat="47.36481" lon="-2.39759">
        <ele>13</ele>
        <time>2020-10-18T09:08:53.000Z</time>
      </trkpt>
      <trkpt lat="47.36485" lon="-2.39766">
        <ele>12.39999961853</ele>
        <time>2020-10-18T09:08:54.000Z</time>
      </trkpt>
      <trkpt lat="47.3649" lon="-2.3977">
        <ele>12</ele>
        <time>2020-10-18T09:08:55.000Z</time>
      </trkpt>
      <trkpt lat="47.36495" lon="-2.39772">
        <ele>11.60000038147</ele>
        <time>2020-10-18T09:08:56.000Z</time>
      </trkpt>
      <trkpt lat="47.365" lon="-2.39775">
        <ele>11.199999809265</ele>
        <time>2020-10-18T09:08:57.000Z</time>
      </trkpt>
      <trkpt lat="47.36506" lon="-2.39777">
        <ele>10.800000190735</ele>
        <time>2020-10-18T09:08:58.000Z</time>
      </trkpt>
      <trkpt lat="47.36515" lon="-2.39785">
        <ele>10.800000190735</ele>
        <time>2020-10-18T09:09:00.000Z</time>
      </trkpt>
      <trkpt lat="47.36519" lon="-2.39791">
        <ele>10.800000190735</ele>
        <time>2020-10-18T09:09:01.000Z</time>
      </trkpt>
      <trkpt lat="47.36527" lon="-2.39814">
        <ele>10.800000190735</ele>
        <time>2020-10-18T09:09:04.000Z</time>
      </trkpt>
      <trkpt lat="47.3653" lon="-2.39822">
        <ele>10.800000190735</ele>
        <time>2020-10-18T09:09:05.000Z</time>
      </trkpt>
      <trkpt lat="47.36536" lon="-2.39836">
        <ele>10.800000190735</ele>
        <time>2020-10-18T09:09:07.000Z</time>
      </trkpt>
      <trkpt lat="47.36549" lon="-2.39852">
        <ele>10.800000190735</ele>
        <time>2020-10-18T09:09:10.000Z</time>
      </trkpt>
      <trkpt lat="47.36575" lon="-2.39877">
        <ele>10.800000190735</ele>
        <time>2020-10-18T09:09:16.000Z</time>
      </trkpt>
      <trkpt lat="47.36579" lon="-2.39882">
        <ele>10.800000190735</ele>
        <time>2020-10-18T09:09:17.000Z</time>
      </trkpt>
      <trkpt lat="47.36587" lon="-2.39894">
        <ele>10.800000190735</ele>
        <time>2020-10-18T09:09:19.000Z</time>
      </trkpt>
      <trkpt lat="47.3659" lon="-2.399">
        <ele>10.800000190735</ele>
        <time>2020-10-18T09:09:20.000Z</time>
      </trkpt>
      <trkpt lat="47.36588" lon="-2.39919">
        <ele>10.800000190735</ele>
        <time>2020-10-18T09:09:23.000Z</time>
      </trkpt>
      <trkpt lat="47.36581" lon="-2.39929">
        <ele>10.800000190735</ele>
        <time>2020-10-18T09:09:25.000Z</time>
      </trkpt>
      <trkpt lat="47.36573" lon="-2.39941">
        <ele>10.800000190735</ele>
        <time>2020-10-18T09:09:27.000Z</time>
      </trkpt>
      <trkpt lat="47.36559" lon="-2.39958">
        <ele>11.199999809265</ele>
        <time>2020-10-18T09:09:30.000Z</time>
      </trkpt>
      <trkpt lat="47.36554" lon="-2.39965">
        <ele>11.60000038147</ele>
        <time>2020-10-18T09:09:31.000Z</time>
      </trkpt>
      <trkpt lat="47.36549" lon="-2.39971">
        <ele>12</ele>
        <time>2020-10-18T09:09:32.000Z</time>
      </trkpt>
      <trkpt lat="47.36544" lon="-2.39976">
        <ele>12.39999961853</ele>
        <time>2020-10-18T09:09:33.000Z</time>
      </trkpt>
      <trkpt lat="47.36539" lon="-2.39982">
        <ele>12.800000190735</ele>
        <time>2020-10-18T09:09:34.000Z</time>
      </trkpt>
      <trkpt lat="47.36508" lon="-2.40015">
        <ele>12.800000190735</ele>
        <time>2020-10-18T09:09:40.000Z</time>
      </trkpt>
      <trkpt lat="47.36475" lon="-2.40042">
        <ele>12.800000190735</ele>
        <time>2020-10-18T09:09:46.000Z</time>
      </trkpt>
      <trkpt lat="47.36469" lon="-2.40047">
        <ele>12.800000190735</ele>
        <time>2020-10-18T09:09:47.000Z</time>
      </trkpt>
      <trkpt lat="47.36448" lon="-2.40059">
        <ele>12.800000190735</ele>
        <time>2020-10-18T09:09:52.000Z</time>
      </trkpt>
      <trkpt lat="47.36418" lon="-2.40069">
        <ele>12.800000190735</ele>
        <time>2020-10-18T09:09:58.000Z</time>
      </trkpt>
      <trkpt lat="47.36387" lon="-2.40079">
        <ele>12.800000190735</ele>
        <time>2020-10-18T09:10:05.000Z</time>
      </trkpt>
      <trkpt lat="47.36361" lon="-2.40085">
        <ele>12.800000190735</ele>
        <time>2020-10-18T09:10:10.000Z</time>
      </trkpt>
      <trkpt lat="47.36338" lon="-2.40096">
        <ele>12.800000190735</ele>
        <time>2020-10-18T09:10:15.000Z</time>
      </trkpt>
      <trkpt lat="47.36307" lon="-2.40109">
        <ele>12.800000190735</ele>
        <time>2020-10-18T09:10:22.000Z</time>
      </trkpt>
      <trkpt lat="47.36291" lon="-2.40114">
        <ele>12.800000190735</ele>
        <time>2020-10-18T09:10:25.000Z</time>
      </trkpt>
      <trkpt lat="47.3628" lon="-2.40119">
        <ele>12.800000190735</ele>
        <time>2020-10-18T09:10:27.000Z</time>
      </trkpt>
      <trkpt lat="47.36268" lon="-2.40123">
        <ele>12.800000190735</ele>
        <time>2020-10-18T09:10:29.000Z</time>
      </trkpt>
      <trkpt lat="47.36252" lon="-2.40131">
        <ele>12.800000190735</ele>
        <time>2020-10-18T09:10:32.000Z</time>
      </trkpt>
      <trkpt lat="47.36214" lon="-2.4016">
        <ele>12.800000190735</ele>
        <time>2020-10-18T09:10:39.000Z</time>
      </trkpt>
      <trkpt lat="47.36195" lon="-2.40178">
        <ele>13.199999809265</ele>
        <time>2020-10-18T09:10:43.000Z</time>
      </trkpt>
      <trkpt lat="47.3619" lon="-2.40182">
        <ele>13.60000038147</ele>
        <time>2020-10-18T09:10:44.000Z</time>
      </trkpt>
      <trkpt lat="47.36185" lon="-2.40185">
        <ele>14</ele>
        <time>2020-10-18T09:10:45.000Z</time>
      </trkpt>
      <trkpt lat="47.3618" lon="-2.4019">
        <ele>14.39999961853</ele>
        <time>2020-10-18T09:10:46.000Z</time>
      </trkpt>
      <trkpt lat="47.36176" lon="-2.40194">
        <ele>14.800000190735</ele>
        <time>2020-10-18T09:10:47.000Z</time>
      </trkpt>
      <trkpt lat="47.36167" lon="-2.40203">
        <ele>14.800000190735</ele>
        <time>2020-10-18T09:10:49.000Z</time>
      </trkpt>
      <trkpt lat="47.36163" lon="-2.40207">
        <ele>14.800000190735</ele>
        <time>2020-10-18T09:10:50.000Z</time>
      </trkpt>
      <trkpt lat="47.36142" lon="-2.40225">
        <ele>14.800000190735</ele>
        <time>2020-10-18T09:10:55.000Z</time>
      </trkpt>
      <trkpt lat="47.36117" lon="-2.40246">
        <ele>14.800000190735</ele>
        <time>2020-10-18T09:11:01.000Z</time>
      </trkpt>
      <trkpt lat="47.36113" lon="-2.40249">
        <ele>14.800000190735</ele>
        <time>2020-10-18T09:11:02.000Z</time>
      </trkpt>
      <trkpt lat="47.36094" lon="-2.40262">
        <ele>14.800000190735</ele>
        <time>2020-10-18T09:11:06.000Z</time>
      </trkpt>
      <trkpt lat="47.36076" lon="-2.40276">
        <ele>14.800000190735</ele>
        <time>2020-10-18T09:11:10.000Z</time>
      </trkpt>
      <trkpt lat="47.36072" lon="-2.4028">
        <ele>14.800000190735</ele>
        <time>2020-10-18T09:11:11.000Z</time>
      </trkpt>
      <trkpt lat="47.36046" lon="-2.40307">
        <ele>14.800000190735</ele>
        <time>2020-10-18T09:11:18.000Z</time>
      </trkpt>
      <trkpt lat="47.36032" lon="-2.40333">
        <ele>14.800000190735</ele>
        <time>2020-10-18T09:11:23.000Z</time>
      </trkpt>
      <trkpt lat="47.36027" lon="-2.40346">
        <ele>14.800000190735</ele>
        <time>2020-10-18T09:11:25.000Z</time>
      </trkpt>
      <trkpt lat="47.36025" lon="-2.40384">
        <ele>14.800000190735</ele>
        <time>2020-10-18T09:11:30.000Z</time>
      </trkpt>
      <trkpt lat="47.36023" lon="-2.4042">
        <ele>14.800000190735</ele>
        <time>2020-10-18T09:11:35.000Z</time>
      </trkpt>
      <trkpt lat="47.3602" lon="-2.40434">
        <ele>14.800000190735</ele>
        <time>2020-10-18T09:11:37.000Z</time>
      </trkpt>
      <trkpt lat="47.36013" lon="-2.4045">
        <ele>14.800000190735</ele>
        <time>2020-10-18T09:11:40.000Z</time>
      </trkpt>
      <trkpt lat="47.36011" lon="-2.40454">
        <ele>14.800000190735</ele>
        <time>2020-10-18T09:11:41.000Z</time>
      </trkpt>
      <trkpt lat="47.35998" lon="-2.4047">
        <ele>14.800000190735</ele>
        <time>2020-10-18T09:11:46.000Z</time>
      </trkpt>
      <trkpt lat="47.35979" lon="-2.40491">
        <ele>14.800000190735</ele>
        <time>2020-10-18T09:11:51.000Z</time>
      </trkpt>
      <trkpt lat="47.35949" lon="-2.40531">
        <ele>14.800000190735</ele>
        <time>2020-10-18T09:12:00.000Z</time>
      </trkpt>
      <trkpt lat="47.35921" lon="-2.40572">
        <ele>14.800000190735</ele>
        <time>2020-10-18T09:12:08.000Z</time>
      </trkpt>
      <trkpt lat="47.35889" lon="-2.40623">
        <ele>14.800000190735</ele>
        <time>2020-10-18T09:12:17.000Z</time>
      </trkpt>
      <trkpt lat="47.35862" lon="-2.40672">
        <ele>14.800000190735</ele>
        <time>2020-10-18T09:12:25.000Z</time>
      </trkpt>
      <trkpt lat="47.35856" lon="-2.40691">
        <ele>14.800000190735</ele>
        <time>2020-10-18T09:12:28.000Z</time>
      </trkpt>
      <trkpt lat="47.35853" lon="-2.40705">
        <ele>14.800000190735</ele>
        <time>2020-10-18T09:12:30.000Z</time>
      </trkpt>
      <trkpt lat="47.35852" lon="-2.40712">
        <ele>14.800000190735</ele>
        <time>2020-10-18T09:12:31.000Z</time>
      </trkpt>
      <trkpt lat="47.3585" lon="-2.40734">
        <ele>14.800000190735</ele>
        <time>2020-10-18T09:12:34.000Z</time>
      </trkpt>
      <trkpt lat="47.35845" lon="-2.40745">
        <ele>14.800000190735</ele>
        <time>2020-10-18T09:12:36.000Z</time>
      </trkpt>
      <trkpt lat="47.35837" lon="-2.40757">
        <ele>14.800000190735</ele>
        <time>2020-10-18T09:12:38.000Z</time>
      </trkpt>
      <trkpt lat="47.35815" lon="-2.40789">
        <ele>14.800000190735</ele>
        <time>2020-10-18T09:12:44.000Z</time>
      </trkpt>
      <trkpt lat="47.35793" lon="-2.40822">
        <ele>14.800000190735</ele>
        <time>2020-10-18T09:12:50.000Z</time>
      </trkpt>
      <trkpt lat="47.35765" lon="-2.40864">
        <ele>14.800000190735</ele>
        <time>2020-10-18T09:12:58.000Z</time>
      </trkpt>
      <trkpt lat="47.35757" lon="-2.40876">
        <ele>14.800000190735</ele>
        <time>2020-10-18T09:13:00.000Z</time>
      </trkpt>
      <trkpt lat="47.35745" lon="-2.40894">
        <ele>14.800000190735</ele>
        <time>2020-10-18T09:13:03.000Z</time>
      </trkpt>
      <trkpt lat="47.35721" lon="-2.40926">
        <ele>14.800000190735</ele>
        <time>2020-10-18T09:13:09.000Z</time>
      </trkpt>
      <trkpt lat="47.35695" lon="-2.40964">
        <ele>14.800000190735</ele>
        <time>2020-10-18T09:13:16.000Z</time>
      </trkpt>
      <trkpt lat="47.35671" lon="-2.40998">
        <ele>14.800000190735</ele>
        <time>2020-10-18T09:13:22.000Z</time>
      </trkpt>
      <trkpt lat="47.35647" lon="-2.41034">
        <ele>14.800000190735</ele>
        <time>2020-10-18T09:13:28.000Z</time>
      </trkpt>
      <trkpt lat="47.35619" lon="-2.41066">
        <ele>14.800000190735</ele>
        <time>2020-10-18T09:13:34.000Z</time>
      </trkpt>
      <trkpt lat="47.35609" lon="-2.41077">
        <ele>14.800000190735</ele>
        <time>2020-10-18T09:13:36.000Z</time>
      </trkpt>
      <trkpt lat="47.35572" lon="-2.41118">
        <ele>14.800000190735</ele>
        <time>2020-10-18T09:13:44.000Z</time>
      </trkpt>
      <trkpt lat="47.35546" lon="-2.41138">
        <ele>15.199999809265</ele>
        <time>2020-10-18T09:13:49.000Z</time>
      </trkpt>
      <trkpt lat="47.35542" lon="-2.41142">
        <ele>15.60000038147</ele>
        <time>2020-10-18T09:13:50.000Z</time>
      </trkpt>
      <trkpt lat="47.35536" lon="-2.41146">
        <ele>16</ele>
        <time>2020-10-18T09:13:51.000Z</time>
      </trkpt>
      <trkpt lat="47.35531" lon="-2.4115">
        <ele>16.39999961853</ele>
        <time>2020-10-18T09:13:52.000Z</time>
      </trkpt>
      <trkpt lat="47.35525" lon="-2.41154">
        <ele>16.799999237061</ele>
        <time>2020-10-18T09:13:53.000Z</time>
      </trkpt>
      <trkpt lat="47.35487" lon="-2.41185">
        <ele>16.799999237061</ele>
        <time>2020-10-18T09:14:00.000Z</time>
      </trkpt>
      <trkpt lat="47.35448" lon="-2.41218">
        <ele>16.799999237061</ele>
        <time>2020-10-18T09:14:07.000Z</time>
      </trkpt>
      <trkpt lat="47.35427" lon="-2.41249">
        <ele>16.799999237061</ele>
        <time>2020-10-18T09:14:12.000Z</time>
      </trkpt>
      <trkpt lat="47.35414" lon="-2.41267">
        <ele>16.799999237061</ele>
        <time>2020-10-18T09:14:15.000Z</time>
      </trkpt>
      <trkpt lat="47.35399" lon="-2.4128">
        <ele>16.799999237061</ele>
        <time>2020-10-18T09:14:18.000Z</time>
      </trkpt>
      <trkpt lat="47.35378" lon="-2.41297">
        <ele>16.799999237061</ele>
        <time>2020-10-18T09:14:22.000Z</time>
      </trkpt>
      <trkpt lat="47.35369" lon="-2.4131">
        <ele>16.799999237061</ele>
        <time>2020-10-18T09:14:24.000Z</time>
      </trkpt>
      <trkpt lat="47.3536" lon="-2.41323">
        <ele>16.39999961853</ele>
        <time>2020-10-18T09:14:26.000Z</time>
      </trkpt>
      <trkpt lat="47.35356" lon="-2.41329">
        <ele>16</ele>
        <time>2020-10-18T09:14:27.000Z</time>
      </trkpt>
      <trkpt lat="47.35351" lon="-2.41335">
        <ele>15.60000038147</ele>
        <time>2020-10-18T09:14:28.000Z</time>
      </trkpt>
      <trkpt lat="47.35347" lon="-2.4134">
        <ele>15.199999809265</ele>
        <time>2020-10-18T09:14:29.000Z</time>
      </trkpt>
      <trkpt lat="47.35343" lon="-2.41346">
        <ele>14.800000190735</ele>
        <time>2020-10-18T09:14:30.000Z</time>
      </trkpt>
      <trkpt lat="47.35339" lon="-2.41352">
        <ele>14.800000190735</ele>
        <time>2020-10-18T09:14:31.000Z</time>
      </trkpt>
      <trkpt lat="47.35318" lon="-2.41382">
        <ele>14.800000190735</ele>
        <time>2020-10-18T09:14:36.000Z</time>
      </trkpt>
      <trkpt lat="47.35315" lon="-2.41389">
        <ele>14.800000190735</ele>
        <time>2020-10-18T09:14:37.000Z</time>
      </trkpt>
      <trkpt lat="47.35289" lon="-2.4143">
        <ele>14.800000190735</ele>
        <time>2020-10-18T09:14:44.000Z</time>
      </trkpt>
      <trkpt lat="47.35271" lon="-2.41447">
        <ele>14.800000190735</ele>
        <time>2020-10-18T09:14:48.000Z</time>
      </trkpt>
      <trkpt lat="47.35266" lon="-2.4145">
        <ele>14.800000190735</ele>
        <time>2020-10-18T09:14:49.000Z</time>
      </trkpt>
      <trkpt lat="47.3525" lon="-2.41446">
        <ele>14.800000190735</ele>
        <time>2020-10-18T09:14:52.000Z</time>
      </trkpt>
      <trkpt lat="47.35235" lon="-2.41428">
        <ele>14.800000190735</ele>
        <time>2020-10-18T09:14:55.000Z</time>
      </trkpt>
      <trkpt lat="47.35231" lon="-2.4142">
        <ele>14.800000190735</ele>
        <time>2020-10-18T09:14:56.000Z</time>
      </trkpt>
      <trkpt lat="47.35207" lon="-2.41375">
        <ele>14.800000190735</ele>
        <time>2020-10-18T09:15:02.000Z</time>
      </trkpt>
      <trkpt lat="47.35189" lon="-2.41352">
        <ele>14.800000190735</ele>
        <time>2020-10-18T09:15:06.000Z</time>
      </trkpt>
      <trkpt lat="47.35182" lon="-2.41352">
        <ele>14.800000190735</ele>
        <time>2020-10-18T09:15:07.000Z</time>
      </trkpt>
      <trkpt lat="47.35163" lon="-2.41359">
        <ele>14.800000190735</ele>
        <time>2020-10-18T09:15:10.000Z</time>
      </trkpt>
      <trkpt lat="47.35158" lon="-2.41362">
        <ele>14.800000190735</ele>
        <time>2020-10-18T09:15:11.000Z</time>
      </trkpt>
      <trkpt lat="47.35128" lon="-2.41383">
        <ele>14.800000190735</ele>
        <time>2020-10-18T09:15:17.000Z</time>
      </trkpt>
      <trkpt lat="47.35099" lon="-2.41403">
        <ele>14.800000190735</ele>
        <time>2020-10-18T09:15:23.000Z</time>
      </trkpt>
      <trkpt lat="47.35072" lon="-2.41418">
        <ele>15.199999809265</ele>
        <time>2020-10-18T09:15:28.000Z</time>
      </trkpt>
      <trkpt lat="47.35066" lon="-2.4142">
        <ele>15.60000038147</ele>
        <time>2020-10-18T09:15:29.000Z</time>
      </trkpt>
      <trkpt lat="47.35061" lon="-2.41423">
        <ele>16</ele>
        <time>2020-10-18T09:15:30.000Z</time>
      </trkpt>
      <trkpt lat="47.35055" lon="-2.41425">
        <ele>16.39999961853</ele>
        <time>2020-10-18T09:15:31.000Z</time>
      </trkpt>
      <trkpt lat="47.35049" lon="-2.41427">
        <ele>16.799999237061</ele>
        <time>2020-10-18T09:15:32.000Z</time>
      </trkpt>
      <trkpt lat="47.35033" lon="-2.41434">
        <ele>16.799999237061</ele>
        <time>2020-10-18T09:15:35.000Z</time>
      </trkpt>
      <trkpt lat="47.34999" lon="-2.41448">
        <ele>16.799999237061</ele>
        <time>2020-10-18T09:15:41.000Z</time>
      </trkpt>
      <trkpt lat="47.34962" lon="-2.41461">
        <ele>16.799999237061</ele>
        <time>2020-10-18T09:15:48.000Z</time>
      </trkpt>
      <trkpt lat="47.34925" lon="-2.41473">
        <ele>16.799999237061</ele>
        <time>2020-10-18T09:15:55.000Z</time>
      </trkpt>
      <trkpt lat="47.34891" lon="-2.41483">
        <ele>16.799999237061</ele>
        <time>2020-10-18T09:16:01.000Z</time>
      </trkpt>
      <trkpt lat="47.34858" lon="-2.41492">
        <ele>16.799999237061</ele>
        <time>2020-10-18T09:16:07.000Z</time>
      </trkpt>
      <trkpt lat="47.34821" lon="-2.415">
        <ele>16.799999237061</ele>
        <time>2020-10-18T09:16:14.000Z</time>
      </trkpt>
      <trkpt lat="47.34799" lon="-2.41509">
        <ele>17.200000762939</ele>
        <time>2020-10-18T09:16:18.000Z</time>
      </trkpt>
      <trkpt lat="47.34794" lon="-2.41511">
        <ele>17.799999237061</ele>
        <time>2020-10-18T09:16:19.000Z</time>
      </trkpt>
      <trkpt lat="47.34789" lon="-2.41512">
        <ele>18.200000762939</ele>
        <time>2020-10-18T09:16:20.000Z</time>
      </trkpt>
      <trkpt lat="47.34784" lon="-2.41513">
        <ele>18.60000038147</ele>
        <time>2020-10-18T09:16:21.000Z</time>
      </trkpt>
      <trkpt lat="47.3478" lon="-2.41514">
        <ele>19</ele>
        <time>2020-10-18T09:16:22.000Z</time>
      </trkpt>
      <trkpt lat="47.34775" lon="-2.41516">
        <ele>19</ele>
        <time>2020-10-18T09:16:23.000Z</time>
      </trkpt>
      <trkpt lat="47.34764" lon="-2.41521">
        <ele>19</ele>
        <time>2020-10-18T09:16:25.000Z</time>
      </trkpt>
      <trkpt lat="47.34736" lon="-2.41533">
        <ele>19</ele>
        <time>2020-10-18T09:16:30.000Z</time>
      </trkpt>
      <trkpt lat="47.34706" lon="-2.41541">
        <ele>19</ele>
        <time>2020-10-18T09:16:36.000Z</time>
      </trkpt>
      <trkpt lat="47.34697" lon="-2.41544">
        <ele>19.39999961853</ele>
        <time>2020-10-18T09:16:38.000Z</time>
      </trkpt>
      <trkpt lat="47.34693" lon="-2.41545">
        <ele>19.799999237061</ele>
        <time>2020-10-18T09:16:39.000Z</time>
      </trkpt>
      <trkpt lat="47.34688" lon="-2.41546">
        <ele>20.200000762939</ele>
        <time>2020-10-18T09:16:40.000Z</time>
      </trkpt>
      <trkpt lat="47.34683" lon="-2.41548">
        <ele>20.60000038147</ele>
        <time>2020-10-18T09:16:41.000Z</time>
      </trkpt>
      <trkpt lat="47.34679" lon="-2.41549">
        <ele>21.200000762939</ele>
        <time>2020-10-18T09:16:42.000Z</time>
      </trkpt>
      <trkpt lat="47.34665" lon="-2.41554">
        <ele>21.200000762939</ele>
        <time>2020-10-18T09:16:45.000Z</time>
      </trkpt>
      <trkpt lat="47.34661" lon="-2.41554">
        <ele>21.200000762939</ele>
        <time>2020-10-18T09:16:46.000Z</time>
      </trkpt>
      <trkpt lat="47.34646" lon="-2.4156">
        <ele>21.200000762939</ele>
        <time>2020-10-18T09:16:49.000Z</time>
      </trkpt>
      <trkpt lat="47.34611" lon="-2.41573">
        <ele>21.200000762939</ele>
        <time>2020-10-18T09:16:55.000Z</time>
      </trkpt>
      <trkpt lat="47.34562" lon="-2.41595">
        <ele>21.200000762939</ele>
        <time>2020-10-18T09:17:03.000Z</time>
      </trkpt>
      <trkpt lat="47.34527" lon="-2.41608">
        <ele>21.200000762939</ele>
        <time>2020-10-18T09:17:09.000Z</time>
      </trkpt>
      <trkpt lat="47.34507" lon="-2.41615">
        <ele>21.60000038147</ele>
        <time>2020-10-18T09:17:13.000Z</time>
      </trkpt>
      <trkpt lat="47.34502" lon="-2.41617">
        <ele>22</ele>
        <time>2020-10-18T09:17:14.000Z</time>
      </trkpt>
      <trkpt lat="47.34498" lon="-2.41619">
        <ele>22.39999961853</ele>
        <time>2020-10-18T09:17:15.000Z</time>
      </trkpt>
      <trkpt lat="47.34493" lon="-2.41621">
        <ele>22.799999237061</ele>
        <time>2020-10-18T09:17:16.000Z</time>
      </trkpt>
      <trkpt lat="47.34489" lon="-2.41623">
        <ele>23.39999961853</ele>
        <time>2020-10-18T09:17:17.000Z</time>
      </trkpt>
      <trkpt lat="47.3446" lon="-2.4164">
        <ele>23.39999961853</ele>
        <time>2020-10-18T09:17:23.000Z</time>
      </trkpt>
      <trkpt lat="47.34451" lon="-2.41648">
        <ele>23.39999961853</ele>
        <time>2020-10-18T09:17:25.000Z</time>
      </trkpt>
      <trkpt lat="47.34439" lon="-2.41664">
        <ele>23.39999961853</ele>
        <time>2020-10-18T09:17:28.000Z</time>
      </trkpt>
      <trkpt lat="47.34415" lon="-2.41695">
        <ele>23.799999237061</ele>
        <time>2020-10-18T09:17:34.000Z</time>
      </trkpt>
      <trkpt lat="47.34411" lon="-2.41699">
        <ele>24.200000762939</ele>
        <time>2020-10-18T09:17:35.000Z</time>
      </trkpt>
      <trkpt lat="47.34406" lon="-2.41702">
        <ele>24.60000038147</ele>
        <time>2020-10-18T09:17:36.000Z</time>
      </trkpt>
      <trkpt lat="47.34401" lon="-2.41705">
        <ele>25</ele>
        <time>2020-10-18T09:17:37.000Z</time>
      </trkpt>
      <trkpt lat="47.34396" lon="-2.41708">
        <ele>25.39999961853</ele>
        <time>2020-10-18T09:17:38.000Z</time>
      </trkpt>
      <trkpt lat="47.34388" lon="-2.41715">
        <ele>25.39999961853</ele>
        <time>2020-10-18T09:17:40.000Z</time>
      </trkpt>
      <trkpt lat="47.34383" lon="-2.41718">
        <ele>25.39999961853</ele>
        <time>2020-10-18T09:17:41.000Z</time>
      </trkpt>
      <trkpt lat="47.34356" lon="-2.41732">
        <ele>25.799999237061</ele>
        <time>2020-10-18T09:17:47.000Z</time>
      </trkpt>
      <trkpt lat="47.34351" lon="-2.41735">
        <ele>26.200000762939</ele>
        <time>2020-10-18T09:17:48.000Z</time>
      </trkpt>
      <trkpt lat="47.34347" lon="-2.41737">
        <ele>26.60000038147</ele>
        <time>2020-10-18T09:17:49.000Z</time>
      </trkpt>
      <trkpt lat="47.34342" lon="-2.4174">
        <ele>27</ele>
        <time>2020-10-18T09:17:50.000Z</time>
      </trkpt>
      <trkpt lat="47.34337" lon="-2.41741">
        <ele>27.39999961853</ele>
        <time>2020-10-18T09:17:51.000Z</time>
      </trkpt>
      <trkpt lat="47.34312" lon="-2.41753">
        <ele>27.799999237061</ele>
        <time>2020-10-18T09:17:56.000Z</time>
      </trkpt>
      <trkpt lat="47.34306" lon="-2.41756">
        <ele>28.39999961853</ele>
        <time>2020-10-18T09:17:57.000Z</time>
      </trkpt>
      <trkpt lat="47.34301" lon="-2.41759">
        <ele>28.799999237061</ele>
        <time>2020-10-18T09:17:58.000Z</time>
      </trkpt>
      <trkpt lat="47.34296" lon="-2.41762">
        <ele>29.200000762939</ele>
        <time>2020-10-18T09:17:59.000Z</time>
      </trkpt>
      <trkpt lat="47.34291" lon="-2.41765">
        <ele>29.60000038147</ele>
        <time>2020-10-18T09:18:00.000Z</time>
      </trkpt>
      <trkpt lat="47.34276" lon="-2.41774">
        <ele>29.60000038147</ele>
        <time>2020-10-18T09:18:03.000Z</time>
      </trkpt>
      <trkpt lat="47.34248" lon="-2.41788">
        <ele>29.60000038147</ele>
        <time>2020-10-18T09:18:09.000Z</time>
      </trkpt>
      <trkpt lat="47.34243" lon="-2.41787">
        <ele>29.60000038147</ele>
        <time>2020-10-18T09:18:10.000Z</time>
      </trkpt>
      <trkpt lat="47.34235" lon="-2.4178">
        <ele>29.60000038147</ele>
        <time>2020-10-18T09:18:12.000Z</time>
      </trkpt>
      <trkpt lat="47.34224" lon="-2.41753">
        <ele>29.60000038147</ele>
        <time>2020-10-18T09:18:16.000Z</time>
      </trkpt>
      <trkpt lat="47.34209" lon="-2.41706">
        <ele>29.60000038147</ele>
        <time>2020-10-18T09:18:23.000Z</time>
      </trkpt>
      <trkpt lat="47.34196" lon="-2.41697">
        <ele>29.60000038147</ele>
        <time>2020-10-18T09:18:26.000Z</time>
      </trkpt>
      <trkpt lat="47.34182" lon="-2.41702">
        <ele>29.60000038147</ele>
        <time>2020-10-18T09:18:29.000Z</time>
      </trkpt>
      <trkpt lat="47.34167" lon="-2.41722">
        <ele>29.60000038147</ele>
        <time>2020-10-18T09:18:33.000Z</time>
      </trkpt>
      <trkpt lat="47.34137" lon="-2.41753">
        <ele>30</ele>
        <time>2020-10-18T09:18:40.000Z</time>
      </trkpt>
      <trkpt lat="47.34132" lon="-2.41757">
        <ele>30.39999961853</ele>
        <time>2020-10-18T09:18:41.000Z</time>
      </trkpt>
      <trkpt lat="47.34128" lon="-2.41761">
        <ele>30.799999237061</ele>
        <time>2020-10-18T09:18:42.000Z</time>
      </trkpt>
      <trkpt lat="47.34123" lon="-2.41765">
        <ele>31.200000762939</ele>
        <time>2020-10-18T09:18:43.000Z</time>
      </trkpt>
      <trkpt lat="47.34119" lon="-2.41769">
        <ele>31.60000038147</ele>
        <time>2020-10-18T09:18:44.000Z</time>
      </trkpt>
      <trkpt lat="47.34106" lon="-2.41779">
        <ele>31.60000038147</ele>
        <time>2020-10-18T09:18:47.000Z</time>
      </trkpt>
      <trkpt lat="47.34102" lon="-2.41783">
        <ele>31.60000038147</ele>
        <time>2020-10-18T09:18:48.000Z</time>
      </trkpt>
      <trkpt lat="47.34081" lon="-2.41802">
        <ele>31.60000038147</ele>
        <time>2020-10-18T09:18:53.000Z</time>
      </trkpt>
      <trkpt lat="47.3407" lon="-2.41813">
        <ele>32</ele>
        <time>2020-10-18T09:18:56.000Z</time>
      </trkpt>
      <trkpt lat="47.34066" lon="-2.41817">
        <ele>32.400001525879</ele>
        <time>2020-10-18T09:18:57.000Z</time>
      </trkpt>
      <trkpt lat="47.34063" lon="-2.41822">
        <ele>32.799999237061</ele>
        <time>2020-10-18T09:18:58.000Z</time>
      </trkpt>
      <trkpt lat="47.34059" lon="-2.41826">
        <ele>33.200000762939</ele>
        <time>2020-10-18T09:18:59.000Z</time>
      </trkpt>
      <trkpt lat="47.34056" lon="-2.41832">
        <ele>33.799999237061</ele>
        <time>2020-10-18T09:19:00.000Z</time>
      </trkpt>
      <trkpt lat="47.34032" lon="-2.41867">
        <ele>34.200000762939</ele>
        <time>2020-10-18T09:19:07.000Z</time>
      </trkpt>
      <trkpt lat="47.34029" lon="-2.41873">
        <ele>34.599998474121</ele>
        <time>2020-10-18T09:19:08.000Z</time>
      </trkpt>
      <trkpt lat="47.34025" lon="-2.41878">
        <ele>35</ele>
        <time>2020-10-18T09:19:09.000Z</time>
      </trkpt>
      <trkpt lat="47.34022" lon="-2.41883">
        <ele>35.400001525879</ele>
        <time>2020-10-18T09:19:10.000Z</time>
      </trkpt>
      <trkpt lat="47.34019" lon="-2.41888">
        <ele>35.799999237061</ele>
        <time>2020-10-18T09:19:11.000Z</time>
      </trkpt>
      <trkpt lat="47.34005" lon="-2.4191">
        <ele>35.799999237061</ele>
        <time>2020-10-18T09:19:15.000Z</time>
      </trkpt>
      <trkpt lat="47.33981" lon="-2.41945">
        <ele>35.799999237061</ele>
        <time>2020-10-18T09:19:22.000Z</time>
      </trkpt>
      <trkpt lat="47.33951" lon="-2.41981">
        <ele>35.799999237061</ele>
        <time>2020-10-18T09:19:30.000Z</time>
      </trkpt>
      <trkpt lat="47.33921" lon="-2.42013">
        <ele>35.799999237061</ele>
        <time>2020-10-18T09:19:38.000Z</time>
      </trkpt>
      <trkpt lat="47.33909" lon="-2.42024">
        <ele>36.200000762939</ele>
        <time>2020-10-18T09:19:41.000Z</time>
      </trkpt>
      <trkpt lat="47.33905" lon="-2.42028">
        <ele>36.599998474121</ele>
        <time>2020-10-18T09:19:42.000Z</time>
      </trkpt>
      <trkpt lat="47.33901" lon="-2.42032">
        <ele>37</ele>
        <time>2020-10-18T09:19:43.000Z</time>
      </trkpt>
      <trkpt lat="47.33896" lon="-2.42036">
        <ele>37.400001525879</ele>
        <time>2020-10-18T09:19:44.000Z</time>
      </trkpt>
      <trkpt lat="47.33892" lon="-2.42039">
        <ele>37.799999237061</ele>
        <time>2020-10-18T09:19:45.000Z</time>
      </trkpt>
      <trkpt lat="47.33888" lon="-2.42042">
        <ele>37.799999237061</ele>
        <time>2020-10-18T09:19:46.000Z</time>
      </trkpt>
      <trkpt lat="47.33884" lon="-2.42045">
        <ele>37.799999237061</ele>
        <time>2020-10-18T09:19:47.000Z</time>
      </trkpt>
      <trkpt lat="47.33867" lon="-2.42059">
        <ele>37.799999237061</ele>
        <time>2020-10-18T09:19:51.000Z</time>
      </trkpt>
      <trkpt lat="47.33837" lon="-2.42079">
        <ele>37.799999237061</ele>
        <time>2020-10-18T09:19:58.000Z</time>
      </trkpt>
      <trkpt lat="47.33817" lon="-2.42093">
        <ele>37.799999237061</ele>
        <time>2020-10-18T09:20:03.000Z</time>
      </trkpt>
      <trkpt lat="47.33813" lon="-2.42096">
        <ele>38.200000762939</ele>
        <time>2020-10-18T09:20:04.000Z</time>
      </trkpt>
      <trkpt lat="47.33808" lon="-2.42098">
        <ele>38.599998474121</ele>
        <time>2020-10-18T09:20:05.000Z</time>
      </trkpt>
      <trkpt lat="47.33804" lon="-2.42098">
        <ele>39</ele>
        <time>2020-10-18T09:20:06.000Z</time>
      </trkpt>
      <trkpt lat="47.33799" lon="-2.42099">
        <ele>39.400001525879</ele>
        <time>2020-10-18T09:20:07.000Z</time>
      </trkpt>
      <trkpt lat="47.33795" lon="-2.42101">
        <ele>39.799999237061</ele>
        <time>2020-10-18T09:20:08.000Z</time>
      </trkpt>
      <trkpt lat="47.33791" lon="-2.42103">
        <ele>39.799999237061</ele>
        <time>2020-10-18T09:20:09.000Z</time>
      </trkpt>
      <trkpt lat="47.33782" lon="-2.42108">
        <ele>39.799999237061</ele>
        <time>2020-10-18T09:20:11.000Z</time>
      </trkpt>
      <trkpt lat="47.33778" lon="-2.42109">
        <ele>39.799999237061</ele>
        <time>2020-10-18T09:20:12.000Z</time>
      </trkpt>
      <trkpt lat="47.33752" lon="-2.42118">
        <ele>39.799999237061</ele>
        <time>2020-10-18T09:20:18.000Z</time>
      </trkpt>
      <trkpt lat="47.33724" lon="-2.42128">
        <ele>39.799999237061</ele>
        <time>2020-10-18T09:20:25.000Z</time>
      </trkpt>
      <trkpt lat="47.33716" lon="-2.42131">
        <ele>40.200000762939</ele>
        <time>2020-10-18T09:20:27.000Z</time>
      </trkpt>
      <trkpt lat="47.33712" lon="-2.42132">
        <ele>40.599998474121</ele>
        <time>2020-10-18T09:20:28.000Z</time>
      </trkpt>
      <trkpt lat="47.33708" lon="-2.42133">
        <ele>41</ele>
        <time>2020-10-18T09:20:29.000Z</time>
      </trkpt>
      <trkpt lat="47.33704" lon="-2.42134">
        <ele>41.400001525879</ele>
        <time>2020-10-18T09:20:30.000Z</time>
      </trkpt>
      <trkpt lat="47.33701" lon="-2.42136">
        <ele>41.799999237061</ele>
        <time>2020-10-18T09:20:31.000Z</time>
      </trkpt>
      <trkpt lat="47.33697" lon="-2.42137">
        <ele>41.799999237061</ele>
        <time>2020-10-18T09:20:32.000Z</time>
      </trkpt>
      <trkpt lat="47.33673" lon="-2.42143">
        <ele>41.799999237061</ele>
        <time>2020-10-18T09:20:39.000Z</time>
      </trkpt>
      <trkpt lat="47.33655" lon="-2.42148">
        <ele>41.799999237061</ele>
        <time>2020-10-18T09:20:47.000Z</time>
      </trkpt>
      <trkpt lat="47.33647" lon="-2.42149">
        <ele>42.200000762939</ele>
        <time>2020-10-18T09:20:50.000Z</time>
      </trkpt>
      <trkpt lat="47.33645" lon="-2.42149">
        <ele>42.599998474121</ele>
        <time>2020-10-18T09:20:51.000Z</time>
      </trkpt>
      <trkpt lat="47.33643" lon="-2.42149">
        <ele>43</ele>
        <time>2020-10-18T09:20:52.000Z</time>
      </trkpt>
      <trkpt lat="47.33641" lon="-2.42149">
        <ele>43.400001525879</ele>
        <time>2020-10-18T09:20:53.000Z</time>
      </trkpt>
      <trkpt lat="47.33639" lon="-2.4215">
        <ele>44</ele>
        <time>2020-10-18T09:20:54.000Z</time>
      </trkpt>
      <trkpt lat="47.33635" lon="-2.42149">
        <ele>44</ele>
        <time>2020-10-18T09:20:57.000Z</time>
      </trkpt>
      <trkpt lat="47.3362" lon="-2.42158">
        <ele>44</ele>
        <time>2020-10-18T09:21:01.000Z</time>
      </trkpt>
      <trkpt lat="47.33607" lon="-2.42161">
        <ele>44.799999237061</ele>
        <time>2020-10-18T09:21:04.000Z</time>
      </trkpt>
      <trkpt lat="47.33603" lon="-2.42162">
        <ele>45.200000762939</ele>
        <time>2020-10-18T09:21:05.000Z</time>
      </trkpt>
      <trkpt lat="47.33599" lon="-2.42164">
        <ele>45.599998474121</ele>
        <time>2020-10-18T09:21:06.000Z</time>
      </trkpt>
      <trkpt lat="47.33596" lon="-2.42165">
        <ele>46</ele>
        <time>2020-10-18T09:21:07.000Z</time>
      </trkpt>
      <trkpt lat="47.33584" lon="-2.42177">
        <ele>46</ele>
        <time>2020-10-18T09:21:13.000Z</time>
      </trkpt>
      <trkpt lat="47.33579" lon="-2.42181">
        <ele>46</ele>
        <time>2020-10-18T09:21:18.000Z</time>
      </trkpt>
      <trkpt lat="47.33578" lon="-2.42181">
        <ele>46</ele>
        <time>2020-10-18T09:21:20.000Z</time>
      </trkpt>
      <trkpt lat="47.33574" lon="-2.42186">
        <ele>46</ele>
        <time>2020-10-18T09:21:51.000Z</time>
      </trkpt>
      <trkpt lat="47.33571" lon="-2.42186">
        <ele>46</ele>
        <time>2020-10-18T09:21:52.000Z</time>
      </trkpt>
      <trkpt lat="47.33565" lon="-2.42186">
        <ele>46.400001525879</ele>
        <time>2020-10-18T09:21:54.000Z</time>
      </trkpt>
      <trkpt lat="47.33561" lon="-2.42186">
        <ele>46.799999237061</ele>
        <time>2020-10-18T09:21:55.000Z</time>
      </trkpt>
      <trkpt lat="47.33558" lon="-2.4219">
        <ele>47.400001525879</ele>
        <time>2020-10-18T09:21:56.000Z</time>
      </trkpt>
      <trkpt lat="47.33555" lon="-2.42193">
        <ele>47.799999237061</ele>
        <time>2020-10-18T09:21:57.000Z</time>
      </trkpt>
      <trkpt lat="47.33553" lon="-2.42193">
        <ele>48.200000762939</ele>
        <time>2020-10-18T09:21:58.000Z</time>
      </trkpt>
      <trkpt lat="47.3355" lon="-2.4219">
        <ele>48.200000762939</ele>
        <time>2020-10-18T09:21:59.000Z</time>
      </trkpt>
      <trkpt lat="47.33547" lon="-2.42187">
        <ele>48.200000762939</ele>
        <time>2020-10-18T09:22:00.000Z</time>
      </trkpt>
      <trkpt lat="47.33544" lon="-2.42187">
        <ele>48.200000762939</ele>
        <time>2020-10-18T09:22:01.000Z</time>
      </trkpt>
      <trkpt lat="47.33535" lon="-2.42189">
        <ele>48.200000762939</ele>
        <time>2020-10-18T09:22:04.000Z</time>
      </trkpt>
      <trkpt lat="47.33527" lon="-2.4219">
        <ele>48.200000762939</ele>
        <time>2020-10-18T09:22:09.000Z</time>
      </trkpt>
      <trkpt lat="47.33526" lon="-2.4219">
        <ele>48.200000762939</ele>
        <time>2020-10-18T09:22:12.000Z</time>
      </trkpt>
      <trkpt lat="47.33522" lon="-2.42191">
        <ele>48.200000762939</ele>
        <time>2020-10-18T09:22:24.000Z</time>
      </trkpt>
      <trkpt lat="47.33519" lon="-2.42193">
        <ele>48.200000762939</ele>
        <time>2020-10-18T09:22:25.000Z</time>
      </trkpt>
      <trkpt lat="47.33499" lon="-2.42201">
        <ele>48.200000762939</ele>
        <time>2020-10-18T09:22:30.000Z</time>
      </trkpt>
      <trkpt lat="47.33475" lon="-2.42209">
        <ele>48.200000762939</ele>
        <time>2020-10-18T09:22:36.000Z</time>
      </trkpt>
      <trkpt lat="47.33448" lon="-2.42223">
        <ele>48.200000762939</ele>
        <time>2020-10-18T09:22:43.000Z</time>
      </trkpt>
      <trkpt lat="47.3342" lon="-2.42234">
        <ele>48.200000762939</ele>
        <time>2020-10-18T09:22:50.000Z</time>
      </trkpt>
      <trkpt lat="47.33394" lon="-2.42248">
        <ele>48.200000762939</ele>
        <time>2020-10-18T09:22:57.000Z</time>
      </trkpt>
      <trkpt lat="47.33377" lon="-2.42272">
        <ele>48.200000762939</ele>
        <time>2020-10-18T09:23:03.000Z</time>
      </trkpt>
      <trkpt lat="47.33363" lon="-2.42289">
        <ele>48.599998474121</ele>
        <time>2020-10-18T09:23:07.000Z</time>
      </trkpt>
      <trkpt lat="47.3336" lon="-2.42292">
        <ele>49</ele>
        <time>2020-10-18T09:23:08.000Z</time>
      </trkpt>
      <trkpt lat="47.33357" lon="-2.42296">
        <ele>49.400001525879</ele>
        <time>2020-10-18T09:23:09.000Z</time>
      </trkpt>
      <trkpt lat="47.33353" lon="-2.42299">
        <ele>49.799999237061</ele>
        <time>2020-10-18T09:23:10.000Z</time>
      </trkpt>
      <trkpt lat="47.3335" lon="-2.42302">
        <ele>50.200000762939</ele>
        <time>2020-10-18T09:23:11.000Z</time>
      </trkpt>
      <trkpt lat="47.33328" lon="-2.42325">
        <ele>50.200000762939</ele>
        <time>2020-10-18T09:23:17.000Z</time>
      </trkpt>
      <trkpt lat="47.33296" lon="-2.42356">
        <ele>50.200000762939</ele>
        <time>2020-10-18T09:23:25.000Z</time>
      </trkpt>
      <trkpt lat="47.33264" lon="-2.42388">
        <ele>50.200000762939</ele>
        <time>2020-10-18T09:23:33.000Z</time>
      </trkpt>
      <trkpt lat="47.33234" lon="-2.42415">
        <ele>50.200000762939</ele>
        <time>2020-10-18T09:23:40.000Z</time>
      </trkpt>
      <trkpt lat="47.33195" lon="-2.42449">
        <ele>50.200000762939</ele>
        <time>2020-10-18T09:23:48.000Z</time>
      </trkpt>
      <trkpt lat="47.33156" lon="-2.42481">
        <ele>50.200000762939</ele>
        <time>2020-10-18T09:23:56.000Z</time>
      </trkpt>
      <trkpt lat="47.33121" lon="-2.42508">
        <ele>50.200000762939</ele>
        <time>2020-10-18T09:24:03.000Z</time>
      </trkpt>
      <trkpt lat="47.33097" lon="-2.42529">
        <ele>50.200000762939</ele>
        <time>2020-10-18T09:24:09.000Z</time>
      </trkpt>
      <trkpt lat="47.33082" lon="-2.42551">
        <ele>50.200000762939</ele>
        <time>2020-10-18T09:24:15.000Z</time>
      </trkpt>
      <trkpt lat="47.33089" lon="-2.42568">
        <ele>50.200000762939</ele>
        <time>2020-10-18T09:24:18.000Z</time>
      </trkpt>
      <trkpt lat="47.33091" lon="-2.42575">
        <ele>50.200000762939</ele>
        <time>2020-10-18T09:24:19.000Z</time>
      </trkpt>
      <trkpt lat="47.33104" lon="-2.42608">
        <ele>50.200000762939</ele>
        <time>2020-10-18T09:24:24.000Z</time>
      </trkpt>
      <trkpt lat="47.33109" lon="-2.4263">
        <ele>50.200000762939</ele>
        <time>2020-10-18T09:24:28.000Z</time>
      </trkpt>
      <trkpt lat="47.33101" lon="-2.42645">
        <ele>50.200000762939</ele>
        <time>2020-10-18T09:24:31.000Z</time>
      </trkpt>
      <trkpt lat="47.33088" lon="-2.42658">
        <ele>50.200000762939</ele>
        <time>2020-10-18T09:24:34.000Z</time>
      </trkpt>
      <trkpt lat="47.33084" lon="-2.42661">
        <ele>50.200000762939</ele>
        <time>2020-10-18T09:24:35.000Z</time>
      </trkpt>
      <trkpt lat="47.33079" lon="-2.42665">
        <ele>50.200000762939</ele>
        <time>2020-10-18T09:24:36.000Z</time>
      </trkpt>
      <trkpt lat="47.33056" lon="-2.42679">
        <ele>50.200000762939</ele>
        <time>2020-10-18T09:24:41.000Z</time>
      </trkpt>
      <trkpt lat="47.33051" lon="-2.42676">
        <ele>50.200000762939</ele>
        <time>2020-10-18T09:24:42.000Z</time>
      </trkpt>
      <trkpt lat="47.33026" lon="-2.4267">
        <ele>50.200000762939</ele>
        <time>2020-10-18T09:24:47.000Z</time>
      </trkpt>
      <trkpt lat="47.33022" lon="-2.42674">
        <ele>50.200000762939</ele>
        <time>2020-10-18T09:24:48.000Z</time>
      </trkpt>
      <trkpt lat="47.33009" lon="-2.42694">
        <ele>50.200000762939</ele>
        <time>2020-10-18T09:24:52.000Z</time>
      </trkpt>
      <trkpt lat="47.33004" lon="-2.42704">
        <ele>50.200000762939</ele>
        <time>2020-10-18T09:24:54.000Z</time>
      </trkpt>
      <trkpt lat="47.33008" lon="-2.42714">
        <ele>50.200000762939</ele>
        <time>2020-10-18T09:24:56.000Z</time>
      </trkpt>
      <trkpt lat="47.33016" lon="-2.42724">
        <ele>50.200000762939</ele>
        <time>2020-10-18T09:24:58.000Z</time>
      </trkpt>
      <trkpt lat="47.33021" lon="-2.42729">
        <ele>50.200000762939</ele>
        <time>2020-10-18T09:24:59.000Z</time>
      </trkpt>
      <trkpt lat="47.33056" lon="-2.42764">
        <ele>50.200000762939</ele>
        <time>2020-10-18T09:25:06.000Z</time>
      </trkpt>
      <trkpt lat="47.33089" lon="-2.42799">
        <ele>50.200000762939</ele>
        <time>2020-10-18T09:25:13.000Z</time>
      </trkpt>
      <trkpt lat="47.33106" lon="-2.42818">
        <ele>50.200000762939</ele>
        <time>2020-10-18T09:25:17.000Z</time>
      </trkpt>
      <trkpt lat="47.33111" lon="-2.4283">
        <ele>50.200000762939</ele>
        <time>2020-10-18T09:25:19.000Z</time>
      </trkpt>
      <trkpt lat="47.33111" lon="-2.42847">
        <ele>50.200000762939</ele>
        <time>2020-10-18T09:25:22.000Z</time>
      </trkpt>
      <trkpt lat="47.33104" lon="-2.42854">
        <ele>50.200000762939</ele>
        <time>2020-10-18T09:25:24.000Z</time>
      </trkpt>
      <trkpt lat="47.331" lon="-2.42859">
        <ele>50.200000762939</ele>
        <time>2020-10-18T09:25:25.000Z</time>
      </trkpt>
      <trkpt lat="47.3307" lon="-2.42893">
        <ele>50.200000762939</ele>
        <time>2020-10-18T09:25:33.000Z</time>
      </trkpt>
      <trkpt lat="47.33064" lon="-2.42903">
        <ele>50.200000762939</ele>
        <time>2020-10-18T09:25:35.000Z</time>
      </trkpt>
      <trkpt lat="47.3306" lon="-2.42913">
        <ele>50.200000762939</ele>
        <time>2020-10-18T09:25:37.000Z</time>
      </trkpt>
      <trkpt lat="47.33051" lon="-2.42918">
        <ele>50.200000762939</ele>
        <time>2020-10-18T09:25:40.000Z</time>
      </trkpt>
      <trkpt lat="47.33044" lon="-2.42921">
        <ele>50.200000762939</ele>
        <time>2020-10-18T09:25:42.000Z</time>
      </trkpt>
      <trkpt lat="47.33031" lon="-2.42926">
        <ele>50.200000762939</ele>
        <time>2020-10-18T09:25:45.000Z</time>
      </trkpt>
      <trkpt lat="47.33001" lon="-2.42929">
        <ele>50.200000762939</ele>
        <time>2020-10-18T09:25:51.000Z</time>
      </trkpt>
      <trkpt lat="47.32987" lon="-2.42942">
        <ele>50.200000762939</ele>
        <time>2020-10-18T09:25:56.000Z</time>
      </trkpt>
      <trkpt lat="47.32979" lon="-2.42968">
        <ele>50.200000762939</ele>
        <time>2020-10-18T09:26:02.000Z</time>
      </trkpt>
      <trkpt lat="47.32971" lon="-2.42987">
        <ele>50.200000762939</ele>
        <time>2020-10-18T09:26:06.000Z</time>
      </trkpt>
      <trkpt lat="47.32971" lon="-2.43013">
        <ele>50.200000762939</ele>
        <time>2020-10-18T09:26:10.000Z</time>
      </trkpt>
      <trkpt lat="47.32972" lon="-2.4302">
        <ele>50.200000762939</ele>
        <time>2020-10-18T09:26:11.000Z</time>
      </trkpt>
      <trkpt lat="47.32971" lon="-2.43058">
        <ele>50.200000762939</ele>
        <time>2020-10-18T09:26:16.000Z</time>
      </trkpt>
      <trkpt lat="47.32966" lon="-2.43101">
        <ele>50.200000762939</ele>
        <time>2020-10-18T09:26:21.000Z</time>
      </trkpt>
      <trkpt lat="47.32963" lon="-2.43109">
        <ele>50.200000762939</ele>
        <time>2020-10-18T09:26:22.000Z</time>
      </trkpt>
      <trkpt lat="47.32949" lon="-2.43137">
        <ele>50.200000762939</ele>
        <time>2020-10-18T09:26:26.000Z</time>
      </trkpt>
      <trkpt lat="47.32939" lon="-2.43149">
        <ele>50.200000762939</ele>
        <time>2020-10-18T09:26:28.000Z</time>
      </trkpt>
      <trkpt lat="47.32926" lon="-2.43165">
        <ele>50.200000762939</ele>
        <time>2020-10-18T09:26:31.000Z</time>
      </trkpt>
      <trkpt lat="47.32898" lon="-2.43192">
        <ele>50.200000762939</ele>
        <time>2020-10-18T09:26:37.000Z</time>
      </trkpt>
      <trkpt lat="47.32881" lon="-2.43206">
        <ele>50.200000762939</ele>
        <time>2020-10-18T09:26:42.000Z</time>
      </trkpt>
      <trkpt lat="47.32869" lon="-2.43225">
        <ele>50.200000762939</ele>
        <time>2020-10-18T09:26:46.000Z</time>
      </trkpt>
      <trkpt lat="47.32844" lon="-2.43241">
        <ele>50.200000762939</ele>
        <time>2020-10-18T09:26:50.000Z</time>
      </trkpt>
      <trkpt lat="47.32792" lon="-2.43267">
        <ele>50.200000762939</ele>
        <time>2020-10-18T09:26:58.000Z</time>
      </trkpt>
      <trkpt lat="47.32741" lon="-2.43285">
        <ele>50.200000762939</ele>
        <time>2020-10-18T09:27:06.000Z</time>
      </trkpt>
      <trkpt lat="47.32706" lon="-2.43291">
        <ele>50.200000762939</ele>
        <time>2020-10-18T09:27:12.000Z</time>
      </trkpt>
      <trkpt lat="47.32695" lon="-2.43289">
        <ele>50.200000762939</ele>
        <time>2020-10-18T09:27:14.000Z</time>
      </trkpt>
      <trkpt lat="47.32684" lon="-2.43282">
        <ele>50.200000762939</ele>
        <time>2020-10-18T09:27:16.000Z</time>
      </trkpt>
      <trkpt lat="47.32668" lon="-2.43259">
        <ele>50.200000762939</ele>
        <time>2020-10-18T09:27:20.000Z</time>
      </trkpt>
      <trkpt lat="47.3265" lon="-2.43225">
        <ele>50.200000762939</ele>
        <time>2020-10-18T09:27:26.000Z</time>
      </trkpt>
      <trkpt lat="47.32646" lon="-2.43213">
        <ele>50.200000762939</ele>
        <time>2020-10-18T09:27:28.000Z</time>
      </trkpt>
      <trkpt lat="47.3264" lon="-2.43196">
        <ele>50.200000762939</ele>
        <time>2020-10-18T09:27:31.000Z</time>
      </trkpt>
      <trkpt lat="47.32631" lon="-2.43194">
        <ele>50.200000762939</ele>
        <time>2020-10-18T09:27:33.000Z</time>
      </trkpt>
      <trkpt lat="47.32614" lon="-2.43203">
        <ele>50.200000762939</ele>
        <time>2020-10-18T09:27:36.000Z</time>
      </trkpt>
      <trkpt lat="47.32608" lon="-2.43207">
        <ele>50.200000762939</ele>
        <time>2020-10-18T09:27:37.000Z</time>
      </trkpt>
      <trkpt lat="47.32589" lon="-2.4322">
        <ele>49.799999237061</ele>
        <time>2020-10-18T09:27:40.000Z</time>
      </trkpt>
      <trkpt lat="47.32583" lon="-2.43225">
        <ele>49.400001525879</ele>
        <time>2020-10-18T09:27:41.000Z</time>
      </trkpt>
      <trkpt lat="47.32577" lon="-2.43231">
        <ele>49</ele>
        <time>2020-10-18T09:27:42.000Z</time>
      </trkpt>
      <trkpt lat="47.32572" lon="-2.43239">
        <ele>48.400001525879</ele>
        <time>2020-10-18T09:27:43.000Z</time>
      </trkpt>
      <trkpt lat="47.32567" lon="-2.43249">
        <ele>48</ele>
        <time>2020-10-18T09:27:44.000Z</time>
      </trkpt>
      <trkpt lat="47.32558" lon="-2.43268">
        <ele>47.599998474121</ele>
        <time>2020-10-18T09:27:46.000Z</time>
      </trkpt>
      <trkpt lat="47.32554" lon="-2.43279">
        <ele>47.200000762939</ele>
        <time>2020-10-18T09:27:47.000Z</time>
      </trkpt>
      <trkpt lat="47.32551" lon="-2.43289">
        <ele>46.799999237061</ele>
        <time>2020-10-18T09:27:48.000Z</time>
      </trkpt>
      <trkpt lat="47.32548" lon="-2.433">
        <ele>46.400001525879</ele>
        <time>2020-10-18T09:27:49.000Z</time>
      </trkpt>
      <trkpt lat="47.32546" lon="-2.43312">
        <ele>46</ele>
        <time>2020-10-18T09:27:50.000Z</time>
      </trkpt>
      <trkpt lat="47.32541" lon="-2.43345">
        <ele>46</ele>
        <time>2020-10-18T09:27:53.000Z</time>
      </trkpt>
      <trkpt lat="47.32538" lon="-2.43367">
        <ele>46</ele>
        <time>2020-10-18T09:27:55.000Z</time>
      </trkpt>
      <trkpt lat="47.32534" lon="-2.43386">
        <ele>45.599998474121</ele>
        <time>2020-10-18T09:27:57.000Z</time>
      </trkpt>
      <trkpt lat="47.32532" lon="-2.43396">
        <ele>45.200000762939</ele>
        <time>2020-10-18T09:27:58.000Z</time>
      </trkpt>
      <trkpt lat="47.3253" lon="-2.43406">
        <ele>44.599998474121</ele>
        <time>2020-10-18T09:27:59.000Z</time>
      </trkpt>
      <trkpt lat="47.32527" lon="-2.43416">
        <ele>44.200000762939</ele>
        <time>2020-10-18T09:28:00.000Z</time>
      </trkpt>
      <trkpt lat="47.32525" lon="-2.43425">
        <ele>43.799999237061</ele>
        <time>2020-10-18T09:28:01.000Z</time>
      </trkpt>
      <trkpt lat="47.32525" lon="-2.43433">
        <ele>43.799999237061</ele>
        <time>2020-10-18T09:28:02.000Z</time>
      </trkpt>
      <trkpt lat="47.32523" lon="-2.43439">
        <ele>43</ele>
        <time>2020-10-18T09:28:03.000Z</time>
      </trkpt>
      <trkpt lat="47.32519" lon="-2.43444">
        <ele>42.599998474121</ele>
        <time>2020-10-18T09:28:04.000Z</time>
      </trkpt>
      <trkpt lat="47.32515" lon="-2.43446">
        <ele>42</ele>
        <time>2020-10-18T09:28:05.000Z</time>
      </trkpt>
      <trkpt lat="47.3251" lon="-2.4345">
        <ele>41.599998474121</ele>
        <time>2020-10-18T09:28:06.000Z</time>
      </trkpt>
      <trkpt lat="47.32506" lon="-2.43453">
        <ele>41.599998474121</ele>
        <time>2020-10-18T09:28:07.000Z</time>
      </trkpt>
      <trkpt lat="47.3249" lon="-2.43468">
        <ele>41.599998474121</ele>
        <time>2020-10-18T09:28:11.000Z</time>
      </trkpt>
      <trkpt lat="47.32486" lon="-2.43468">
        <ele>41.599998474121</ele>
        <time>2020-10-18T09:28:12.000Z</time>
      </trkpt>
      <trkpt lat="47.32476" lon="-2.43471">
        <ele>41.599998474121</ele>
        <time>2020-10-18T09:28:14.000Z</time>
      </trkpt>
      <trkpt lat="47.32467" lon="-2.43481">
        <ele>41.599998474121</ele>
        <time>2020-10-18T09:28:16.000Z</time>
      </trkpt>
      <trkpt lat="47.32431" lon="-2.43517">
        <ele>41.599998474121</ele>
        <time>2020-10-18T09:28:23.000Z</time>
      </trkpt>
      <trkpt lat="47.32417" lon="-2.43536">
        <ele>41.599998474121</ele>
        <time>2020-10-18T09:28:26.000Z</time>
      </trkpt>
      <trkpt lat="47.32409" lon="-2.43554">
        <ele>41.599998474121</ele>
        <time>2020-10-18T09:28:28.000Z</time>
      </trkpt>
      <trkpt lat="47.32391" lon="-2.43619">
        <ele>41.599998474121</ele>
        <time>2020-10-18T09:28:35.000Z</time>
      </trkpt>
      <trkpt lat="47.3238" lon="-2.43679">
        <ele>41.599998474121</ele>
        <time>2020-10-18T09:28:41.000Z</time>
      </trkpt>
      <trkpt lat="47.32366" lon="-2.43754">
        <ele>41.599998474121</ele>
        <time>2020-10-18T09:28:48.000Z</time>
      </trkpt>
      <trkpt lat="47.3234" lon="-2.43836">
        <ele>41.599998474121</ele>
        <time>2020-10-18T09:28:56.000Z</time>
      </trkpt>
      <trkpt lat="47.32336" lon="-2.43846">
        <ele>41.599998474121</ele>
        <time>2020-10-18T09:28:57.000Z</time>
      </trkpt>
      <trkpt lat="47.32332" lon="-2.43867">
        <ele>41.599998474121</ele>
        <time>2020-10-18T09:28:59.000Z</time>
      </trkpt>
      <trkpt lat="47.32328" lon="-2.43888">
        <ele>41.599998474121</ele>
        <time>2020-10-18T09:29:01.000Z</time>
      </trkpt>
      <trkpt lat="47.32326" lon="-2.43899">
        <ele>41.200000762939</ele>
        <time>2020-10-18T09:29:02.000Z</time>
      </trkpt>
      <trkpt lat="47.32324" lon="-2.43909">
        <ele>40.799999237061</ele>
        <time>2020-10-18T09:29:03.000Z</time>
      </trkpt>
      <trkpt lat="47.32321" lon="-2.43919">
        <ele>40.400001525879</ele>
        <time>2020-10-18T09:29:04.000Z</time>
      </trkpt>
      <trkpt lat="47.32319" lon="-2.43929">
        <ele>40</ele>
        <time>2020-10-18T09:29:05.000Z</time>
      </trkpt>
      <trkpt lat="47.32317" lon="-2.43939">
        <ele>39.599998474121</ele>
        <time>2020-10-18T09:29:06.000Z</time>
      </trkpt>
      <trkpt lat="47.32312" lon="-2.43961">
        <ele>39.599998474121</ele>
        <time>2020-10-18T09:29:08.000Z</time>
      </trkpt>
      <trkpt lat="47.32309" lon="-2.43972">
        <ele>39.599998474121</ele>
        <time>2020-10-18T09:29:09.000Z</time>
      </trkpt>
      <trkpt lat="47.323" lon="-2.43991">
        <ele>39.599998474121</ele>
        <time>2020-10-18T09:29:11.000Z</time>
      </trkpt>
      <trkpt lat="47.32288" lon="-2.44007">
        <ele>39.200000762939</ele>
        <time>2020-10-18T09:29:13.000Z</time>
      </trkpt>
      <trkpt lat="47.32281" lon="-2.44014">
        <ele>38.799999237061</ele>
        <time>2020-10-18T09:29:14.000Z</time>
      </trkpt>
      <trkpt lat="47.32273" lon="-2.44021">
        <ele>38.400001525879</ele>
        <time>2020-10-18T09:29:15.000Z</time>
      </trkpt>
      <trkpt lat="47.32266" lon="-2.44027">
        <ele>38</ele>
        <time>2020-10-18T09:29:16.000Z</time>
      </trkpt>
      <trkpt lat="47.32259" lon="-2.44033">
        <ele>37.200000762939</ele>
        <time>2020-10-18T09:29:17.000Z</time>
      </trkpt>
      <trkpt lat="47.32253" lon="-2.44039">
        <ele>36.799999237061</ele>
        <time>2020-10-18T09:29:18.000Z</time>
      </trkpt>
      <trkpt lat="47.32246" lon="-2.44044">
        <ele>36.200000762939</ele>
        <time>2020-10-18T09:29:19.000Z</time>
      </trkpt>
      <trkpt lat="47.32239" lon="-2.44047">
        <ele>35.799999237061</ele>
        <time>2020-10-18T09:29:20.000Z</time>
      </trkpt>
      <trkpt lat="47.32233" lon="-2.44048">
        <ele>35.400001525879</ele>
        <time>2020-10-18T09:29:21.000Z</time>
      </trkpt>
      <trkpt lat="47.32221" lon="-2.44041">
        <ele>35.400001525879</ele>
        <time>2020-10-18T09:29:23.000Z</time>
      </trkpt>
      <trkpt lat="47.32185" lon="-2.43998">
        <ele>35.400001525879</ele>
        <time>2020-10-18T09:29:30.000Z</time>
      </trkpt>
      <trkpt lat="47.32179" lon="-2.43992">
        <ele>35</ele>
        <time>2020-10-18T09:29:31.000Z</time>
      </trkpt>
      <trkpt lat="47.32174" lon="-2.43985">
        <ele>34.599998474121</ele>
        <time>2020-10-18T09:29:32.000Z</time>
      </trkpt>
      <trkpt lat="47.32169" lon="-2.43978">
        <ele>34.200000762939</ele>
        <time>2020-10-18T09:29:33.000Z</time>
      </trkpt>
      <trkpt lat="47.32164" lon="-2.43971">
        <ele>33.799999237061</ele>
        <time>2020-10-18T09:29:34.000Z</time>
      </trkpt>
      <trkpt lat="47.32159" lon="-2.43964">
        <ele>33.400001525879</ele>
        <time>2020-10-18T09:29:35.000Z</time>
      </trkpt>
      <trkpt lat="47.32144" lon="-2.43941">
        <ele>33.400001525879</ele>
        <time>2020-10-18T09:29:38.000Z</time>
      </trkpt>
      <trkpt lat="47.32138" lon="-2.43932">
        <ele>33</ele>
        <time>2020-10-18T09:29:39.000Z</time>
      </trkpt>
      <trkpt lat="47.32132" lon="-2.43924">
        <ele>32.599998474121</ele>
        <time>2020-10-18T09:29:40.000Z</time>
      </trkpt>
      <trkpt lat="47.32125" lon="-2.43917">
        <ele>32.200000762939</ele>
        <time>2020-10-18T09:29:41.000Z</time>
      </trkpt>
      <trkpt lat="47.32118" lon="-2.43911">
        <ele>31.200000762939</ele>
        <time>2020-10-18T09:29:42.000Z</time>
      </trkpt>
      <trkpt lat="47.32111" lon="-2.43906">
        <ele>30.799999237061</ele>
        <time>2020-10-18T09:29:43.000Z</time>
      </trkpt>
      <trkpt lat="47.32103" lon="-2.43902">
        <ele>30.39999961853</ele>
        <time>2020-10-18T09:29:44.000Z</time>
      </trkpt>
      <trkpt lat="47.32095" lon="-2.43899">
        <ele>29.799999237061</ele>
        <time>2020-10-18T09:29:45.000Z</time>
      </trkpt>
      <trkpt lat="47.32087" lon="-2.43894">
        <ele>29.39999961853</ele>
        <time>2020-10-18T09:29:46.000Z</time>
      </trkpt>
      <trkpt lat="47.3208" lon="-2.43887">
        <ele>28.799999237061</ele>
        <time>2020-10-18T09:29:47.000Z</time>
      </trkpt>
      <trkpt lat="47.32074" lon="-2.43879">
        <ele>28.39999961853</ele>
        <time>2020-10-18T09:29:48.000Z</time>
      </trkpt>
      <trkpt lat="47.32068" lon="-2.43871">
        <ele>28</ele>
        <time>2020-10-18T09:29:49.000Z</time>
      </trkpt>
      <trkpt lat="47.32063" lon="-2.43862">
        <ele>27.60000038147</ele>
        <time>2020-10-18T09:29:50.000Z</time>
      </trkpt>
      <trkpt lat="47.32058" lon="-2.43853">
        <ele>27.200000762939</ele>
        <time>2020-10-18T09:29:51.000Z</time>
      </trkpt>
      <trkpt lat="47.32054" lon="-2.43843">
        <ele>26.799999237061</ele>
        <time>2020-10-18T09:29:52.000Z</time>
      </trkpt>
      <trkpt lat="47.32042" lon="-2.43816">
        <ele>26.799999237061</ele>
        <time>2020-10-18T09:29:55.000Z</time>
      </trkpt>
      <trkpt lat="47.3203" lon="-2.438">
        <ele>26.39999961853</ele>
        <time>2020-10-18T09:29:58.000Z</time>
      </trkpt>
      <trkpt lat="47.32024" lon="-2.438">
        <ele>25.799999237061</ele>
        <time>2020-10-18T09:29:59.000Z</time>
      </trkpt>
      <trkpt lat="47.32018" lon="-2.43804">
        <ele>25.39999961853</ele>
        <time>2020-10-18T09:30:00.000Z</time>
      </trkpt>
      <trkpt lat="47.32012" lon="-2.43809">
        <ele>25</ele>
        <time>2020-10-18T09:30:01.000Z</time>
      </trkpt>
      <trkpt lat="47.32006" lon="-2.43815">
        <ele>24.39999961853</ele>
        <time>2020-10-18T09:30:02.000Z</time>
      </trkpt>
      <trkpt lat="47.32" lon="-2.43823">
        <ele>24</ele>
        <time>2020-10-18T09:30:03.000Z</time>
      </trkpt>
      <trkpt lat="47.31993" lon="-2.4383">
        <ele>23.39999961853</ele>
        <time>2020-10-18T09:30:04.000Z</time>
      </trkpt>
      <trkpt lat="47.31986" lon="-2.43834">
        <ele>22.799999237061</ele>
        <time>2020-10-18T09:30:05.000Z</time>
      </trkpt>
      <trkpt lat="47.3198" lon="-2.43834">
        <ele>21.39999961853</ele>
        <time>2020-10-18T09:30:06.000Z</time>
      </trkpt>
      <trkpt lat="47.31973" lon="-2.43832">
        <ele>20.799999237061</ele>
        <time>2020-10-18T09:30:07.000Z</time>
      </trkpt>
      <trkpt lat="47.31968" lon="-2.43826">
        <ele>20.200000762939</ele>
        <time>2020-10-18T09:30:08.000Z</time>
      </trkpt>
      <trkpt lat="47.31957" lon="-2.43812">
        <ele>20.200000762939</ele>
        <time>2020-10-18T09:30:10.000Z</time>
      </trkpt>
      <trkpt lat="47.31952" lon="-2.43803">
        <ele>20.200000762939</ele>
        <time>2020-10-18T09:30:11.000Z</time>
      </trkpt>
      <trkpt lat="47.31947" lon="-2.43794">
        <ele>19.799999237061</ele>
        <time>2020-10-18T09:30:12.000Z</time>
      </trkpt>
      <trkpt lat="47.31943" lon="-2.43784">
        <ele>19.39999961853</ele>
        <time>2020-10-18T09:30:13.000Z</time>
      </trkpt>
      <trkpt lat="47.31939" lon="-2.43773">
        <ele>18.799999237061</ele>
        <time>2020-10-18T09:30:14.000Z</time>
      </trkpt>
      <trkpt lat="47.31935" lon="-2.43762">
        <ele>18.39999961853</ele>
        <time>2020-10-18T09:30:15.000Z</time>
      </trkpt>
      <trkpt lat="47.31932" lon="-2.43751">
        <ele>18</ele>
        <time>2020-10-18T09:30:16.000Z</time>
      </trkpt>
      <trkpt lat="47.3192" lon="-2.43719">
        <ele>17.60000038147</ele>
        <time>2020-10-18T09:30:19.000Z</time>
      </trkpt>
      <trkpt lat="47.31916" lon="-2.43709">
        <ele>17.200000762939</ele>
        <time>2020-10-18T09:30:20.000Z</time>
      </trkpt>
      <trkpt lat="47.31912" lon="-2.43699">
        <ele>16.60000038147</ele>
        <time>2020-10-18T09:30:21.000Z</time>
      </trkpt>
      <trkpt lat="47.31908" lon="-2.4369">
        <ele>16.200000762939</ele>
        <time>2020-10-18T09:30:22.000Z</time>
      </trkpt>
      <trkpt lat="47.31904" lon="-2.43681">
        <ele>15.800000190735</ele>
        <time>2020-10-18T09:30:23.000Z</time>
      </trkpt>
      <trkpt lat="47.31896" lon="-2.43664">
        <ele>15.800000190735</ele>
        <time>2020-10-18T09:30:25.000Z</time>
      </trkpt>
      <trkpt lat="47.31892" lon="-2.43656">
        <ele>15.800000190735</ele>
        <time>2020-10-18T09:30:26.000Z</time>
      </trkpt>
      <trkpt lat="47.31888" lon="-2.43638">
        <ele>15.800000190735</ele>
        <time>2020-10-18T09:30:28.000Z</time>
      </trkpt>
      <trkpt lat="47.31895" lon="-2.43617">
        <ele>15.800000190735</ele>
        <time>2020-10-18T09:30:31.000Z</time>
      </trkpt>
      <trkpt lat="47.31903" lon="-2.43608">
        <ele>15.800000190735</ele>
        <time>2020-10-18T09:30:33.000Z</time>
      </trkpt>
      <trkpt lat="47.31917" lon="-2.43594">
        <ele>15.800000190735</ele>
        <time>2020-10-18T09:30:36.000Z</time>
      </trkpt>
      <trkpt lat="47.31921" lon="-2.43588">
        <ele>15.800000190735</ele>
        <time>2020-10-18T09:30:37.000Z</time>
      </trkpt>
      <trkpt lat="47.31926" lon="-2.43567">
        <ele>15.800000190735</ele>
        <time>2020-10-18T09:30:40.000Z</time>
      </trkpt>
      <trkpt lat="47.31926" lon="-2.4356">
        <ele>16.200000762939</ele>
        <time>2020-10-18T09:30:41.000Z</time>
      </trkpt>
      <trkpt lat="47.31926" lon="-2.43552">
        <ele>16.60000038147</ele>
        <time>2020-10-18T09:30:42.000Z</time>
      </trkpt>
      <trkpt lat="47.31926" lon="-2.43545">
        <ele>17</ele>
        <time>2020-10-18T09:30:43.000Z</time>
      </trkpt>
      <trkpt lat="47.31926" lon="-2.43538">
        <ele>17.39999961853</ele>
        <time>2020-10-18T09:30:44.000Z</time>
      </trkpt>
      <trkpt lat="47.31926" lon="-2.4353">
        <ele>18</ele>
        <time>2020-10-18T09:30:45.000Z</time>
      </trkpt>
      <trkpt lat="47.31925" lon="-2.43523">
        <ele>18.39999961853</ele>
        <time>2020-10-18T09:30:46.000Z</time>
      </trkpt>
      <trkpt lat="47.31925" lon="-2.43515">
        <ele>19</ele>
        <time>2020-10-18T09:30:47.000Z</time>
      </trkpt>
      <trkpt lat="47.31925" lon="-2.43506">
        <ele>19.60000038147</ele>
        <time>2020-10-18T09:30:48.000Z</time>
      </trkpt>
      <trkpt lat="47.31926" lon="-2.43498">
        <ele>20</ele>
        <time>2020-10-18T09:30:49.000Z</time>
      </trkpt>
      <trkpt lat="47.31929" lon="-2.43482">
        <ele>20</ele>
        <time>2020-10-18T09:30:51.000Z</time>
      </trkpt>
      <trkpt lat="47.31941" lon="-2.43438">
        <ele>20</ele>
        <time>2020-10-18T09:30:57.000Z</time>
      </trkpt>
      <trkpt lat="47.31947" lon="-2.43424">
        <ele>20.39999961853</ele>
        <time>2020-10-18T09:30:59.000Z</time>
      </trkpt>
      <trkpt lat="47.31949" lon="-2.43418">
        <ele>20.799999237061</ele>
        <time>2020-10-18T09:31:00.000Z</time>
      </trkpt>
      <trkpt lat="47.31952" lon="-2.43411">
        <ele>21.200000762939</ele>
        <time>2020-10-18T09:31:01.000Z</time>
      </trkpt>
      <trkpt lat="47.31954" lon="-2.43405">
        <ele>21.60000038147</ele>
        <time>2020-10-18T09:31:02.000Z</time>
      </trkpt>
      <trkpt lat="47.31956" lon="-2.43398">
        <ele>22</ele>
        <time>2020-10-18T09:31:03.000Z</time>
      </trkpt>
      <trkpt lat="47.3196" lon="-2.43385">
        <ele>22</ele>
        <time>2020-10-18T09:31:05.000Z</time>
      </trkpt>
      <trkpt lat="47.31964" lon="-2.43372">
        <ele>22</ele>
        <time>2020-10-18T09:31:07.000Z</time>
      </trkpt>
      <trkpt lat="47.31968" lon="-2.43359">
        <ele>22.39999961853</ele>
        <time>2020-10-18T09:31:09.000Z</time>
      </trkpt>
      <trkpt lat="47.31969" lon="-2.43352">
        <ele>22.799999237061</ele>
        <time>2020-10-18T09:31:10.000Z</time>
      </trkpt>
      <trkpt lat="47.3197" lon="-2.43346">
        <ele>23.200000762939</ele>
        <time>2020-10-18T09:31:11.000Z</time>
      </trkpt>
      <trkpt lat="47.31971" lon="-2.43339">
        <ele>23.60000038147</ele>
        <time>2020-10-18T09:31:12.000Z</time>
      </trkpt>
      <trkpt lat="47.31972" lon="-2.43333">
        <ele>24</ele>
        <time>2020-10-18T09:31:13.000Z</time>
      </trkpt>
      <trkpt lat="47.31974" lon="-2.43307">
        <ele>24</ele>
        <time>2020-10-18T09:31:17.000Z</time>
      </trkpt>
      <trkpt lat="47.31969" lon="-2.43291">
        <ele>24</ele>
        <time>2020-10-18T09:31:20.000Z</time>
      </trkpt>
      <trkpt lat="47.31954" lon="-2.4329">
        <ele>24</ele>
        <time>2020-10-18T09:31:23.000Z</time>
      </trkpt>
      <trkpt lat="47.31948" lon="-2.43293">
        <ele>24</ele>
        <time>2020-10-18T09:31:24.000Z</time>
      </trkpt>
      <trkpt lat="47.31919" lon="-2.43307">
        <ele>24</ele>
        <time>2020-10-18T09:31:28.000Z</time>
      </trkpt>
      <trkpt lat="47.31879" lon="-2.43334">
        <ele>23.60000038147</ele>
        <time>2020-10-18T09:31:33.000Z</time>
      </trkpt>
      <trkpt lat="47.3187" lon="-2.4334">
        <ele>23.200000762939</ele>
        <time>2020-10-18T09:31:34.000Z</time>
      </trkpt>
      <trkpt lat="47.31862" lon="-2.43347">
        <ele>22.799999237061</ele>
        <time>2020-10-18T09:31:35.000Z</time>
      </trkpt>
      <trkpt lat="47.31854" lon="-2.43353">
        <ele>22.39999961853</ele>
        <time>2020-10-18T09:31:36.000Z</time>
      </trkpt>
      <trkpt lat="47.31846" lon="-2.4336">
        <ele>21.799999237061</ele>
        <time>2020-10-18T09:31:37.000Z</time>
      </trkpt>
      <trkpt lat="47.31814" lon="-2.43384">
        <ele>21.39999961853</ele>
        <time>2020-10-18T09:31:41.000Z</time>
      </trkpt>
      <trkpt lat="47.31806" lon="-2.43389">
        <ele>21</ele>
        <time>2020-10-18T09:31:42.000Z</time>
      </trkpt>
      <trkpt lat="47.31798" lon="-2.43393">
        <ele>20.60000038147</ele>
        <time>2020-10-18T09:31:43.000Z</time>
      </trkpt>
      <trkpt lat="47.3179" lon="-2.43398">
        <ele>20.200000762939</ele>
        <time>2020-10-18T09:31:44.000Z</time>
      </trkpt>
      <trkpt lat="47.31782" lon="-2.43402">
        <ele>19.799999237061</ele>
        <time>2020-10-18T09:31:45.000Z</time>
      </trkpt>
      <trkpt lat="47.31749" lon="-2.4342">
        <ele>19.39999961853</ele>
        <time>2020-10-18T09:31:49.000Z</time>
      </trkpt>
      <trkpt lat="47.31741" lon="-2.43425">
        <ele>19</ele>
        <time>2020-10-18T09:31:50.000Z</time>
      </trkpt>
      <trkpt lat="47.31734" lon="-2.4343">
        <ele>18.60000038147</ele>
        <time>2020-10-18T09:31:51.000Z</time>
      </trkpt>
      <trkpt lat="47.31726" lon="-2.43436">
        <ele>18.200000762939</ele>
        <time>2020-10-18T09:31:52.000Z</time>
      </trkpt>
      <trkpt lat="47.31719" lon="-2.43443">
        <ele>17.799999237061</ele>
        <time>2020-10-18T09:31:53.000Z</time>
      </trkpt>
      <trkpt lat="47.31713" lon="-2.43451">
        <ele>17.39999961853</ele>
        <time>2020-10-18T09:31:54.000Z</time>
      </trkpt>
      <trkpt lat="47.31707" lon="-2.43461">
        <ele>17</ele>
        <time>2020-10-18T09:31:55.000Z</time>
      </trkpt>
      <trkpt lat="47.31701" lon="-2.43473">
        <ele>16.60000038147</ele>
        <time>2020-10-18T09:31:56.000Z</time>
      </trkpt>
      <trkpt lat="47.31697" lon="-2.43484">
        <ele>16.200000762939</ele>
        <time>2020-10-18T09:31:57.000Z</time>
      </trkpt>
      <trkpt lat="47.31692" lon="-2.43495">
        <ele>15.800000190735</ele>
        <time>2020-10-18T09:31:58.000Z</time>
      </trkpt>
      <trkpt lat="47.31663" lon="-2.43545">
        <ele>15.800000190735</ele>
        <time>2020-10-18T09:32:03.000Z</time>
      </trkpt>
      <trkpt lat="47.31628" lon="-2.43585">
        <ele>15.800000190735</ele>
        <time>2020-10-18T09:32:08.000Z</time>
      </trkpt>
      <trkpt lat="47.31589" lon="-2.43616">
        <ele>15.199999809265</ele>
        <time>2020-10-18T09:32:13.000Z</time>
      </trkpt>
      <trkpt lat="47.31581" lon="-2.43622">
        <ele>14.800000190735</ele>
        <time>2020-10-18T09:32:14.000Z</time>
      </trkpt>
      <trkpt lat="47.31573" lon="-2.43627">
        <ele>14.39999961853</ele>
        <time>2020-10-18T09:32:15.000Z</time>
      </trkpt>
      <trkpt lat="47.31566" lon="-2.43633">
        <ele>14</ele>
        <time>2020-10-18T09:32:16.000Z</time>
      </trkpt>
      <trkpt lat="47.31558" lon="-2.43639">
        <ele>13.60000038147</ele>
        <time>2020-10-18T09:32:17.000Z</time>
      </trkpt>
      <trkpt lat="47.31542" lon="-2.43652">
        <ele>13.60000038147</ele>
        <time>2020-10-18T09:32:19.000Z</time>
      </trkpt>
      <trkpt lat="47.31487" lon="-2.43694">
        <ele>13.60000038147</ele>
        <time>2020-10-18T09:32:26.000Z</time>
      </trkpt>
      <trkpt lat="47.31479" lon="-2.437">
        <ele>13.60000038147</ele>
        <time>2020-10-18T09:32:27.000Z</time>
      </trkpt>
      <trkpt lat="47.31447" lon="-2.43723">
        <ele>13.199999809265</ele>
        <time>2020-10-18T09:32:31.000Z</time>
      </trkpt>
      <trkpt lat="47.31439" lon="-2.43729">
        <ele>12.800000190735</ele>
        <time>2020-10-18T09:32:32.000Z</time>
      </trkpt>
      <trkpt lat="47.31431" lon="-2.43735">
        <ele>12.39999961853</ele>
        <time>2020-10-18T09:32:33.000Z</time>
      </trkpt>
      <trkpt lat="47.31423" lon="-2.43741">
        <ele>12</ele>
        <time>2020-10-18T09:32:34.000Z</time>
      </trkpt>
      <trkpt lat="47.31415" lon="-2.43746">
        <ele>11.60000038147</ele>
        <time>2020-10-18T09:32:35.000Z</time>
      </trkpt>
      <trkpt lat="47.31364" lon="-2.43785">
        <ele>11.60000038147</ele>
        <time>2020-10-18T09:32:42.000Z</time>
      </trkpt>
      <trkpt lat="47.31351" lon="-2.43796">
        <ele>11.199999809265</ele>
        <time>2020-10-18T09:32:44.000Z</time>
      </trkpt>
      <trkpt lat="47.31345" lon="-2.43801">
        <ele>10.800000190735</ele>
        <time>2020-10-18T09:32:45.000Z</time>
      </trkpt>
      <trkpt lat="47.3134" lon="-2.43805">
        <ele>10.39999961853</ele>
        <time>2020-10-18T09:32:46.000Z</time>
      </trkpt>
      <trkpt lat="47.31334" lon="-2.4381">
        <ele>10</ele>
        <time>2020-10-18T09:32:47.000Z</time>
      </trkpt>
      <trkpt lat="47.31329" lon="-2.43813">
        <ele>9.6000003814697</ele>
        <time>2020-10-18T09:32:48.000Z</time>
      </trkpt>
      <trkpt lat="47.31313" lon="-2.43817">
        <ele>9.6000003814697</ele>
        <time>2020-10-18T09:32:51.000Z</time>
      </trkpt>
      <trkpt lat="47.31307" lon="-2.43816">
        <ele>9.6000003814697</ele>
        <time>2020-10-18T09:32:52.000Z</time>
      </trkpt>
      <trkpt lat="47.31303" lon="-2.43814">
        <ele>9.6000003814697</ele>
        <time>2020-10-18T09:32:53.000Z</time>
      </trkpt>
      <trkpt lat="47.31296" lon="-2.43805">
        <ele>9.6000003814697</ele>
        <time>2020-10-18T09:32:55.000Z</time>
      </trkpt>
      <trkpt lat="47.3129" lon="-2.43793">
        <ele>9.6000003814697</ele>
        <time>2020-10-18T09:32:57.000Z</time>
      </trkpt>
      <trkpt lat="47.31279" lon="-2.43767">
        <ele>9.6000003814697</ele>
        <time>2020-10-18T09:33:01.000Z</time>
      </trkpt>
      <trkpt lat="47.31263" lon="-2.43725">
        <ele>9.6000003814697</ele>
        <time>2020-10-18T09:33:08.000Z</time>
      </trkpt>
      <trkpt lat="47.31251" lon="-2.43695">
        <ele>9.6000003814697</ele>
        <time>2020-10-18T09:33:14.000Z</time>
      </trkpt>
      <trkpt lat="47.31246" lon="-2.43678">
        <ele>9</ele>
        <time>2020-10-18T09:33:18.000Z</time>
      </trkpt>
      <trkpt lat="47.31244" lon="-2.43672">
        <ele>8.6000003814697</ele>
        <time>2020-10-18T09:33:19.000Z</time>
      </trkpt>
      <trkpt lat="47.31243" lon="-2.43667">
        <ele>8.1999998092651</ele>
        <time>2020-10-18T09:33:20.000Z</time>
      </trkpt>
      <trkpt lat="47.31242" lon="-2.43662">
        <ele>7.8000001907349</ele>
        <time>2020-10-18T09:33:21.000Z</time>
      </trkpt>
      <trkpt lat="47.31241" lon="-2.43655">
        <ele>7.4000000953674</ele>
        <time>2020-10-18T09:33:22.000Z</time>
      </trkpt>
      <trkpt lat="47.31234" lon="-2.43612">
        <ele>7.4000000953674</ele>
        <time>2020-10-18T09:33:28.000Z</time>
      </trkpt>
      <trkpt lat="47.31224" lon="-2.43544">
        <ele>7.4000000953674</ele>
        <time>2020-10-18T09:33:37.000Z</time>
      </trkpt>
      <trkpt lat="47.31217" lon="-2.43498">
        <ele>7.4000000953674</ele>
        <time>2020-10-18T09:33:43.000Z</time>
      </trkpt>
      <trkpt lat="47.31207" lon="-2.43428">
        <ele>7.4000000953674</ele>
        <time>2020-10-18T09:33:52.000Z</time>
      </trkpt>
      <trkpt lat="47.31198" lon="-2.43367">
        <ele>7.4000000953674</ele>
        <time>2020-10-18T09:33:59.000Z</time>
      </trkpt>
      <trkpt lat="47.31187" lon="-2.43318">
        <ele>7.4000000953674</ele>
        <time>2020-10-18T09:34:05.000Z</time>
      </trkpt>
      <trkpt lat="47.31168" lon="-2.43279">
        <ele>7.4000000953674</ele>
        <time>2020-10-18T09:34:11.000Z</time>
      </trkpt>
      <trkpt lat="47.31139" lon="-2.43235">
        <ele>7.4000000953674</ele>
        <time>2020-10-18T09:34:19.000Z</time>
      </trkpt>
      <trkpt lat="47.31114" lon="-2.43197">
        <ele>7.4000000953674</ele>
        <time>2020-10-18T09:34:26.000Z</time>
      </trkpt>
      <trkpt lat="47.3111" lon="-2.43194">
        <ele>7.4000000953674</ele>
        <time>2020-10-18T09:34:27.000Z</time>
      </trkpt>
      <trkpt lat="47.31093" lon="-2.43199">
        <ele>7.4000000953674</ele>
        <time>2020-10-18T09:34:30.000Z</time>
      </trkpt>
      <trkpt lat="47.31088" lon="-2.43202">
        <ele>7.4000000953674</ele>
        <time>2020-10-18T09:34:31.000Z</time>
      </trkpt>
      <trkpt lat="47.31082" lon="-2.43207">
        <ele>7.4000000953674</ele>
        <time>2020-10-18T09:34:32.000Z</time>
      </trkpt>
      <trkpt lat="47.31065" lon="-2.43223">
        <ele>7.4000000953674</ele>
        <time>2020-10-18T09:34:35.000Z</time>
      </trkpt>
      <trkpt lat="47.31038" lon="-2.43255">
        <ele>7.4000000953674</ele>
        <time>2020-10-18T09:34:40.000Z</time>
      </trkpt>
      <trkpt lat="47.31008" lon="-2.43295">
        <ele>7.4000000953674</ele>
        <time>2020-10-18T09:34:46.000Z</time>
      </trkpt>
      <trkpt lat="47.3099" lon="-2.4331">
        <ele>7.4000000953674</ele>
        <time>2020-10-18T09:34:49.000Z</time>
      </trkpt>
      <trkpt lat="47.30977" lon="-2.43317">
        <ele>7.4000000953674</ele>
        <time>2020-10-18T09:34:51.000Z</time>
      </trkpt>
      <trkpt lat="47.30924" lon="-2.43341">
        <ele>7.4000000953674</ele>
        <time>2020-10-18T09:34:59.000Z</time>
      </trkpt>
      <trkpt lat="47.30866" lon="-2.43365">
        <ele>7.4000000953674</ele>
        <time>2020-10-18T09:35:07.000Z</time>
      </trkpt>
      <trkpt lat="47.30815" lon="-2.43387">
        <ele>7.4000000953674</ele>
        <time>2020-10-18T09:35:14.000Z</time>
      </trkpt>
      <trkpt lat="47.30778" lon="-2.43391">
        <ele>7.4000000953674</ele>
        <time>2020-10-18T09:35:19.000Z</time>
      </trkpt>
      <trkpt lat="47.30737" lon="-2.43389">
        <ele>7.4000000953674</ele>
        <time>2020-10-18T09:35:25.000Z</time>
      </trkpt>
      <trkpt lat="47.3069" lon="-2.43394">
        <ele>7</ele>
        <time>2020-10-18T09:35:32.000Z</time>
      </trkpt>
      <trkpt lat="47.30684" lon="-2.43395">
        <ele>6.5999999046326</ele>
        <time>2020-10-18T09:35:33.000Z</time>
      </trkpt>
      <trkpt lat="47.30677" lon="-2.43396">
        <ele>6.1999998092651</ele>
        <time>2020-10-18T09:35:34.000Z</time>
      </trkpt>
      <trkpt lat="47.30671" lon="-2.43397">
        <ele>5.8000001907349</ele>
        <time>2020-10-18T09:35:35.000Z</time>
      </trkpt>
      <trkpt lat="47.30664" lon="-2.43399">
        <ele>5.4000000953674</ele>
        <time>2020-10-18T09:35:36.000Z</time>
      </trkpt>
      <trkpt lat="47.30651" lon="-2.43401">
        <ele>5.4000000953674</ele>
        <time>2020-10-18T09:35:38.000Z</time>
      </trkpt>
      <trkpt lat="47.30613" lon="-2.4341">
        <ele>5.4000000953674</ele>
        <time>2020-10-18T09:35:44.000Z</time>
      </trkpt>
      <trkpt lat="47.30579" lon="-2.43418">
        <ele>5.4000000953674</ele>
        <time>2020-10-18T09:35:50.000Z</time>
      </trkpt>
      <trkpt lat="47.30562" lon="-2.4342">
        <ele>5.4000000953674</ele>
        <time>2020-10-18T09:35:53.000Z</time>
      </trkpt>
      <trkpt lat="47.30545" lon="-2.43418">
        <ele>5.4000000953674</ele>
        <time>2020-10-18T09:35:56.000Z</time>
      </trkpt>
      <trkpt lat="47.30501" lon="-2.43413">
        <ele>5.4000000953674</ele>
        <time>2020-10-18T09:36:03.000Z</time>
      </trkpt>
      <trkpt lat="47.30476" lon="-2.4341">
        <ele>5.4000000953674</ele>
        <time>2020-10-18T09:36:07.000Z</time>
      </trkpt>
      <trkpt lat="47.30463" lon="-2.43413">
        <ele>5.4000000953674</ele>
        <time>2020-10-18T09:36:09.000Z</time>
      </trkpt>
      <trkpt lat="47.3044" lon="-2.43419">
        <ele>5.4000000953674</ele>
        <time>2020-10-18T09:36:13.000Z</time>
      </trkpt>
      <trkpt lat="47.30427" lon="-2.43401">
        <ele>5.4000000953674</ele>
        <time>2020-10-18T09:36:16.000Z</time>
      </trkpt>
      <trkpt lat="47.30423" lon="-2.43384">
        <ele>5.4000000953674</ele>
        <time>2020-10-18T09:36:18.000Z</time>
      </trkpt>
      <trkpt lat="47.30417" lon="-2.43357">
        <ele>5.4000000953674</ele>
        <time>2020-10-18T09:36:21.000Z</time>
      </trkpt>
      <trkpt lat="47.30416" lon="-2.43348">
        <ele>5.4000000953674</ele>
        <time>2020-10-18T09:36:22.000Z</time>
      </trkpt>
      <trkpt lat="47.30401" lon="-2.43284">
        <ele>5.4000000953674</ele>
        <time>2020-10-18T09:36:29.000Z</time>
      </trkpt>
      <trkpt lat="47.30394" lon="-2.43258">
        <ele>5.4000000953674</ele>
        <time>2020-10-18T09:36:32.000Z</time>
      </trkpt>
      <trkpt lat="47.30386" lon="-2.43244">
        <ele>5.4000000953674</ele>
        <time>2020-10-18T09:36:34.000Z</time>
      </trkpt>
      <trkpt lat="47.3037" lon="-2.43235">
        <ele>5.4000000953674</ele>
        <time>2020-10-18T09:36:37.000Z</time>
      </trkpt>
      <trkpt lat="47.30357" lon="-2.43238">
        <ele>5.4000000953674</ele>
        <time>2020-10-18T09:36:39.000Z</time>
      </trkpt>
      <trkpt lat="47.30337" lon="-2.43243">
        <ele>5.4000000953674</ele>
        <time>2020-10-18T09:36:42.000Z</time>
      </trkpt>
      <trkpt lat="47.3029" lon="-2.43254">
        <ele>5.4000000953674</ele>
        <time>2020-10-18T09:36:49.000Z</time>
      </trkpt>
      <trkpt lat="47.30251" lon="-2.43267">
        <ele>5.4000000953674</ele>
        <time>2020-10-18T09:36:55.000Z</time>
      </trkpt>
      <trkpt lat="47.30244" lon="-2.4327">
        <ele>5.4000000953674</ele>
        <time>2020-10-18T09:36:56.000Z</time>
      </trkpt>
      <trkpt lat="47.30213" lon="-2.43285">
        <ele>5.4000000953674</ele>
        <time>2020-10-18T09:37:01.000Z</time>
      </trkpt>
      <trkpt lat="47.30182" lon="-2.43299">
        <ele>5.4000000953674</ele>
        <time>2020-10-18T09:37:06.000Z</time>
      </trkpt>
      <trkpt lat="47.30169" lon="-2.43305">
        <ele>5.4000000953674</ele>
        <time>2020-10-18T09:37:08.000Z</time>
      </trkpt>
      <trkpt lat="47.30122" lon="-2.43319">
        <ele>5.4000000953674</ele>
        <time>2020-10-18T09:37:15.000Z</time>
      </trkpt>
      <trkpt lat="47.30077" lon="-2.4333">
        <ele>5.4000000953674</ele>
        <time>2020-10-18T09:37:22.000Z</time>
      </trkpt>
      <trkpt lat="47.30031" lon="-2.43335">
        <ele>5.4000000953674</ele>
        <time>2020-10-18T09:37:29.000Z</time>
      </trkpt>
      <trkpt lat="47.30025" lon="-2.43334">
        <ele>5.4000000953674</ele>
        <time>2020-10-18T09:37:30.000Z</time>
      </trkpt>
      <trkpt lat="47.30006" lon="-2.43324">
        <ele>5.4000000953674</ele>
        <time>2020-10-18T09:37:33.000Z</time>
      </trkpt>
      <trkpt lat="47.29994" lon="-2.43314">
        <ele>5.4000000953674</ele>
        <time>2020-10-18T09:37:35.000Z</time>
      </trkpt>
      <trkpt lat="47.29977" lon="-2.43299">
        <ele>5.4000000953674</ele>
        <time>2020-10-18T09:37:38.000Z</time>
      </trkpt>
      <trkpt lat="47.29958" lon="-2.43296">
        <ele>5.4000000953674</ele>
        <time>2020-10-18T09:37:41.000Z</time>
      </trkpt>
      <trkpt lat="47.29946" lon="-2.43299">
        <ele>5.4000000953674</ele>
        <time>2020-10-18T09:37:43.000Z</time>
      </trkpt>
      <trkpt lat="47.29941" lon="-2.43302">
        <ele>5.4000000953674</ele>
        <time>2020-10-18T09:37:44.000Z</time>
      </trkpt>
      <trkpt lat="47.2993" lon="-2.43307">
        <ele>5.4000000953674</ele>
        <time>2020-10-18T09:37:46.000Z</time>
      </trkpt>
      <trkpt lat="47.29893" lon="-2.43319">
        <ele>5.4000000953674</ele>
        <time>2020-10-18T09:37:53.000Z</time>
      </trkpt>
      <trkpt lat="47.29865" lon="-2.43341">
        <ele>5.4000000953674</ele>
        <time>2020-10-18T09:37:59.000Z</time>
      </trkpt>
      <trkpt lat="47.2984" lon="-2.43368">
        <ele>5.4000000953674</ele>
        <time>2020-10-18T09:38:04.000Z</time>
      </trkpt>
      <trkpt lat="47.29795" lon="-2.43419">
        <ele>5.4000000953674</ele>
        <time>2020-10-18T09:38:12.000Z</time>
      </trkpt>
      <trkpt lat="47.29759" lon="-2.43456">
        <ele>5.8000001907349</ele>
        <time>2020-10-18T09:38:18.000Z</time>
      </trkpt>
      <trkpt lat="47.29753" lon="-2.43462">
        <ele>6.1999998092651</ele>
        <time>2020-10-18T09:38:19.000Z</time>
      </trkpt>
      <trkpt lat="47.29747" lon="-2.43468">
        <ele>6.5999999046326</ele>
        <time>2020-10-18T09:38:20.000Z</time>
      </trkpt>
      <trkpt lat="47.29741" lon="-2.43473">
        <ele>7.5999999046326</ele>
        <time>2020-10-18T09:38:21.000Z</time>
      </trkpt>
      <trkpt lat="47.29704" lon="-2.43502">
        <ele>7.5999999046326</ele>
        <time>2020-10-18T09:38:27.000Z</time>
      </trkpt>
      <trkpt lat="47.29666" lon="-2.4353">
        <ele>7.5999999046326</ele>
        <time>2020-10-18T09:38:34.000Z</time>
      </trkpt>
      <trkpt lat="47.29655" lon="-2.43535">
        <ele>7.5999999046326</ele>
        <time>2020-10-18T09:38:36.000Z</time>
      </trkpt>
      <trkpt lat="47.29636" lon="-2.43552">
        <ele>7.5999999046326</ele>
        <time>2020-10-18T09:38:40.000Z</time>
      </trkpt>
      <trkpt lat="47.29627" lon="-2.43552">
        <ele>7.5999999046326</ele>
        <time>2020-10-18T09:38:42.000Z</time>
      </trkpt>
      <trkpt lat="47.29622" lon="-2.43541">
        <ele>7.5999999046326</ele>
        <time>2020-10-18T09:38:44.000Z</time>
      </trkpt>
      <trkpt lat="47.29624" lon="-2.43525">
        <ele>7.5999999046326</ele>
        <time>2020-10-18T09:38:46.000Z</time>
      </trkpt>
      <trkpt lat="47.29624" lon="-2.43516">
        <ele>7.5999999046326</ele>
        <time>2020-10-18T09:38:47.000Z</time>
      </trkpt>
      <trkpt lat="47.29615" lon="-2.43495">
        <ele>7.5999999046326</ele>
        <time>2020-10-18T09:38:50.000Z</time>
      </trkpt>
      <trkpt lat="47.29597" lon="-2.43495">
        <ele>7.5999999046326</ele>
        <time>2020-10-18T09:38:53.000Z</time>
      </trkpt>
      <trkpt lat="47.29554" lon="-2.43494">
        <ele>7.5999999046326</ele>
        <time>2020-10-18T09:38:59.000Z</time>
      </trkpt>
      <trkpt lat="47.29506" lon="-2.43483">
        <ele>7.5999999046326</ele>
        <time>2020-10-18T09:39:06.000Z</time>
      </trkpt>
      <trkpt lat="47.29478" lon="-2.43468">
        <ele>7.5999999046326</ele>
        <time>2020-10-18T09:39:11.000Z</time>
      </trkpt>
      <trkpt lat="47.29468" lon="-2.43464">
        <ele>7.5999999046326</ele>
        <time>2020-10-18T09:39:13.000Z</time>
      </trkpt>
      <trkpt lat="47.29459" lon="-2.43464">
        <ele>7.5999999046326</ele>
        <time>2020-10-18T09:39:15.000Z</time>
      </trkpt>
      <trkpt lat="47.29452" lon="-2.43464">
        <ele>7.5999999046326</ele>
        <time>2020-10-18T09:39:17.000Z</time>
      </trkpt>
      <trkpt lat="47.29445" lon="-2.43455">
        <ele>7.5999999046326</ele>
        <time>2020-10-18T09:39:19.000Z</time>
      </trkpt>
      <trkpt lat="47.29437" lon="-2.43435">
        <ele>7.5999999046326</ele>
        <time>2020-10-18T09:39:23.000Z</time>
      </trkpt>
      <trkpt lat="47.29435" lon="-2.43422">
        <ele>7.5999999046326</ele>
        <time>2020-10-18T09:39:25.000Z</time>
      </trkpt>
      <trkpt lat="47.29434" lon="-2.43408">
        <ele>7.1999998092651</ele>
        <time>2020-10-18T09:39:27.000Z</time>
      </trkpt>
      <trkpt lat="47.29432" lon="-2.43402">
        <ele>6.8000001907349</ele>
        <time>2020-10-18T09:39:28.000Z</time>
      </trkpt>
      <trkpt lat="47.2943" lon="-2.43396">
        <ele>6.4000000953674</ele>
        <time>2020-10-18T09:39:29.000Z</time>
      </trkpt>
      <trkpt lat="47.29427" lon="-2.43392">
        <ele>6</ele>
        <time>2020-10-18T09:39:30.000Z</time>
      </trkpt>
      <trkpt lat="47.29423" lon="-2.4339">
        <ele>5.5999999046326</ele>
        <time>2020-10-18T09:39:31.000Z</time>
      </trkpt>
      <trkpt lat="47.29419" lon="-2.43389">
        <ele>5.5999999046326</ele>
        <time>2020-10-18T09:39:32.000Z</time>
      </trkpt>
      <trkpt lat="47.2941" lon="-2.43382">
        <ele>5.5999999046326</ele>
        <time>2020-10-18T09:39:35.000Z</time>
      </trkpt>
      <trkpt lat="47.29408" lon="-2.4336">
        <ele>5.5999999046326</ele>
        <time>2020-10-18T09:39:39.000Z</time>
      </trkpt>
      <trkpt lat="47.29395" lon="-2.43338">
        <ele>5.5999999046326</ele>
        <time>2020-10-18T09:39:43.000Z</time>
      </trkpt>
      <trkpt lat="47.29365" lon="-2.43293">
        <ele>5.5999999046326</ele>
        <time>2020-10-18T09:39:51.000Z</time>
      </trkpt>
      <trkpt lat="47.29362" lon="-2.43271">
        <ele>5.5999999046326</ele>
        <time>2020-10-18T09:39:54.000Z</time>
      </trkpt>
      <trkpt lat="47.29362" lon="-2.43249">
        <ele>5.5999999046326</ele>
        <time>2020-10-18T09:39:57.000Z</time>
      </trkpt>
      <trkpt lat="47.29365" lon="-2.43235">
        <ele>5.5999999046326</ele>
        <time>2020-10-18T09:39:59.000Z</time>
      </trkpt>
      <trkpt lat="47.29374" lon="-2.43217">
        <ele>5.5999999046326</ele>
        <time>2020-10-18T09:40:02.000Z</time>
      </trkpt>
      <trkpt lat="47.29375" lon="-2.43193">
        <ele>5.5999999046326</ele>
        <time>2020-10-18T09:40:05.000Z</time>
      </trkpt>
      <trkpt lat="47.29373" lon="-2.43176">
        <ele>5.5999999046326</ele>
        <time>2020-10-18T09:40:07.000Z</time>
      </trkpt>
      <trkpt lat="47.29367" lon="-2.4315">
        <ele>5.5999999046326</ele>
        <time>2020-10-18T09:40:10.000Z</time>
      </trkpt>
      <trkpt lat="47.29358" lon="-2.43126">
        <ele>5.5999999046326</ele>
        <time>2020-10-18T09:40:13.000Z</time>
      </trkpt>
      <trkpt lat="47.29351" lon="-2.43111">
        <ele>5.5999999046326</ele>
        <time>2020-10-18T09:40:15.000Z</time>
      </trkpt>
      <trkpt lat="47.2934" lon="-2.4309">
        <ele>5.5999999046326</ele>
        <time>2020-10-18T09:40:18.000Z</time>
      </trkpt>
      <trkpt lat="47.29329" lon="-2.43081">
        <ele>5.5999999046326</ele>
        <time>2020-10-18T09:40:20.000Z</time>
      </trkpt>
      <trkpt lat="47.29319" lon="-2.43075">
        <ele>5.5999999046326</ele>
        <time>2020-10-18T09:40:22.000Z</time>
      </trkpt>
      <trkpt lat="47.2931" lon="-2.43068">
        <ele>5.5999999046326</ele>
        <time>2020-10-18T09:40:24.000Z</time>
      </trkpt>
      <trkpt lat="47.29307" lon="-2.43062">
        <ele>5.5999999046326</ele>
        <time>2020-10-18T09:40:25.000Z</time>
      </trkpt>
      <trkpt lat="47.29304" lon="-2.43038">
        <ele>5.5999999046326</ele>
        <time>2020-10-18T09:40:28.000Z</time>
      </trkpt>
      <trkpt lat="47.29308" lon="-2.43012">
        <ele>5.5999999046326</ele>
        <time>2020-10-18T09:40:31.000Z</time>
      </trkpt>
      <trkpt lat="47.2931" lon="-2.43003">
        <ele>5.5999999046326</ele>
        <time>2020-10-18T09:40:32.000Z</time>
      </trkpt>
      <trkpt lat="47.29313" lon="-2.42967">
        <ele>5.5999999046326</ele>
        <time>2020-10-18T09:40:36.000Z</time>
      </trkpt>
      <trkpt lat="47.29313" lon="-2.42957">
        <ele>5.5999999046326</ele>
        <time>2020-10-18T09:40:37.000Z</time>
      </trkpt>
      <trkpt lat="47.29313" lon="-2.4293">
        <ele>5.5999999046326</ele>
        <time>2020-10-18T09:40:40.000Z</time>
      </trkpt>
      <trkpt lat="47.29316" lon="-2.42911">
        <ele>5.5999999046326</ele>
        <time>2020-10-18T09:40:42.000Z</time>
      </trkpt>
      <trkpt lat="47.29331" lon="-2.42858">
        <ele>5.5999999046326</ele>
        <time>2020-10-18T09:40:48.000Z</time>
      </trkpt>
      <trkpt lat="47.29334" lon="-2.4285">
        <ele>5.5999999046326</ele>
        <time>2020-10-18T09:40:49.000Z</time>
      </trkpt>
      <trkpt lat="47.29355" lon="-2.42816">
        <ele>5.5999999046326</ele>
        <time>2020-10-18T09:40:54.000Z</time>
      </trkpt>
      <trkpt lat="47.29359" lon="-2.42812">
        <ele>5.5999999046326</ele>
        <time>2020-10-18T09:40:55.000Z</time>
      </trkpt>
      <trkpt lat="47.29367" lon="-2.42805">
        <ele>5.5999999046326</ele>
        <time>2020-10-18T09:40:57.000Z</time>
      </trkpt>
      <trkpt lat="47.29373" lon="-2.42799">
        <ele>5.5999999046326</ele>
        <time>2020-10-18T09:40:59.000Z</time>
      </trkpt>
      <trkpt lat="47.29379" lon="-2.4278">
        <ele>5.5999999046326</ele>
        <time>2020-10-18T09:41:03.000Z</time>
      </trkpt>
      <trkpt lat="47.29386" lon="-2.4275">
        <ele>5.5999999046326</ele>
        <time>2020-10-18T09:41:08.000Z</time>
      </trkpt>
      <trkpt lat="47.29388" lon="-2.42744">
        <ele>5.5999999046326</ele>
        <time>2020-10-18T09:41:09.000Z</time>
      </trkpt>
      <trkpt lat="47.29408" lon="-2.42694">
        <ele>5.5999999046326</ele>
        <time>2020-10-18T09:41:17.000Z</time>
      </trkpt>
      <trkpt lat="47.29416" lon="-2.42675">
        <ele>5.5999999046326</ele>
        <time>2020-10-18T09:41:20.000Z</time>
      </trkpt>
      <trkpt lat="47.29417" lon="-2.42659">
        <ele>5.5999999046326</ele>
        <time>2020-10-18T09:41:22.000Z</time>
      </trkpt>
      <trkpt lat="47.2942" lon="-2.42614">
        <ele>5.5999999046326</ele>
        <time>2020-10-18T09:41:28.000Z</time>
      </trkpt>
      <trkpt lat="47.29422" lon="-2.42593">
        <ele>5.5999999046326</ele>
        <time>2020-10-18T09:41:31.000Z</time>
      </trkpt>
      <trkpt lat="47.29426" lon="-2.42582">
        <ele>5.5999999046326</ele>
        <time>2020-10-18T09:41:33.000Z</time>
      </trkpt>
      <trkpt lat="47.29429" lon="-2.42576">
        <ele>5.5999999046326</ele>
        <time>2020-10-18T09:41:34.000Z</time>
      </trkpt>
      <trkpt lat="47.29436" lon="-2.42568">
        <ele>5.5999999046326</ele>
        <time>2020-10-18T09:41:36.000Z</time>
      </trkpt>
      <trkpt lat="47.29444" lon="-2.42558">
        <ele>5.5999999046326</ele>
        <time>2020-10-18T09:41:38.000Z</time>
      </trkpt>
      <trkpt lat="47.29456" lon="-2.42546">
        <ele>5.5999999046326</ele>
        <time>2020-10-18T09:41:41.000Z</time>
      </trkpt>
      <trkpt lat="47.29465" lon="-2.42539">
        <ele>5.5999999046326</ele>
        <time>2020-10-18T09:41:43.000Z</time>
      </trkpt>
      <trkpt lat="47.29485" lon="-2.42516">
        <ele>5.5999999046326</ele>
        <time>2020-10-18T09:41:48.000Z</time>
      </trkpt>
      <trkpt lat="47.2949" lon="-2.42511">
        <ele>5.5999999046326</ele>
        <time>2020-10-18T09:41:49.000Z</time>
      </trkpt>
      <trkpt lat="47.29512" lon="-2.42486">
        <ele>5.5999999046326</ele>
        <time>2020-10-18T09:41:54.000Z</time>
      </trkpt>
      <trkpt lat="47.29517" lon="-2.42482">
        <ele>5.5999999046326</ele>
        <time>2020-10-18T09:41:55.000Z</time>
      </trkpt>
      <trkpt lat="47.29527" lon="-2.42475">
        <ele>5.5999999046326</ele>
        <time>2020-10-18T09:41:57.000Z</time>
      </trkpt>
      <trkpt lat="47.2954" lon="-2.42459">
        <ele>5.5999999046326</ele>
        <time>2020-10-18T09:42:00.000Z</time>
      </trkpt>
      <trkpt lat="47.29547" lon="-2.42446">
        <ele>5.5999999046326</ele>
        <time>2020-10-18T09:42:02.000Z</time>
      </trkpt>
      <trkpt lat="47.2955" lon="-2.42439">
        <ele>5.5999999046326</ele>
        <time>2020-10-18T09:42:03.000Z</time>
      </trkpt>
      <trkpt lat="47.29559" lon="-2.42431">
        <ele>5.5999999046326</ele>
        <time>2020-10-18T09:42:05.000Z</time>
      </trkpt>
      <trkpt lat="47.29568" lon="-2.42425">
        <ele>5.5999999046326</ele>
        <time>2020-10-18T09:42:07.000Z</time>
      </trkpt>
      <trkpt lat="47.29578" lon="-2.42424">
        <ele>5.5999999046326</ele>
        <time>2020-10-18T09:42:09.000Z</time>
      </trkpt>
      <trkpt lat="47.29592" lon="-2.42426">
        <ele>5.5999999046326</ele>
        <time>2020-10-18T09:42:12.000Z</time>
      </trkpt>
      <trkpt lat="47.29604" lon="-2.42431">
        <ele>5.5999999046326</ele>
        <time>2020-10-18T09:42:15.000Z</time>
      </trkpt>
      <trkpt lat="47.29623" lon="-2.42436">
        <ele>5.5999999046326</ele>
        <time>2020-10-18T09:42:21.000Z</time>
      </trkpt>
      <trkpt lat="47.29628" lon="-2.42422">
        <ele>5.5999999046326</ele>
        <time>2020-10-18T09:42:24.000Z</time>
      </trkpt>
      <trkpt lat="47.29629" lon="-2.42408">
        <ele>5.5999999046326</ele>
        <time>2020-10-18T09:42:26.000Z</time>
      </trkpt>
      <trkpt lat="47.29632" lon="-2.42394">
        <ele>5.5999999046326</ele>
        <time>2020-10-18T09:42:28.000Z</time>
      </trkpt>
      <trkpt lat="47.29633" lon="-2.42387">
        <ele>5.5999999046326</ele>
        <time>2020-10-18T09:42:29.000Z</time>
      </trkpt>
      <trkpt lat="47.29647" lon="-2.4233">
        <ele>5.5999999046326</ele>
        <time>2020-10-18T09:42:37.000Z</time>
      </trkpt>
      <trkpt lat="47.29648" lon="-2.42323">
        <ele>5.5999999046326</ele>
        <time>2020-10-18T09:42:38.000Z</time>
      </trkpt>
      <trkpt lat="47.29655" lon="-2.42292">
        <ele>5.5999999046326</ele>
        <time>2020-10-18T09:42:42.000Z</time>
      </trkpt>
      <trkpt lat="47.29666" lon="-2.42246">
        <ele>5.5999999046326</ele>
        <time>2020-10-18T09:42:48.000Z</time>
      </trkpt>
      <trkpt lat="47.2967" lon="-2.42232">
        <ele>5.5999999046326</ele>
        <time>2020-10-18T09:42:50.000Z</time>
      </trkpt>
      <trkpt lat="47.29682" lon="-2.42205">
        <ele>5.5999999046326</ele>
        <time>2020-10-18T09:42:54.000Z</time>
      </trkpt>
      <trkpt lat="47.29712" lon="-2.42153">
        <ele>5.5999999046326</ele>
        <time>2020-10-18T09:43:02.000Z</time>
      </trkpt>
      <trkpt lat="47.29747" lon="-2.42089">
        <ele>5.5999999046326</ele>
        <time>2020-10-18T09:43:11.000Z</time>
      </trkpt>
      <trkpt lat="47.29781" lon="-2.42031">
        <ele>5.5999999046326</ele>
        <time>2020-10-18T09:43:19.000Z</time>
      </trkpt>
      <trkpt lat="47.29784" lon="-2.42023">
        <ele>5.5999999046326</ele>
        <time>2020-10-18T09:43:20.000Z</time>
      </trkpt>
      <trkpt lat="47.29788" lon="-2.41997">
        <ele>5.5999999046326</ele>
        <time>2020-10-18T09:43:23.000Z</time>
      </trkpt>
      <trkpt lat="47.29784" lon="-2.41972">
        <ele>5.5999999046326</ele>
        <time>2020-10-18T09:43:26.000Z</time>
      </trkpt>
      <trkpt lat="47.29782" lon="-2.41964">
        <ele>5.5999999046326</ele>
        <time>2020-10-18T09:43:27.000Z</time>
      </trkpt>
      <trkpt lat="47.29769" lon="-2.41899">
        <ele>5.5999999046326</ele>
        <time>2020-10-18T09:43:36.000Z</time>
      </trkpt>
      <trkpt lat="47.29767" lon="-2.41846">
        <ele>5.5999999046326</ele>
        <time>2020-10-18T09:43:43.000Z</time>
      </trkpt>
      <trkpt lat="47.29768" lon="-2.41839">
        <ele>5.5999999046326</ele>
        <time>2020-10-18T09:43:44.000Z</time>
      </trkpt>
      <trkpt lat="47.2977" lon="-2.41793">
        <ele>5.5999999046326</ele>
        <time>2020-10-18T09:43:50.000Z</time>
      </trkpt>
      <trkpt lat="47.29769" lon="-2.41762">
        <ele>5.5999999046326</ele>
        <time>2020-10-18T09:43:54.000Z</time>
      </trkpt>
      <trkpt lat="47.29765" lon="-2.41749">
        <ele>5.5999999046326</ele>
        <time>2020-10-18T09:43:56.000Z</time>
      </trkpt>
      <trkpt lat="47.29751" lon="-2.41745">
        <ele>5.5999999046326</ele>
        <time>2020-10-18T09:43:59.000Z</time>
      </trkpt>
      <trkpt lat="47.29736" lon="-2.41757">
        <ele>5.5999999046326</ele>
        <time>2020-10-18T09:44:02.000Z</time>
      </trkpt>
      <trkpt lat="47.29731" lon="-2.41762">
        <ele>5.5999999046326</ele>
        <time>2020-10-18T09:44:03.000Z</time>
      </trkpt>
      <trkpt lat="47.29727" lon="-2.41768">
        <ele>5.5999999046326</ele>
        <time>2020-10-18T09:44:04.000Z</time>
      </trkpt>
      <trkpt lat="47.2971" lon="-2.41795">
        <ele>5.5999999046326</ele>
        <time>2020-10-18T09:44:08.000Z</time>
      </trkpt>
      <trkpt lat="47.29697" lon="-2.41815">
        <ele>5.5999999046326</ele>
        <time>2020-10-18T09:44:11.000Z</time>
      </trkpt>
      <trkpt lat="47.29686" lon="-2.41819">
        <ele>5.5999999046326</ele>
        <time>2020-10-18T09:44:13.000Z</time>
      </trkpt>
      <trkpt lat="47.29674" lon="-2.41821">
        <ele>5.5999999046326</ele>
        <time>2020-10-18T09:44:15.000Z</time>
      </trkpt>
      <trkpt lat="47.29669" lon="-2.41822">
        <ele>5.5999999046326</ele>
        <time>2020-10-18T09:44:16.000Z</time>
      </trkpt>
      <trkpt lat="47.29658" lon="-2.41826">
        <ele>5.5999999046326</ele>
        <time>2020-10-18T09:44:18.000Z</time>
      </trkpt>
      <trkpt lat="47.29639" lon="-2.41818">
        <ele>5.5999999046326</ele>
        <time>2020-10-18T09:44:22.000Z</time>
      </trkpt>
      <trkpt lat="47.29635" lon="-2.41795">
        <ele>5.5999999046326</ele>
        <time>2020-10-18T09:44:25.000Z</time>
      </trkpt>
      <trkpt lat="47.29631" lon="-2.41771">
        <ele>5.5999999046326</ele>
        <time>2020-10-18T09:44:28.000Z</time>
      </trkpt>
      <trkpt lat="47.29622" lon="-2.41757">
        <ele>6</ele>
        <time>2020-10-18T09:44:30.000Z</time>
      </trkpt>
      <trkpt lat="47.29617" lon="-2.4175">
        <ele>6.8000001907349</ele>
        <time>2020-10-18T09:44:31.000Z</time>
      </trkpt>
      <trkpt lat="47.29613" lon="-2.41744">
        <ele>7.4000000953674</ele>
        <time>2020-10-18T09:44:32.000Z</time>
      </trkpt>
      <trkpt lat="47.29608" lon="-2.41739">
        <ele>7.8000001907349</ele>
        <time>2020-10-18T09:44:33.000Z</time>
      </trkpt>
      <trkpt lat="47.29593" lon="-2.41725">
        <ele>7.8000001907349</ele>
        <time>2020-10-18T09:44:36.000Z</time>
      </trkpt>
      <trkpt lat="47.29588" lon="-2.4172">
        <ele>7.8000001907349</ele>
        <time>2020-10-18T09:44:37.000Z</time>
      </trkpt>
      <trkpt lat="47.29578" lon="-2.41713">
        <ele>7.8000001907349</ele>
        <time>2020-10-18T09:44:39.000Z</time>
      </trkpt>
      <trkpt lat="47.29562" lon="-2.41707">
        <ele>7.8000001907349</ele>
        <time>2020-10-18T09:44:42.000Z</time>
      </trkpt>
      <trkpt lat="47.29558" lon="-2.41704">
        <ele>7.8000001907349</ele>
        <time>2020-10-18T09:44:43.000Z</time>
      </trkpt>
      <trkpt lat="47.29554" lon="-2.417">
        <ele>7.8000001907349</ele>
        <time>2020-10-18T09:44:44.000Z</time>
      </trkpt>
      <trkpt lat="47.29547" lon="-2.41689">
        <ele>7.8000001907349</ele>
        <time>2020-10-18T09:44:46.000Z</time>
      </trkpt>
      <trkpt lat="47.29541" lon="-2.41676">
        <ele>7.8000001907349</ele>
        <time>2020-10-18T09:44:48.000Z</time>
      </trkpt>
      <trkpt lat="47.29533" lon="-2.41655">
        <ele>7.8000001907349</ele>
        <time>2020-10-18T09:44:51.000Z</time>
      </trkpt>
      <trkpt lat="47.29531" lon="-2.41647">
        <ele>7.8000001907349</ele>
        <time>2020-10-18T09:44:52.000Z</time>
      </trkpt>
      <trkpt lat="47.29526" lon="-2.41606">
        <ele>7.8000001907349</ele>
        <time>2020-10-18T09:44:57.000Z</time>
      </trkpt>
      <trkpt lat="47.29526" lon="-2.41597">
        <ele>7.8000001907349</ele>
        <time>2020-10-18T09:44:58.000Z</time>
      </trkpt>
      <trkpt lat="47.29532" lon="-2.41571">
        <ele>7.8000001907349</ele>
        <time>2020-10-18T09:45:01.000Z</time>
      </trkpt>
      <trkpt lat="47.29534" lon="-2.41563">
        <ele>7.8000001907349</ele>
        <time>2020-10-18T09:45:02.000Z</time>
      </trkpt>
      <trkpt lat="47.29541" lon="-2.41539">
        <ele>7.8000001907349</ele>
        <time>2020-10-18T09:45:05.000Z</time>
      </trkpt>
      <trkpt lat="47.2954" lon="-2.41523">
        <ele>7.8000001907349</ele>
        <time>2020-10-18T09:45:07.000Z</time>
      </trkpt>
      <trkpt lat="47.29532" lon="-2.41501">
        <ele>7.8000001907349</ele>
        <time>2020-10-18T09:45:10.000Z</time>
      </trkpt>
      <trkpt lat="47.29529" lon="-2.41495">
        <ele>7.8000001907349</ele>
        <time>2020-10-18T09:45:11.000Z</time>
      </trkpt>
      <trkpt lat="47.29525" lon="-2.41489">
        <ele>7.4000000953674</ele>
        <time>2020-10-18T09:45:12.000Z</time>
      </trkpt>
      <trkpt lat="47.29522" lon="-2.41484">
        <ele>7</ele>
        <time>2020-10-18T09:45:13.000Z</time>
      </trkpt>
      <trkpt lat="47.29517" lon="-2.41479">
        <ele>6.5999999046326</ele>
        <time>2020-10-18T09:45:14.000Z</time>
      </trkpt>
      <trkpt lat="47.29512" lon="-2.41476">
        <ele>6.1999998092651</ele>
        <time>2020-10-18T09:45:15.000Z</time>
      </trkpt>
      <trkpt lat="47.29507" lon="-2.41476">
        <ele>5.8000001907349</ele>
        <time>2020-10-18T09:45:16.000Z</time>
      </trkpt>
      <trkpt lat="47.29496" lon="-2.41481">
        <ele>5.8000001907349</ele>
        <time>2020-10-18T09:45:18.000Z</time>
      </trkpt>
      <trkpt lat="47.29475" lon="-2.41487">
        <ele>5.8000001907349</ele>
        <time>2020-10-18T09:45:22.000Z</time>
      </trkpt>
      <trkpt lat="47.29453" lon="-2.41485">
        <ele>5.8000001907349</ele>
        <time>2020-10-18T09:45:26.000Z</time>
      </trkpt>
      <trkpt lat="47.29437" lon="-2.41487">
        <ele>5.8000001907349</ele>
        <time>2020-10-18T09:45:29.000Z</time>
      </trkpt>
      <trkpt lat="47.29423" lon="-2.41477">
        <ele>5.8000001907349</ele>
        <time>2020-10-18T09:45:32.000Z</time>
      </trkpt>
      <trkpt lat="47.29419" lon="-2.41472">
        <ele>5.8000001907349</ele>
        <time>2020-10-18T09:45:33.000Z</time>
      </trkpt>
      <trkpt lat="47.29396" lon="-2.41437">
        <ele>5.8000001907349</ele>
        <time>2020-10-18T09:45:39.000Z</time>
      </trkpt>
      <trkpt lat="47.29378" lon="-2.41394">
        <ele>5.8000001907349</ele>
        <time>2020-10-18T09:45:45.000Z</time>
      </trkpt>
      <trkpt lat="47.29363" lon="-2.41371">
        <ele>5.8000001907349</ele>
        <time>2020-10-18T09:45:49.000Z</time>
      </trkpt>
      <trkpt lat="47.29355" lon="-2.41361">
        <ele>5.8000001907349</ele>
        <time>2020-10-18T09:45:51.000Z</time>
      </trkpt>
      <trkpt lat="47.29349" lon="-2.41332">
        <ele>5.8000001907349</ele>
        <time>2020-10-18T09:45:55.000Z</time>
      </trkpt>
      <trkpt lat="47.29358" lon="-2.41305">
        <ele>5.8000001907349</ele>
        <time>2020-10-18T09:45:59.000Z</time>
      </trkpt>
      <trkpt lat="47.2936" lon="-2.41298">
        <ele>5.8000001907349</ele>
        <time>2020-10-18T09:46:00.000Z</time>
      </trkpt>
      <trkpt lat="47.29359" lon="-2.41286">
        <ele>5.8000001907349</ele>
        <time>2020-10-18T09:46:02.000Z</time>
      </trkpt>
      <trkpt lat="47.29354" lon="-2.41252">
        <ele>5.8000001907349</ele>
        <time>2020-10-18T09:46:08.000Z</time>
      </trkpt>
      <trkpt lat="47.29351" lon="-2.41246">
        <ele>5.8000001907349</ele>
        <time>2020-10-18T09:46:09.000Z</time>
      </trkpt>
      <trkpt lat="47.29346" lon="-2.41234">
        <ele>5.8000001907349</ele>
        <time>2020-10-18T09:46:11.000Z</time>
      </trkpt>
      <trkpt lat="47.29337" lon="-2.41223">
        <ele>5.8000001907349</ele>
        <time>2020-10-18T09:46:13.000Z</time>
      </trkpt>
      <trkpt lat="47.29306" lon="-2.4119">
        <ele>5.8000001907349</ele>
        <time>2020-10-18T09:46:19.000Z</time>
      </trkpt>
      <trkpt lat="47.29302" lon="-2.41183">
        <ele>5.8000001907349</ele>
        <time>2020-10-18T09:46:20.000Z</time>
      </trkpt>
      <trkpt lat="47.29297" lon="-2.41169">
        <ele>5.8000001907349</ele>
        <time>2020-10-18T09:46:22.000Z</time>
      </trkpt>
      <trkpt lat="47.29284" lon="-2.41139">
        <ele>5.8000001907349</ele>
        <time>2020-10-18T09:46:26.000Z</time>
      </trkpt>
      <trkpt lat="47.29275" lon="-2.41127">
        <ele>5.8000001907349</ele>
        <time>2020-10-18T09:46:28.000Z</time>
      </trkpt>
      <trkpt lat="47.29256" lon="-2.41103">
        <ele>5.8000001907349</ele>
        <time>2020-10-18T09:46:32.000Z</time>
      </trkpt>
      <trkpt lat="47.29251" lon="-2.41097">
        <ele>5.8000001907349</ele>
        <time>2020-10-18T09:46:33.000Z</time>
      </trkpt>
      <trkpt lat="47.29245" lon="-2.41074">
        <ele>5.8000001907349</ele>
        <time>2020-10-18T09:46:36.000Z</time>
      </trkpt>
      <trkpt lat="47.29253" lon="-2.4106">
        <ele>5.8000001907349</ele>
        <time>2020-10-18T09:46:38.000Z</time>
      </trkpt>
      <trkpt lat="47.29253" lon="-2.41034">
        <ele>5.8000001907349</ele>
        <time>2020-10-18T09:46:41.000Z</time>
      </trkpt>
      <trkpt lat="47.29243" lon="-2.41023">
        <ele>5.8000001907349</ele>
        <time>2020-10-18T09:46:43.000Z</time>
      </trkpt>
      <trkpt lat="47.29239" lon="-2.41017">
        <ele>5.8000001907349</ele>
        <time>2020-10-18T09:46:44.000Z</time>
      </trkpt>
      <trkpt lat="47.29224" lon="-2.40987">
        <ele>5.8000001907349</ele>
        <time>2020-10-18T09:46:49.000Z</time>
      </trkpt>
      <trkpt lat="47.2922" lon="-2.40979">
        <ele>5.8000001907349</ele>
        <time>2020-10-18T09:46:50.000Z</time>
      </trkpt>
      <trkpt lat="47.29217" lon="-2.40971">
        <ele>5.8000001907349</ele>
        <time>2020-10-18T09:46:51.000Z</time>
      </trkpt>
      <trkpt lat="47.29205" lon="-2.40951">
        <ele>5.8000001907349</ele>
        <time>2020-10-18T09:46:54.000Z</time>
      </trkpt>
      <trkpt lat="47.29186" lon="-2.40945">
        <ele>5.8000001907349</ele>
        <time>2020-10-18T09:46:57.000Z</time>
      </trkpt>
      <trkpt lat="47.29174" lon="-2.4094">
        <ele>5.8000001907349</ele>
        <time>2020-10-18T09:46:59.000Z</time>
      </trkpt>
      <trkpt lat="47.29164" lon="-2.40928">
        <ele>5.8000001907349</ele>
        <time>2020-10-18T09:47:01.000Z</time>
      </trkpt>
      <trkpt lat="47.29164" lon="-2.40901">
        <ele>5.8000001907349</ele>
        <time>2020-10-18T09:47:04.000Z</time>
      </trkpt>
      <trkpt lat="47.29172" lon="-2.40867">
        <ele>5.8000001907349</ele>
        <time>2020-10-18T09:47:08.000Z</time>
      </trkpt>
      <trkpt lat="47.29171" lon="-2.40831">
        <ele>5.8000001907349</ele>
        <time>2020-10-18T09:47:12.000Z</time>
      </trkpt>
      <trkpt lat="47.29178" lon="-2.40796">
        <ele>5.8000001907349</ele>
        <time>2020-10-18T09:47:16.000Z</time>
      </trkpt>
      <trkpt lat="47.2918" lon="-2.40787">
        <ele>5.8000001907349</ele>
        <time>2020-10-18T09:47:17.000Z</time>
      </trkpt>
      <trkpt lat="47.29186" lon="-2.40771">
        <ele>5.8000001907349</ele>
        <time>2020-10-18T09:47:19.000Z</time>
      </trkpt>
      <trkpt lat="47.29195" lon="-2.40748">
        <ele>5.8000001907349</ele>
        <time>2020-10-18T09:47:22.000Z</time>
      </trkpt>
      <trkpt lat="47.29216" lon="-2.40717">
        <ele>5.8000001907349</ele>
        <time>2020-10-18T09:47:27.000Z</time>
      </trkpt>
      <trkpt lat="47.2923" lon="-2.40689">
        <ele>5.8000001907349</ele>
        <time>2020-10-18T09:47:31.000Z</time>
      </trkpt>
      <trkpt lat="47.29232" lon="-2.40681">
        <ele>5.8000001907349</ele>
        <time>2020-10-18T09:47:32.000Z</time>
      </trkpt>
      <trkpt lat="47.29229" lon="-2.40652">
        <ele>5.8000001907349</ele>
        <time>2020-10-18T09:47:35.000Z</time>
      </trkpt>
      <trkpt lat="47.29223" lon="-2.40636">
        <ele>5.8000001907349</ele>
        <time>2020-10-18T09:47:37.000Z</time>
      </trkpt>
      <trkpt lat="47.2922" lon="-2.4063">
        <ele>5.8000001907349</ele>
        <time>2020-10-18T09:47:38.000Z</time>
      </trkpt>
      <trkpt lat="47.29216" lon="-2.40625">
        <ele>5.8000001907349</ele>
        <time>2020-10-18T09:47:39.000Z</time>
      </trkpt>
      <trkpt lat="47.29205" lon="-2.40613">
        <ele>5.8000001907349</ele>
        <time>2020-10-18T09:47:42.000Z</time>
      </trkpt>
      <trkpt lat="47.29197" lon="-2.40611">
        <ele>5.8000001907349</ele>
        <time>2020-10-18T09:47:44.000Z</time>
      </trkpt>
      <trkpt lat="47.29182" lon="-2.40623">
        <ele>5.8000001907349</ele>
        <time>2020-10-18T09:47:48.000Z</time>
      </trkpt>
      <trkpt lat="47.29178" lon="-2.40625">
        <ele>5.8000001907349</ele>
        <time>2020-10-18T09:47:49.000Z</time>
      </trkpt>
      <trkpt lat="47.29164" lon="-2.40636">
        <ele>5.8000001907349</ele>
        <time>2020-10-18T09:47:53.000Z</time>
      </trkpt>
      <trkpt lat="47.29146" lon="-2.40648">
        <ele>5.8000001907349</ele>
        <time>2020-10-18T09:47:59.000Z</time>
      </trkpt>
      <trkpt lat="47.29143" lon="-2.40651">
        <ele>5.8000001907349</ele>
        <time>2020-10-18T09:48:03.000Z</time>
      </trkpt>
      <trkpt lat="47.29139" lon="-2.40655">
        <ele>5.8000001907349</ele>
        <time>2020-10-18T09:48:21.000Z</time>
      </trkpt>
      <trkpt lat="47.29135" lon="-2.40659">
        <ele>5.8000001907349</ele>
        <time>2020-10-18T09:48:26.000Z</time>
      </trkpt>
      <trkpt lat="47.29135" lon="-2.4066">
        <ele>3.7999999523163</ele>
        <time>2020-10-18T09:49:57.000Z</time>
      </trkpt>
      <trkpt lat="47.29136" lon="-2.40658">
        <ele>3.7999999523163</ele>
        <time>2020-10-18T09:49:59.000Z</time>
      </trkpt>
      <trkpt lat="47.29136" lon="-2.40657">
        <ele>3.7999999523163</ele>
        <time>2020-10-18T09:50:05.000Z</time>
      </trkpt>
      <trkpt lat="47.29141" lon="-2.40642">
        <ele>3.7999999523163</ele>
        <time>2020-10-18T09:50:11.000Z</time>
      </trkpt>
      <trkpt lat="47.2914" lon="-2.40618">
        <ele>3.7999999523163</ele>
        <time>2020-10-18T09:50:16.000Z</time>
      </trkpt>
      <trkpt lat="47.29139" lon="-2.40606">
        <ele>4.1999998092651</ele>
        <time>2020-10-18T09:50:18.000Z</time>
      </trkpt>
      <trkpt lat="47.29137" lon="-2.40601">
        <ele>4.5999999046326</ele>
        <time>2020-10-18T09:50:19.000Z</time>
      </trkpt>
      <trkpt lat="47.29135" lon="-2.40596">
        <ele>5</ele>
        <time>2020-10-18T09:50:20.000Z</time>
      </trkpt>
      <trkpt lat="47.29133" lon="-2.4059">
        <ele>5.5999999046326</ele>
        <time>2020-10-18T09:50:21.000Z</time>
      </trkpt>
      <trkpt lat="47.2913" lon="-2.40585">
        <ele>6</ele>
        <time>2020-10-18T09:50:22.000Z</time>
      </trkpt>
      <trkpt lat="47.29124" lon="-2.40575">
        <ele>6</ele>
        <time>2020-10-18T09:50:24.000Z</time>
      </trkpt>
      <trkpt lat="47.29115" lon="-2.40562">
        <ele>6</ele>
        <time>2020-10-18T09:50:27.000Z</time>
      </trkpt>
      <trkpt lat="47.29108" lon="-2.40556">
        <ele>6</ele>
        <time>2020-10-18T09:50:29.000Z</time>
      </trkpt>
      <trkpt lat="47.29097" lon="-2.40537">
        <ele>6</ele>
        <time>2020-10-18T09:50:33.000Z</time>
      </trkpt>
      <trkpt lat="47.291" lon="-2.40518">
        <ele>6</ele>
        <time>2020-10-18T09:50:36.000Z</time>
      </trkpt>
      <trkpt lat="47.29112" lon="-2.40501">
        <ele>6</ele>
        <time>2020-10-18T09:50:40.000Z</time>
      </trkpt>
      <trkpt lat="47.29125" lon="-2.40493">
        <ele>6</ele>
        <time>2020-10-18T09:50:43.000Z</time>
      </trkpt>
      <trkpt lat="47.29134" lon="-2.40488">
        <ele>6</ele>
        <time>2020-10-18T09:50:45.000Z</time>
      </trkpt>
      <trkpt lat="47.29153" lon="-2.40485">
        <ele>6</ele>
        <time>2020-10-18T09:50:49.000Z</time>
      </trkpt>
      <trkpt lat="47.29158" lon="-2.40487">
        <ele>6</ele>
        <time>2020-10-18T09:50:50.000Z</time>
      </trkpt>
      <trkpt lat="47.29167" lon="-2.40502">
        <ele>6</ele>
        <time>2020-10-18T09:50:53.000Z</time>
      </trkpt>
      <trkpt lat="47.2918" lon="-2.40518">
        <ele>6</ele>
        <time>2020-10-18T09:50:57.000Z</time>
      </trkpt>
      <trkpt lat="47.29194" lon="-2.40512">
        <ele>6</ele>
        <time>2020-10-18T09:51:00.000Z</time>
      </trkpt>
      <trkpt lat="47.29199" lon="-2.4051">
        <ele>6</ele>
        <time>2020-10-18T09:51:01.000Z</time>
      </trkpt>
      <trkpt lat="47.29228" lon="-2.40492">
        <ele>6</ele>
        <time>2020-10-18T09:51:07.000Z</time>
      </trkpt>
      <trkpt lat="47.29262" lon="-2.40473">
        <ele>6</ele>
        <time>2020-10-18T09:51:14.000Z</time>
      </trkpt>
      <trkpt lat="47.29283" lon="-2.40465">
        <ele>6</ele>
        <time>2020-10-18T09:51:18.000Z</time>
      </trkpt>
      <trkpt lat="47.29292" lon="-2.40456">
        <ele>6</ele>
        <time>2020-10-18T09:51:20.000Z</time>
      </trkpt>
      <trkpt lat="47.29299" lon="-2.40436">
        <ele>6</ele>
        <time>2020-10-18T09:51:23.000Z</time>
      </trkpt>
      <trkpt lat="47.29307" lon="-2.40407">
        <ele>6</ele>
        <time>2020-10-18T09:51:27.000Z</time>
      </trkpt>
      <trkpt lat="47.29306" lon="-2.40399">
        <ele>6</ele>
        <time>2020-10-18T09:51:28.000Z</time>
      </trkpt>
      <trkpt lat="47.29295" lon="-2.40379">
        <ele>6</ele>
        <time>2020-10-18T09:51:31.000Z</time>
      </trkpt>
      <trkpt lat="47.29289" lon="-2.40366">
        <ele>6</ele>
        <time>2020-10-18T09:51:33.000Z</time>
      </trkpt>
      <trkpt lat="47.29286" lon="-2.40345">
        <ele>6</ele>
        <time>2020-10-18T09:51:36.000Z</time>
      </trkpt>
      <trkpt lat="47.29294" lon="-2.40328">
        <ele>6</ele>
        <time>2020-10-18T09:51:39.000Z</time>
      </trkpt>
      <trkpt lat="47.29302" lon="-2.40321">
        <ele>6</ele>
        <time>2020-10-18T09:51:41.000Z</time>
      </trkpt>
      <trkpt lat="47.29316" lon="-2.40307">
        <ele>6</ele>
        <time>2020-10-18T09:51:44.000Z</time>
      </trkpt>
      <trkpt lat="47.29336" lon="-2.40282">
        <ele>6</ele>
        <time>2020-10-18T09:51:49.000Z</time>
      </trkpt>
      <trkpt lat="47.2934" lon="-2.40278">
        <ele>6</ele>
        <time>2020-10-18T09:51:50.000Z</time>
      </trkpt>
      <trkpt lat="47.29363" lon="-2.40258">
        <ele>6</ele>
        <time>2020-10-18T09:51:55.000Z</time>
      </trkpt>
      <trkpt lat="47.29367" lon="-2.40254">
        <ele>6</ele>
        <time>2020-10-18T09:51:56.000Z</time>
      </trkpt>
      <trkpt lat="47.29384" lon="-2.40239">
        <ele>6</ele>
        <time>2020-10-18T09:52:00.000Z</time>
      </trkpt>
      <trkpt lat="47.29388" lon="-2.40237">
        <ele>6</ele>
        <time>2020-10-18T09:52:01.000Z</time>
      </trkpt>
      <trkpt lat="47.29421" lon="-2.40218">
        <ele>6</ele>
        <time>2020-10-18T09:52:09.000Z</time>
      </trkpt>
      <trkpt lat="47.29431" lon="-2.40217">
        <ele>6</ele>
        <time>2020-10-18T09:52:13.000Z</time>
      </trkpt>
      <trkpt lat="47.2943" lon="-2.40217">
        <ele>6</ele>
        <time>2020-10-18T09:52:14.000Z</time>
      </trkpt>
      <trkpt lat="47.29433" lon="-2.40217">
        <ele>6</ele>
        <time>2020-10-18T09:52:47.000Z</time>
      </trkpt>
      <trkpt lat="47.29437" lon="-2.40218">
        <ele>6</ele>
        <time>2020-10-18T09:52:49.000Z</time>
      </trkpt>
      <trkpt lat="47.2944" lon="-2.40217">
        <ele>6</ele>
        <time>2020-10-18T09:52:50.000Z</time>
      </trkpt>
      <trkpt lat="47.29445" lon="-2.40208">
        <ele>6</ele>
        <time>2020-10-18T09:52:52.000Z</time>
      </trkpt>
      <trkpt lat="47.29448" lon="-2.4019">
        <ele>6</ele>
        <time>2020-10-18T09:52:55.000Z</time>
      </trkpt>
      <trkpt lat="47.29451" lon="-2.40179">
        <ele>6</ele>
        <time>2020-10-18T09:52:57.000Z</time>
      </trkpt>
      <trkpt lat="47.29455" lon="-2.40144">
        <ele>6</ele>
        <time>2020-10-18T09:53:03.000Z</time>
      </trkpt>
      <trkpt lat="47.29455" lon="-2.40137">
        <ele>6</ele>
        <time>2020-10-18T09:53:04.000Z</time>
      </trkpt>
      <trkpt lat="47.2946" lon="-2.40089">
        <ele>6</ele>
        <time>2020-10-18T09:53:11.000Z</time>
      </trkpt>
      <trkpt lat="47.29462" lon="-2.40069">
        <ele>6</ele>
        <time>2020-10-18T09:53:14.000Z</time>
      </trkpt>
      <trkpt lat="47.29461" lon="-2.40054">
        <ele>6</ele>
        <time>2020-10-18T09:53:16.000Z</time>
      </trkpt>
      <trkpt lat="47.2946" lon="-2.39999">
        <ele>6</ele>
        <time>2020-10-18T09:53:24.000Z</time>
      </trkpt>
      <trkpt lat="47.29462" lon="-2.39979">
        <ele>6</ele>
        <time>2020-10-18T09:53:27.000Z</time>
      </trkpt>
      <trkpt lat="47.29465" lon="-2.39967">
        <ele>6</ele>
        <time>2020-10-18T09:53:29.000Z</time>
      </trkpt>
      <trkpt lat="47.29467" lon="-2.39961">
        <ele>6</ele>
        <time>2020-10-18T09:53:30.000Z</time>
      </trkpt>
      <trkpt lat="47.29473" lon="-2.39945">
        <ele>6</ele>
        <time>2020-10-18T09:53:33.000Z</time>
      </trkpt>
      <trkpt lat="47.29478" lon="-2.39931">
        <ele>6</ele>
        <time>2020-10-18T09:53:36.000Z</time>
      </trkpt>
      <trkpt lat="47.29484" lon="-2.39916">
        <ele>6</ele>
        <time>2020-10-18T09:53:41.000Z</time>
      </trkpt>
      <trkpt lat="47.29484" lon="-2.39916">
        <ele>6</ele>
        <time>2020-10-18T09:53:42.000Z</time>
      </trkpt>
      <trkpt lat="47.29483" lon="-2.39914">
        <ele>6</ele>
        <time>2020-10-18T09:53:47.000Z</time>
      </trkpt>
      <trkpt lat="47.29481" lon="-2.39912">
        <ele>6</ele>
        <time>2020-10-18T09:53:48.000Z</time>
      </trkpt>
      <trkpt lat="47.29473" lon="-2.39895">
        <ele>6</ele>
        <time>2020-10-18T09:53:53.000Z</time>
      </trkpt>
      <trkpt lat="47.29456" lon="-2.39868">
        <ele>6</ele>
        <time>2020-10-18T09:54:00.000Z</time>
      </trkpt>
      <trkpt lat="47.29441" lon="-2.3985">
        <ele>6</ele>
        <time>2020-10-18T09:54:07.000Z</time>
      </trkpt>
      <trkpt lat="47.29426" lon="-2.39845">
        <ele>6</ele>
        <time>2020-10-18T09:54:13.000Z</time>
      </trkpt>
      <trkpt lat="47.29415" lon="-2.39843">
        <ele>6</ele>
        <time>2020-10-18T09:54:17.000Z</time>
      </trkpt>
      <trkpt lat="47.29412" lon="-2.39843">
        <ele>6</ele>
        <time>2020-10-18T09:54:18.000Z</time>
      </trkpt>
      <trkpt lat="47.29402" lon="-2.39847">
        <ele>6</ele>
        <time>2020-10-18T09:54:23.000Z</time>
      </trkpt>
      <trkpt lat="47.29402" lon="-2.39846">
        <ele>6</ele>
        <time>2020-10-18T09:54:24.000Z</time>
      </trkpt>
      <trkpt lat="47.29405" lon="-2.39846">
        <ele>6</ele>
        <time>2020-10-18T09:55:02.000Z</time>
      </trkpt>
      <trkpt lat="47.29406" lon="-2.39846">
        <ele>6</ele>
        <time>2020-10-18T09:55:03.000Z</time>
      </trkpt>
      <trkpt lat="47.29422" lon="-2.39846">
        <ele>6</ele>
        <time>2020-10-18T09:55:08.000Z</time>
      </trkpt>
      <trkpt lat="47.2945" lon="-2.39847">
        <ele>6</ele>
        <time>2020-10-18T09:55:16.000Z</time>
      </trkpt>
      <trkpt lat="47.29464" lon="-2.39841">
        <ele>6</ele>
        <time>2020-10-18T09:55:21.000Z</time>
      </trkpt>
      <trkpt lat="47.29469" lon="-2.39855">
        <ele>6</ele>
        <time>2020-10-18T09:55:24.000Z</time>
      </trkpt>
      <trkpt lat="47.29476" lon="-2.39871">
        <ele>6</ele>
        <time>2020-10-18T09:55:27.000Z</time>
      </trkpt>
      <trkpt lat="47.29488" lon="-2.39897">
        <ele>6</ele>
        <time>2020-10-18T09:55:32.000Z</time>
      </trkpt>
      <trkpt lat="47.29496" lon="-2.399">
        <ele>6</ele>
        <time>2020-10-18T09:55:34.000Z</time>
      </trkpt>
      <trkpt lat="47.29501" lon="-2.39897">
        <ele>6</ele>
        <time>2020-10-18T09:55:35.000Z</time>
      </trkpt>
      <trkpt lat="47.29511" lon="-2.39879">
        <ele>6</ele>
        <time>2020-10-18T09:55:38.000Z</time>
      </trkpt>
      <trkpt lat="47.29515" lon="-2.39872">
        <ele>6</ele>
        <time>2020-10-18T09:55:39.000Z</time>
      </trkpt>
      <trkpt lat="47.29536" lon="-2.39827">
        <ele>6</ele>
        <time>2020-10-18T09:55:45.000Z</time>
      </trkpt>
      <trkpt lat="47.2956" lon="-2.39774">
        <ele>6</ele>
        <time>2020-10-18T09:55:52.000Z</time>
      </trkpt>
      <trkpt lat="47.29589" lon="-2.39717">
        <ele>6</ele>
        <time>2020-10-18T09:56:00.000Z</time>
      </trkpt>
      <trkpt lat="47.29607" lon="-2.39684">
        <ele>6</ele>
        <time>2020-10-18T09:56:05.000Z</time>
      </trkpt>
      <trkpt lat="47.29624" lon="-2.39653">
        <ele>6</ele>
        <time>2020-10-18T09:56:11.000Z</time>
      </trkpt>
      <trkpt lat="47.29625" lon="-2.39647">
        <ele>6</ele>
        <time>2020-10-18T09:56:12.000Z</time>
      </trkpt>
      <trkpt lat="47.29628" lon="-2.39627">
        <ele>6</ele>
        <time>2020-10-18T09:56:15.000Z</time>
      </trkpt>
      <trkpt lat="47.29628" lon="-2.39613">
        <ele>6</ele>
        <time>2020-10-18T09:56:17.000Z</time>
      </trkpt>
      <trkpt lat="47.29629" lon="-2.3959">
        <ele>6</ele>
        <time>2020-10-18T09:56:21.000Z</time>
      </trkpt>
      <trkpt lat="47.29629" lon="-2.39578">
        <ele>6</ele>
        <time>2020-10-18T09:56:23.000Z</time>
      </trkpt>
      <trkpt lat="47.29624" lon="-2.39572">
        <ele>6</ele>
        <time>2020-10-18T09:56:25.000Z</time>
      </trkpt>
      <trkpt lat="47.29613" lon="-2.39574">
        <ele>6</ele>
        <time>2020-10-18T09:56:28.000Z</time>
      </trkpt>
      <trkpt lat="47.29608" lon="-2.3957">
        <ele>6.4000000953674</ele>
        <time>2020-10-18T09:56:30.000Z</time>
      </trkpt>
      <trkpt lat="47.29607" lon="-2.39567">
        <ele>6.8000001907349</ele>
        <time>2020-10-18T09:56:31.000Z</time>
      </trkpt>
      <trkpt lat="47.29606" lon="-2.39566">
        <ele>7.4000000953674</ele>
        <time>2020-10-18T09:56:32.000Z</time>
      </trkpt>
      <trkpt lat="47.29607" lon="-2.39566">
        <ele>7.8000001907349</ele>
        <time>2020-10-18T09:56:33.000Z</time>
      </trkpt>
      <trkpt lat="47.29608" lon="-2.39566">
        <ele>8.3999996185303</ele>
        <time>2020-10-18T09:56:34.000Z</time>
      </trkpt>
      <trkpt lat="47.29617" lon="-2.3956">
        <ele>8.3999996185303</ele>
        <time>2020-10-18T09:56:37.000Z</time>
      </trkpt>
      <trkpt lat="47.29616" lon="-2.39556">
        <ele>8.8000001907349</ele>
        <time>2020-10-18T09:56:39.000Z</time>
      </trkpt>
      <trkpt lat="47.29613" lon="-2.39556">
        <ele>9.1999998092651</ele>
        <time>2020-10-18T09:56:40.000Z</time>
      </trkpt>
      <trkpt lat="47.29609" lon="-2.39556">
        <ele>9.8000001907349</ele>
        <time>2020-10-18T09:56:41.000Z</time>
      </trkpt>
      <trkpt lat="47.29606" lon="-2.39556">
        <ele>10.199999809265</ele>
        <time>2020-10-18T09:56:42.000Z</time>
      </trkpt>
      <trkpt lat="47.29603" lon="-2.39555">
        <ele>10.60000038147</ele>
        <time>2020-10-18T09:56:43.000Z</time>
      </trkpt>
      <trkpt lat="47.296" lon="-2.39555">
        <ele>10.60000038147</ele>
        <time>2020-10-18T09:56:44.000Z</time>
      </trkpt>
      <trkpt lat="47.29589" lon="-2.39552">
        <ele>11.199999809265</ele>
        <time>2020-10-18T09:56:48.000Z</time>
      </trkpt>
      <trkpt lat="47.29586" lon="-2.3955">
        <ele>11.60000038147</ele>
        <time>2020-10-18T09:56:49.000Z</time>
      </trkpt>
      <trkpt lat="47.29582" lon="-2.39549">
        <ele>12</ele>
        <time>2020-10-18T09:56:50.000Z</time>
      </trkpt>
      <trkpt lat="47.29578" lon="-2.39548">
        <ele>12.39999961853</ele>
        <time>2020-10-18T09:56:51.000Z</time>
      </trkpt>
      <trkpt lat="47.29574" lon="-2.39547">
        <ele>12.800000190735</ele>
        <time>2020-10-18T09:56:52.000Z</time>
      </trkpt>
      <trkpt lat="47.29559" lon="-2.39542">
        <ele>12.800000190735</ele>
        <time>2020-10-18T09:56:55.000Z</time>
      </trkpt>
      <trkpt lat="47.29548" lon="-2.3954">
        <ele>12.39999961853</ele>
        <time>2020-10-18T09:56:58.000Z</time>
      </trkpt>
      <trkpt lat="47.29544" lon="-2.39539">
        <ele>12</ele>
        <time>2020-10-18T09:56:59.000Z</time>
      </trkpt>
      <trkpt lat="47.2954" lon="-2.39538">
        <ele>11.60000038147</ele>
        <time>2020-10-18T09:57:00.000Z</time>
      </trkpt>
      <trkpt lat="47.29535" lon="-2.39537">
        <ele>11.199999809265</ele>
        <time>2020-10-18T09:57:01.000Z</time>
      </trkpt>
      <trkpt lat="47.2953" lon="-2.39537">
        <ele>10.800000190735</ele>
        <time>2020-10-18T09:57:02.000Z</time>
      </trkpt>
      <trkpt lat="47.29515" lon="-2.39534">
        <ele>10.800000190735</ele>
        <time>2020-10-18T09:57:05.000Z</time>
      </trkpt>
      <trkpt lat="47.29501" lon="-2.39532">
        <ele>10.39999961853</ele>
        <time>2020-10-18T09:57:08.000Z</time>
      </trkpt>
      <trkpt lat="47.29496" lon="-2.39531">
        <ele>10</ele>
        <time>2020-10-18T09:57:09.000Z</time>
      </trkpt>
      <trkpt lat="47.29492" lon="-2.39531">
        <ele>9.6000003814697</ele>
        <time>2020-10-18T09:57:10.000Z</time>
      </trkpt>
      <trkpt lat="47.29488" lon="-2.3953">
        <ele>9</ele>
        <time>2020-10-18T09:57:11.000Z</time>
      </trkpt>
      <trkpt lat="47.29483" lon="-2.39528">
        <ele>8.6000003814697</ele>
        <time>2020-10-18T09:57:12.000Z</time>
      </trkpt>
      <trkpt lat="47.29455" lon="-2.39522">
        <ele>8.6000003814697</ele>
        <time>2020-10-18T09:57:17.000Z</time>
      </trkpt>
      <trkpt lat="47.29415" lon="-2.39515">
        <ele>8.6000003814697</ele>
        <time>2020-10-18T09:57:25.000Z</time>
      </trkpt>
      <trkpt lat="47.29378" lon="-2.39508">
        <ele>8.6000003814697</ele>
        <time>2020-10-18T09:57:32.000Z</time>
      </trkpt>
      <trkpt lat="47.29336" lon="-2.395">
        <ele>8.6000003814697</ele>
        <time>2020-10-18T09:57:40.000Z</time>
      </trkpt>
      <trkpt lat="47.29302" lon="-2.39493">
        <ele>8.6000003814697</ele>
        <time>2020-10-18T09:57:47.000Z</time>
      </trkpt>
      <trkpt lat="47.29267" lon="-2.39484">
        <ele>8.6000003814697</ele>
        <time>2020-10-18T09:57:53.000Z</time>
      </trkpt>
      <trkpt lat="47.29225" lon="-2.39478">
        <ele>8.6000003814697</ele>
        <time>2020-10-18T09:58:00.000Z</time>
      </trkpt>
      <trkpt lat="47.29179" lon="-2.39468">
        <ele>8.6000003814697</ele>
        <time>2020-10-18T09:58:08.000Z</time>
      </trkpt>
      <trkpt lat="47.2915" lon="-2.39463">
        <ele>8.6000003814697</ele>
        <time>2020-10-18T09:58:14.000Z</time>
      </trkpt>
      <trkpt lat="47.29146" lon="-2.39465">
        <ele>8.6000003814697</ele>
        <time>2020-10-18T09:58:15.000Z</time>
      </trkpt>
      <trkpt lat="47.29139" lon="-2.39463">
        <ele>8.6000003814697</ele>
        <time>2020-10-18T09:58:17.000Z</time>
      </trkpt>
      <trkpt lat="47.29138" lon="-2.39457">
        <ele>8.6000003814697</ele>
        <time>2020-10-18T09:58:20.000Z</time>
      </trkpt>
      <trkpt lat="47.29139" lon="-2.39453">
        <ele>8.1999998092651</ele>
        <time>2020-10-18T09:58:21.000Z</time>
      </trkpt>
      <trkpt lat="47.29138" lon="-2.39449">
        <ele>7.8000001907349</ele>
        <time>2020-10-18T09:58:22.000Z</time>
      </trkpt>
      <trkpt lat="47.29136" lon="-2.39443">
        <ele>7.4000000953674</ele>
        <time>2020-10-18T09:58:23.000Z</time>
      </trkpt>
      <trkpt lat="47.29136" lon="-2.39438">
        <ele>7</ele>
        <time>2020-10-18T09:58:24.000Z</time>
      </trkpt>
      <trkpt lat="47.29138" lon="-2.39433">
        <ele>6.5999999046326</ele>
        <time>2020-10-18T09:58:25.000Z</time>
      </trkpt>
      <trkpt lat="47.2914" lon="-2.39423">
        <ele>6.5999999046326</ele>
        <time>2020-10-18T09:58:27.000Z</time>
      </trkpt>
      <trkpt lat="47.29135" lon="-2.39401">
        <ele>6.5999999046326</ele>
        <time>2020-10-18T09:58:31.000Z</time>
      </trkpt>
      <trkpt lat="47.29131" lon="-2.39386">
        <ele>6.5999999046326</ele>
        <time>2020-10-18T09:58:33.000Z</time>
      </trkpt>
      <trkpt lat="47.29127" lon="-2.39372">
        <ele>6.5999999046326</ele>
        <time>2020-10-18T09:58:35.000Z</time>
      </trkpt>
      <trkpt lat="47.29118" lon="-2.39367">
        <ele>6.5999999046326</ele>
        <time>2020-10-18T09:58:37.000Z</time>
      </trkpt>
      <trkpt lat="47.29104" lon="-2.39377">
        <ele>6.5999999046326</ele>
        <time>2020-10-18T09:58:40.000Z</time>
      </trkpt>
      <trkpt lat="47.29091" lon="-2.3938">
        <ele>7.1999998092651</ele>
        <time>2020-10-18T09:58:43.000Z</time>
      </trkpt>
      <trkpt lat="47.29087" lon="-2.39376">
        <ele>7.5999999046326</ele>
        <time>2020-10-18T09:58:44.000Z</time>
      </trkpt>
      <trkpt lat="47.29084" lon="-2.39371">
        <ele>8</ele>
        <time>2020-10-18T09:58:45.000Z</time>
      </trkpt>
      <trkpt lat="47.2908" lon="-2.39365">
        <ele>8.3999996185303</ele>
        <time>2020-10-18T09:58:46.000Z</time>
      </trkpt>
      <trkpt lat="47.29075" lon="-2.3936">
        <ele>9</ele>
        <time>2020-10-18T09:58:47.000Z</time>
      </trkpt>
      <trkpt lat="47.29063" lon="-2.39354">
        <ele>9</ele>
        <time>2020-10-18T09:58:49.000Z</time>
      </trkpt>
      <trkpt lat="47.29057" lon="-2.39352">
        <ele>9</ele>
        <time>2020-10-18T09:58:50.000Z</time>
      </trkpt>
      <trkpt lat="47.29003" lon="-2.39325">
        <ele>9</ele>
        <time>2020-10-18T09:58:59.000Z</time>
      </trkpt>
      <trkpt lat="47.28975" lon="-2.39317">
        <ele>9</ele>
        <time>2020-10-18T09:59:04.000Z</time>
      </trkpt>
      <trkpt lat="47.2897" lon="-2.39318">
        <ele>9</ele>
        <time>2020-10-18T09:59:05.000Z</time>
      </trkpt>
      <trkpt lat="47.28956" lon="-2.3932">
        <ele>9</ele>
        <time>2020-10-18T09:59:08.000Z</time>
      </trkpt>
      <trkpt lat="47.28944" lon="-2.39316">
        <ele>9</ele>
        <time>2020-10-18T09:59:11.000Z</time>
      </trkpt>
      <trkpt lat="47.28937" lon="-2.39297">
        <ele>9</ele>
        <time>2020-10-18T09:59:14.000Z</time>
      </trkpt>
      <trkpt lat="47.28935" lon="-2.39283">
        <ele>9</ele>
        <time>2020-10-18T09:59:16.000Z</time>
      </trkpt>
      <trkpt lat="47.28932" lon="-2.39261">
        <ele>9</ele>
        <time>2020-10-18T09:59:19.000Z</time>
      </trkpt>
      <trkpt lat="47.2893" lon="-2.39206">
        <ele>9</ele>
        <time>2020-10-18T09:59:26.000Z</time>
      </trkpt>
      <trkpt lat="47.28932" lon="-2.39151">
        <ele>9</ele>
        <time>2020-10-18T09:59:33.000Z</time>
      </trkpt>
      <trkpt lat="47.28941" lon="-2.39086">
        <ele>9</ele>
        <time>2020-10-18T09:59:41.000Z</time>
      </trkpt>
      <trkpt lat="47.28946" lon="-2.39012">
        <ele>9</ele>
        <time>2020-10-18T09:59:50.000Z</time>
      </trkpt>
      <trkpt lat="47.28952" lon="-2.38943">
        <ele>9</ele>
        <time>2020-10-18T09:59:58.000Z</time>
      </trkpt>
      <trkpt lat="47.28956" lon="-2.38873">
        <ele>9</ele>
        <time>2020-10-18T10:00:06.000Z</time>
      </trkpt>
      <trkpt lat="47.28958" lon="-2.38814">
        <ele>9</ele>
        <time>2020-10-18T10:00:13.000Z</time>
      </trkpt>
      <trkpt lat="47.28957" lon="-2.38756">
        <ele>9</ele>
        <time>2020-10-18T10:00:20.000Z</time>
      </trkpt>
      <trkpt lat="47.28955" lon="-2.38691">
        <ele>9</ele>
        <time>2020-10-18T10:00:28.000Z</time>
      </trkpt>
      <trkpt lat="47.28955" lon="-2.3863">
        <ele>9</ele>
        <time>2020-10-18T10:00:35.000Z</time>
      </trkpt>
      <trkpt lat="47.28952" lon="-2.38559">
        <ele>9</ele>
        <time>2020-10-18T10:00:43.000Z</time>
      </trkpt>
      <trkpt lat="47.28944" lon="-2.38484">
        <ele>9</ele>
        <time>2020-10-18T10:00:52.000Z</time>
      </trkpt>
      <trkpt lat="47.28939" lon="-2.38419">
        <ele>9</ele>
        <time>2020-10-18T10:01:00.000Z</time>
      </trkpt>
      <trkpt lat="47.28934" lon="-2.38351">
        <ele>9</ele>
        <time>2020-10-18T10:01:08.000Z</time>
      </trkpt>
      <trkpt lat="47.28932" lon="-2.38298">
        <ele>9</ele>
        <time>2020-10-18T10:01:14.000Z</time>
      </trkpt>
      <trkpt lat="47.28932" lon="-2.38289">
        <ele>9</ele>
        <time>2020-10-18T10:01:15.000Z</time>
      </trkpt>
      <trkpt lat="47.28935" lon="-2.38237">
        <ele>9</ele>
        <time>2020-10-18T10:01:21.000Z</time>
      </trkpt>
      <trkpt lat="47.28923" lon="-2.38221">
        <ele>9</ele>
        <time>2020-10-18T10:01:24.000Z</time>
      </trkpt>
      <trkpt lat="47.28909" lon="-2.3821">
        <ele>9</ele>
        <time>2020-10-18T10:01:27.000Z</time>
      </trkpt>
      <trkpt lat="47.28902" lon="-2.38202">
        <ele>9</ele>
        <time>2020-10-18T10:01:29.000Z</time>
      </trkpt>
      <trkpt lat="47.28899" lon="-2.3818">
        <ele>9</ele>
        <time>2020-10-18T10:01:32.000Z</time>
      </trkpt>
      <trkpt lat="47.28901" lon="-2.38163">
        <ele>9</ele>
        <time>2020-10-18T10:01:34.000Z</time>
      </trkpt>
      <trkpt lat="47.28904" lon="-2.38123">
        <ele>9</ele>
        <time>2020-10-18T10:01:39.000Z</time>
      </trkpt>
      <trkpt lat="47.28905" lon="-2.38091">
        <ele>9</ele>
        <time>2020-10-18T10:01:43.000Z</time>
      </trkpt>
      <trkpt lat="47.28907" lon="-2.38065">
        <ele>9</ele>
        <time>2020-10-18T10:01:46.000Z</time>
      </trkpt>
      <trkpt lat="47.2891" lon="-2.37996">
        <ele>9</ele>
        <time>2020-10-18T10:01:54.000Z</time>
      </trkpt>
      <trkpt lat="47.28916" lon="-2.37921">
        <ele>9</ele>
        <time>2020-10-18T10:02:03.000Z</time>
      </trkpt>
      <trkpt lat="47.2892" lon="-2.3786">
        <ele>9</ele>
        <time>2020-10-18T10:02:11.000Z</time>
      </trkpt>
      <trkpt lat="47.28925" lon="-2.37808">
        <ele>9</ele>
        <time>2020-10-18T10:02:18.000Z</time>
      </trkpt>
      <trkpt lat="47.2893" lon="-2.37748">
        <ele>9</ele>
        <time>2020-10-18T10:02:25.000Z</time>
      </trkpt>
      <trkpt lat="47.28934" lon="-2.37684">
        <ele>9</ele>
        <time>2020-10-18T10:02:33.000Z</time>
      </trkpt>
      <trkpt lat="47.28935" lon="-2.37657">
        <ele>9</ele>
        <time>2020-10-18T10:02:38.000Z</time>
      </trkpt>
      <trkpt lat="47.28929" lon="-2.37645">
        <ele>9</ele>
        <time>2020-10-18T10:02:42.000Z</time>
      </trkpt>
      <trkpt lat="47.28925" lon="-2.37644">
        <ele>9</ele>
        <time>2020-10-18T10:02:43.000Z</time>
      </trkpt>
      <trkpt lat="47.28918" lon="-2.37647">
        <ele>9</ele>
        <time>2020-10-18T10:02:45.000Z</time>
      </trkpt>
      <trkpt lat="47.28891" lon="-2.37653">
        <ele>9</ele>
        <time>2020-10-18T10:02:51.000Z</time>
      </trkpt>
      <trkpt lat="47.28865" lon="-2.37656">
        <ele>9</ele>
        <time>2020-10-18T10:02:56.000Z</time>
      </trkpt>
      <trkpt lat="47.28861" lon="-2.37651">
        <ele>9</ele>
        <time>2020-10-18T10:02:57.000Z</time>
      </trkpt>
      <trkpt lat="47.28853" lon="-2.37632">
        <ele>9</ele>
        <time>2020-10-18T10:03:00.000Z</time>
      </trkpt>
      <trkpt lat="47.28842" lon="-2.3763">
        <ele>9</ele>
        <time>2020-10-18T10:03:03.000Z</time>
      </trkpt>
      <trkpt lat="47.28832" lon="-2.37648">
        <ele>9</ele>
        <time>2020-10-18T10:03:07.000Z</time>
      </trkpt>
      <trkpt lat="47.2883" lon="-2.37654">
        <ele>9</ele>
        <time>2020-10-18T10:03:08.000Z</time>
      </trkpt>
      <trkpt lat="47.28809" lon="-2.37692">
        <ele>9</ele>
        <time>2020-10-18T10:03:14.000Z</time>
      </trkpt>
      <trkpt lat="47.28793" lon="-2.37698">
        <ele>9</ele>
        <time>2020-10-18T10:03:17.000Z</time>
      </trkpt>
      <trkpt lat="47.28782" lon="-2.37703">
        <ele>9</ele>
        <time>2020-10-18T10:03:19.000Z</time>
      </trkpt>
      <trkpt lat="47.28767" lon="-2.37717">
        <ele>9</ele>
        <time>2020-10-18T10:03:22.000Z</time>
      </trkpt>
      <trkpt lat="47.28756" lon="-2.37731">
        <ele>9</ele>
        <time>2020-10-18T10:03:26.000Z</time>
      </trkpt>
      <trkpt lat="47.2875" lon="-2.3774">
        <ele>9</ele>
        <time>2020-10-18T10:03:28.000Z</time>
      </trkpt>
      <trkpt lat="47.28742" lon="-2.37749">
        <ele>9</ele>
        <time>2020-10-18T10:03:30.000Z</time>
      </trkpt>
      <trkpt lat="47.28726" lon="-2.37775">
        <ele>9</ele>
        <time>2020-10-18T10:03:34.000Z</time>
      </trkpt>
      <trkpt lat="47.28722" lon="-2.37782">
        <ele>9</ele>
        <time>2020-10-18T10:03:35.000Z</time>
      </trkpt>
      <trkpt lat="47.28689" lon="-2.37837">
        <ele>9</ele>
        <time>2020-10-18T10:03:43.000Z</time>
      </trkpt>
      <trkpt lat="47.28685" lon="-2.37844">
        <ele>9</ele>
        <time>2020-10-18T10:03:44.000Z</time>
      </trkpt>
      <trkpt lat="47.28678" lon="-2.37855">
        <ele>9</ele>
        <time>2020-10-18T10:03:46.000Z</time>
      </trkpt>
      <trkpt lat="47.28673" lon="-2.37865">
        <ele>9</ele>
        <time>2020-10-18T10:03:48.000Z</time>
      </trkpt>
      <trkpt lat="47.28673" lon="-2.37866">
        <ele>9</ele>
        <time>2020-10-18T10:03:51.000Z</time>
      </trkpt>
      <trkpt lat="47.28674" lon="-2.3787">
        <ele>9</ele>
        <time>2020-10-18T10:04:07.000Z</time>
      </trkpt>
      <trkpt lat="47.28675" lon="-2.37877">
        <ele>9</ele>
        <time>2020-10-18T10:04:09.000Z</time>
      </trkpt>
      <trkpt lat="47.28672" lon="-2.3788">
        <ele>9</ele>
        <time>2020-10-18T10:04:10.000Z</time>
      </trkpt>
      <trkpt lat="47.28665" lon="-2.37883">
        <ele>9</ele>
        <time>2020-10-18T10:04:12.000Z</time>
      </trkpt>
      <trkpt lat="47.28652" lon="-2.37899">
        <ele>9</ele>
        <time>2020-10-18T10:04:15.000Z</time>
      </trkpt>
      <trkpt lat="47.28636" lon="-2.37924">
        <ele>9</ele>
        <time>2020-10-18T10:04:16.000Z</time>
      </trkpt>
      <trkpt lat="47.28605" lon="-2.3797">
        <ele>9</ele>
        <time>2020-10-18T10:04:26.000Z</time>
      </trkpt>
      <trkpt lat="47.2857" lon="-2.38014">
        <ele>9</ele>
        <time>2020-10-18T10:04:33.000Z</time>
      </trkpt>
      <trkpt lat="47.28533" lon="-2.38052">
        <ele>9</ele>
        <time>2020-10-18T10:04:40.000Z</time>
      </trkpt>
      <trkpt lat="47.2852" lon="-2.38065">
        <ele>9</ele>
        <time>2020-10-18T10:04:44.000Z</time>
      </trkpt>
      <trkpt lat="47.28504" lon="-2.38081">
        <ele>9</ele>
        <time>2020-10-18T10:04:49.000Z</time>
      </trkpt>
      <trkpt lat="47.28474" lon="-2.38103">
        <ele>9</ele>
        <time>2020-10-18T10:04:55.000Z</time>
      </trkpt>
      <trkpt lat="47.28431" lon="-2.38118">
        <ele>9</ele>
        <time>2020-10-18T10:05:02.000Z</time>
      </trkpt>
      <trkpt lat="47.28413" lon="-2.38117">
        <ele>9</ele>
        <time>2020-10-18T10:05:05.000Z</time>
      </trkpt>
      <trkpt lat="47.28393" lon="-2.38113">
        <ele>9</ele>
        <time>2020-10-18T10:05:08.000Z</time>
      </trkpt>
      <trkpt lat="47.2838" lon="-2.38109">
        <ele>9</ele>
        <time>2020-10-18T10:05:10.000Z</time>
      </trkpt>
      <trkpt lat="47.28362" lon="-2.38099">
        <ele>9</ele>
        <time>2020-10-18T10:05:13.000Z</time>
      </trkpt>
      <trkpt lat="47.28357" lon="-2.38094">
        <ele>9</ele>
        <time>2020-10-18T10:05:14.000Z</time>
      </trkpt>
      <trkpt lat="47.28336" lon="-2.38072">
        <ele>9</ele>
        <time>2020-10-18T10:05:18.000Z</time>
      </trkpt>
      <trkpt lat="47.2831" lon="-2.38047">
        <ele>9</ele>
        <time>2020-10-18T10:05:23.000Z</time>
      </trkpt>
      <trkpt lat="47.28305" lon="-2.38043">
        <ele>9</ele>
        <time>2020-10-18T10:05:24.000Z</time>
      </trkpt>
      <trkpt lat="47.28273" lon="-2.3802">
        <ele>9</ele>
        <time>2020-10-18T10:05:30.000Z</time>
      </trkpt>
      <trkpt lat="47.28261" lon="-2.38016">
        <ele>9</ele>
        <time>2020-10-18T10:05:32.000Z</time>
      </trkpt>
      <trkpt lat="47.28243" lon="-2.38014">
        <ele>9</ele>
        <time>2020-10-18T10:05:35.000Z</time>
      </trkpt>
      <trkpt lat="47.28226" lon="-2.38018">
        <ele>9</ele>
        <time>2020-10-18T10:05:38.000Z</time>
      </trkpt>
      <trkpt lat="47.28201" lon="-2.38023">
        <ele>9</ele>
        <time>2020-10-18T10:05:43.000Z</time>
      </trkpt>
      <trkpt lat="47.28192" lon="-2.38027">
        <ele>9</ele>
        <time>2020-10-18T10:05:45.000Z</time>
      </trkpt>
      <trkpt lat="47.28161" lon="-2.38044">
        <ele>9</ele>
        <time>2020-10-18T10:05:51.000Z</time>
      </trkpt>
      <trkpt lat="47.28137" lon="-2.38054">
        <ele>9.3999996185303</ele>
        <time>2020-10-18T10:05:55.000Z</time>
      </trkpt>
      <trkpt lat="47.28131" lon="-2.38056">
        <ele>9.8000001907349</ele>
        <time>2020-10-18T10:05:56.000Z</time>
      </trkpt>
      <trkpt lat="47.28125" lon="-2.38058">
        <ele>10.60000038147</ele>
        <time>2020-10-18T10:05:57.000Z</time>
      </trkpt>
      <trkpt lat="47.2812" lon="-2.38061">
        <ele>11</ele>
        <time>2020-10-18T10:05:58.000Z</time>
      </trkpt>
      <trkpt lat="47.28087" lon="-2.38074">
        <ele>11</ele>
        <time>2020-10-18T10:06:04.000Z</time>
      </trkpt>
      <trkpt lat="47.28045" lon="-2.38092">
        <ele>11</ele>
        <time>2020-10-18T10:06:12.000Z</time>
      </trkpt>
      <trkpt lat="47.28033" lon="-2.38098">
        <ele>11</ele>
        <time>2020-10-18T10:06:17.000Z</time>
      </trkpt>
      <trkpt lat="47.28032" lon="-2.38097">
        <ele>11</ele>
        <time>2020-10-18T10:06:22.000Z</time>
      </trkpt>
      <trkpt lat="47.28027" lon="-2.38095">
        <ele>11</ele>
        <time>2020-10-18T10:06:24.000Z</time>
      </trkpt>
      <trkpt lat="47.28023" lon="-2.38092">
        <ele>11</ele>
        <time>2020-10-18T10:06:25.000Z</time>
      </trkpt>
      <trkpt lat="47.28016" lon="-2.38082">
        <ele>11</ele>
        <time>2020-10-18T10:06:27.000Z</time>
      </trkpt>
      <trkpt lat="47.28012" lon="-2.38059">
        <ele>11</ele>
        <time>2020-10-18T10:06:30.000Z</time>
      </trkpt>
      <trkpt lat="47.28011" lon="-2.38052">
        <ele>11</ele>
        <time>2020-10-18T10:06:31.000Z</time>
      </trkpt>
      <trkpt lat="47.28007" lon="-2.38018">
        <ele>11</ele>
        <time>2020-10-18T10:06:36.000Z</time>
      </trkpt>
      <trkpt lat="47.28002" lon="-2.37988">
        <ele>11</ele>
        <time>2020-10-18T10:06:43.000Z</time>
      </trkpt>
      <trkpt lat="47.27995" lon="-2.37952">
        <ele>11</ele>
        <time>2020-10-18T10:06:50.000Z</time>
      </trkpt>
      <trkpt lat="47.27988" lon="-2.37911">
        <ele>11</ele>
        <time>2020-10-18T10:06:58.000Z</time>
      </trkpt>
      <trkpt lat="47.27982" lon="-2.37879">
        <ele>11</ele>
        <time>2020-10-18T10:07:04.000Z</time>
      </trkpt>
      <trkpt lat="47.27976" lon="-2.37847">
        <ele>11</ele>
        <time>2020-10-18T10:07:11.000Z</time>
      </trkpt>
      <trkpt lat="47.27974" lon="-2.37827">
        <ele>11</ele>
        <time>2020-10-18T10:07:17.000Z</time>
      </trkpt>
      <trkpt lat="47.27969" lon="-2.37812">
        <ele>11</ele>
        <time>2020-10-18T10:07:23.000Z</time>
      </trkpt>
      <trkpt lat="47.27966" lon="-2.3779">
        <ele>11</ele>
        <time>2020-10-18T10:07:29.000Z</time>
      </trkpt>
      <trkpt lat="47.27965" lon="-2.37779">
        <ele>11</ele>
        <time>2020-10-18T10:07:31.000Z</time>
      </trkpt>
      <trkpt lat="47.27961" lon="-2.37768">
        <ele>11</ele>
        <time>2020-10-18T10:07:33.000Z</time>
      </trkpt>
      <trkpt lat="47.2795" lon="-2.37728">
        <ele>11</ele>
        <time>2020-10-18T10:07:39.000Z</time>
      </trkpt>
      <trkpt lat="47.27936" lon="-2.37666">
        <ele>11</ele>
        <time>2020-10-18T10:07:47.000Z</time>
      </trkpt>
      <trkpt lat="47.27921" lon="-2.37605">
        <ele>11</ele>
        <time>2020-10-18T10:07:55.000Z</time>
      </trkpt>
      <trkpt lat="47.27904" lon="-2.37527">
        <ele>11</ele>
        <time>2020-10-18T10:08:04.000Z</time>
      </trkpt>
      <trkpt lat="47.27888" lon="-2.37458">
        <ele>11</ele>
        <time>2020-10-18T10:08:12.000Z</time>
      </trkpt>
      <trkpt lat="47.27869" lon="-2.3738">
        <ele>11</ele>
        <time>2020-10-18T10:08:21.000Z</time>
      </trkpt>
      <trkpt lat="47.27849" lon="-2.37303">
        <ele>11</ele>
        <time>2020-10-18T10:08:30.000Z</time>
      </trkpt>
      <trkpt lat="47.27834" lon="-2.37244">
        <ele>11</ele>
        <time>2020-10-18T10:08:37.000Z</time>
      </trkpt>
      <trkpt lat="47.27831" lon="-2.37226">
        <ele>11</ele>
        <time>2020-10-18T10:08:39.000Z</time>
      </trkpt>
      <trkpt lat="47.27828" lon="-2.37208">
        <ele>11</ele>
        <time>2020-10-18T10:08:41.000Z</time>
      </trkpt>
      <trkpt lat="47.27825" lon="-2.372">
        <ele>11</ele>
        <time>2020-10-18T10:08:42.000Z</time>
      </trkpt>
      <trkpt lat="47.27819" lon="-2.37184">
        <ele>11</ele>
        <time>2020-10-18T10:08:44.000Z</time>
      </trkpt>
      <trkpt lat="47.27815" lon="-2.37167">
        <ele>11</ele>
        <time>2020-10-18T10:08:46.000Z</time>
      </trkpt>
      <trkpt lat="47.2781" lon="-2.3715">
        <ele>11</ele>
        <time>2020-10-18T10:08:48.000Z</time>
      </trkpt>
      <trkpt lat="47.27805" lon="-2.37134">
        <ele>11</ele>
        <time>2020-10-18T10:08:50.000Z</time>
      </trkpt>
      <trkpt lat="47.27786" lon="-2.37064">
        <ele>11</ele>
        <time>2020-10-18T10:08:58.000Z</time>
      </trkpt>
      <trkpt lat="47.27767" lon="-2.36994">
        <ele>11</ele>
        <time>2020-10-18T10:09:06.000Z</time>
      </trkpt>
      <trkpt lat="47.27747" lon="-2.36927">
        <ele>11</ele>
        <time>2020-10-18T10:09:14.000Z</time>
      </trkpt>
      <trkpt lat="47.27725" lon="-2.36852">
        <ele>11</ele>
        <time>2020-10-18T10:09:23.000Z</time>
      </trkpt>
      <trkpt lat="47.27703" lon="-2.36776">
        <ele>11</ele>
        <time>2020-10-18T10:09:32.000Z</time>
      </trkpt>
      <trkpt lat="47.277" lon="-2.36768">
        <ele>11</ele>
        <time>2020-10-18T10:09:33.000Z</time>
      </trkpt>
      <trkpt lat="47.27674" lon="-2.36695">
        <ele>11</ele>
        <time>2020-10-18T10:09:42.000Z</time>
      </trkpt>
      <trkpt lat="47.27672" lon="-2.36687">
        <ele>11</ele>
        <time>2020-10-18T10:09:43.000Z</time>
      </trkpt>
      <trkpt lat="47.27646" lon="-2.36617">
        <ele>11</ele>
        <time>2020-10-18T10:09:52.000Z</time>
      </trkpt>
      <trkpt lat="47.27644" lon="-2.36609">
        <ele>11</ele>
        <time>2020-10-18T10:09:53.000Z</time>
      </trkpt>
      <trkpt lat="47.27619" lon="-2.36536">
        <ele>11</ele>
        <time>2020-10-18T10:10:02.000Z</time>
      </trkpt>
      <trkpt lat="47.27595" lon="-2.36472">
        <ele>11</ele>
        <time>2020-10-18T10:10:10.000Z</time>
      </trkpt>
      <trkpt lat="47.2757" lon="-2.36408">
        <ele>11</ele>
        <time>2020-10-18T10:10:18.000Z</time>
      </trkpt>
      <trkpt lat="47.27552" lon="-2.3636">
        <ele>11</ele>
        <time>2020-10-18T10:10:24.000Z</time>
      </trkpt>
      <trkpt lat="47.27531" lon="-2.36304">
        <ele>11</ele>
        <time>2020-10-18T10:10:31.000Z</time>
      </trkpt>
      <trkpt lat="47.27507" lon="-2.36241">
        <ele>11</ele>
        <time>2020-10-18T10:10:39.000Z</time>
      </trkpt>
      <trkpt lat="47.2748" lon="-2.3617">
        <ele>11</ele>
        <time>2020-10-18T10:10:48.000Z</time>
      </trkpt>
      <trkpt lat="47.27469" lon="-2.36139">
        <ele>11</ele>
        <time>2020-10-18T10:10:52.000Z</time>
      </trkpt>
      <trkpt lat="47.27459" lon="-2.36108">
        <ele>11</ele>
        <time>2020-10-18T10:10:56.000Z</time>
      </trkpt>
      <trkpt lat="47.27448" lon="-2.36087">
        <ele>11</ele>
        <time>2020-10-18T10:10:59.000Z</time>
      </trkpt>
      <trkpt lat="47.27446" lon="-2.36079">
        <ele>11</ele>
        <time>2020-10-18T10:11:00.000Z</time>
      </trkpt>
      <trkpt lat="47.27438" lon="-2.36055">
        <ele>11</ele>
        <time>2020-10-18T10:11:03.000Z</time>
      </trkpt>
      <trkpt lat="47.27428" lon="-2.36031">
        <ele>11</ele>
        <time>2020-10-18T10:11:06.000Z</time>
      </trkpt>
      <trkpt lat="47.27397" lon="-2.35958">
        <ele>11</ele>
        <time>2020-10-18T10:11:15.000Z</time>
      </trkpt>
      <trkpt lat="47.2737" lon="-2.35891">
        <ele>11</ele>
        <time>2020-10-18T10:11:23.000Z</time>
      </trkpt>
      <trkpt lat="47.27347" lon="-2.35836">
        <ele>11</ele>
        <time>2020-10-18T10:11:30.000Z</time>
      </trkpt>
      <trkpt lat="47.27328" lon="-2.35788">
        <ele>11</ele>
        <time>2020-10-18T10:11:36.000Z</time>
      </trkpt>
      <trkpt lat="47.27323" lon="-2.35771">
        <ele>11</ele>
        <time>2020-10-18T10:11:38.000Z</time>
      </trkpt>
      <trkpt lat="47.27321" lon="-2.35763">
        <ele>11</ele>
        <time>2020-10-18T10:11:39.000Z</time>
      </trkpt>
      <trkpt lat="47.27309" lon="-2.35742">
        <ele>11</ele>
        <time>2020-10-18T10:11:42.000Z</time>
      </trkpt>
      <trkpt lat="47.27306" lon="-2.35734">
        <ele>11</ele>
        <time>2020-10-18T10:11:43.000Z</time>
      </trkpt>
      <trkpt lat="47.27301" lon="-2.35717">
        <ele>11</ele>
        <time>2020-10-18T10:11:45.000Z</time>
      </trkpt>
      <trkpt lat="47.27299" lon="-2.35709">
        <ele>11</ele>
        <time>2020-10-18T10:11:46.000Z</time>
      </trkpt>
      <trkpt lat="47.27284" lon="-2.35679">
        <ele>11</ele>
        <time>2020-10-18T10:11:50.000Z</time>
      </trkpt>
      <trkpt lat="47.27277" lon="-2.35665">
        <ele>11</ele>
        <time>2020-10-18T10:11:52.000Z</time>
      </trkpt>
      <trkpt lat="47.27269" lon="-2.35642">
        <ele>11</ele>
        <time>2020-10-18T10:11:55.000Z</time>
      </trkpt>
      <trkpt lat="47.27266" lon="-2.35634">
        <ele>11</ele>
        <time>2020-10-18T10:11:56.000Z</time>
      </trkpt>
      <trkpt lat="47.27251" lon="-2.35606">
        <ele>11</ele>
        <time>2020-10-18T10:12:00.000Z</time>
      </trkpt>
      <trkpt lat="47.27229" lon="-2.35557">
        <ele>11</ele>
        <time>2020-10-18T10:12:06.000Z</time>
      </trkpt>
      <trkpt lat="47.27197" lon="-2.3549">
        <ele>11</ele>
        <time>2020-10-18T10:12:14.000Z</time>
      </trkpt>
      <trkpt lat="47.27163" lon="-2.35424">
        <ele>11</ele>
        <time>2020-10-18T10:12:22.000Z</time>
      </trkpt>
      <trkpt lat="47.27126" lon="-2.35357">
        <ele>11</ele>
        <time>2020-10-18T10:12:30.000Z</time>
      </trkpt>
      <trkpt lat="47.27085" lon="-2.35291">
        <ele>11</ele>
        <time>2020-10-18T10:12:38.000Z</time>
      </trkpt>
      <trkpt lat="47.27044" lon="-2.35226">
        <ele>11</ele>
        <time>2020-10-18T10:12:46.000Z</time>
      </trkpt>
      <trkpt lat="47.27002" lon="-2.3516">
        <ele>11</ele>
        <time>2020-10-18T10:12:54.000Z</time>
      </trkpt>
      <trkpt lat="47.26959" lon="-2.35097">
        <ele>11</ele>
        <time>2020-10-18T10:13:02.000Z</time>
      </trkpt>
      <trkpt lat="47.26923" lon="-2.35044">
        <ele>11</ele>
        <time>2020-10-18T10:13:09.000Z</time>
      </trkpt>
      <trkpt lat="47.26888" lon="-2.34991">
        <ele>11</ele>
        <time>2020-10-18T10:13:16.000Z</time>
      </trkpt>
      <trkpt lat="47.26848" lon="-2.34931">
        <ele>11</ele>
        <time>2020-10-18T10:13:24.000Z</time>
      </trkpt>
      <trkpt lat="47.26815" lon="-2.34881">
        <ele>11</ele>
        <time>2020-10-18T10:13:31.000Z</time>
      </trkpt>
      <trkpt lat="47.2678" lon="-2.34831">
        <ele>11</ele>
        <time>2020-10-18T10:13:39.000Z</time>
      </trkpt>
      <trkpt lat="47.26752" lon="-2.34794">
        <ele>11</ele>
        <time>2020-10-18T10:13:45.000Z</time>
      </trkpt>
      <trkpt lat="47.26721" lon="-2.34755">
        <ele>11</ele>
        <time>2020-10-18T10:13:51.000Z</time>
      </trkpt>
      <trkpt lat="47.26676" lon="-2.34701">
        <ele>11</ele>
        <time>2020-10-18T10:14:00.000Z</time>
      </trkpt>
      <trkpt lat="47.26636" lon="-2.34651">
        <ele>11</ele>
        <time>2020-10-18T10:14:08.000Z</time>
      </trkpt>
      <trkpt lat="47.26598" lon="-2.34603">
        <ele>11</ele>
        <time>2020-10-18T10:14:16.000Z</time>
      </trkpt>
      <trkpt lat="47.26569" lon="-2.34571">
        <ele>11</ele>
        <time>2020-10-18T10:14:22.000Z</time>
      </trkpt>
      <trkpt lat="47.26528" lon="-2.34528">
        <ele>11</ele>
        <time>2020-10-18T10:14:30.000Z</time>
      </trkpt>
      <trkpt lat="47.26517" lon="-2.3452">
        <ele>11</ele>
        <time>2020-10-18T10:14:32.000Z</time>
      </trkpt>
      <trkpt lat="47.26499" lon="-2.34508">
        <ele>11</ele>
        <time>2020-10-18T10:14:35.000Z</time>
      </trkpt>
      <trkpt lat="47.26458" lon="-2.34479">
        <ele>11</ele>
        <time>2020-10-18T10:14:41.000Z</time>
      </trkpt>
      <trkpt lat="47.26404" lon="-2.34438">
        <ele>11</ele>
        <time>2020-10-18T10:14:49.000Z</time>
      </trkpt>
      <trkpt lat="47.26363" lon="-2.34405">
        <ele>11</ele>
        <time>2020-10-18T10:14:56.000Z</time>
      </trkpt>
      <trkpt lat="47.26344" lon="-2.34387">
        <ele>11</ele>
        <time>2020-10-18T10:15:00.000Z</time>
      </trkpt>
      <trkpt lat="47.26332" lon="-2.34382">
        <ele>11</ele>
        <time>2020-10-18T10:15:02.000Z</time>
      </trkpt>
      <trkpt lat="47.26317" lon="-2.34368">
        <ele>11</ele>
        <time>2020-10-18T10:15:05.000Z</time>
      </trkpt>
      <trkpt lat="47.26313" lon="-2.34361">
        <ele>11</ele>
        <time>2020-10-18T10:15:06.000Z</time>
      </trkpt>
      <trkpt lat="47.26308" lon="-2.34354">
        <ele>11</ele>
        <time>2020-10-18T10:15:07.000Z</time>
      </trkpt>
      <trkpt lat="47.26297" lon="-2.34342">
        <ele>11</ele>
        <time>2020-10-18T10:15:09.000Z</time>
      </trkpt>
      <trkpt lat="47.2626" lon="-2.34303">
        <ele>11</ele>
        <time>2020-10-18T10:15:16.000Z</time>
      </trkpt>
      <trkpt lat="47.26227" lon="-2.34269">
        <ele>11</ele>
        <time>2020-10-18T10:15:22.000Z</time>
      </trkpt>
      <trkpt lat="47.26183" lon="-2.34222">
        <ele>11</ele>
        <time>2020-10-18T10:15:30.000Z</time>
      </trkpt>
      <trkpt lat="47.26172" lon="-2.34211">
        <ele>11</ele>
        <time>2020-10-18T10:15:32.000Z</time>
      </trkpt>
      <trkpt lat="47.26148" lon="-2.34189">
        <ele>11</ele>
        <time>2020-10-18T10:15:37.000Z</time>
      </trkpt>
      <trkpt lat="47.26143" lon="-2.34186">
        <ele>11</ele>
        <time>2020-10-18T10:15:38.000Z</time>
      </trkpt>
      <trkpt lat="47.26133" lon="-2.34181">
        <ele>10.60000038147</ele>
        <time>2020-10-18T10:15:40.000Z</time>
      </trkpt>
      <trkpt lat="47.26128" lon="-2.34176">
        <ele>10.199999809265</ele>
        <time>2020-10-18T10:15:41.000Z</time>
      </trkpt>
      <trkpt lat="47.26123" lon="-2.34171">
        <ele>9.8000001907349</ele>
        <time>2020-10-18T10:15:42.000Z</time>
      </trkpt>
      <trkpt lat="47.26118" lon="-2.34166">
        <ele>9.3999996185303</ele>
        <time>2020-10-18T10:15:43.000Z</time>
      </trkpt>
      <trkpt lat="47.26112" lon="-2.34162">
        <ele>9</ele>
        <time>2020-10-18T10:15:44.000Z</time>
      </trkpt>
      <trkpt lat="47.26101" lon="-2.34155">
        <ele>9</ele>
        <time>2020-10-18T10:15:46.000Z</time>
      </trkpt>
      <trkpt lat="47.26096" lon="-2.34153">
        <ele>9</ele>
        <time>2020-10-18T10:15:47.000Z</time>
      </trkpt>
      <trkpt lat="47.26061" lon="-2.34136">
        <ele>9</ele>
        <time>2020-10-18T10:15:53.000Z</time>
      </trkpt>
      <trkpt lat="47.26009" lon="-2.3411">
        <ele>9</ele>
        <time>2020-10-18T10:16:02.000Z</time>
      </trkpt>
      <trkpt lat="47.26003" lon="-2.34107">
        <ele>9</ele>
        <time>2020-10-18T10:16:03.000Z</time>
      </trkpt>
      <trkpt lat="47.25956" lon="-2.34086">
        <ele>9</ele>
        <time>2020-10-18T10:16:11.000Z</time>
      </trkpt>
      <trkpt lat="47.25924" lon="-2.34076">
        <ele>9</ele>
        <time>2020-10-18T10:16:17.000Z</time>
      </trkpt>
      <trkpt lat="47.25904" lon="-2.3409">
        <ele>9</ele>
        <time>2020-10-18T10:16:21.000Z</time>
      </trkpt>
      <trkpt lat="47.259" lon="-2.34096">
        <ele>9</ele>
        <time>2020-10-18T10:16:22.000Z</time>
      </trkpt>
      <trkpt lat="47.25892" lon="-2.34111">
        <ele>9</ele>
        <time>2020-10-18T10:16:24.000Z</time>
      </trkpt>
      <trkpt lat="47.25886" lon="-2.34127">
        <ele>9</ele>
        <time>2020-10-18T10:16:26.000Z</time>
      </trkpt>
      <trkpt lat="47.25877" lon="-2.34158">
        <ele>9</ele>
        <time>2020-10-18T10:16:30.000Z</time>
      </trkpt>
      <trkpt lat="47.25874" lon="-2.34163">
        <ele>8.6000003814697</ele>
        <time>2020-10-18T10:16:31.000Z</time>
      </trkpt>
      <trkpt lat="47.2587" lon="-2.34165">
        <ele>8.1999998092651</ele>
        <time>2020-10-18T10:16:32.000Z</time>
      </trkpt>
      <trkpt lat="47.25866" lon="-2.34164">
        <ele>7.8000001907349</ele>
        <time>2020-10-18T10:16:33.000Z</time>
      </trkpt>
      <trkpt lat="47.25862" lon="-2.34163">
        <ele>7.1999998092651</ele>
        <time>2020-10-18T10:16:34.000Z</time>
      </trkpt>
      <trkpt lat="47.25858" lon="-2.34161">
        <ele>6.8000001907349</ele>
        <time>2020-10-18T10:16:35.000Z</time>
      </trkpt>
      <trkpt lat="47.25854" lon="-2.3416">
        <ele>6.8000001907349</ele>
        <time>2020-10-18T10:16:36.000Z</time>
      </trkpt>
      <trkpt lat="47.25838" lon="-2.34156">
        <ele>6.8000001907349</ele>
        <time>2020-10-18T10:16:40.000Z</time>
      </trkpt>
      <trkpt lat="47.25836" lon="-2.34158">
        <ele>6.8000001907349</ele>
        <time>2020-10-18T10:16:41.000Z</time>
      </trkpt>
      <trkpt lat="47.25825" lon="-2.34171">
        <ele>7.1999998092651</ele>
        <time>2020-10-18T10:16:45.000Z</time>
      </trkpt>
      <trkpt lat="47.2582" lon="-2.34172">
        <ele>7.8000001907349</ele>
        <time>2020-10-18T10:16:46.000Z</time>
      </trkpt>
      <trkpt lat="47.25815" lon="-2.34172">
        <ele>8.1999998092651</ele>
        <time>2020-10-18T10:16:47.000Z</time>
      </trkpt>
      <trkpt lat="47.2581" lon="-2.34171">
        <ele>8.6000003814697</ele>
        <time>2020-10-18T10:16:48.000Z</time>
      </trkpt>
      <trkpt lat="47.25805" lon="-2.34171">
        <ele>9</ele>
        <time>2020-10-18T10:16:49.000Z</time>
      </trkpt>
      <trkpt lat="47.258" lon="-2.34171">
        <ele>9</ele>
        <time>2020-10-18T10:16:50.000Z</time>
      </trkpt>
      <trkpt lat="47.25784" lon="-2.3417">
        <ele>9</ele>
        <time>2020-10-18T10:16:53.000Z</time>
      </trkpt>
      <trkpt lat="47.25771" lon="-2.34174">
        <ele>9</ele>
        <time>2020-10-18T10:16:55.000Z</time>
      </trkpt>
      <trkpt lat="47.25732" lon="-2.34183">
        <ele>9</ele>
        <time>2020-10-18T10:17:02.000Z</time>
      </trkpt>
      <trkpt lat="47.25701" lon="-2.34188">
        <ele>9</ele>
        <time>2020-10-18T10:17:08.000Z</time>
      </trkpt>
      <trkpt lat="47.25676" lon="-2.34192">
        <ele>9</ele>
        <time>2020-10-18T10:17:13.000Z</time>
      </trkpt>
      <trkpt lat="47.25672" lon="-2.34189">
        <ele>9</ele>
        <time>2020-10-18T10:17:14.000Z</time>
      </trkpt>
      <trkpt lat="47.25657" lon="-2.34168">
        <ele>9</ele>
        <time>2020-10-18T10:17:18.000Z</time>
      </trkpt>
      <trkpt lat="47.25654" lon="-2.34162">
        <ele>9</ele>
        <time>2020-10-18T10:17:19.000Z</time>
      </trkpt>
      <trkpt lat="47.25643" lon="-2.34137">
        <ele>9</ele>
        <time>2020-10-18T10:17:23.000Z</time>
      </trkpt>
      <trkpt lat="47.25642" lon="-2.34129">
        <ele>9</ele>
        <time>2020-10-18T10:17:24.000Z</time>
      </trkpt>
      <trkpt lat="47.25637" lon="-2.34092">
        <ele>9.3999996185303</ele>
        <time>2020-10-18T10:17:29.000Z</time>
      </trkpt>
      <trkpt lat="47.25638" lon="-2.34083">
        <ele>10.39999961853</ele>
        <time>2020-10-18T10:17:30.000Z</time>
      </trkpt>
      <trkpt lat="47.25638" lon="-2.34075">
        <ele>10.800000190735</ele>
        <time>2020-10-18T10:17:31.000Z</time>
      </trkpt>
      <trkpt lat="47.2564" lon="-2.34066">
        <ele>11.39999961853</ele>
        <time>2020-10-18T10:17:32.000Z</time>
      </trkpt>
      <trkpt lat="47.25648" lon="-2.34023">
        <ele>11.39999961853</ele>
        <time>2020-10-18T10:17:37.000Z</time>
      </trkpt>
      <trkpt lat="47.25657" lon="-2.33967">
        <ele>11.39999961853</ele>
        <time>2020-10-18T10:17:44.000Z</time>
      </trkpt>
      <trkpt lat="47.25659" lon="-2.33952">
        <ele>11.39999961853</ele>
        <time>2020-10-18T10:17:46.000Z</time>
      </trkpt>
      <trkpt lat="47.25658" lon="-2.33936">
        <ele>11.39999961853</ele>
        <time>2020-10-18T10:17:48.000Z</time>
      </trkpt>
      <trkpt lat="47.25649" lon="-2.33882">
        <ele>11.39999961853</ele>
        <time>2020-10-18T10:17:55.000Z</time>
      </trkpt>
      <trkpt lat="47.25647" lon="-2.33875">
        <ele>11.39999961853</ele>
        <time>2020-10-18T10:17:56.000Z</time>
      </trkpt>
      <trkpt lat="47.25642" lon="-2.33851">
        <ele>11.39999961853</ele>
        <time>2020-10-18T10:18:00.000Z</time>
      </trkpt>
      <trkpt lat="47.25632" lon="-2.33789">
        <ele>11.39999961853</ele>
        <time>2020-10-18T10:18:09.000Z</time>
      </trkpt>
      <trkpt lat="47.2563" lon="-2.33783">
        <ele>11.39999961853</ele>
        <time>2020-10-18T10:18:10.000Z</time>
      </trkpt>
      <trkpt lat="47.25622" lon="-2.33769">
        <ele>11.39999961853</ele>
        <time>2020-10-18T10:18:13.000Z</time>
      </trkpt>
      <trkpt lat="47.25601" lon="-2.3376">
        <ele>11.39999961853</ele>
        <time>2020-10-18T10:18:17.000Z</time>
      </trkpt>
      <trkpt lat="47.25563" lon="-2.33761">
        <ele>11.39999961853</ele>
        <time>2020-10-18T10:18:23.000Z</time>
      </trkpt>
      <trkpt lat="47.25522" lon="-2.33761">
        <ele>11.39999961853</ele>
        <time>2020-10-18T10:18:29.000Z</time>
      </trkpt>
      <trkpt lat="47.25508" lon="-2.3376">
        <ele>11.39999961853</ele>
        <time>2020-10-18T10:18:31.000Z</time>
      </trkpt>
      <trkpt lat="47.25487" lon="-2.33757">
        <ele>11.39999961853</ele>
        <time>2020-10-18T10:18:34.000Z</time>
      </trkpt>
      <trkpt lat="47.25467" lon="-2.3375">
        <ele>11.39999961853</ele>
        <time>2020-10-18T10:18:37.000Z</time>
      </trkpt>
      <trkpt lat="47.25461" lon="-2.33746">
        <ele>11.39999961853</ele>
        <time>2020-10-18T10:18:38.000Z</time>
      </trkpt>
      <trkpt lat="47.25454" lon="-2.33733">
        <ele>11.39999961853</ele>
        <time>2020-10-18T10:18:40.000Z</time>
      </trkpt>
      <trkpt lat="47.2545" lon="-2.33709">
        <ele>11.39999961853</ele>
        <time>2020-10-18T10:18:43.000Z</time>
      </trkpt>
      <trkpt lat="47.25449" lon="-2.337">
        <ele>11.39999961853</ele>
        <time>2020-10-18T10:18:44.000Z</time>
      </trkpt>
      <trkpt lat="47.25445" lon="-2.33659">
        <ele>11.39999961853</ele>
        <time>2020-10-18T10:18:50.000Z</time>
      </trkpt>
      <trkpt lat="47.25445" lon="-2.33656">
        <ele>10.800000190735</ele>
        <time>2020-10-18T10:18:51.000Z</time>
      </trkpt>
      <trkpt lat="47.25444" lon="-2.33655">
        <ele>10.39999961853</ele>
        <time>2020-10-18T10:18:52.000Z</time>
      </trkpt>
      <trkpt lat="47.25444" lon="-2.33654">
        <ele>10</ele>
        <time>2020-10-18T10:18:53.000Z</time>
      </trkpt>
      <trkpt lat="47.25441" lon="-2.33645">
        <ele>9</ele>
        <time>2020-10-18T10:22:26.000Z</time>
      </trkpt>
      <trkpt lat="47.2544" lon="-2.33634">
        <ele>9</ele>
        <time>2020-10-18T10:22:29.000Z</time>
      </trkpt>
      <trkpt lat="47.2544" lon="-2.33609">
        <ele>9</ele>
        <time>2020-10-18T10:22:35.000Z</time>
      </trkpt>
      <trkpt lat="47.25441" lon="-2.33585">
        <ele>9</ele>
        <time>2020-10-18T10:22:41.000Z</time>
      </trkpt>
      <trkpt lat="47.25443" lon="-2.33583">
        <ele>9</ele>
        <time>2020-10-18T10:22:42.000Z</time>
      </trkpt>
      <trkpt lat="47.25448" lon="-2.33582">
        <ele>9</ele>
        <time>2020-10-18T10:22:44.000Z</time>
      </trkpt>
      <trkpt lat="47.25454" lon="-2.33579">
        <ele>9</ele>
        <time>2020-10-18T10:22:46.000Z</time>
      </trkpt>
      <trkpt lat="47.25455" lon="-2.33576">
        <ele>9</ele>
        <time>2020-10-18T10:22:47.000Z</time>
      </trkpt>
      <trkpt lat="47.25456" lon="-2.33572">
        <ele>9</ele>
        <time>2020-10-18T10:22:48.000Z</time>
      </trkpt>
      <trkpt lat="47.25453" lon="-2.33556">
        <ele>9</ele>
        <time>2020-10-18T10:22:52.000Z</time>
      </trkpt>
      <trkpt lat="47.25452" lon="-2.33552">
        <ele>9</ele>
        <time>2020-10-18T10:22:53.000Z</time>
      </trkpt>
      <trkpt lat="47.25451" lon="-2.33536">
        <ele>9</ele>
        <time>2020-10-18T10:22:57.000Z</time>
      </trkpt>
      <trkpt lat="47.25444" lon="-2.33503">
        <ele>9</ele>
        <time>2020-10-18T10:23:04.000Z</time>
      </trkpt>
      <trkpt lat="47.25433" lon="-2.3347">
        <ele>9</ele>
        <time>2020-10-18T10:23:11.000Z</time>
      </trkpt>
      <trkpt lat="47.25432" lon="-2.33465">
        <ele>9</ele>
        <time>2020-10-18T10:23:12.000Z</time>
      </trkpt>
      <trkpt lat="47.25431" lon="-2.33449">
        <ele>9</ele>
        <time>2020-10-18T10:23:15.000Z</time>
      </trkpt>
      <trkpt lat="47.25429" lon="-2.3342">
        <ele>9</ele>
        <time>2020-10-18T10:23:20.000Z</time>
      </trkpt>
      <trkpt lat="47.2543" lon="-2.33362">
        <ele>9</ele>
        <time>2020-10-18T10:23:29.000Z</time>
      </trkpt>
      <trkpt lat="47.2543" lon="-2.33349">
        <ele>9.3999996185303</ele>
        <time>2020-10-18T10:23:31.000Z</time>
      </trkpt>
      <trkpt lat="47.25431" lon="-2.33343">
        <ele>9.8000001907349</ele>
        <time>2020-10-18T10:23:32.000Z</time>
      </trkpt>
      <trkpt lat="47.25432" lon="-2.33337">
        <ele>10.199999809265</ele>
        <time>2020-10-18T10:23:33.000Z</time>
      </trkpt>
      <trkpt lat="47.25434" lon="-2.33332">
        <ele>10.60000038147</ele>
        <time>2020-10-18T10:23:34.000Z</time>
      </trkpt>
      <trkpt lat="47.25436" lon="-2.33327">
        <ele>11</ele>
        <time>2020-10-18T10:23:35.000Z</time>
      </trkpt>
      <trkpt lat="47.2544" lon="-2.33316">
        <ele>11</ele>
        <time>2020-10-18T10:23:37.000Z</time>
      </trkpt>
      <trkpt lat="47.25449" lon="-2.33294">
        <ele>11</ele>
        <time>2020-10-18T10:23:41.000Z</time>
      </trkpt>
      <trkpt lat="47.25446" lon="-2.33276">
        <ele>11</ele>
        <time>2020-10-18T10:23:44.000Z</time>
      </trkpt>
      <trkpt lat="47.25442" lon="-2.33265">
        <ele>11</ele>
        <time>2020-10-18T10:23:46.000Z</time>
      </trkpt>
      <trkpt lat="47.25432" lon="-2.33244">
        <ele>11</ele>
        <time>2020-10-18T10:23:50.000Z</time>
      </trkpt>
      <trkpt lat="47.2541" lon="-2.33193">
        <ele>11</ele>
        <time>2020-10-18T10:23:59.000Z</time>
      </trkpt>
      <trkpt lat="47.25395" lon="-2.33156">
        <ele>11</ele>
        <time>2020-10-18T10:24:06.000Z</time>
      </trkpt>
      <trkpt lat="47.25383" lon="-2.33133">
        <ele>11</ele>
        <time>2020-10-18T10:24:12.000Z</time>
      </trkpt>
      <trkpt lat="47.25368" lon="-2.33088">
        <ele>11</ele>
        <time>2020-10-18T10:24:22.000Z</time>
      </trkpt>
      <trkpt lat="47.25353" lon="-2.33052">
        <ele>11</ele>
        <time>2020-10-18T10:24:29.000Z</time>
      </trkpt>
      <trkpt lat="47.25336" lon="-2.3301">
        <ele>11</ele>
        <time>2020-10-18T10:24:37.000Z</time>
      </trkpt>
      <trkpt lat="47.25314" lon="-2.3296">
        <ele>11</ele>
        <time>2020-10-18T10:24:47.000Z</time>
      </trkpt>
      <trkpt lat="47.25307" lon="-2.32939">
        <ele>11</ele>
        <time>2020-10-18T10:24:51.000Z</time>
      </trkpt>
      <trkpt lat="47.25307" lon="-2.32922">
        <ele>11</ele>
        <time>2020-10-18T10:24:54.000Z</time>
      </trkpt>
      <trkpt lat="47.25316" lon="-2.32911">
        <ele>11</ele>
        <time>2020-10-18T10:24:57.000Z</time>
      </trkpt>
      <trkpt lat="47.2532" lon="-2.32908">
        <ele>11</ele>
        <time>2020-10-18T10:24:58.000Z</time>
      </trkpt>
      <trkpt lat="47.25343" lon="-2.32885">
        <ele>11</ele>
        <time>2020-10-18T10:25:04.000Z</time>
      </trkpt>
      <trkpt lat="47.25368" lon="-2.32861">
        <ele>11</ele>
        <time>2020-10-18T10:25:11.000Z</time>
      </trkpt>
      <trkpt lat="47.25389" lon="-2.32837">
        <ele>11</ele>
        <time>2020-10-18T10:25:17.000Z</time>
      </trkpt>
      <trkpt lat="47.25405" lon="-2.32816">
        <ele>11</ele>
        <time>2020-10-18T10:25:22.000Z</time>
      </trkpt>
      <trkpt lat="47.25411" lon="-2.32808">
        <ele>11</ele>
        <time>2020-10-18T10:25:24.000Z</time>
      </trkpt>
      <trkpt lat="47.25417" lon="-2.32799">
        <ele>11.60000038147</ele>
        <time>2020-10-18T10:25:26.000Z</time>
      </trkpt>
      <trkpt lat="47.2542" lon="-2.32795">
        <ele>12</ele>
        <time>2020-10-18T10:25:27.000Z</time>
      </trkpt>
      <trkpt lat="47.25422" lon="-2.32791">
        <ele>12.39999961853</ele>
        <time>2020-10-18T10:25:28.000Z</time>
      </trkpt>
      <trkpt lat="47.25424" lon="-2.32786">
        <ele>12.800000190735</ele>
        <time>2020-10-18T10:25:29.000Z</time>
      </trkpt>
      <trkpt lat="47.25426" lon="-2.32781">
        <ele>13.199999809265</ele>
        <time>2020-10-18T10:25:30.000Z</time>
      </trkpt>
      <trkpt lat="47.25428" lon="-2.32776">
        <ele>13.199999809265</ele>
        <time>2020-10-18T10:25:31.000Z</time>
      </trkpt>
      <trkpt lat="47.25439" lon="-2.32759">
        <ele>13.199999809265</ele>
        <time>2020-10-18T10:25:35.000Z</time>
      </trkpt>
      <trkpt lat="47.25459" lon="-2.32731">
        <ele>13.199999809265</ele>
        <time>2020-10-18T10:25:41.000Z</time>
      </trkpt>
      <trkpt lat="47.25469" lon="-2.32717">
        <ele>13.199999809265</ele>
        <time>2020-10-18T10:25:44.000Z</time>
      </trkpt>
      <trkpt lat="47.25482" lon="-2.32699">
        <ele>13.199999809265</ele>
        <time>2020-10-18T10:25:48.000Z</time>
      </trkpt>
      <trkpt lat="47.25485" lon="-2.32693">
        <ele>13.199999809265</ele>
        <time>2020-10-18T10:25:49.000Z</time>
      </trkpt>
      <trkpt lat="47.25488" lon="-2.32673">
        <ele>13.199999809265</ele>
        <time>2020-10-18T10:25:52.000Z</time>
      </trkpt>
      <trkpt lat="47.25488" lon="-2.32666">
        <ele>13.199999809265</ele>
        <time>2020-10-18T10:25:53.000Z</time>
      </trkpt>
      <trkpt lat="47.25488" lon="-2.3266">
        <ele>13.60000038147</ele>
        <time>2020-10-18T10:25:54.000Z</time>
      </trkpt>
      <trkpt lat="47.25488" lon="-2.32653">
        <ele>14</ele>
        <time>2020-10-18T10:25:55.000Z</time>
      </trkpt>
      <trkpt lat="47.25488" lon="-2.32647">
        <ele>14.39999961853</ele>
        <time>2020-10-18T10:25:56.000Z</time>
      </trkpt>
      <trkpt lat="47.25486" lon="-2.32641">
        <ele>14.800000190735</ele>
        <time>2020-10-18T10:25:57.000Z</time>
      </trkpt>
      <trkpt lat="47.25484" lon="-2.32635">
        <ele>15.199999809265</ele>
        <time>2020-10-18T10:25:58.000Z</time>
      </trkpt>
      <trkpt lat="47.25477" lon="-2.32591">
        <ele>15.199999809265</ele>
        <time>2020-10-18T10:26:05.000Z</time>
      </trkpt>
      <trkpt lat="47.25474" lon="-2.32569">
        <ele>15.199999809265</ele>
        <time>2020-10-18T10:26:09.000Z</time>
      </trkpt>
      <trkpt lat="47.25476" lon="-2.32564">
        <ele>15.199999809265</ele>
        <time>2020-10-18T10:26:10.000Z</time>
      </trkpt>
      <trkpt lat="47.25486" lon="-2.32553">
        <ele>15.199999809265</ele>
        <time>2020-10-18T10:26:13.000Z</time>
      </trkpt>
      <trkpt lat="47.2549" lon="-2.32549">
        <ele>15.199999809265</ele>
        <time>2020-10-18T10:26:14.000Z</time>
      </trkpt>
      <trkpt lat="47.25521" lon="-2.3252">
        <ele>15.199999809265</ele>
        <time>2020-10-18T10:26:21.000Z</time>
      </trkpt>
      <trkpt lat="47.25557" lon="-2.32487">
        <ele>14.800000190735</ele>
        <time>2020-10-18T10:26:28.000Z</time>
      </trkpt>
      <trkpt lat="47.25562" lon="-2.32482">
        <ele>14.39999961853</ele>
        <time>2020-10-18T10:26:29.000Z</time>
      </trkpt>
      <trkpt lat="47.25568" lon="-2.32477">
        <ele>14</ele>
        <time>2020-10-18T10:26:30.000Z</time>
      </trkpt>
      <trkpt lat="47.25573" lon="-2.32472">
        <ele>13.60000038147</ele>
        <time>2020-10-18T10:26:31.000Z</time>
      </trkpt>
      <trkpt lat="47.25578" lon="-2.32466">
        <ele>13.199999809265</ele>
        <time>2020-10-18T10:26:32.000Z</time>
      </trkpt>
      <trkpt lat="47.25594" lon="-2.32449">
        <ele>12.800000190735</ele>
        <time>2020-10-18T10:26:35.000Z</time>
      </trkpt>
      <trkpt lat="47.256" lon="-2.32443">
        <ele>12.39999961853</ele>
        <time>2020-10-18T10:26:36.000Z</time>
      </trkpt>
      <trkpt lat="47.25605" lon="-2.32437">
        <ele>12</ele>
        <time>2020-10-18T10:26:37.000Z</time>
      </trkpt>
      <trkpt lat="47.2561" lon="-2.32431">
        <ele>11.60000038147</ele>
        <time>2020-10-18T10:26:38.000Z</time>
      </trkpt>
      <trkpt lat="47.25616" lon="-2.32425">
        <ele>11.199999809265</ele>
        <time>2020-10-18T10:26:39.000Z</time>
      </trkpt>
      <trkpt lat="47.25638" lon="-2.32402">
        <ele>11.199999809265</ele>
        <time>2020-10-18T10:26:43.000Z</time>
      </trkpt>
      <trkpt lat="47.25643" lon="-2.32399">
        <ele>11.199999809265</ele>
        <time>2020-10-18T10:26:44.000Z</time>
      </trkpt>
      <trkpt lat="47.25654" lon="-2.32397">
        <ele>10.60000038147</ele>
        <time>2020-10-18T10:26:46.000Z</time>
      </trkpt>
      <trkpt lat="47.25658" lon="-2.32397">
        <ele>10.199999809265</ele>
        <time>2020-10-18T10:26:47.000Z</time>
      </trkpt>
      <trkpt lat="47.25663" lon="-2.32399">
        <ele>9.8000001907349</ele>
        <time>2020-10-18T10:26:48.000Z</time>
      </trkpt>
      <trkpt lat="47.25669" lon="-2.32406">
        <ele>9.3999996185303</ele>
        <time>2020-10-18T10:26:49.000Z</time>
      </trkpt>
      <trkpt lat="47.25675" lon="-2.32411">
        <ele>9</ele>
        <time>2020-10-18T10:26:50.000Z</time>
      </trkpt>
      <trkpt lat="47.25681" lon="-2.32414">
        <ele>9</ele>
        <time>2020-10-18T10:26:51.000Z</time>
      </trkpt>
      <trkpt lat="47.25694" lon="-2.32417">
        <ele>9</ele>
        <time>2020-10-18T10:26:53.000Z</time>
      </trkpt>
      <trkpt lat="47.25708" lon="-2.3242">
        <ele>9</ele>
        <time>2020-10-18T10:26:55.000Z</time>
      </trkpt>
      <trkpt lat="47.25751" lon="-2.32421">
        <ele>9</ele>
        <time>2020-10-18T10:27:02.000Z</time>
      </trkpt>
      <trkpt lat="47.25762" lon="-2.32418">
        <ele>9</ele>
        <time>2020-10-18T10:27:04.000Z</time>
      </trkpt>
      <trkpt lat="47.25771" lon="-2.32413">
        <ele>9</ele>
        <time>2020-10-18T10:27:06.000Z</time>
      </trkpt>
      <trkpt lat="47.25776" lon="-2.32412">
        <ele>9</ele>
        <time>2020-10-18T10:27:07.000Z</time>
      </trkpt>
      <trkpt lat="47.25784" lon="-2.32419">
        <ele>9</ele>
        <time>2020-10-18T10:27:09.000Z</time>
      </trkpt>
      <trkpt lat="47.25794" lon="-2.32438">
        <ele>9</ele>
        <time>2020-10-18T10:27:12.000Z</time>
      </trkpt>
      <trkpt lat="47.25798" lon="-2.32444">
        <ele>9</ele>
        <time>2020-10-18T10:27:13.000Z</time>
      </trkpt>
      <trkpt lat="47.25807" lon="-2.32453">
        <ele>9</ele>
        <time>2020-10-18T10:27:15.000Z</time>
      </trkpt>
      <trkpt lat="47.25848" lon="-2.32474">
        <ele>9</ele>
        <time>2020-10-18T10:27:22.000Z</time>
      </trkpt>
      <trkpt lat="47.25871" lon="-2.32473">
        <ele>9</ele>
        <time>2020-10-18T10:27:26.000Z</time>
      </trkpt>
      <trkpt lat="47.25877" lon="-2.32471">
        <ele>9</ele>
        <time>2020-10-18T10:27:27.000Z</time>
      </trkpt>
      <trkpt lat="47.25888" lon="-2.32468">
        <ele>9</ele>
        <time>2020-10-18T10:27:29.000Z</time>
      </trkpt>
      <trkpt lat="47.25903" lon="-2.32454">
        <ele>9</ele>
        <time>2020-10-18T10:27:32.000Z</time>
      </trkpt>
      <trkpt lat="47.25908" lon="-2.32448">
        <ele>9</ele>
        <time>2020-10-18T10:27:33.000Z</time>
      </trkpt>
      <trkpt lat="47.2593" lon="-2.32419">
        <ele>8.3999996185303</ele>
        <time>2020-10-18T10:27:38.000Z</time>
      </trkpt>
      <trkpt lat="47.25934" lon="-2.32413">
        <ele>8</ele>
        <time>2020-10-18T10:27:39.000Z</time>
      </trkpt>
      <trkpt lat="47.25938" lon="-2.32407">
        <ele>7.5999999046326</ele>
        <time>2020-10-18T10:27:40.000Z</time>
      </trkpt>
      <trkpt lat="47.25943" lon="-2.32401">
        <ele>7.1999998092651</ele>
        <time>2020-10-18T10:27:41.000Z</time>
      </trkpt>
      <trkpt lat="47.25947" lon="-2.32396">
        <ele>6.8000001907349</ele>
        <time>2020-10-18T10:27:42.000Z</time>
      </trkpt>
      <trkpt lat="47.25968" lon="-2.32367">
        <ele>6.8000001907349</ele>
        <time>2020-10-18T10:27:47.000Z</time>
      </trkpt>
      <trkpt lat="47.26007" lon="-2.32316">
        <ele>6.8000001907349</ele>
        <time>2020-10-18T10:27:54.000Z</time>
      </trkpt>
      <trkpt lat="47.26037" lon="-2.3228">
        <ele>6.8000001907349</ele>
        <time>2020-10-18T10:28:03.000Z</time>
      </trkpt>
      <trkpt lat="47.26069" lon="-2.32241">
        <ele>6.8000001907349</ele>
        <time>2020-10-18T10:28:11.000Z</time>
      </trkpt>
      <trkpt lat="47.26098" lon="-2.32197">
        <ele>6.8000001907349</ele>
        <time>2020-10-18T10:28:19.000Z</time>
      </trkpt>
      <trkpt lat="47.26117" lon="-2.32152">
        <ele>6.8000001907349</ele>
        <time>2020-10-18T10:28:26.000Z</time>
      </trkpt>
      <trkpt lat="47.26133" lon="-2.32106">
        <ele>6.8000001907349</ele>
        <time>2020-10-18T10:28:33.000Z</time>
      </trkpt>
      <trkpt lat="47.26152" lon="-2.32049">
        <ele>6.8000001907349</ele>
        <time>2020-10-18T10:28:42.000Z</time>
      </trkpt>
      <trkpt lat="47.26167" lon="-2.32021">
        <ele>6.8000001907349</ele>
        <time>2020-10-18T10:28:48.000Z</time>
      </trkpt>
      <trkpt lat="47.26172" lon="-2.32019">
        <ele>6.8000001907349</ele>
        <time>2020-10-18T10:28:50.000Z</time>
      </trkpt>
      <trkpt lat="47.26178" lon="-2.3202">
        <ele>6.8000001907349</ele>
        <time>2020-10-18T10:28:52.000Z</time>
      </trkpt>
      <trkpt lat="47.26189" lon="-2.32024">
        <ele>6.8000001907349</ele>
        <time>2020-10-18T10:28:57.000Z</time>
      </trkpt>
      <trkpt lat="47.26194" lon="-2.32021">
        <ele>6.8000001907349</ele>
        <time>2020-10-18T10:28:59.000Z</time>
      </trkpt>
      <trkpt lat="47.26194" lon="-2.32018">
        <ele>6.8000001907349</ele>
        <time>2020-10-18T10:29:00.000Z</time>
      </trkpt>
      <trkpt lat="47.26199" lon="-2.32006">
        <ele>6.8000001907349</ele>
        <time>2020-10-18T10:29:04.000Z</time>
      </trkpt>
      <trkpt lat="47.26203" lon="-2.32001">
        <ele>6.8000001907349</ele>
        <time>2020-10-18T10:29:06.000Z</time>
      </trkpt>
      <trkpt lat="47.26219" lon="-2.31983">
        <ele>6.8000001907349</ele>
        <time>2020-10-18T10:29:13.000Z</time>
      </trkpt>
      <trkpt lat="47.26235" lon="-2.31962">
        <ele>6.8000001907349</ele>
        <time>2020-10-18T10:29:19.000Z</time>
      </trkpt>
      <trkpt lat="47.26249" lon="-2.31941">
        <ele>6.8000001907349</ele>
        <time>2020-10-18T10:29:24.000Z</time>
      </trkpt>
      <trkpt lat="47.26261" lon="-2.31925">
        <ele>6.8000001907349</ele>
        <time>2020-10-18T10:29:29.000Z</time>
      </trkpt>
      <trkpt lat="47.26289" lon="-2.31892">
        <ele>6.8000001907349</ele>
        <time>2020-10-18T10:29:37.000Z</time>
      </trkpt>
      <trkpt lat="47.26295" lon="-2.3187">
        <ele>6.8000001907349</ele>
        <time>2020-10-18T10:29:41.000Z</time>
      </trkpt>
      <trkpt lat="47.26301" lon="-2.31827">
        <ele>6.8000001907349</ele>
        <time>2020-10-18T10:29:48.000Z</time>
      </trkpt>
      <trkpt lat="47.26303" lon="-2.31786">
        <ele>6.8000001907349</ele>
        <time>2020-10-18T10:29:55.000Z</time>
      </trkpt>
      <trkpt lat="47.26301" lon="-2.3175">
        <ele>6.8000001907349</ele>
        <time>2020-10-18T10:30:01.000Z</time>
      </trkpt>
      <trkpt lat="47.26303" lon="-2.31721">
        <ele>6.8000001907349</ele>
        <time>2020-10-18T10:30:06.000Z</time>
      </trkpt>
      <trkpt lat="47.26306" lon="-2.31717">
        <ele>6.8000001907349</ele>
        <time>2020-10-18T10:30:07.000Z</time>
      </trkpt>
      <trkpt lat="47.2632" lon="-2.31711">
        <ele>6.8000001907349</ele>
        <time>2020-10-18T10:30:11.000Z</time>
      </trkpt>
      <trkpt lat="47.26323" lon="-2.31709">
        <ele>7.1999998092651</ele>
        <time>2020-10-18T10:30:12.000Z</time>
      </trkpt>
      <trkpt lat="47.26327" lon="-2.31707">
        <ele>7.5999999046326</ele>
        <time>2020-10-18T10:30:13.000Z</time>
      </trkpt>
      <trkpt lat="47.2633" lon="-2.31704">
        <ele>8</ele>
        <time>2020-10-18T10:30:14.000Z</time>
      </trkpt>
      <trkpt lat="47.26332" lon="-2.31699">
        <ele>8.8000001907349</ele>
        <time>2020-10-18T10:30:15.000Z</time>
      </trkpt>
      <trkpt lat="47.26333" lon="-2.31695">
        <ele>8.8000001907349</ele>
        <time>2020-10-18T10:30:16.000Z</time>
      </trkpt>
      <trkpt lat="47.26341" lon="-2.31685">
        <ele>8.8000001907349</ele>
        <time>2020-10-18T10:30:20.000Z</time>
      </trkpt>
      <trkpt lat="47.26345" lon="-2.31684">
        <ele>8.8000001907349</ele>
        <time>2020-10-18T10:30:21.000Z</time>
      </trkpt>
      <trkpt lat="47.26355" lon="-2.31678">
        <ele>9.1999998092651</ele>
        <time>2020-10-18T10:30:24.000Z</time>
      </trkpt>
      <trkpt lat="47.26358" lon="-2.31677">
        <ele>9.6000003814697</ele>
        <time>2020-10-18T10:30:25.000Z</time>
      </trkpt>
      <trkpt lat="47.26361" lon="-2.31675">
        <ele>10.199999809265</ele>
        <time>2020-10-18T10:30:26.000Z</time>
      </trkpt>
      <trkpt lat="47.26364" lon="-2.31673">
        <ele>10.60000038147</ele>
        <time>2020-10-18T10:30:27.000Z</time>
      </trkpt>
      <trkpt lat="47.26367" lon="-2.31671">
        <ele>11</ele>
        <time>2020-10-18T10:30:28.000Z</time>
      </trkpt>
      <trkpt lat="47.26381" lon="-2.31663">
        <ele>11</ele>
        <time>2020-10-18T10:30:33.000Z</time>
      </trkpt>
      <trkpt lat="47.264" lon="-2.31656">
        <ele>11</ele>
        <time>2020-10-18T10:30:39.000Z</time>
      </trkpt>
      <trkpt lat="47.2641" lon="-2.31644">
        <ele>11</ele>
        <time>2020-10-18T10:30:43.000Z</time>
      </trkpt>
      <trkpt lat="47.2641" lon="-2.31623">
        <ele>11</ele>
        <time>2020-10-18T10:30:48.000Z</time>
      </trkpt>
      <trkpt lat="47.2641" lon="-2.31618">
        <ele>11</ele>
        <time>2020-10-18T10:30:49.000Z</time>
      </trkpt>
      <trkpt lat="47.2641" lon="-2.31604">
        <ele>11.39999961853</ele>
        <time>2020-10-18T10:30:52.000Z</time>
      </trkpt>
      <trkpt lat="47.2641" lon="-2.316">
        <ele>11.800000190735</ele>
        <time>2020-10-18T10:30:53.000Z</time>
      </trkpt>
      <trkpt lat="47.2641" lon="-2.31596">
        <ele>12.199999809265</ele>
        <time>2020-10-18T10:30:54.000Z</time>
      </trkpt>
      <trkpt lat="47.2641" lon="-2.31591">
        <ele>12.60000038147</ele>
        <time>2020-10-18T10:30:55.000Z</time>
      </trkpt>
      <trkpt lat="47.2641" lon="-2.31586">
        <ele>13.199999809265</ele>
        <time>2020-10-18T10:30:56.000Z</time>
      </trkpt>
      <trkpt lat="47.2641" lon="-2.31561">
        <ele>13.199999809265</ele>
        <time>2020-10-18T10:31:02.000Z</time>
      </trkpt>
      <trkpt lat="47.26412" lon="-2.31555">
        <ele>13.199999809265</ele>
        <time>2020-10-18T10:31:04.000Z</time>
      </trkpt>
      <trkpt lat="47.26415" lon="-2.31554">
        <ele>13.199999809265</ele>
        <time>2020-10-18T10:31:06.000Z</time>
      </trkpt>
      <trkpt lat="47.26417" lon="-2.31555">
        <ele>13.199999809265</ele>
        <time>2020-10-18T10:31:10.000Z</time>
      </trkpt>
    </trkseg>
  </trk>
</gpx>